<?xml version='1.0' encoding='UTF-8'?><gpx version="1.1" creator="JPX - https://github.com/jenetics/jpx" xmlns="http://www.topografix.com/GPX/1/1"><trk><trkseg><trkpt lat="43.3759" lon="11.7879317"><ele>271.99999999999994</ele><time>2026-04-24T15:14:03.078Z</time></trkpt><trkpt lat="43.37596" lon="11.78789"><ele>272.0</ele><time>2026-04-24T15:14:07.075Z</time></trkpt><trkpt lat="43.3759567" lon="11.7877883"><ele>272.0</ele><time>2026-04-24T15:14:58.074Z</time></trkpt><trkpt lat="43.3759083" lon="11.7877317"><ele>272.0</ele><time>2026-04-24T15:15:03.092Z</time></trkpt><trkpt lat="43.3758383" lon="11.7877117"><ele>272.0</ele><time>2026-04-24T15:15:10.075Z</time></trkpt><trkpt lat="43.3757733" lon="11.7877117"><ele>271.99999999999994</ele><time>2026-04-24T15:15:17.075Z</time></trkpt><trkpt lat="43.3757" lon="11.7877017"><ele>272.0</ele><time>2026-04-24T15:15:23.074Z</time></trkpt><trkpt lat="43.375635" lon="11.7876583"><ele>272.1666666666667</ele><time>2026-04-24T15:15:28.072Z</time></trkpt><trkpt lat="43.3755917" lon="11.7875867"><ele>272.33333333333337</ele><time>2026-04-24T15:15:33.078Z</time></trkpt><trkpt lat="43.3754967" lon="11.78755"><ele>272.5</ele><time>2026-04-24T15:15:50.074Z</time></trkpt><trkpt lat="43.3754533" lon="11.7874717"><ele>272.6666666666667</ele><time>2026-04-24T15:15:55.076Z</time></trkpt><trkpt lat="43.3754467" lon="11.7873717"><ele>272.8333333333333</ele><time>2026-04-24T15:16:00.076Z</time></trkpt><trkpt lat="43.3754567" lon="11.7872667"><ele>273.0</ele><time>2026-04-24T15:16:04.072Z</time></trkpt><trkpt lat="43.37546" lon="11.78718"><ele>273.2857142857143</ele><time>2026-04-24T15:16:07.074Z</time></trkpt><trkpt lat="43.3754617" lon="11.787085"><ele>273.57142857142856</ele><time>2026-04-24T15:16:10.073Z</time></trkpt><trkpt lat="43.3754483" lon="11.787"><ele>273.8571428571429</ele><time>2026-04-24T15:16:13.076Z</time></trkpt><trkpt lat="43.37544" lon="11.7868933"><ele>274.1428571428571</ele><time>2026-04-24T15:16:17.077Z</time></trkpt><trkpt lat="43.3754467" lon="11.7867867"><ele>274.42857142857144</ele><time>2026-04-24T15:16:21.075Z</time></trkpt><trkpt lat="43.3754317" lon="11.7866983"><ele>274.7142857142857</ele><time>2026-04-24T15:16:25.074Z</time></trkpt><trkpt lat="43.3754583" lon="11.78661"><ele>275.0</ele><time>2026-04-24T15:16:29.074Z</time></trkpt><trkpt lat="43.3754983" lon="11.786525"><ele>274.6666666666667</ele><time>2026-04-24T15:16:33.075Z</time></trkpt><trkpt lat="43.3755533" lon="11.786475"><ele>274.33333333333337</ele><time>2026-04-24T15:16:36.076Z</time></trkpt><trkpt lat="43.3756183" lon="11.78643"><ele>274.0</ele><time>2026-04-24T15:16:39.074Z</time></trkpt><trkpt lat="43.3756783" lon="11.7863633"><ele>273.6666666666667</ele><time>2026-04-24T15:16:42.073Z</time></trkpt><trkpt lat="43.3757367" lon="11.7862967"><ele>273.3333333333333</ele><time>2026-04-24T15:16:45.076Z</time></trkpt><trkpt lat="43.3757917" lon="11.786235"><ele>273.0</ele><time>2026-04-24T15:16:48.074Z</time></trkpt><trkpt lat="43.375855" lon="11.78615"><ele>273.0</ele><time>2026-04-24T15:16:52.073Z</time></trkpt><trkpt lat="43.3759117" lon="11.7860817"><ele>273.0</ele><time>2026-04-24T15:16:55.075Z</time></trkpt><trkpt lat="43.3759683" lon="11.786015"><ele>273.0</ele><time>2026-04-24T15:16:58.073Z</time></trkpt><trkpt lat="43.3760317" lon="11.7859583"><ele>273.0</ele><time>2026-04-24T15:17:01.074Z</time></trkpt><trkpt lat="43.3760867" lon="11.7858983"><ele>273.0</ele><time>2026-04-24T15:17:04.073Z</time></trkpt><trkpt lat="43.3761367" lon="11.7858433"><ele>273.0</ele><time>2026-04-24T15:17:07.074Z</time></trkpt><trkpt lat="43.3761833" lon="11.785785"><ele>273.0</ele><time>2026-04-24T15:17:10.073Z</time></trkpt><trkpt lat="43.3762367" lon="11.7857267"><ele>273.2857142857143</ele><time>2026-04-24T15:17:13.074Z</time></trkpt><trkpt lat="43.37628" lon="11.7856617"><ele>273.57142857142856</ele><time>2026-04-24T15:17:17.075Z</time></trkpt><trkpt lat="43.3763267" lon="11.7855967"><ele>273.8571428571429</ele><time>2026-04-24T15:17:21.075Z</time></trkpt><trkpt lat="43.376395" lon="11.7855267"><ele>274.1428571428571</ele><time>2026-04-24T15:17:25.074Z</time></trkpt><trkpt lat="43.3764483" lon="11.7854767"><ele>274.42857142857144</ele><time>2026-04-24T15:17:28.073Z</time></trkpt><trkpt lat="43.3765" lon="11.7854167"><ele>274.7142857142857</ele><time>2026-04-24T15:17:31.076Z</time></trkpt><trkpt lat="43.37657" lon="11.7853583"><ele>275.0</ele><time>2026-04-24T15:17:36.076Z</time></trkpt><trkpt lat="43.3766183" lon="11.7852933"><ele>275.33333333333337</ele><time>2026-04-24T15:17:39.076Z</time></trkpt><trkpt lat="43.3766683" lon="11.785205"><ele>275.6666666666667</ele><time>2026-04-24T15:17:43.076Z</time></trkpt><trkpt lat="43.37672" lon="11.7851117"><ele>276.0</ele><time>2026-04-24T15:17:46.073Z</time></trkpt><trkpt lat="43.37676" lon="11.7850367"><ele>276.3333333333333</ele><time>2026-04-24T15:17:48.076Z</time></trkpt><trkpt lat="43.376805" lon="11.7849283"><ele>276.66666666666663</ele><time>2026-04-24T15:17:51.073Z</time></trkpt><trkpt lat="43.3768533" lon="11.7848367"><ele>277.0</ele><time>2026-04-24T15:17:54.073Z</time></trkpt><trkpt lat="43.3768933" lon="11.7847283"><ele>277.0</ele><time>2026-04-24T15:17:57.074Z</time></trkpt><trkpt lat="43.3769233" lon="11.78463"><ele>277.0</ele><time>2026-04-24T15:18:00.074Z</time></trkpt><trkpt lat="43.3769517" lon="11.784525"><ele>277.0</ele><time>2026-04-24T15:18:03.074Z</time></trkpt><trkpt lat="43.37698" lon="11.784435"><ele>277.0</ele><time>2026-04-24T15:18:06.074Z</time></trkpt><trkpt lat="43.37702" lon="11.784335"><ele>277.0</ele><time>2026-04-24T15:18:09.075Z</time></trkpt><trkpt lat="43.3770517" lon="11.7842533"><ele>277.0</ele><time>2026-04-24T15:18:11.073Z</time></trkpt><trkpt lat="43.3770867" lon="11.7841567"><ele>276.8</ele><time>2026-04-24T15:18:13.076Z</time></trkpt><trkpt lat="43.3771217" lon="11.7840317"><ele>276.6</ele><time>2026-04-24T15:18:15.074Z</time></trkpt><trkpt lat="43.3771667" lon="11.7838917"><ele>276.40000000000003</ele><time>2026-04-24T15:18:17.074Z</time></trkpt><trkpt lat="43.377225" lon="11.783735"><ele>276.2</ele><time>2026-04-24T15:18:19.074Z</time></trkpt><trkpt lat="43.3772533" lon="11.7836467"><ele>276.0</ele><time>2026-04-24T15:18:20.075Z</time></trkpt><trkpt lat="43.3772867" lon="11.78355"><ele>275.1666666666667</ele><time>2026-04-24T15:18:21.074Z</time></trkpt><trkpt lat="43.3773167" lon="11.783455"><ele>274.3333333333333</ele><time>2026-04-24T15:18:22.074Z</time></trkpt><trkpt lat="43.37735" lon="11.7833617"><ele>273.5</ele><time>2026-04-24T15:18:23.075Z</time></trkpt><trkpt lat="43.3773817" lon="11.7832683"><ele>272.66666666666663</ele><time>2026-04-24T15:18:24.075Z</time></trkpt><trkpt lat="43.3774133" lon="11.7831717"><ele>271.8333333333333</ele><time>2026-04-24T15:18:25.074Z</time></trkpt><trkpt lat="43.3774483" lon="11.783075"><ele>271.0</ele><time>2026-04-24T15:18:26.074Z</time></trkpt><trkpt lat="43.377485" lon="11.782975"><ele>271.0</ele><time>2026-04-24T15:18:27.075Z</time></trkpt><trkpt lat="43.3775183" lon="11.7828733"><ele>271.0</ele><time>2026-04-24T15:18:28.074Z</time></trkpt><trkpt lat="43.3775483" lon="11.782775"><ele>271.0</ele><time>2026-04-24T15:18:29.074Z</time></trkpt><trkpt lat="43.3775817" lon="11.78268"><ele>271.0</ele><time>2026-04-24T15:18:30.073Z</time></trkpt><trkpt lat="43.3776133" lon="11.7825917"><ele>271.0</ele><time>2026-04-24T15:18:31.073Z</time></trkpt><trkpt lat="43.3776417" lon="11.7825067"><ele>271.0</ele><time>2026-04-24T15:18:32.074Z</time></trkpt><trkpt lat="43.3776683" lon="11.782425"><ele>271.0</ele><time>2026-04-24T15:18:33.072Z</time></trkpt><trkpt lat="43.3776967" lon="11.7823467"><ele>270.6</ele><time>2026-04-24T15:18:34.075Z</time></trkpt><trkpt lat="43.377745" lon="11.7822017"><ele>270.20000000000005</ele><time>2026-04-24T15:18:36.076Z</time></trkpt><trkpt lat="43.3777883" lon="11.7820733"><ele>269.79999999999995</ele><time>2026-04-24T15:18:38.075Z</time></trkpt><trkpt lat="43.3778317" lon="11.78196"><ele>269.4</ele><time>2026-04-24T15:18:40.075Z</time></trkpt><trkpt lat="43.3778717" lon="11.7818517"><ele>269.0</ele><time>2026-04-24T15:18:42.073Z</time></trkpt><trkpt lat="43.37791" lon="11.7817417"><ele>268.83333333333337</ele><time>2026-04-24T15:18:44.076Z</time></trkpt><trkpt lat="43.3779467" lon="11.7816333"><ele>268.6666666666667</ele><time>2026-04-24T15:18:46.073Z</time></trkpt><trkpt lat="43.3779783" lon="11.78153"><ele>268.5</ele><time>2026-04-24T15:18:48.076Z</time></trkpt><trkpt lat="43.3780133" lon="11.781435"><ele>268.3333333333333</ele><time>2026-04-24T15:18:50.073Z</time></trkpt><trkpt lat="43.3780417" lon="11.78134"><ele>268.16666666666663</ele><time>2026-04-24T15:18:52.072Z</time></trkpt><trkpt lat="43.37808" lon="11.7812217"><ele>268.0</ele><time>2026-04-24T15:18:55.073Z</time></trkpt><trkpt lat="43.378115" lon="11.7811233"><ele>267.7142857142857</ele><time>2026-04-24T15:18:58.073Z</time></trkpt><trkpt lat="43.3781383" lon="11.7810417"><ele>267.42857142857144</ele><time>2026-04-24T15:19:01.071Z</time></trkpt><trkpt lat="43.3781717" lon="11.780945"><ele>267.1428571428571</ele><time>2026-04-24T15:19:05.074Z</time></trkpt><trkpt lat="43.378205" lon="11.7808433"><ele>266.8571428571429</ele><time>2026-04-24T15:19:09.074Z</time></trkpt><trkpt lat="43.3782333" lon="11.780765"><ele>266.57142857142856</ele><time>2026-04-24T15:19:12.074Z</time></trkpt><trkpt lat="43.3782617" lon="11.7806867"><ele>266.2857142857143</ele><time>2026-04-24T15:19:15.074Z</time></trkpt><trkpt lat="43.3782867" lon="11.7806067"><ele>266.0</ele><time>2026-04-24T15:19:18.076Z</time></trkpt><trkpt lat="43.37832" lon="11.78051"><ele>266.0</ele><time>2026-04-24T15:19:22.075Z</time></trkpt><trkpt lat="43.3783583" lon="11.7804167"><ele>266.0</ele><time>2026-04-24T15:19:26.075Z</time></trkpt><trkpt lat="43.378395" lon="11.7803267"><ele>266.0</ele><time>2026-04-24T15:19:30.073Z</time></trkpt><trkpt lat="43.378425" lon="11.7802267"><ele>266.0</ele><time>2026-04-24T15:19:34.074Z</time></trkpt><trkpt lat="43.3784517" lon="11.7801367"><ele>266.0</ele><time>2026-04-24T15:19:38.077Z</time></trkpt><trkpt lat="43.3784817" lon="11.7800367"><ele>266.0</ele><time>2026-04-24T15:19:42.076Z</time></trkpt><trkpt lat="43.3785117" lon="11.7799583"><ele>266.0</ele><time>2026-04-24T15:19:45.074Z</time></trkpt><trkpt lat="43.3785383" lon="11.77987"><ele>266.33333333333337</ele><time>2026-04-24T15:19:48.073Z</time></trkpt><trkpt lat="43.37857" lon="11.7797617"><ele>266.6666666666667</ele><time>2026-04-24T15:19:51.074Z</time></trkpt><trkpt lat="43.3785983" lon="11.7796833"><ele>267.0</ele><time>2026-04-24T15:19:53.074Z</time></trkpt><trkpt lat="43.378625" lon="11.7796"><ele>267.3333333333333</ele><time>2026-04-24T15:19:55.073Z</time></trkpt><trkpt lat="43.378655" lon="11.7795133"><ele>267.66666666666663</ele><time>2026-04-24T15:19:57.073Z</time></trkpt><trkpt lat="43.37869" lon="11.779405"><ele>268.0</ele><time>2026-04-24T15:19:59.074Z</time></trkpt><trkpt lat="43.3787217" lon="11.779305"><ele>268.3333333333333</ele><time>2026-04-24T15:20:01.075Z</time></trkpt><trkpt lat="43.3787583" lon="11.7792067"><ele>268.66666666666663</ele><time>2026-04-24T15:20:03.074Z</time></trkpt><trkpt lat="43.378795" lon="11.7790983"><ele>269.0</ele><time>2026-04-24T15:20:05.077Z</time></trkpt><trkpt lat="43.3788283" lon="11.7790067"><ele>269.3333333333333</ele><time>2026-04-24T15:20:07.073Z</time></trkpt><trkpt lat="43.3788633" lon="11.7789133"><ele>269.6666666666667</ele><time>2026-04-24T15:20:09.073Z</time></trkpt><trkpt lat="43.3788917" lon="11.77882"><ele>270.0</ele><time>2026-04-24T15:20:11.073Z</time></trkpt><trkpt lat="43.37892" lon="11.7787267"><ele>270.1666666666667</ele><time>2026-04-24T15:20:13.074Z</time></trkpt><trkpt lat="43.3789483" lon="11.7786283"><ele>270.3333333333333</ele><time>2026-04-24T15:20:15.075Z</time></trkpt><trkpt lat="43.3789783" lon="11.7785417"><ele>270.5</ele><time>2026-04-24T15:20:17.074Z</time></trkpt><trkpt lat="43.379015" lon="11.7784233"><ele>270.66666666666663</ele><time>2026-04-24T15:20:20.075Z</time></trkpt><trkpt lat="43.3790383" lon="11.7783383"><ele>270.8333333333333</ele><time>2026-04-24T15:20:22.074Z</time></trkpt><trkpt lat="43.3790683" lon="11.7782617"><ele>271.0</ele><time>2026-04-24T15:20:24.075Z</time></trkpt><trkpt lat="43.37911" lon="11.7781433"><ele>271.42857142857144</ele><time>2026-04-24T15:20:27.076Z</time></trkpt><trkpt lat="43.37914" lon="11.7780583"><ele>271.8571428571429</ele><time>2026-04-24T15:20:29.074Z</time></trkpt><trkpt lat="43.37917" lon="11.7779767"><ele>272.28571428571433</ele><time>2026-04-24T15:20:31.074Z</time></trkpt><trkpt lat="43.3792017" lon="11.777895"><ele>272.7142857142857</ele><time>2026-04-24T15:20:33.074Z</time></trkpt><trkpt lat="43.3792317" lon="11.7778083"><ele>273.14285714285717</ele><time>2026-04-24T15:20:35.073Z</time></trkpt><trkpt lat="43.3792633" lon="11.7777183"><ele>273.5714285714286</ele><time>2026-04-24T15:20:37.077Z</time></trkpt><trkpt lat="43.3792917" lon="11.7776283"><ele>274.0</ele><time>2026-04-24T15:20:39.076Z</time></trkpt><trkpt lat="43.3793233" lon="11.7775367"><ele>274.3333333333333</ele><time>2026-04-24T15:20:41.075Z</time></trkpt><trkpt lat="43.379355" lon="11.7774517"><ele>274.66666666666663</ele><time>2026-04-24T15:20:43.074Z</time></trkpt><trkpt lat="43.3793883" lon="11.777355"><ele>275.0</ele><time>2026-04-24T15:20:45.073Z</time></trkpt><trkpt lat="43.37942" lon="11.7772583"><ele>275.3333333333333</ele><time>2026-04-24T15:20:47.076Z</time></trkpt><trkpt lat="43.3794533" lon="11.7771633"><ele>275.6666666666667</ele><time>2026-04-24T15:20:49.076Z</time></trkpt><trkpt lat="43.379485" lon="11.7770667"><ele>276.0</ele><time>2026-04-24T15:20:51.075Z</time></trkpt><trkpt lat="43.3795167" lon="11.7769667"><ele>276.1666666666667</ele><time>2026-04-24T15:20:53.076Z</time></trkpt><trkpt lat="43.379545" lon="11.77685"><ele>276.3333333333333</ele><time>2026-04-24T15:20:55.076Z</time></trkpt><trkpt lat="43.3795733" lon="11.77676"><ele>276.5</ele><time>2026-04-24T15:20:57.075Z</time></trkpt><trkpt lat="43.3796067" lon="11.776675"><ele>276.66666666666663</ele><time>2026-04-24T15:20:59.074Z</time></trkpt><trkpt lat="43.379635" lon="11.7765933"><ele>276.8333333333333</ele><time>2026-04-24T15:21:01.074Z</time></trkpt><trkpt lat="43.379665" lon="11.77651"><ele>277.0</ele><time>2026-04-24T15:21:03.074Z</time></trkpt><trkpt lat="43.379705" lon="11.77639"><ele>277.0</ele><time>2026-04-24T15:21:06.076Z</time></trkpt><trkpt lat="43.3797417" lon="11.77627"><ele>277.0</ele><time>2026-04-24T15:21:09.075Z</time></trkpt><trkpt lat="43.379765" lon="11.776185"><ele>277.0</ele><time>2026-04-24T15:21:11.077Z</time></trkpt><trkpt lat="43.3797783" lon="11.776095"><ele>277.0</ele><time>2026-04-24T15:21:13.073Z</time></trkpt><trkpt lat="43.3798033" lon="11.7760117"><ele>277.0</ele><time>2026-04-24T15:21:15.075Z</time></trkpt><trkpt lat="43.379835" lon="11.7759233"><ele>277.0</ele><time>2026-04-24T15:21:17.075Z</time></trkpt><trkpt lat="43.3798767" lon="11.7758133"><ele>277.0</ele><time>2026-04-24T15:21:19.075Z</time></trkpt><trkpt lat="43.3799067" lon="11.775725"><ele>277.0</ele><time>2026-04-24T15:21:21.075Z</time></trkpt><trkpt lat="43.37994" lon="11.77564"><ele>277.0</ele><time>2026-04-24T15:21:23.075Z</time></trkpt><trkpt lat="43.3799717" lon="11.7755567"><ele>277.0</ele><time>2026-04-24T15:21:25.073Z</time></trkpt><trkpt lat="43.3800083" lon="11.77546"><ele>277.0</ele><time>2026-04-24T15:21:27.075Z</time></trkpt><trkpt lat="43.380035" lon="11.7753767"><ele>277.0</ele><time>2026-04-24T15:21:29.077Z</time></trkpt><trkpt lat="43.3800667" lon="11.7753"><ele>277.0</ele><time>2026-04-24T15:21:31.074Z</time></trkpt><trkpt lat="43.380095" lon="11.7752167"><ele>277.16666666666663</ele><time>2026-04-24T15:21:33.076Z</time></trkpt><trkpt lat="43.3801183" lon="11.7751317"><ele>277.3333333333333</ele><time>2026-04-24T15:21:35.075Z</time></trkpt><trkpt lat="43.38015" lon="11.7750233"><ele>277.5</ele><time>2026-04-24T15:21:37.074Z</time></trkpt><trkpt lat="43.380185" lon="11.774905"><ele>277.6666666666667</ele><time>2026-04-24T15:21:40.073Z</time></trkpt><trkpt lat="43.380225" lon="11.7747833"><ele>277.83333333333337</ele><time>2026-04-24T15:21:43.078Z</time></trkpt><trkpt lat="43.3802467" lon="11.7746883"><ele>278.0</ele><time>2026-04-24T15:21:45.073Z</time></trkpt><trkpt lat="43.380275" lon="11.7745983"><ele>278.0</ele><time>2026-04-24T15:21:47.074Z</time></trkpt><trkpt lat="43.3803033" lon="11.7745033"><ele>278.0</ele><time>2026-04-24T15:21:49.075Z</time></trkpt><trkpt lat="43.380335" lon="11.7744183"><ele>278.0</ele><time>2026-04-24T15:21:51.076Z</time></trkpt><trkpt lat="43.3803667" lon="11.77433"><ele>278.0</ele><time>2026-04-24T15:21:53.079Z</time></trkpt><trkpt lat="43.3803933" lon="11.7742417"><ele>278.0</ele><time>2026-04-24T15:21:55.075Z</time></trkpt><trkpt lat="43.38042" lon="11.774155"><ele>278.0</ele><time>2026-04-24T15:21:57.075Z</time></trkpt><trkpt lat="43.38045" lon="11.7740683"><ele>278.0</ele><time>2026-04-24T15:21:59.077Z</time></trkpt><trkpt lat="43.380485" lon="11.7739767"><ele>278.1428571428571</ele><time>2026-04-24T15:22:01.077Z</time></trkpt><trkpt lat="43.38051" lon="11.7738917"><ele>278.2857142857143</ele><time>2026-04-24T15:22:03.076Z</time></trkpt><trkpt lat="43.3805333" lon="11.7737967"><ele>278.42857142857144</ele><time>2026-04-24T15:22:05.074Z</time></trkpt><trkpt lat="43.38056" lon="11.7737"><ele>278.57142857142856</ele><time>2026-04-24T15:22:07.075Z</time></trkpt><trkpt lat="43.3805883" lon="11.7736067"><ele>278.7142857142857</ele><time>2026-04-24T15:22:09.075Z</time></trkpt><trkpt lat="43.3806117" lon="11.773505"><ele>278.85714285714283</ele><time>2026-04-24T15:22:11.073Z</time></trkpt><trkpt lat="43.3806533" lon="11.773425"><ele>279.0</ele><time>2026-04-24T15:22:13.078Z</time></trkpt><trkpt lat="43.3807017" lon="11.7733533"><ele>279.1666666666667</ele><time>2026-04-24T15:22:15.074Z</time></trkpt><trkpt lat="43.3807417" lon="11.7732717"><ele>279.3333333333333</ele><time>2026-04-24T15:22:17.074Z</time></trkpt><trkpt lat="43.380775" lon="11.7731833"><ele>279.5</ele><time>2026-04-24T15:22:19.074Z</time></trkpt><trkpt lat="43.3807983" lon="11.7730867"><ele>279.66666666666663</ele><time>2026-04-24T15:22:21.074Z</time></trkpt><trkpt lat="43.38082" lon="11.7729783"><ele>279.8333333333333</ele><time>2026-04-24T15:22:23.075Z</time></trkpt><trkpt lat="43.3808517" lon="11.7728833"><ele>280.0</ele><time>2026-04-24T15:22:25.073Z</time></trkpt><trkpt lat="43.3808817" lon="11.7727833"><ele>280.16666666666663</ele><time>2026-04-24T15:22:27.075Z</time></trkpt><trkpt lat="43.3809217" lon="11.772685"><ele>280.3333333333333</ele><time>2026-04-24T15:22:29.075Z</time></trkpt><trkpt lat="43.3809667" lon="11.7726017"><ele>280.5</ele><time>2026-04-24T15:22:31.077Z</time></trkpt><trkpt lat="43.381" lon="11.77251"><ele>280.6666666666667</ele><time>2026-04-24T15:22:33.077Z</time></trkpt><trkpt lat="43.381035" lon="11.7724217"><ele>280.83333333333337</ele><time>2026-04-24T15:22:35.074Z</time></trkpt><trkpt lat="43.3810683" lon="11.7723317"><ele>281.0</ele><time>2026-04-24T15:22:37.074Z</time></trkpt><trkpt lat="43.381105" lon="11.77224"><ele>281.0</ele><time>2026-04-24T15:22:39.075Z</time></trkpt><trkpt lat="43.3811417" lon="11.7721483"><ele>281.0</ele><time>2026-04-24T15:22:41.078Z</time></trkpt><trkpt lat="43.3811783" lon="11.772055"><ele>281.0</ele><time>2026-04-24T15:22:43.076Z</time></trkpt><trkpt lat="43.381215" lon="11.7719667"><ele>281.0</ele><time>2026-04-24T15:22:45.074Z</time></trkpt><trkpt lat="43.3812533" lon="11.7718817"><ele>281.0</ele><time>2026-04-24T15:22:47.074Z</time></trkpt><trkpt lat="43.381295" lon="11.77179"><ele>281.0</ele><time>2026-04-24T15:22:49.082Z</time></trkpt><trkpt lat="43.3813333" lon="11.7716717"><ele>280.6666666666667</ele><time>2026-04-24T15:22:51.073Z</time></trkpt><trkpt lat="43.38137" lon="11.7715733"><ele>280.33333333333337</ele><time>2026-04-24T15:22:53.077Z</time></trkpt><trkpt lat="43.3814133" lon="11.7714783"><ele>280.0</ele><time>2026-04-24T15:22:55.074Z</time></trkpt><trkpt lat="43.3814583" lon="11.77138"><ele>279.6666666666667</ele><time>2026-04-24T15:22:57.074Z</time></trkpt><trkpt lat="43.3815" lon="11.77128"><ele>279.3333333333333</ele><time>2026-04-24T15:22:59.075Z</time></trkpt><trkpt lat="43.3815433" lon="11.7711733"><ele>279.0</ele><time>2026-04-24T15:23:01.075Z</time></trkpt><trkpt lat="43.3815783" lon="11.7710617"><ele>278.8</ele><time>2026-04-24T15:23:03.075Z</time></trkpt><trkpt lat="43.3816267" lon="11.7709483"><ele>278.59999999999997</ele><time>2026-04-24T15:23:05.075Z</time></trkpt><trkpt lat="43.38167" lon="11.7708267"><ele>278.4</ele><time>2026-04-24T15:23:07.08Z</time></trkpt><trkpt lat="43.3817183" lon="11.7707"><ele>278.2</ele><time>2026-04-24T15:23:09.078Z</time></trkpt><trkpt lat="43.38177" lon="11.770585"><ele>278.0</ele><time>2026-04-24T15:23:11.074Z</time></trkpt><trkpt lat="43.3818217" lon="11.77047"><ele>278.0</ele><time>2026-04-24T15:23:13.075Z</time></trkpt><trkpt lat="43.381875" lon="11.7703467"><ele>278.0</ele><time>2026-04-24T15:23:15.075Z</time></trkpt><trkpt lat="43.381925" lon="11.77022"><ele>278.0</ele><time>2026-04-24T15:23:17.072Z</time></trkpt><trkpt lat="43.3819767" lon="11.770095"><ele>278.0</ele><time>2026-04-24T15:23:19.076Z</time></trkpt><trkpt lat="43.3820283" lon="11.7699683"><ele>278.0</ele><time>2026-04-24T15:23:21.074Z</time></trkpt><trkpt lat="43.3820833" lon="11.7698383"><ele>277.8</ele><time>2026-04-24T15:23:23.074Z</time></trkpt><trkpt lat="43.3821383" lon="11.769715"><ele>277.6</ele><time>2026-04-24T15:23:25.075Z</time></trkpt><trkpt lat="43.3821933" lon="11.7695933"><ele>277.4</ele><time>2026-04-24T15:23:27.075Z</time></trkpt><trkpt lat="43.3822533" lon="11.769475"><ele>277.2</ele><time>2026-04-24T15:23:29.078Z</time></trkpt><trkpt lat="43.3823183" lon="11.76936"><ele>277.0</ele><time>2026-04-24T15:23:31.075Z</time></trkpt><trkpt lat="43.3823867" lon="11.7692617"><ele>277.3333333333333</ele><time>2026-04-24T15:23:33.074Z</time></trkpt><trkpt lat="43.3824567" lon="11.76918"><ele>277.66666666666663</ele><time>2026-04-24T15:23:35.075Z</time></trkpt><trkpt lat="43.38252" lon="11.7691167"><ele>278.0</ele><time>2026-04-24T15:23:37.077Z</time></trkpt><trkpt lat="43.3825783" lon="11.7690633"><ele>278.3333333333333</ele><time>2026-04-24T15:23:39.074Z</time></trkpt><trkpt lat="43.3826333" lon="11.769005"><ele>278.6666666666667</ele><time>2026-04-24T15:23:41.077Z</time></trkpt><trkpt lat="43.3826867" lon="11.768955"><ele>279.0</ele><time>2026-04-24T15:23:43.074Z</time></trkpt><trkpt lat="43.382765" lon="11.7688867"><ele>279.0</ele><time>2026-04-24T15:23:46.072Z</time></trkpt><trkpt lat="43.3828383" lon="11.7688217"><ele>279.0</ele><time>2026-04-24T15:23:49.076Z</time></trkpt><trkpt lat="43.3829117" lon="11.7687483"><ele>279.0</ele><time>2026-04-24T15:23:52.074Z</time></trkpt><trkpt lat="43.3829867" lon="11.768675"><ele>279.0</ele><time>2026-04-24T15:23:55.077Z</time></trkpt><trkpt lat="43.3830567" lon="11.7686033"><ele>279.0</ele><time>2026-04-24T15:23:58.075Z</time></trkpt><trkpt lat="43.38313" lon="11.7685267"><ele>279.0</ele><time>2026-04-24T15:24:01.074Z</time></trkpt><trkpt lat="43.383185" lon="11.7684733"><ele>279.5</ele><time>2026-04-24T15:24:03.074Z</time></trkpt><trkpt lat="43.38326" lon="11.7684067"><ele>280.0</ele><time>2026-04-24T15:24:06.071Z</time></trkpt><trkpt lat="43.3833183" lon="11.7683433"><ele>280.5</ele><time>2026-04-24T15:24:09.073Z</time></trkpt><trkpt lat="43.3833717" lon="11.76829"><ele>281.0</ele><time>2026-04-24T15:24:11.073Z</time></trkpt><trkpt lat="43.3834333" lon="11.7682317"><ele>281.5</ele><time>2026-04-24T15:24:13.077Z</time></trkpt><trkpt lat="43.3835017" lon="11.768165"><ele>282.0</ele><time>2026-04-24T15:24:15.074Z</time></trkpt><trkpt lat="43.3835683" lon="11.768095"><ele>282.0</ele><time>2026-04-24T15:24:17.076Z</time></trkpt><trkpt lat="43.38363" lon="11.7680417"><ele>282.0</ele><time>2026-04-24T15:24:19.074Z</time></trkpt><trkpt lat="43.383695" lon="11.7679733"><ele>282.0</ele><time>2026-04-24T15:24:21.077Z</time></trkpt><trkpt lat="43.3837667" lon="11.767905"><ele>282.0</ele><time>2026-04-24T15:24:23.075Z</time></trkpt><trkpt lat="43.383835" lon="11.7678433"><ele>282.0</ele><time>2026-04-24T15:24:25.072Z</time></trkpt><trkpt lat="43.3839017" lon="11.7677767"><ele>282.0</ele><time>2026-04-24T15:24:27.073Z</time></trkpt><trkpt lat="43.383965" lon="11.7677117"><ele>281.6</ele><time>2026-04-24T15:24:29.073Z</time></trkpt><trkpt lat="43.3840283" lon="11.7676417"><ele>281.2</ele><time>2026-04-24T15:24:31.074Z</time></trkpt><trkpt lat="43.3841017" lon="11.7675717"><ele>280.8</ele><time>2026-04-24T15:24:33.074Z</time></trkpt><trkpt lat="43.3841783" lon="11.76749"><ele>280.4</ele><time>2026-04-24T15:24:35.071Z</time></trkpt><trkpt lat="43.38427" lon="11.7674"><ele>280.0</ele><time>2026-04-24T15:24:37.074Z</time></trkpt><trkpt lat="43.3843617" lon="11.7673083"><ele>280.0</ele><time>2026-04-24T15:24:39.075Z</time></trkpt><trkpt lat="43.38442" lon="11.767245"><ele>280.0</ele><time>2026-04-24T15:24:40.074Z</time></trkpt><trkpt lat="43.3844717" lon="11.76719"><ele>280.0</ele><time>2026-04-24T15:24:41.073Z</time></trkpt><trkpt lat="43.38457" lon="11.7670883"><ele>280.0</ele><time>2026-04-24T15:24:43.072Z</time></trkpt><trkpt lat="43.3846617" lon="11.7669867"><ele>280.0</ele><time>2026-04-24T15:24:45.077Z</time></trkpt><trkpt lat="43.38475" lon="11.766905"><ele>279.8</ele><time>2026-04-24T15:24:47.072Z</time></trkpt><trkpt lat="43.3848317" lon="11.7668167"><ele>279.6</ele><time>2026-04-24T15:24:49.074Z</time></trkpt><trkpt lat="43.38491" lon="11.76673"><ele>279.4</ele><time>2026-04-24T15:24:51.076Z</time></trkpt><trkpt lat="43.3849867" lon="11.7666467"><ele>279.2</ele><time>2026-04-24T15:24:53.074Z</time></trkpt><trkpt lat="43.3850583" lon="11.7665683"><ele>279.0</ele><time>2026-04-24T15:24:55.077Z</time></trkpt><trkpt lat="43.3851283" lon="11.7664883"><ele>279.0</ele><time>2026-04-24T15:24:57.073Z</time></trkpt><trkpt lat="43.3851967" lon="11.7664117"><ele>279.0</ele><time>2026-04-24T15:24:59.075Z</time></trkpt><trkpt lat="43.3852683" lon="11.766335"><ele>279.0</ele><time>2026-04-24T15:25:01.073Z</time></trkpt><trkpt lat="43.3853367" lon="11.76626"><ele>279.0</ele><time>2026-04-24T15:25:03.075Z</time></trkpt><trkpt lat="43.3853983" lon="11.766185"><ele>279.0</ele><time>2026-04-24T15:25:05.074Z</time></trkpt><trkpt lat="43.385465" lon="11.766115"><ele>279.0</ele><time>2026-04-24T15:25:07.072Z</time></trkpt><trkpt lat="43.3855317" lon="11.7660433"><ele>279.0</ele><time>2026-04-24T15:25:09.073Z</time></trkpt><trkpt lat="43.3856017" lon="11.7659817"><ele>279.0</ele><time>2026-04-24T15:25:11.072Z</time></trkpt><trkpt lat="43.3856683" lon="11.7659133"><ele>279.0</ele><time>2026-04-24T15:25:13.072Z</time></trkpt><trkpt lat="43.385735" lon="11.7658483"><ele>279.0</ele><time>2026-04-24T15:25:15.072Z</time></trkpt><trkpt lat="43.3858" lon="11.76578"><ele>279.0</ele><time>2026-04-24T15:25:17.074Z</time></trkpt><trkpt lat="43.38586" lon="11.7656983"><ele>279.0</ele><time>2026-04-24T15:25:19.076Z</time></trkpt><trkpt lat="43.38592" lon="11.7656333"><ele>279.0</ele><time>2026-04-24T15:25:21.076Z</time></trkpt><trkpt lat="43.38598" lon="11.76557"><ele>279.0</ele><time>2026-04-24T15:25:23.074Z</time></trkpt><trkpt lat="43.3860383" lon="11.7654983"><ele>279.0</ele><time>2026-04-24T15:25:25.078Z</time></trkpt><trkpt lat="43.3860983" lon="11.765435"><ele>279.0</ele><time>2026-04-24T15:25:27.074Z</time></trkpt><trkpt lat="43.38616" lon="11.7653717"><ele>279.0</ele><time>2026-04-24T15:25:29.074Z</time></trkpt><trkpt lat="43.3862167" lon="11.76531"><ele>279.0</ele><time>2026-04-24T15:25:31.074Z</time></trkpt><trkpt lat="43.3862683" lon="11.7652383"><ele>279.1428571428571</ele><time>2026-04-24T15:25:33.073Z</time></trkpt><trkpt lat="43.38632" lon="11.7651633"><ele>279.2857142857143</ele><time>2026-04-24T15:25:35.073Z</time></trkpt><trkpt lat="43.3863683" lon="11.76509"><ele>279.42857142857144</ele><time>2026-04-24T15:25:37.075Z</time></trkpt><trkpt lat="43.3864167" lon="11.7650183"><ele>279.57142857142856</ele><time>2026-04-24T15:25:39.073Z</time></trkpt><trkpt lat="43.3864667" lon="11.76494"><ele>279.7142857142857</ele><time>2026-04-24T15:25:41.076Z</time></trkpt><trkpt lat="43.3865167" lon="11.764865"><ele>279.85714285714283</ele><time>2026-04-24T15:25:43.074Z</time></trkpt><trkpt lat="43.38657" lon="11.7647833"><ele>280.0</ele><time>2026-04-24T15:25:45.077Z</time></trkpt><trkpt lat="43.3866233" lon="11.7646967"><ele>280.0</ele><time>2026-04-24T15:25:47.073Z</time></trkpt><trkpt lat="43.3866783" lon="11.7646133"><ele>280.0</ele><time>2026-04-24T15:25:49.074Z</time></trkpt><trkpt lat="43.3867383" lon="11.7645183"><ele>280.0</ele><time>2026-04-24T15:25:51.076Z</time></trkpt><trkpt lat="43.3867983" lon="11.7644267"><ele>280.0</ele><time>2026-04-24T15:25:53.074Z</time></trkpt><trkpt lat="43.3868583" lon="11.76433"><ele>280.0</ele><time>2026-04-24T15:25:55.077Z</time></trkpt><trkpt lat="43.3869217" lon="11.7642383"><ele>280.0</ele><time>2026-04-24T15:25:57.08Z</time></trkpt><trkpt lat="43.3869867" lon="11.7641433"><ele>280.0</ele><time>2026-04-24T15:25:59.076Z</time></trkpt><trkpt lat="43.38705" lon="11.7640417"><ele>280.0</ele><time>2026-04-24T15:26:01.075Z</time></trkpt><trkpt lat="43.387115" lon="11.7639383"><ele>280.0</ele><time>2026-04-24T15:26:03.075Z</time></trkpt><trkpt lat="43.387175" lon="11.7638333"><ele>280.0</ele><time>2026-04-24T15:26:05.074Z</time></trkpt><trkpt lat="43.3872367" lon="11.7637367"><ele>280.0</ele><time>2026-04-24T15:26:07.072Z</time></trkpt><trkpt lat="43.3872967" lon="11.7636367"><ele>279.6</ele><time>2026-04-24T15:26:09.072Z</time></trkpt><trkpt lat="43.3873583" lon="11.7635417"><ele>279.2</ele><time>2026-04-24T15:26:11.075Z</time></trkpt><trkpt lat="43.387425" lon="11.7634433"><ele>278.8</ele><time>2026-04-24T15:26:13.074Z</time></trkpt><trkpt lat="43.3874917" lon="11.76334"><ele>278.4</ele><time>2026-04-24T15:26:15.073Z</time></trkpt><trkpt lat="43.3875567" lon="11.76324"><ele>278.0</ele><time>2026-04-24T15:26:17.075Z</time></trkpt><trkpt lat="43.3876233" lon="11.7631333"><ele>278.0</ele><time>2026-04-24T15:26:19.074Z</time></trkpt><trkpt lat="43.38769" lon="11.7630267"><ele>278.0</ele><time>2026-04-24T15:26:21.073Z</time></trkpt><trkpt lat="43.3877583" lon="11.7629167"><ele>278.0</ele><time>2026-04-24T15:26:23.073Z</time></trkpt><trkpt lat="43.3878283" lon="11.762805"><ele>278.0</ele><time>2026-04-24T15:26:25.076Z</time></trkpt><trkpt lat="43.3878983" lon="11.762695"><ele>278.0</ele><time>2026-04-24T15:26:27.074Z</time></trkpt><trkpt lat="43.3879667" lon="11.7625883"><ele>277.6</ele><time>2026-04-24T15:26:29.076Z</time></trkpt><trkpt lat="43.3880317" lon="11.7624783"><ele>277.20000000000005</ele><time>2026-04-24T15:26:31.077Z</time></trkpt><trkpt lat="43.3881" lon="11.7623683"><ele>276.8</ele><time>2026-04-24T15:26:33.076Z</time></trkpt><trkpt lat="43.3881683" lon="11.7622633"><ele>276.40000000000003</ele><time>2026-04-24T15:26:35.075Z</time></trkpt><trkpt lat="43.3882367" lon="11.7621633"><ele>276.0</ele><time>2026-04-24T15:26:37.077Z</time></trkpt><trkpt lat="43.388305" lon="11.76207"><ele>276.0</ele><time>2026-04-24T15:26:39.072Z</time></trkpt><trkpt lat="43.3883717" lon="11.76197"><ele>276.0</ele><time>2026-04-24T15:26:41.075Z</time></trkpt><trkpt lat="43.388435" lon="11.7618733"><ele>276.0</ele><time>2026-04-24T15:26:43.073Z</time></trkpt><trkpt lat="43.3884967" lon="11.761785"><ele>276.0</ele><time>2026-04-24T15:26:45.073Z</time></trkpt><trkpt lat="43.38855" lon="11.7617"><ele>276.0</ele><time>2026-04-24T15:26:47.073Z</time></trkpt><trkpt lat="43.3886033" lon="11.7616217"><ele>276.0</ele><time>2026-04-24T15:26:49.078Z</time></trkpt><trkpt lat="43.38865" lon="11.76155"><ele>276.1666666666667</ele><time>2026-04-24T15:26:51.075Z</time></trkpt><trkpt lat="43.3887017" lon="11.761475"><ele>276.3333333333333</ele><time>2026-04-24T15:26:53.074Z</time></trkpt><trkpt lat="43.3887483" lon="11.7614"><ele>276.5</ele><time>2026-04-24T15:26:55.076Z</time></trkpt><trkpt lat="43.3888" lon="11.7613217"><ele>276.66666666666663</ele><time>2026-04-24T15:26:57.075Z</time></trkpt><trkpt lat="43.3888533" lon="11.7612383"><ele>276.8333333333333</ele><time>2026-04-24T15:26:59.074Z</time></trkpt><trkpt lat="43.38891" lon="11.7611567"><ele>277.0</ele><time>2026-04-24T15:27:01.075Z</time></trkpt><trkpt lat="43.38896" lon="11.7610783"><ele>277.42857142857144</ele><time>2026-04-24T15:27:03.073Z</time></trkpt><trkpt lat="43.3890117" lon="11.7610033"><ele>277.85714285714283</ele><time>2026-04-24T15:27:05.076Z</time></trkpt><trkpt lat="43.3890633" lon="11.76093"><ele>278.2857142857143</ele><time>2026-04-24T15:27:07.073Z</time></trkpt><trkpt lat="43.3891133" lon="11.760855"><ele>278.7142857142857</ele><time>2026-04-24T15:27:09.073Z</time></trkpt><trkpt lat="43.3891633" lon="11.7607817"><ele>279.1428571428571</ele><time>2026-04-24T15:27:11.074Z</time></trkpt><trkpt lat="43.3892083" lon="11.7607133"><ele>279.57142857142856</ele><time>2026-04-24T15:27:13.074Z</time></trkpt><trkpt lat="43.389255" lon="11.7606433"><ele>280.0</ele><time>2026-04-24T15:27:15.074Z</time></trkpt><trkpt lat="43.3892983" lon="11.7605717"><ele>280.0</ele><time>2026-04-24T15:27:17.074Z</time></trkpt><trkpt lat="43.38934" lon="11.7605017"><ele>280.0</ele><time>2026-04-24T15:27:19.079Z</time></trkpt><trkpt lat="43.3893833" lon="11.7604317"><ele>280.0</ele><time>2026-04-24T15:27:21.072Z</time></trkpt><trkpt lat="43.3894283" lon="11.7603533"><ele>280.0</ele><time>2026-04-24T15:27:23.073Z</time></trkpt><trkpt lat="43.3894833" lon="11.7602467"><ele>280.0</ele><time>2026-04-24T15:27:26.074Z</time></trkpt><trkpt lat="43.38954" lon="11.7601467"><ele>280.0</ele><time>2026-04-24T15:27:29.075Z</time></trkpt><trkpt lat="43.389605" lon="11.7600567"><ele>280.0</ele><time>2026-04-24T15:27:32.074Z</time></trkpt><trkpt lat="43.3896617" lon="11.7599683"><ele>280.0</ele><time>2026-04-24T15:27:35.072Z</time></trkpt><trkpt lat="43.3897217" lon="11.759875"><ele>280.0</ele><time>2026-04-24T15:27:38.077Z</time></trkpt><trkpt lat="43.38978" lon="11.759785"><ele>280.0</ele><time>2026-04-24T15:27:41.075Z</time></trkpt><trkpt lat="43.3898283" lon="11.7596983"><ele>280.0</ele><time>2026-04-24T15:27:44.077Z</time></trkpt><trkpt lat="43.38988" lon="11.7596283"><ele>280.0</ele><time>2026-04-24T15:27:47.077Z</time></trkpt><trkpt lat="43.38993" lon="11.759565"><ele>280.0</ele><time>2026-04-24T15:27:50.075Z</time></trkpt><trkpt lat="43.3899883" lon="11.759515"><ele>280.0</ele><time>2026-04-24T15:27:57.073Z</time></trkpt><trkpt lat="43.38999" lon="11.7594"><ele>280.0</ele><time>2026-04-24T15:28:12.077Z</time></trkpt><trkpt lat="43.3899767" lon="11.7592783"><ele>280.0</ele><time>2026-04-24T15:28:15.074Z</time></trkpt><trkpt lat="43.389945" lon="11.7592017"><ele>280.0</ele><time>2026-04-24T15:28:17.075Z</time></trkpt><trkpt lat="43.38991" lon="11.7591267"><ele>280.0</ele><time>2026-04-24T15:28:19.073Z</time></trkpt><trkpt lat="43.3898667" lon="11.7590433"><ele>280.0</ele><time>2026-04-24T15:28:21.075Z</time></trkpt><trkpt lat="43.3898183" lon="11.758955"><ele>280.14285714285717</ele><time>2026-04-24T15:28:23.075Z</time></trkpt><trkpt lat="43.3897733" lon="11.758865"><ele>280.2857142857143</ele><time>2026-04-24T15:28:25.076Z</time></trkpt><trkpt lat="43.3897333" lon="11.7587717"><ele>280.42857142857144</ele><time>2026-04-24T15:28:27.072Z</time></trkpt><trkpt lat="43.389695" lon="11.7586817"><ele>280.57142857142856</ele><time>2026-04-24T15:28:29.074Z</time></trkpt><trkpt lat="43.3896483" lon="11.7586033"><ele>280.7142857142857</ele><time>2026-04-24T15:28:31.075Z</time></trkpt><trkpt lat="43.38961" lon="11.758525"><ele>280.8571428571429</ele><time>2026-04-24T15:28:33.074Z</time></trkpt><trkpt lat="43.3895733" lon="11.7584517"><ele>281.0</ele><time>2026-04-24T15:28:35.075Z</time></trkpt><trkpt lat="43.3895333" lon="11.7583767"><ele>281.42857142857144</ele><time>2026-04-24T15:28:37.073Z</time></trkpt><trkpt lat="43.389495" lon="11.7582983"><ele>281.8571428571429</ele><time>2026-04-24T15:28:39.075Z</time></trkpt><trkpt lat="43.38946" lon="11.75822"><ele>282.2857142857143</ele><time>2026-04-24T15:28:41.081Z</time></trkpt><trkpt lat="43.3894233" lon="11.7581467"><ele>282.7142857142857</ele><time>2026-04-24T15:28:43.076Z</time></trkpt><trkpt lat="43.38938" lon="11.7580817"><ele>283.1428571428571</ele><time>2026-04-24T15:28:45.074Z</time></trkpt><trkpt lat="43.389335" lon="11.7579767"><ele>283.57142857142856</ele><time>2026-04-24T15:28:48.075Z</time></trkpt><trkpt lat="43.38929" lon="11.7578733"><ele>284.0</ele><time>2026-04-24T15:28:51.074Z</time></trkpt><trkpt lat="43.3892467" lon="11.7577667"><ele>284.0</ele><time>2026-04-24T15:28:54.077Z</time></trkpt><trkpt lat="43.3892033" lon="11.757645"><ele>284.0</ele><time>2026-04-24T15:28:57.076Z</time></trkpt><trkpt lat="43.3891667" lon="11.757525"><ele>284.0</ele><time>2026-04-24T15:29:00.075Z</time></trkpt><trkpt lat="43.38914" lon="11.7574033"><ele>284.0</ele><time>2026-04-24T15:29:03.075Z</time></trkpt><trkpt lat="43.38912" lon="11.757285"><ele>284.0</ele><time>2026-04-24T15:29:06.077Z</time></trkpt><trkpt lat="43.3891" lon="11.7571617"><ele>284.0</ele><time>2026-04-24T15:29:09.076Z</time></trkpt><trkpt lat="43.3890983" lon="11.7570383"><ele>284.0</ele><time>2026-04-24T15:29:12.075Z</time></trkpt><trkpt lat="43.3890917" lon="11.7569167"><ele>284.0</ele><time>2026-04-24T15:29:15.075Z</time></trkpt><trkpt lat="43.38909" lon="11.7567933"><ele>284.0</ele><time>2026-04-24T15:29:18.077Z</time></trkpt><trkpt lat="43.3890883" lon="11.7566683"><ele>284.0</ele><time>2026-04-24T15:29:21.074Z</time></trkpt><trkpt lat="43.3890867" lon="11.756545"><ele>284.0</ele><time>2026-04-24T15:29:24.075Z</time></trkpt><trkpt lat="43.3890867" lon="11.75645"><ele>284.1666666666667</ele><time>2026-04-24T15:29:26.075Z</time></trkpt><trkpt lat="43.389085" lon="11.75635"><ele>284.33333333333337</ele><time>2026-04-24T15:29:28.074Z</time></trkpt><trkpt lat="43.3890917" lon="11.756215"><ele>284.5</ele><time>2026-04-24T15:29:30.075Z</time></trkpt><trkpt lat="43.3890933" lon="11.756095"><ele>284.6666666666667</ele><time>2026-04-24T15:29:32.075Z</time></trkpt><trkpt lat="43.38911" lon="11.755965"><ele>284.8333333333333</ele><time>2026-04-24T15:29:34.074Z</time></trkpt><trkpt lat="43.3891417" lon="11.7558417"><ele>285.0</ele><time>2026-04-24T15:29:36.077Z</time></trkpt><trkpt lat="43.3892017" lon="11.75573"><ele>285.0</ele><time>2026-04-24T15:29:38.076Z</time></trkpt><trkpt lat="43.3892867" lon="11.7556333"><ele>285.0</ele><time>2026-04-24T15:29:40.075Z</time></trkpt><trkpt lat="43.3893867" lon="11.7555767"><ele>285.0</ele><time>2026-04-24T15:29:42.075Z</time></trkpt><trkpt lat="43.3895" lon="11.7555517"><ele>285.0</ele><time>2026-04-24T15:29:44.073Z</time></trkpt><trkpt lat="43.389615" lon="11.7555683"><ele>285.0</ele><time>2026-04-24T15:29:46.073Z</time></trkpt><trkpt lat="43.3897367" lon="11.7555883"><ele>284.7142857142857</ele><time>2026-04-24T15:29:48.074Z</time></trkpt><trkpt lat="43.3898" lon="11.7556017"><ele>284.42857142857144</ele><time>2026-04-24T15:29:49.075Z</time></trkpt><trkpt lat="43.38987" lon="11.7556167"><ele>284.14285714285717</ele><time>2026-04-24T15:29:50.078Z</time></trkpt><trkpt lat="43.3899383" lon="11.7556367"><ele>283.8571428571429</ele><time>2026-04-24T15:29:51.075Z</time></trkpt><trkpt lat="43.3900067" lon="11.755655"><ele>283.5714285714286</ele><time>2026-04-24T15:29:52.077Z</time></trkpt><trkpt lat="43.3900767" lon="11.7556717"><ele>283.2857142857143</ele><time>2026-04-24T15:29:53.073Z</time></trkpt><trkpt lat="43.3901483" lon="11.75569"><ele>283.0</ele><time>2026-04-24T15:29:54.075Z</time></trkpt><trkpt lat="43.3902233" lon="11.7557067"><ele>283.0</ele><time>2026-04-24T15:29:55.077Z</time></trkpt><trkpt lat="43.3902967" lon="11.755725"><ele>283.0</ele><time>2026-04-24T15:29:56.076Z</time></trkpt><trkpt lat="43.39037" lon="11.755745"><ele>283.0</ele><time>2026-04-24T15:29:57.075Z</time></trkpt><trkpt lat="43.390445" lon="11.755765"><ele>283.0</ele><time>2026-04-24T15:29:58.073Z</time></trkpt><trkpt lat="43.3905233" lon="11.7557817"><ele>283.0</ele><time>2026-04-24T15:29:59.074Z</time></trkpt><trkpt lat="43.3905983" lon="11.7558"><ele>283.0</ele><time>2026-04-24T15:30:00.073Z</time></trkpt><trkpt lat="43.3906767" lon="11.755815"><ele>283.2857142857143</ele><time>2026-04-24T15:30:01.071Z</time></trkpt><trkpt lat="43.3907483" lon="11.7558317"><ele>283.5714285714286</ele><time>2026-04-24T15:30:02.074Z</time></trkpt><trkpt lat="43.3908217" lon="11.7558483"><ele>283.8571428571429</ele><time>2026-04-24T15:30:03.078Z</time></trkpt><trkpt lat="43.3908917" lon="11.755865"><ele>284.14285714285717</ele><time>2026-04-24T15:30:04.076Z</time></trkpt><trkpt lat="43.3909583" lon="11.7558833"><ele>284.42857142857144</ele><time>2026-04-24T15:30:05.075Z</time></trkpt><trkpt lat="43.3910233" lon="11.7559017"><ele>284.7142857142857</ele><time>2026-04-24T15:30:06.076Z</time></trkpt><trkpt lat="43.3910883" lon="11.7559167"><ele>285.0</ele><time>2026-04-24T15:30:07.075Z</time></trkpt><trkpt lat="43.3911517" lon="11.7559317"><ele>285.0</ele><time>2026-04-24T15:30:08.076Z</time></trkpt><trkpt lat="43.391215" lon="11.7559433"><ele>285.0</ele><time>2026-04-24T15:30:09.075Z</time></trkpt><trkpt lat="43.3913383" lon="11.755965"><ele>285.0</ele><time>2026-04-24T15:30:11.076Z</time></trkpt><trkpt lat="43.3914617" lon="11.755995"><ele>285.0</ele><time>2026-04-24T15:30:13.072Z</time></trkpt><trkpt lat="43.3915767" lon="11.7560267"><ele>285.0</ele><time>2026-04-24T15:30:15.075Z</time></trkpt><trkpt lat="43.3916883" lon="11.7560533"><ele>285.0</ele><time>2026-04-24T15:30:17.071Z</time></trkpt><trkpt lat="43.391805" lon="11.7560717"><ele>285.0</ele><time>2026-04-24T15:30:19.075Z</time></trkpt><trkpt lat="43.39192" lon="11.7560933"><ele>285.0</ele><time>2026-04-24T15:30:21.073Z</time></trkpt><trkpt lat="43.39203" lon="11.7561167"><ele>285.0</ele><time>2026-04-24T15:30:23.075Z</time></trkpt><trkpt lat="43.392135" lon="11.75614"><ele>284.8</ele><time>2026-04-24T15:30:25.075Z</time></trkpt><trkpt lat="43.392235" lon="11.75616"><ele>284.6</ele><time>2026-04-24T15:30:27.074Z</time></trkpt><trkpt lat="43.3923367" lon="11.7561867"><ele>284.4</ele><time>2026-04-24T15:30:29.076Z</time></trkpt><trkpt lat="43.3924367" lon="11.7562167"><ele>284.2</ele><time>2026-04-24T15:30:31.073Z</time></trkpt><trkpt lat="43.3925417" lon="11.7562467"><ele>284.0</ele><time>2026-04-24T15:30:33.073Z</time></trkpt><trkpt lat="43.3926467" lon="11.7562683"><ele>284.0</ele><time>2026-04-24T15:30:35.073Z</time></trkpt><trkpt lat="43.3927517" lon="11.7562917"><ele>284.0</ele><time>2026-04-24T15:30:37.075Z</time></trkpt><trkpt lat="43.3928583" lon="11.7563183"><ele>284.0</ele><time>2026-04-24T15:30:39.074Z</time></trkpt><trkpt lat="43.3929617" lon="11.756345"><ele>284.0</ele><time>2026-04-24T15:30:41.074Z</time></trkpt><trkpt lat="43.3930633" lon="11.75636"><ele>284.0</ele><time>2026-04-24T15:30:43.073Z</time></trkpt><trkpt lat="43.3931667" lon="11.756375"><ele>284.2</ele><time>2026-04-24T15:30:45.074Z</time></trkpt><trkpt lat="43.393265" lon="11.7563767"><ele>284.4</ele><time>2026-04-24T15:30:47.077Z</time></trkpt><trkpt lat="43.3933617" lon="11.7563683"><ele>284.6</ele><time>2026-04-24T15:30:49.077Z</time></trkpt><trkpt lat="43.39346" lon="11.75636"><ele>284.8</ele><time>2026-04-24T15:30:51.072Z</time></trkpt><trkpt lat="43.3935617" lon="11.7563533"><ele>285.0</ele><time>2026-04-24T15:30:53.073Z</time></trkpt><trkpt lat="43.393665" lon="11.756335"><ele>285.0</ele><time>2026-04-24T15:30:55.076Z</time></trkpt><trkpt lat="43.3937617" lon="11.7563067"><ele>285.0</ele><time>2026-04-24T15:30:57.074Z</time></trkpt><trkpt lat="43.3938483" lon="11.7562667"><ele>285.0</ele><time>2026-04-24T15:30:59.072Z</time></trkpt><trkpt lat="43.3939317" lon="11.7562133"><ele>285.0</ele><time>2026-04-24T15:31:01.074Z</time></trkpt><trkpt lat="43.3940133" lon="11.7561517"><ele>285.0</ele><time>2026-04-24T15:31:03.076Z</time></trkpt><trkpt lat="43.3940983" lon="11.75609"><ele>285.0</ele><time>2026-04-24T15:31:05.075Z</time></trkpt><trkpt lat="43.3941833" lon="11.7560217"><ele>285.0</ele><time>2026-04-24T15:31:07.075Z</time></trkpt><trkpt lat="43.3942717" lon="11.75595"><ele>285.0</ele><time>2026-04-24T15:31:09.072Z</time></trkpt><trkpt lat="43.39436" lon="11.7558717"><ele>285.0</ele><time>2026-04-24T15:31:11.074Z</time></trkpt><trkpt lat="43.3944417" lon="11.7558017"><ele>285.0</ele><time>2026-04-24T15:31:13.074Z</time></trkpt><trkpt lat="43.394525" lon="11.75573"><ele>285.0</ele><time>2026-04-24T15:31:15.073Z</time></trkpt><trkpt lat="43.3946083" lon="11.7556617"><ele>285.0</ele><time>2026-04-24T15:31:17.073Z</time></trkpt><trkpt lat="43.39469" lon="11.7555933"><ele>285.0</ele><time>2026-04-24T15:31:19.076Z</time></trkpt><trkpt lat="43.3947783" lon="11.7555283"><ele>285.0</ele><time>2026-04-24T15:31:21.074Z</time></trkpt><trkpt lat="43.3948617" lon="11.755455"><ele>285.0</ele><time>2026-04-24T15:31:23.074Z</time></trkpt><trkpt lat="43.3949467" lon="11.755385"><ele>285.0</ele><time>2026-04-24T15:31:25.073Z</time></trkpt><trkpt lat="43.39503" lon="11.7553167"><ele>285.0</ele><time>2026-04-24T15:31:27.074Z</time></trkpt><trkpt lat="43.3951083" lon="11.7552567"><ele>285.0</ele><time>2026-04-24T15:31:29.073Z</time></trkpt><trkpt lat="43.395185" lon="11.755195"><ele>285.0</ele><time>2026-04-24T15:31:31.075Z</time></trkpt><trkpt lat="43.3952667" lon="11.755125"><ele>285.0</ele><time>2026-04-24T15:31:33.075Z</time></trkpt><trkpt lat="43.3953483" lon="11.7550517"><ele>285.0</ele><time>2026-04-24T15:31:35.074Z</time></trkpt><trkpt lat="43.3954267" lon="11.7549867"><ele>285.0</ele><time>2026-04-24T15:31:37.074Z</time></trkpt><trkpt lat="43.3955083" lon="11.7549283"><ele>285.0</ele><time>2026-04-24T15:31:39.079Z</time></trkpt><trkpt lat="43.3955933" lon="11.754865"><ele>285.0</ele><time>2026-04-24T15:31:41.073Z</time></trkpt><trkpt lat="43.3956867" lon="11.7547767"><ele>285.0</ele><time>2026-04-24T15:31:43.073Z</time></trkpt><trkpt lat="43.3957767" lon="11.7547083"><ele>285.0</ele><time>2026-04-24T15:31:45.074Z</time></trkpt><trkpt lat="43.3958667" lon="11.7546367"><ele>285.0</ele><time>2026-04-24T15:31:47.074Z</time></trkpt><trkpt lat="43.3959517" lon="11.7545533"><ele>285.0</ele><time>2026-04-24T15:31:49.075Z</time></trkpt><trkpt lat="43.3960383" lon="11.7544733"><ele>285.0</ele><time>2026-04-24T15:31:51.073Z</time></trkpt><trkpt lat="43.3961267" lon="11.7544017"><ele>285.0</ele><time>2026-04-24T15:31:53.074Z</time></trkpt><trkpt lat="43.3962217" lon="11.7543283"><ele>285.0</ele><time>2026-04-24T15:31:55.074Z</time></trkpt><trkpt lat="43.3963167" lon="11.7542483"><ele>285.0</ele><time>2026-04-24T15:31:57.071Z</time></trkpt><trkpt lat="43.3964167" lon="11.75418"><ele>285.0</ele><time>2026-04-24T15:31:59.074Z</time></trkpt><trkpt lat="43.3965133" lon="11.7541067"><ele>285.0</ele><time>2026-04-24T15:32:01.075Z</time></trkpt><trkpt lat="43.3966033" lon="11.7540333"><ele>285.0</ele><time>2026-04-24T15:32:03.072Z</time></trkpt><trkpt lat="43.3966883" lon="11.7539567"><ele>285.0</ele><time>2026-04-24T15:32:05.075Z</time></trkpt><trkpt lat="43.3967767" lon="11.753875"><ele>285.0</ele><time>2026-04-24T15:32:07.074Z</time></trkpt><trkpt lat="43.3968667" lon="11.7537933"><ele>285.0</ele><time>2026-04-24T15:32:09.072Z</time></trkpt><trkpt lat="43.3969567" lon="11.7537083"><ele>285.0</ele><time>2026-04-24T15:32:11.072Z</time></trkpt><trkpt lat="43.3970467" lon="11.7536283"><ele>285.0</ele><time>2026-04-24T15:32:13.074Z</time></trkpt><trkpt lat="43.39714" lon="11.7535517"><ele>283.8</ele><time>2026-04-24T15:32:15.075Z</time></trkpt><trkpt lat="43.3972267" lon="11.753485"><ele>282.6</ele><time>2026-04-24T15:32:17.073Z</time></trkpt><trkpt lat="43.3973133" lon="11.75342"><ele>281.4</ele><time>2026-04-24T15:32:19.072Z</time></trkpt><trkpt lat="43.3974" lon="11.7533483"><ele>280.2</ele><time>2026-04-24T15:32:21.074Z</time></trkpt><trkpt lat="43.3974867" lon="11.7532833"><ele>279.0</ele><time>2026-04-24T15:32:23.075Z</time></trkpt><trkpt lat="43.3975767" lon="11.753215"><ele>279.0</ele><time>2026-04-24T15:32:25.075Z</time></trkpt><trkpt lat="43.397665" lon="11.75315"><ele>279.0</ele><time>2026-04-24T15:32:27.075Z</time></trkpt><trkpt lat="43.3977583" lon="11.75308"><ele>279.0</ele><time>2026-04-24T15:32:29.071Z</time></trkpt><trkpt lat="43.3978483" lon="11.7530033"><ele>279.0</ele><time>2026-04-24T15:32:31.071Z</time></trkpt><trkpt lat="43.3979333" lon="11.7529233"><ele>279.0</ele><time>2026-04-24T15:32:33.075Z</time></trkpt><trkpt lat="43.3980183" lon="11.7528583"><ele>279.1666666666667</ele><time>2026-04-24T15:32:35.077Z</time></trkpt><trkpt lat="43.3981017" lon="11.75279"><ele>279.3333333333333</ele><time>2026-04-24T15:32:37.074Z</time></trkpt><trkpt lat="43.3981783" lon="11.7527283"><ele>279.5</ele><time>2026-04-24T15:32:39.073Z</time></trkpt><trkpt lat="43.39825" lon="11.7526683"><ele>279.66666666666663</ele><time>2026-04-24T15:32:41.075Z</time></trkpt><trkpt lat="43.3983233" lon="11.75261"><ele>279.8333333333333</ele><time>2026-04-24T15:32:43.073Z</time></trkpt><trkpt lat="43.3983967" lon="11.7525533"><ele>280.0</ele><time>2026-04-24T15:32:45.072Z</time></trkpt><trkpt lat="43.3984683" lon="11.7524983"><ele>280.8333333333333</ele><time>2026-04-24T15:32:47.074Z</time></trkpt><trkpt lat="43.3985383" lon="11.7524367"><ele>281.66666666666663</ele><time>2026-04-24T15:32:49.072Z</time></trkpt><trkpt lat="43.3986083" lon="11.75238"><ele>282.5</ele><time>2026-04-24T15:32:51.072Z</time></trkpt><trkpt lat="43.39868" lon="11.75232"><ele>283.3333333333333</ele><time>2026-04-24T15:32:53.073Z</time></trkpt><trkpt lat="43.3987517" lon="11.7522533"><ele>284.1666666666667</ele><time>2026-04-24T15:32:55.074Z</time></trkpt><trkpt lat="43.3988233" lon="11.752185"><ele>285.0</ele><time>2026-04-24T15:32:57.075Z</time></trkpt><trkpt lat="43.3988917" lon="11.75212"><ele>285.0</ele><time>2026-04-24T15:32:59.072Z</time></trkpt><trkpt lat="43.3989583" lon="11.7520683"><ele>285.0</ele><time>2026-04-24T15:33:01.074Z</time></trkpt><trkpt lat="43.39903" lon="11.75203"><ele>285.0</ele><time>2026-04-24T15:33:03.073Z</time></trkpt><trkpt lat="43.3991067" lon="11.7519767"><ele>285.0</ele><time>2026-04-24T15:33:05.072Z</time></trkpt><trkpt lat="43.3991783" lon="11.7519267"><ele>285.0</ele><time>2026-04-24T15:33:07.073Z</time></trkpt><trkpt lat="43.3992467" lon="11.751885"><ele>285.0</ele><time>2026-04-24T15:33:09.074Z</time></trkpt><trkpt lat="43.3993183" lon="11.751845"><ele>285.0</ele><time>2026-04-24T15:33:11.073Z</time></trkpt><trkpt lat="43.39939" lon="11.7518067"><ele>285.0</ele><time>2026-04-24T15:33:13.075Z</time></trkpt><trkpt lat="43.3994667" lon="11.7517683"><ele>285.0</ele><time>2026-04-24T15:33:15.074Z</time></trkpt><trkpt lat="43.39954" lon="11.7517367"><ele>285.0</ele><time>2026-04-24T15:33:17.074Z</time></trkpt><trkpt lat="43.399615" lon="11.7517017"><ele>285.0</ele><time>2026-04-24T15:33:19.073Z</time></trkpt><trkpt lat="43.399695" lon="11.751665"><ele>285.0</ele><time>2026-04-24T15:33:21.074Z</time></trkpt><trkpt lat="43.3997683" lon="11.7516283"><ele>285.0</ele><time>2026-04-24T15:33:23.074Z</time></trkpt><trkpt lat="43.3998433" lon="11.7515967"><ele>285.0</ele><time>2026-04-24T15:33:25.076Z</time></trkpt><trkpt lat="43.399915" lon="11.751565"><ele>285.0</ele><time>2026-04-24T15:33:27.073Z</time></trkpt><trkpt lat="43.39999" lon="11.751535"><ele>285.0</ele><time>2026-04-24T15:33:29.073Z</time></trkpt><trkpt lat="43.40007" lon="11.7514967"><ele>285.0</ele><time>2026-04-24T15:33:31.074Z</time></trkpt><trkpt lat="43.4001467" lon="11.7514583"><ele>285.0</ele><time>2026-04-24T15:33:33.073Z</time></trkpt><trkpt lat="43.40022" lon="11.7514183"><ele>285.0</ele><time>2026-04-24T15:33:35.075Z</time></trkpt><trkpt lat="43.4002917" lon="11.7513883"><ele>285.0</ele><time>2026-04-24T15:33:37.073Z</time></trkpt><trkpt lat="43.4003683" lon="11.7513567"><ele>285.0</ele><time>2026-04-24T15:33:39.074Z</time></trkpt><trkpt lat="43.4004467" lon="11.751315"><ele>285.0</ele><time>2026-04-24T15:33:41.074Z</time></trkpt><trkpt lat="43.4005233" lon="11.7512733"><ele>285.0</ele><time>2026-04-24T15:33:43.072Z</time></trkpt><trkpt lat="43.4006" lon="11.7512317"><ele>285.0</ele><time>2026-04-24T15:33:45.072Z</time></trkpt><trkpt lat="43.4006767" lon="11.7512017"><ele>285.0</ele><time>2026-04-24T15:33:47.074Z</time></trkpt><trkpt lat="43.4007533" lon="11.75117"><ele>285.0</ele><time>2026-04-24T15:33:49.074Z</time></trkpt><trkpt lat="43.4008283" lon="11.7511417"><ele>285.0</ele><time>2026-04-24T15:33:51.074Z</time></trkpt><trkpt lat="43.400905" lon="11.7511083"><ele>285.0</ele><time>2026-04-24T15:33:53.074Z</time></trkpt><trkpt lat="43.4009783" lon="11.751075"><ele>285.0</ele><time>2026-04-24T15:33:55.075Z</time></trkpt><trkpt lat="43.401055" lon="11.751035"><ele>285.0</ele><time>2026-04-24T15:33:57.072Z</time></trkpt><trkpt lat="43.4011333" lon="11.7509983"><ele>285.5</ele><time>2026-04-24T15:33:59.072Z</time></trkpt><trkpt lat="43.4012067" lon="11.7509683"><ele>286.0</ele><time>2026-04-24T15:34:01.075Z</time></trkpt><trkpt lat="43.4012833" lon="11.750915"><ele>286.5</ele><time>2026-04-24T15:34:03.074Z</time></trkpt><trkpt lat="43.40136" lon="11.7508817"><ele>287.0</ele><time>2026-04-24T15:34:05.075Z</time></trkpt><trkpt lat="43.401435" lon="11.7508467"><ele>287.5</ele><time>2026-04-24T15:34:07.076Z</time></trkpt><trkpt lat="43.401505" lon="11.7508117"><ele>288.0</ele><time>2026-04-24T15:34:09.073Z</time></trkpt><trkpt lat="43.40158" lon="11.7507817"><ele>288.5</ele><time>2026-04-24T15:34:11.074Z</time></trkpt><trkpt lat="43.4016533" lon="11.7507517"><ele>289.0</ele><time>2026-04-24T15:34:13.073Z</time></trkpt><trkpt lat="43.401725" lon="11.7507233"><ele>289.5</ele><time>2026-04-24T15:34:15.074Z</time></trkpt><trkpt lat="43.4017933" lon="11.750695"><ele>290.0</ele><time>2026-04-24T15:34:17.073Z</time></trkpt><trkpt lat="43.401865" lon="11.7506633"><ele>290.5</ele><time>2026-04-24T15:34:19.077Z</time></trkpt><trkpt lat="43.4019367" lon="11.75063"><ele>291.0</ele><time>2026-04-24T15:34:21.074Z</time></trkpt><trkpt lat="43.4020083" lon="11.7505933"><ele>291.0</ele><time>2026-04-24T15:34:23.073Z</time></trkpt><trkpt lat="43.40208" lon="11.750555"><ele>291.0</ele><time>2026-04-24T15:34:25.074Z</time></trkpt><trkpt lat="43.4021517" lon="11.75052"><ele>291.0</ele><time>2026-04-24T15:34:27.073Z</time></trkpt><trkpt lat="43.40222" lon="11.75049"><ele>291.0</ele><time>2026-04-24T15:34:29.072Z</time></trkpt><trkpt lat="43.40229" lon="11.750455"><ele>291.0</ele><time>2026-04-24T15:34:31.072Z</time></trkpt><trkpt lat="43.4023633" lon="11.7504183"><ele>291.0</ele><time>2026-04-24T15:34:33.074Z</time></trkpt><trkpt lat="43.4024367" lon="11.750385"><ele>291.1666666666667</ele><time>2026-04-24T15:34:35.073Z</time></trkpt><trkpt lat="43.4025083" lon="11.750355"><ele>291.3333333333333</ele><time>2026-04-24T15:34:37.072Z</time></trkpt><trkpt lat="43.40258" lon="11.75032"><ele>291.5</ele><time>2026-04-24T15:34:39.075Z</time></trkpt><trkpt lat="43.402655" lon="11.7502883"><ele>291.66666666666663</ele><time>2026-04-24T15:34:41.073Z</time></trkpt><trkpt lat="43.4027317" lon="11.7502583"><ele>291.8333333333333</ele><time>2026-04-24T15:34:43.073Z</time></trkpt><trkpt lat="43.402805" lon="11.75023"><ele>292.0</ele><time>2026-04-24T15:34:45.077Z</time></trkpt><trkpt lat="43.4028817" lon="11.7502017"><ele>292.16666666666663</ele><time>2026-04-24T15:34:47.073Z</time></trkpt><trkpt lat="43.4029583" lon="11.7501633"><ele>292.3333333333333</ele><time>2026-04-24T15:34:49.074Z</time></trkpt><trkpt lat="43.403035" lon="11.7501333"><ele>292.5</ele><time>2026-04-24T15:34:51.075Z</time></trkpt><trkpt lat="43.4031083" lon="11.7501217"><ele>292.6666666666667</ele><time>2026-04-24T15:34:53.073Z</time></trkpt><trkpt lat="43.4031867" lon="11.7501"><ele>292.83333333333337</ele><time>2026-04-24T15:34:55.075Z</time></trkpt><trkpt lat="43.40327" lon="11.750075"><ele>293.0</ele><time>2026-04-24T15:34:57.072Z</time></trkpt><trkpt lat="43.4033467" lon="11.7500617"><ele>293.0</ele><time>2026-04-24T15:34:59.073Z</time></trkpt><trkpt lat="43.4034283" lon="11.7500317"><ele>293.0</ele><time>2026-04-24T15:35:01.075Z</time></trkpt><trkpt lat="43.4035067" lon="11.7500067"><ele>293.0</ele><time>2026-04-24T15:35:03.075Z</time></trkpt><trkpt lat="43.4035867" lon="11.7499833"><ele>293.0</ele><time>2026-04-24T15:35:05.074Z</time></trkpt><trkpt lat="43.4036633" lon="11.7499533"><ele>293.0</ele><time>2026-04-24T15:35:07.074Z</time></trkpt><trkpt lat="43.4037433" lon="11.7499367"><ele>293.0</ele><time>2026-04-24T15:35:09.073Z</time></trkpt><trkpt lat="43.4038217" lon="11.7499117"><ele>293.33333333333337</ele><time>2026-04-24T15:35:11.074Z</time></trkpt><trkpt lat="43.4038967" lon="11.7498883"><ele>293.6666666666667</ele><time>2026-04-24T15:35:13.076Z</time></trkpt><trkpt lat="43.40397" lon="11.7498633"><ele>294.0</ele><time>2026-04-24T15:35:15.075Z</time></trkpt><trkpt lat="43.4040467" lon="11.7498317"><ele>294.3333333333333</ele><time>2026-04-24T15:35:17.077Z</time></trkpt><trkpt lat="43.4041217" lon="11.749805"><ele>294.66666666666663</ele><time>2026-04-24T15:35:19.074Z</time></trkpt><trkpt lat="43.4041983" lon="11.749785"><ele>295.0</ele><time>2026-04-24T15:35:21.073Z</time></trkpt><trkpt lat="43.404275" lon="11.749765"><ele>295.00000000000006</ele><time>2026-04-24T15:35:23.075Z</time></trkpt><trkpt lat="43.4043483" lon="11.749745"><ele>295.0</ele><time>2026-04-24T15:35:25.076Z</time></trkpt><trkpt lat="43.4044217" lon="11.74973"><ele>295.0</ele><time>2026-04-24T15:35:27.073Z</time></trkpt><trkpt lat="43.4044933" lon="11.74971"><ele>295.0</ele><time>2026-04-24T15:35:29.073Z</time></trkpt><trkpt lat="43.4045633" lon="11.74969"><ele>295.0</ele><time>2026-04-24T15:35:31.074Z</time></trkpt><trkpt lat="43.40463" lon="11.7496667"><ele>295.00000000000006</ele><time>2026-04-24T15:35:33.074Z</time></trkpt><trkpt lat="43.4047" lon="11.7496417"><ele>295.0</ele><time>2026-04-24T15:35:35.073Z</time></trkpt><trkpt lat="43.4047767" lon="11.7496183"><ele>295.28571428571433</ele><time>2026-04-24T15:35:37.075Z</time></trkpt><trkpt lat="43.4048517" lon="11.7495967"><ele>295.57142857142856</ele><time>2026-04-24T15:35:39.075Z</time></trkpt><trkpt lat="43.4049317" lon="11.749575"><ele>295.8571428571429</ele><time>2026-04-24T15:35:41.076Z</time></trkpt><trkpt lat="43.4050017" lon="11.7495633"><ele>296.14285714285717</ele><time>2026-04-24T15:35:43.077Z</time></trkpt><trkpt lat="43.40507" lon="11.74955"><ele>296.42857142857144</ele><time>2026-04-24T15:35:45.073Z</time></trkpt><trkpt lat="43.4051367" lon="11.7495417"><ele>296.7142857142857</ele><time>2026-04-24T15:35:47.077Z</time></trkpt><trkpt lat="43.4052117" lon="11.7495417"><ele>297.0</ele><time>2026-04-24T15:35:49.075Z</time></trkpt><trkpt lat="43.4052917" lon="11.7495583"><ele>297.0</ele><time>2026-04-24T15:35:51.074Z</time></trkpt><trkpt lat="43.4053683" lon="11.7495667"><ele>297.0</ele><time>2026-04-24T15:35:53.074Z</time></trkpt><trkpt lat="43.4054533" lon="11.7495617"><ele>297.0</ele><time>2026-04-24T15:35:55.074Z</time></trkpt><trkpt lat="43.4055317" lon="11.7495583"><ele>297.0</ele><time>2026-04-24T15:35:57.076Z</time></trkpt><trkpt lat="43.4056133" lon="11.749555"><ele>297.0</ele><time>2026-04-24T15:35:59.074Z</time></trkpt><trkpt lat="43.4057" lon="11.7495567"><ele>297.0</ele><time>2026-04-24T15:36:01.073Z</time></trkpt><trkpt lat="43.4057783" lon="11.7495667"><ele>297.5</ele><time>2026-04-24T15:36:03.072Z</time></trkpt><trkpt lat="43.4058567" lon="11.7495867"><ele>298.0</ele><time>2026-04-24T15:36:05.076Z</time></trkpt><trkpt lat="43.4059367" lon="11.749605"><ele>298.5</ele><time>2026-04-24T15:36:07.075Z</time></trkpt><trkpt lat="43.406015" lon="11.749615"><ele>299.0</ele><time>2026-04-24T15:36:09.075Z</time></trkpt><trkpt lat="43.4060983" lon="11.7496267"><ele>299.5</ele><time>2026-04-24T15:36:11.072Z</time></trkpt><trkpt lat="43.40618" lon="11.7496367"><ele>300.0</ele><time>2026-04-24T15:36:13.075Z</time></trkpt><trkpt lat="43.4062583" lon="11.7496433"><ele>300.57142857142856</ele><time>2026-04-24T15:36:15.076Z</time></trkpt><trkpt lat="43.40633" lon="11.7496483"><ele>301.1428571428571</ele><time>2026-04-24T15:36:17.072Z</time></trkpt><trkpt lat="43.4064" lon="11.7496567"><ele>301.71428571428567</ele><time>2026-04-24T15:36:19.077Z</time></trkpt><trkpt lat="43.406465" lon="11.7496733"><ele>302.2857142857143</ele><time>2026-04-24T15:36:21.073Z</time></trkpt><trkpt lat="43.4065367" lon="11.749685"><ele>302.8571428571429</ele><time>2026-04-24T15:36:23.074Z</time></trkpt><trkpt lat="43.4066067" lon="11.7496983"><ele>303.4285714285714</ele><time>2026-04-24T15:36:25.074Z</time></trkpt><trkpt lat="43.4066733" lon="11.749715"><ele>304.0</ele><time>2026-04-24T15:36:27.077Z</time></trkpt><trkpt lat="43.4067433" lon="11.7497383"><ele>304.0</ele><time>2026-04-24T15:36:29.072Z</time></trkpt><trkpt lat="43.40681" lon="11.749755"><ele>304.0</ele><time>2026-04-24T15:36:31.073Z</time></trkpt><trkpt lat="43.4068817" lon="11.749795"><ele>304.0</ele><time>2026-04-24T15:36:33.074Z</time></trkpt><trkpt lat="43.40695" lon="11.74983"><ele>304.0</ele><time>2026-04-24T15:36:35.074Z</time></trkpt><trkpt lat="43.407015" lon="11.74986"><ele>304.0</ele><time>2026-04-24T15:36:37.075Z</time></trkpt><trkpt lat="43.40708" lon="11.7499"><ele>304.0</ele><time>2026-04-24T15:36:39.074Z</time></trkpt><trkpt lat="43.4071683" lon="11.7499433"><ele>304.4285714285714</ele><time>2026-04-24T15:36:42.072Z</time></trkpt><trkpt lat="43.4072383" lon="11.749985"><ele>304.8571428571429</ele><time>2026-04-24T15:36:44.073Z</time></trkpt><trkpt lat="43.4072967" lon="11.7500267"><ele>305.2857142857143</ele><time>2026-04-24T15:36:46.076Z</time></trkpt><trkpt lat="43.40736" lon="11.750055"><ele>305.71428571428567</ele><time>2026-04-24T15:36:48.076Z</time></trkpt><trkpt lat="43.4074217" lon="11.7500767"><ele>306.1428571428571</ele><time>2026-04-24T15:36:50.073Z</time></trkpt><trkpt lat="43.4074917" lon="11.7500767"><ele>306.57142857142856</ele><time>2026-04-24T15:36:52.073Z</time></trkpt><trkpt lat="43.4075567" lon="11.7500733"><ele>307.0</ele><time>2026-04-24T15:36:54.075Z</time></trkpt><trkpt lat="43.4076217" lon="11.7500567"><ele>306.99999999999994</ele><time>2026-04-24T15:36:56.072Z</time></trkpt><trkpt lat="43.40769" lon="11.7500317"><ele>307.0</ele><time>2026-04-24T15:36:58.073Z</time></trkpt><trkpt lat="43.4077667" lon="11.7499883"><ele>307.0</ele><time>2026-04-24T15:37:00.075Z</time></trkpt><trkpt lat="43.40783" lon="11.7499433"><ele>307.0</ele><time>2026-04-24T15:37:02.077Z</time></trkpt><trkpt lat="43.407895" lon="11.74991"><ele>307.0</ele><time>2026-04-24T15:37:04.079Z</time></trkpt><trkpt lat="43.40796" lon="11.7498683"><ele>306.99999999999994</ele><time>2026-04-24T15:37:06.077Z</time></trkpt><trkpt lat="43.4080217" lon="11.74982"><ele>307.0</ele><time>2026-04-24T15:37:08.076Z</time></trkpt><trkpt lat="43.408105" lon="11.7497583"><ele>307.2857142857143</ele><time>2026-04-24T15:37:11.075Z</time></trkpt><trkpt lat="43.4081667" lon="11.74972"><ele>307.57142857142856</ele><time>2026-04-24T15:37:13.074Z</time></trkpt><trkpt lat="43.4082233" lon="11.7496717"><ele>307.8571428571429</ele><time>2026-04-24T15:37:15.074Z</time></trkpt><trkpt lat="43.4082833" lon="11.74963"><ele>308.1428571428571</ele><time>2026-04-24T15:37:17.075Z</time></trkpt><trkpt lat="43.4083433" lon="11.7495867"><ele>308.42857142857144</ele><time>2026-04-24T15:37:19.074Z</time></trkpt><trkpt lat="43.408405" lon="11.7495517"><ele>308.7142857142857</ele><time>2026-04-24T15:37:21.075Z</time></trkpt><trkpt lat="43.408485" lon="11.7495133"><ele>309.0</ele><time>2026-04-24T15:37:24.078Z</time></trkpt><trkpt lat="43.408565" lon="11.7494517"><ele>309.0</ele><time>2026-04-24T15:37:27.072Z</time></trkpt><trkpt lat="43.4086433" lon="11.7493883"><ele>309.0</ele><time>2026-04-24T15:37:30.075Z</time></trkpt><trkpt lat="43.40872" lon="11.7493217"><ele>309.0</ele><time>2026-04-24T15:37:33.074Z</time></trkpt><trkpt lat="43.408805" lon="11.7492667"><ele>309.0</ele><time>2026-04-24T15:37:36.074Z</time></trkpt><trkpt lat="43.4088633" lon="11.749225"><ele>309.0</ele><time>2026-04-24T15:37:38.078Z</time></trkpt><trkpt lat="43.4089267" lon="11.7491767"><ele>309.0</ele><time>2026-04-24T15:37:40.073Z</time></trkpt><trkpt lat="43.4089883" lon="11.74914"><ele>309.3333333333333</ele><time>2026-04-24T15:37:42.075Z</time></trkpt><trkpt lat="43.4090483" lon="11.7490983"><ele>309.6666666666667</ele><time>2026-04-24T15:37:44.074Z</time></trkpt><trkpt lat="43.40911" lon="11.7490533"><ele>310.0</ele><time>2026-04-24T15:37:46.074Z</time></trkpt><trkpt lat="43.4091683" lon="11.749005"><ele>310.33333333333337</ele><time>2026-04-24T15:37:48.073Z</time></trkpt><trkpt lat="43.40925" lon="11.7489483"><ele>310.6666666666667</ele><time>2026-04-24T15:37:51.074Z</time></trkpt><trkpt lat="43.40933" lon="11.7488883"><ele>311.0</ele><time>2026-04-24T15:37:54.077Z</time></trkpt><trkpt lat="43.4094217" lon="11.748895"><ele>311.0</ele><time>2026-04-24T15:37:57.076Z</time></trkpt><trkpt lat="43.4094917" lon="11.748925"><ele>311.0</ele><time>2026-04-24T15:37:59.075Z</time></trkpt><trkpt lat="43.4095567" lon="11.748995"><ele>311.0</ele><time>2026-04-24T15:38:01.073Z</time></trkpt><trkpt lat="43.4096033" lon="11.74911"><ele>311.0</ele><time>2026-04-24T15:38:03.074Z</time></trkpt><trkpt lat="43.40963" lon="11.7492667"><ele>311.0</ele><time>2026-04-24T15:38:05.076Z</time></trkpt><trkpt lat="43.40964" lon="11.7493583"><ele>311.0</ele><time>2026-04-24T15:38:06.073Z</time></trkpt><trkpt lat="43.4096517" lon="11.74945"><ele>310.83333333333337</ele><time>2026-04-24T15:38:07.075Z</time></trkpt><trkpt lat="43.4096667" lon="11.7495517"><ele>310.6666666666667</ele><time>2026-04-24T15:38:08.074Z</time></trkpt><trkpt lat="43.4096733" lon="11.7496533"><ele>310.5</ele><time>2026-04-24T15:38:09.073Z</time></trkpt><trkpt lat="43.4096883" lon="11.7497617"><ele>310.3333333333333</ele><time>2026-04-24T15:38:10.074Z</time></trkpt><trkpt lat="43.409705" lon="11.749875"><ele>310.16666666666663</ele><time>2026-04-24T15:38:11.073Z</time></trkpt><trkpt lat="43.4097217" lon="11.7499867"><ele>310.0</ele><time>2026-04-24T15:38:12.074Z</time></trkpt><trkpt lat="43.4097383" lon="11.7501033"><ele>309.6</ele><time>2026-04-24T15:38:13.077Z</time></trkpt><trkpt lat="43.4097583" lon="11.750225"><ele>309.2</ele><time>2026-04-24T15:38:14.075Z</time></trkpt><trkpt lat="43.40978" lon="11.750355"><ele>308.8</ele><time>2026-04-24T15:38:15.072Z</time></trkpt><trkpt lat="43.409805" lon="11.750485"><ele>308.4</ele><time>2026-04-24T15:38:16.075Z</time></trkpt><trkpt lat="43.40983" lon="11.7506083"><ele>308.0</ele><time>2026-04-24T15:38:17.075Z</time></trkpt><trkpt lat="43.4098467" lon="11.750735"><ele>308.0</ele><time>2026-04-24T15:38:18.074Z</time></trkpt><trkpt lat="43.4098667" lon="11.75086"><ele>308.0</ele><time>2026-04-24T15:38:19.072Z</time></trkpt><trkpt lat="43.4098883" lon="11.7509867"><ele>308.0</ele><time>2026-04-24T15:38:20.073Z</time></trkpt><trkpt lat="43.409905" lon="11.75111"><ele>308.0</ele><time>2026-04-24T15:38:21.075Z</time></trkpt><trkpt lat="43.40992" lon="11.75123"><ele>308.0</ele><time>2026-04-24T15:38:22.074Z</time></trkpt><trkpt lat="43.4099283" lon="11.751345"><ele>308.5</ele><time>2026-04-24T15:38:23.073Z</time></trkpt><trkpt lat="43.4099317" lon="11.751455"><ele>309.0</ele><time>2026-04-24T15:38:24.073Z</time></trkpt><trkpt lat="43.4099233" lon="11.7515633"><ele>309.5</ele><time>2026-04-24T15:38:25.076Z</time></trkpt><trkpt lat="43.4099117" lon="11.75167"><ele>310.0</ele><time>2026-04-24T15:38:26.078Z</time></trkpt><trkpt lat="43.4098983" lon="11.751775"><ele>310.5</ele><time>2026-04-24T15:38:27.071Z</time></trkpt><trkpt lat="43.4098817" lon="11.75188"><ele>311.0</ele><time>2026-04-24T15:38:28.072Z</time></trkpt><trkpt lat="43.4098633" lon="11.7519783"><ele>311.0</ele><time>2026-04-24T15:38:29.073Z</time></trkpt><trkpt lat="43.4098433" lon="11.7520783"><ele>311.0</ele><time>2026-04-24T15:38:30.072Z</time></trkpt><trkpt lat="43.4098183" lon="11.7521733"><ele>311.0</ele><time>2026-04-24T15:38:31.073Z</time></trkpt><trkpt lat="43.409785" lon="11.752265"><ele>311.0</ele><time>2026-04-24T15:38:32.073Z</time></trkpt><trkpt lat="43.4097467" lon="11.752355"><ele>311.0</ele><time>2026-04-24T15:38:33.073Z</time></trkpt><trkpt lat="43.409705" lon="11.7524417"><ele>311.0</ele><time>2026-04-24T15:38:34.074Z</time></trkpt><trkpt lat="43.40966" lon="11.752525"><ele>310.5</ele><time>2026-04-24T15:38:35.072Z</time></trkpt><trkpt lat="43.4096167" lon="11.7526033"><ele>310.0</ele><time>2026-04-24T15:38:36.077Z</time></trkpt><trkpt lat="43.409575" lon="11.7526767"><ele>309.5</ele><time>2026-04-24T15:38:37.074Z</time></trkpt><trkpt lat="43.409535" lon="11.7527517"><ele>309.0</ele><time>2026-04-24T15:38:38.075Z</time></trkpt><trkpt lat="43.4094983" lon="11.7528233"><ele>308.5</ele><time>2026-04-24T15:38:39.073Z</time></trkpt><trkpt lat="43.4094333" lon="11.752965"><ele>308.0</ele><time>2026-04-24T15:38:41.076Z</time></trkpt><trkpt lat="43.4093717" lon="11.7530883"><ele>308.0</ele><time>2026-04-24T15:38:43.074Z</time></trkpt><trkpt lat="43.4093167" lon="11.75318"><ele>308.0</ele><time>2026-04-24T15:38:45.077Z</time></trkpt><trkpt lat="43.4092817" lon="11.7532733"><ele>308.0</ele><time>2026-04-24T15:38:48.075Z</time></trkpt><trkpt lat="43.40936" lon="11.7533"><ele>308.0</ele><time>2026-04-24T15:39:00.074Z</time></trkpt><trkpt lat="43.409425" lon="11.7533133"><ele>308.0</ele><time>2026-04-24T15:39:03.073Z</time></trkpt><trkpt lat="43.4094883" lon="11.753385"><ele>308.0</ele><time>2026-04-24T15:39:07.074Z</time></trkpt><trkpt lat="43.4095233" lon="11.7534767"><ele>308.33333333333337</ele><time>2026-04-24T15:39:10.073Z</time></trkpt><trkpt lat="43.40955" lon="11.7535817"><ele>308.6666666666667</ele><time>2026-04-24T15:39:13.075Z</time></trkpt><trkpt lat="43.4095817" lon="11.7536817"><ele>309.0</ele><time>2026-04-24T15:39:16.075Z</time></trkpt><trkpt lat="43.4096083" lon="11.7537917"><ele>309.3333333333333</ele><time>2026-04-24T15:39:19.076Z</time></trkpt><trkpt lat="43.4096317" lon="11.7538967"><ele>309.66666666666663</ele><time>2026-04-24T15:39:22.072Z</time></trkpt><trkpt lat="43.409635" lon="11.7540033"><ele>310.0</ele><time>2026-04-24T15:39:25.075Z</time></trkpt><trkpt lat="43.4096183" lon="11.7541167"><ele>310.0</ele><time>2026-04-24T15:39:28.074Z</time></trkpt><trkpt lat="43.4095917" lon="11.7542267"><ele>310.0</ele><time>2026-04-24T15:39:31.076Z</time></trkpt><trkpt lat="43.4095567" lon="11.7543433"><ele>310.0</ele><time>2026-04-24T15:39:34.072Z</time></trkpt><trkpt lat="43.4095183" lon="11.7544433"><ele>310.0</ele><time>2026-04-24T15:39:36.076Z</time></trkpt><trkpt lat="43.40947" lon="11.7545383"><ele>310.0</ele><time>2026-04-24T15:39:38.074Z</time></trkpt><trkpt lat="43.409415" lon="11.7546333"><ele>310.0</ele><time>2026-04-24T15:39:40.074Z</time></trkpt><trkpt lat="43.4093483" lon="11.7547383"><ele>310.0</ele><time>2026-04-24T15:39:42.073Z</time></trkpt><trkpt lat="43.4092817" lon="11.7548483"><ele>310.0</ele><time>2026-04-24T15:39:44.076Z</time></trkpt><trkpt lat="43.409215" lon="11.7549667"><ele>310.0</ele><time>2026-04-24T15:39:46.074Z</time></trkpt><trkpt lat="43.40915" lon="11.7550867"><ele>310.0</ele><time>2026-04-24T15:39:48.076Z</time></trkpt><trkpt lat="43.4090833" lon="11.755205"><ele>310.0</ele><time>2026-04-24T15:39:50.075Z</time></trkpt><trkpt lat="43.4090167" lon="11.755315"><ele>310.16666666666663</ele><time>2026-04-24T15:39:52.072Z</time></trkpt><trkpt lat="43.4089567" lon="11.7554233"><ele>310.3333333333333</ele><time>2026-04-24T15:39:54.073Z</time></trkpt><trkpt lat="43.4089133" lon="11.7555433"><ele>310.5</ele><time>2026-04-24T15:39:56.073Z</time></trkpt><trkpt lat="43.4089117" lon="11.755655"><ele>310.6666666666667</ele><time>2026-04-24T15:39:58.073Z</time></trkpt><trkpt lat="43.4089267" lon="11.7557633"><ele>310.83333333333337</ele><time>2026-04-24T15:40:00.074Z</time></trkpt><trkpt lat="43.4089517" lon="11.7558583"><ele>311.0</ele><time>2026-04-24T15:40:02.075Z</time></trkpt><trkpt lat="43.4089817" lon="11.7559567"><ele>312.1428571428571</ele><time>2026-04-24T15:40:04.075Z</time></trkpt><trkpt lat="43.4090167" lon="11.7560417"><ele>313.28571428571433</ele><time>2026-04-24T15:40:06.075Z</time></trkpt><trkpt lat="43.4090533" lon="11.7561217"><ele>314.42857142857144</ele><time>2026-04-24T15:40:08.074Z</time></trkpt><trkpt lat="43.4090867" lon="11.7561967"><ele>315.57142857142856</ele><time>2026-04-24T15:40:10.074Z</time></trkpt><trkpt lat="43.4091267" lon="11.756265"><ele>316.71428571428567</ele><time>2026-04-24T15:40:12.073Z</time></trkpt><trkpt lat="43.4091683" lon="11.7563317"><ele>317.8571428571429</ele><time>2026-04-24T15:40:14.075Z</time></trkpt><trkpt lat="43.4092333" lon="11.756435"><ele>319.0</ele><time>2026-04-24T15:40:17.073Z</time></trkpt><trkpt lat="43.40929" lon="11.7565183"><ele>319.0</ele><time>2026-04-24T15:40:19.074Z</time></trkpt><trkpt lat="43.4093617" lon="11.7565967"><ele>319.0</ele><time>2026-04-24T15:40:21.077Z</time></trkpt><trkpt lat="43.40944" lon="11.7566867"><ele>319.0</ele><time>2026-04-24T15:40:23.075Z</time></trkpt><trkpt lat="43.4095333" lon="11.75677"><ele>319.0</ele><time>2026-04-24T15:40:25.074Z</time></trkpt><trkpt lat="43.409585" lon="11.75682"><ele>319.0</ele><time>2026-04-24T15:40:26.075Z</time></trkpt><trkpt lat="43.4096983" lon="11.7569133"><ele>317.2857142857143</ele><time>2026-04-24T15:40:28.078Z</time></trkpt><trkpt lat="43.4097617" lon="11.75698"><ele>315.57142857142856</ele><time>2026-04-24T15:40:29.076Z</time></trkpt><trkpt lat="43.40982" lon="11.757025"><ele>313.85714285714283</ele><time>2026-04-24T15:40:30.074Z</time></trkpt><trkpt lat="43.4098767" lon="11.7570717"><ele>312.1428571428571</ele><time>2026-04-24T15:40:31.073Z</time></trkpt><trkpt lat="43.4099333" lon="11.757115"><ele>310.42857142857144</ele><time>2026-04-24T15:40:32.076Z</time></trkpt><trkpt lat="43.4099933" lon="11.75716"><ele>308.71428571428567</ele><time>2026-04-24T15:40:33.072Z</time></trkpt><trkpt lat="43.41005" lon="11.7572033"><ele>307.0</ele><time>2026-04-24T15:40:34.073Z</time></trkpt><trkpt lat="43.4101067" lon="11.7572533"><ele>307.0</ele><time>2026-04-24T15:40:35.073Z</time></trkpt><trkpt lat="43.41016" lon="11.7573"><ele>307.0</ele><time>2026-04-24T15:40:36.076Z</time></trkpt><trkpt lat="43.410265" lon="11.7573867"><ele>307.0</ele><time>2026-04-24T15:40:38.075Z</time></trkpt><trkpt lat="43.4103567" lon="11.7574583"><ele>307.0</ele><time>2026-04-24T15:40:40.072Z</time></trkpt><trkpt lat="43.4104633" lon="11.7574983"><ele>307.0</ele><time>2026-04-24T15:40:42.073Z</time></trkpt><trkpt lat="43.4105317" lon="11.7575033"><ele>305.16666666666663</ele><time>2026-04-24T15:40:43.073Z</time></trkpt><trkpt lat="43.4106067" lon="11.7574983"><ele>303.3333333333333</ele><time>2026-04-24T15:40:44.075Z</time></trkpt><trkpt lat="43.41069" lon="11.757485"><ele>301.5</ele><time>2026-04-24T15:40:45.075Z</time></trkpt><trkpt lat="43.4107767" lon="11.757455"><ele>299.6666666666667</ele><time>2026-04-24T15:40:46.074Z</time></trkpt><trkpt lat="43.41086" lon="11.757425"><ele>297.83333333333337</ele><time>2026-04-24T15:40:47.072Z</time></trkpt><trkpt lat="43.4109467" lon="11.7573933"><ele>296.0</ele><time>2026-04-24T15:40:48.073Z</time></trkpt><trkpt lat="43.41103" lon="11.7573633"><ele>296.0</ele><time>2026-04-24T15:40:49.074Z</time></trkpt><trkpt lat="43.41111" lon="11.757335"><ele>296.0</ele><time>2026-04-24T15:40:50.076Z</time></trkpt><trkpt lat="43.4111867" lon="11.75731"><ele>296.0</ele><time>2026-04-24T15:40:51.073Z</time></trkpt><trkpt lat="43.41126" lon="11.7572917"><ele>296.0</ele><time>2026-04-24T15:40:52.075Z</time></trkpt><trkpt lat="43.41133" lon="11.757285"><ele>296.0</ele><time>2026-04-24T15:40:53.076Z</time></trkpt><trkpt lat="43.4113933" lon="11.7572883"><ele>296.0</ele><time>2026-04-24T15:40:54.076Z</time></trkpt><trkpt lat="43.411505" lon="11.7573183"><ele>296.1666666666667</ele><time>2026-04-24T15:40:56.076Z</time></trkpt><trkpt lat="43.4115967" lon="11.7573567"><ele>296.33333333333337</ele><time>2026-04-24T15:40:58.074Z</time></trkpt><trkpt lat="43.4116717" lon="11.7574"><ele>296.5</ele><time>2026-04-24T15:41:00.073Z</time></trkpt><trkpt lat="43.4117317" lon="11.7574467"><ele>296.6666666666667</ele><time>2026-04-24T15:41:02.074Z</time></trkpt><trkpt lat="43.41179" lon="11.7574933"><ele>296.8333333333333</ele><time>2026-04-24T15:41:04.079Z</time></trkpt><trkpt lat="43.4118483" lon="11.7575517"><ele>297.0</ele><time>2026-04-24T15:41:06.073Z</time></trkpt><trkpt lat="43.4119033" lon="11.7576167"><ele>296.8</ele><time>2026-04-24T15:41:08.074Z</time></trkpt><trkpt lat="43.41195" lon="11.757705"><ele>296.6</ele><time>2026-04-24T15:41:10.073Z</time></trkpt><trkpt lat="43.4119983" lon="11.75781"><ele>296.40000000000003</ele><time>2026-04-24T15:41:12.072Z</time></trkpt><trkpt lat="43.4120533" lon="11.757925"><ele>296.2</ele><time>2026-04-24T15:41:14.073Z</time></trkpt><trkpt lat="43.4121217" lon="11.7580433"><ele>296.0</ele><time>2026-04-24T15:41:16.073Z</time></trkpt><trkpt lat="43.412205" lon="11.7581483"><ele>296.0</ele><time>2026-04-24T15:41:18.075Z</time></trkpt><trkpt lat="43.41231" lon="11.7582217"><ele>296.0</ele><time>2026-04-24T15:41:20.074Z</time></trkpt><trkpt lat="43.41243" lon="11.7582583"><ele>296.0</ele><time>2026-04-24T15:41:22.075Z</time></trkpt><trkpt lat="43.4124933" lon="11.7582633"><ele>296.0</ele><time>2026-04-24T15:41:23.074Z</time></trkpt><trkpt lat="43.4126167" lon="11.7582483"><ele>296.0</ele><time>2026-04-24T15:41:25.076Z</time></trkpt><trkpt lat="43.4126783" lon="11.758225"><ele>296.0</ele><time>2026-04-24T15:41:26.075Z</time></trkpt><trkpt lat="43.4127383" lon="11.7581983"><ele>296.0</ele><time>2026-04-24T15:41:27.073Z</time></trkpt><trkpt lat="43.4127967" lon="11.758165"><ele>296.0</ele><time>2026-04-24T15:41:28.076Z</time></trkpt><trkpt lat="43.4129083" lon="11.7580833"><ele>296.0</ele><time>2026-04-24T15:41:30.073Z</time></trkpt><trkpt lat="43.4129683" lon="11.758045"><ele>296.0</ele><time>2026-04-24T15:41:31.074Z</time></trkpt><trkpt lat="43.4130283" lon="11.758005"><ele>296.0</ele><time>2026-04-24T15:41:32.074Z</time></trkpt><trkpt lat="43.4130883" lon="11.7579617"><ele>296.40000000000003</ele><time>2026-04-24T15:41:33.076Z</time></trkpt><trkpt lat="43.413145" lon="11.75792"><ele>296.8</ele><time>2026-04-24T15:41:34.073Z</time></trkpt><trkpt lat="43.413205" lon="11.75788"><ele>297.20000000000005</ele><time>2026-04-24T15:41:35.074Z</time></trkpt><trkpt lat="43.4133167" lon="11.75781"><ele>297.6</ele><time>2026-04-24T15:41:37.073Z</time></trkpt><trkpt lat="43.41342" lon="11.7577517"><ele>298.0</ele><time>2026-04-24T15:41:39.073Z</time></trkpt><trkpt lat="43.4135167" lon="11.757685"><ele>298.0</ele><time>2026-04-24T15:41:41.076Z</time></trkpt><trkpt lat="43.41361" lon="11.75762"><ele>298.0</ele><time>2026-04-24T15:41:43.075Z</time></trkpt><trkpt lat="43.4136967" lon="11.757555"><ele>298.0</ele><time>2026-04-24T15:41:45.074Z</time></trkpt><trkpt lat="43.413785" lon="11.757485"><ele>298.0</ele><time>2026-04-24T15:41:47.074Z</time></trkpt><trkpt lat="43.4138633" lon="11.7574283"><ele>298.0</ele><time>2026-04-24T15:41:49.078Z</time></trkpt><trkpt lat="43.413935" lon="11.75739"><ele>298.0</ele><time>2026-04-24T15:41:51.074Z</time></trkpt><trkpt lat="43.4140067" lon="11.7573617"><ele>298.0</ele><time>2026-04-24T15:41:53.076Z</time></trkpt><trkpt lat="43.4140717" lon="11.757325"><ele>298.0</ele><time>2026-04-24T15:41:55.074Z</time></trkpt><trkpt lat="43.4141433" lon="11.7572883"><ele>298.0</ele><time>2026-04-24T15:41:57.073Z</time></trkpt><trkpt lat="43.41422" lon="11.7572617"><ele>298.0</ele><time>2026-04-24T15:41:59.073Z</time></trkpt><trkpt lat="43.4143117" lon="11.7572367"><ele>298.0</ele><time>2026-04-24T15:42:01.073Z</time></trkpt><trkpt lat="43.41442" lon="11.7572217"><ele>298.0</ele><time>2026-04-24T15:42:03.075Z</time></trkpt><trkpt lat="43.4144833" lon="11.757225"><ele>298.0</ele><time>2026-04-24T15:42:04.075Z</time></trkpt><trkpt lat="43.41455" lon="11.757245"><ele>298.0</ele><time>2026-04-24T15:42:05.072Z</time></trkpt><trkpt lat="43.414615" lon="11.7572783"><ele>298.0</ele><time>2026-04-24T15:42:06.074Z</time></trkpt><trkpt lat="43.4146833" lon="11.7573117"><ele>298.0</ele><time>2026-04-24T15:42:07.073Z</time></trkpt><trkpt lat="43.4147533" lon="11.75735"><ele>298.0</ele><time>2026-04-24T15:42:08.074Z</time></trkpt><trkpt lat="43.4148233" lon="11.757385"><ele>298.0</ele><time>2026-04-24T15:42:09.074Z</time></trkpt><trkpt lat="43.41489" lon="11.7574217"><ele>297.1428571428571</ele><time>2026-04-24T15:42:10.076Z</time></trkpt><trkpt lat="43.4149567" lon="11.7574633"><ele>296.2857142857143</ele><time>2026-04-24T15:42:11.075Z</time></trkpt><trkpt lat="43.41502" lon="11.75752"><ele>295.42857142857144</ele><time>2026-04-24T15:42:12.074Z</time></trkpt><trkpt lat="43.4150767" lon="11.7575983"><ele>294.57142857142856</ele><time>2026-04-24T15:42:13.073Z</time></trkpt><trkpt lat="43.41512" lon="11.7576817"><ele>293.7142857142857</ele><time>2026-04-24T15:42:14.076Z</time></trkpt><trkpt lat="43.4151483" lon="11.7577733"><ele>292.85714285714283</ele><time>2026-04-24T15:42:15.075Z</time></trkpt><trkpt lat="43.4151667" lon="11.7578667"><ele>292.0</ele><time>2026-04-24T15:42:16.075Z</time></trkpt><trkpt lat="43.415175" lon="11.7579617"><ele>291.3333333333333</ele><time>2026-04-24T15:42:17.078Z</time></trkpt><trkpt lat="43.4151817" lon="11.7580567"><ele>290.66666666666663</ele><time>2026-04-24T15:42:18.073Z</time></trkpt><trkpt lat="43.41519" lon="11.7581517"><ele>290.0</ele><time>2026-04-24T15:42:19.072Z</time></trkpt><trkpt lat="43.415195" lon="11.7582383"><ele>289.3333333333333</ele><time>2026-04-24T15:42:20.074Z</time></trkpt><trkpt lat="43.4152233" lon="11.7583983"><ele>288.6666666666667</ele><time>2026-04-24T15:42:22.074Z</time></trkpt><trkpt lat="43.4153017" lon="11.75853"><ele>288.0</ele><time>2026-04-24T15:42:24.075Z</time></trkpt><trkpt lat="43.4153583" lon="11.7585717"><ele>287.5714285714286</ele><time>2026-04-24T15:42:25.074Z</time></trkpt><trkpt lat="43.4154233" lon="11.7585967"><ele>287.14285714285717</ele><time>2026-04-24T15:42:26.075Z</time></trkpt><trkpt lat="43.4154933" lon="11.7586117"><ele>286.7142857142857</ele><time>2026-04-24T15:42:27.073Z</time></trkpt><trkpt lat="43.4155683" lon="11.758625"><ele>286.28571428571433</ele><time>2026-04-24T15:42:28.075Z</time></trkpt><trkpt lat="43.4156467" lon="11.758645"><ele>285.8571428571429</ele><time>2026-04-24T15:42:29.076Z</time></trkpt><trkpt lat="43.4157167" lon="11.75867"><ele>285.42857142857144</ele><time>2026-04-24T15:42:30.076Z</time></trkpt><trkpt lat="43.4157933" lon="11.7586933"><ele>285.0</ele><time>2026-04-24T15:42:31.074Z</time></trkpt><trkpt lat="43.415865" lon="11.7587233"><ele>285.0</ele><time>2026-04-24T15:42:32.074Z</time></trkpt><trkpt lat="43.415925" lon="11.7587567"><ele>285.0</ele><time>2026-04-24T15:42:33.075Z</time></trkpt><trkpt lat="43.416015" lon="11.758835"><ele>285.0</ele><time>2026-04-24T15:42:35.076Z</time></trkpt><trkpt lat="43.416095" lon="11.7589083"><ele>285.0</ele><time>2026-04-24T15:42:37.074Z</time></trkpt><trkpt lat="43.416145" lon="11.758975"><ele>285.0</ele><time>2026-04-24T15:42:39.073Z</time></trkpt><trkpt lat="43.4161967" lon="11.7590383"><ele>285.0</ele><time>2026-04-24T15:42:41.074Z</time></trkpt><trkpt lat="43.4162483" lon="11.7591033"><ele>285.0</ele><time>2026-04-24T15:42:43.073Z</time></trkpt><trkpt lat="43.4163083" lon="11.7591683"><ele>285.0</ele><time>2026-04-24T15:42:45.072Z</time></trkpt><trkpt lat="43.41636" lon="11.7592367"><ele>285.0</ele><time>2026-04-24T15:42:47.073Z</time></trkpt><trkpt lat="43.41641" lon="11.7593"><ele>285.0</ele><time>2026-04-24T15:42:49.074Z</time></trkpt><trkpt lat="43.4164633" lon="11.75936"><ele>285.0</ele><time>2026-04-24T15:42:51.074Z</time></trkpt><trkpt lat="43.4165117" lon="11.7594283"><ele>285.0</ele><time>2026-04-24T15:42:53.073Z</time></trkpt><trkpt lat="43.4165633" lon="11.759495"><ele>285.0</ele><time>2026-04-24T15:42:55.074Z</time></trkpt><trkpt lat="43.4166067" lon="11.7595633"><ele>285.3333333333333</ele><time>2026-04-24T15:42:57.074Z</time></trkpt><trkpt lat="43.416645" lon="11.7596333"><ele>285.6666666666667</ele><time>2026-04-24T15:42:59.074Z</time></trkpt><trkpt lat="43.4166983" lon="11.7597183"><ele>286.0</ele><time>2026-04-24T15:43:01.074Z</time></trkpt><trkpt lat="43.4167367" lon="11.7597983"><ele>286.33333333333337</ele><time>2026-04-24T15:43:03.074Z</time></trkpt><trkpt lat="43.4167867" lon="11.75987"><ele>286.6666666666667</ele><time>2026-04-24T15:43:05.076Z</time></trkpt><trkpt lat="43.4168583" lon="11.7598967"><ele>287.0</ele><time>2026-04-24T15:43:07.074Z</time></trkpt><trkpt lat="43.416945" lon="11.75986"><ele>287.0</ele><time>2026-04-24T15:43:09.075Z</time></trkpt><trkpt lat="43.416985" lon="11.7597767"><ele>287.0</ele><time>2026-04-24T15:43:11.075Z</time></trkpt><trkpt lat="43.41702" lon="11.7596933"><ele>287.0</ele><time>2026-04-24T15:43:13.077Z</time></trkpt><trkpt lat="43.41705" lon="11.7596117"><ele>287.0</ele><time>2026-04-24T15:43:15.074Z</time></trkpt><trkpt lat="43.4170817" lon="11.7595283"><ele>287.0</ele><time>2026-04-24T15:43:17.072Z</time></trkpt><trkpt lat="43.4171133" lon="11.75944"><ele>287.0</ele><time>2026-04-24T15:43:19.075Z</time></trkpt><trkpt lat="43.4171517" lon="11.759355"><ele>287.0</ele><time>2026-04-24T15:43:21.073Z</time></trkpt><trkpt lat="43.4171933" lon="11.759275"><ele>287.83333333333337</ele><time>2026-04-24T15:43:23.073Z</time></trkpt><trkpt lat="43.4172317" lon="11.7591917"><ele>288.6666666666667</ele><time>2026-04-24T15:43:25.075Z</time></trkpt><trkpt lat="43.4172733" lon="11.7591083"><ele>289.5</ele><time>2026-04-24T15:43:27.074Z</time></trkpt><trkpt lat="43.417315" lon="11.7590267"><ele>290.3333333333333</ele><time>2026-04-24T15:43:29.075Z</time></trkpt><trkpt lat="43.417355" lon="11.758935"><ele>291.16666666666663</ele><time>2026-04-24T15:43:31.074Z</time></trkpt><trkpt lat="43.4174017" lon="11.758845"><ele>292.0</ele><time>2026-04-24T15:43:33.075Z</time></trkpt><trkpt lat="43.4174483" lon="11.7587633"><ele>292.0</ele><time>2026-04-24T15:43:35.074Z</time></trkpt><trkpt lat="43.417505" lon="11.7586967"><ele>292.0</ele><time>2026-04-24T15:43:37.075Z</time></trkpt><trkpt lat="43.41757" lon="11.758635"><ele>292.0</ele><time>2026-04-24T15:43:39.074Z</time></trkpt><trkpt lat="43.4176417" lon="11.7585933"><ele>292.0</ele><time>2026-04-24T15:43:41.075Z</time></trkpt><trkpt lat="43.4177167" lon="11.758565"><ele>292.0</ele><time>2026-04-24T15:43:43.073Z</time></trkpt><trkpt lat="43.4177867" lon="11.75857"><ele>292.0</ele><time>2026-04-24T15:43:45.073Z</time></trkpt><trkpt lat="43.4178633" lon="11.7585733"><ele>292.0</ele><time>2026-04-24T15:43:47.073Z</time></trkpt><trkpt lat="43.4179433" lon="11.7585817"><ele>292.0</ele><time>2026-04-24T15:43:49.074Z</time></trkpt><trkpt lat="43.4180217" lon="11.7585917"><ele>292.0</ele><time>2026-04-24T15:43:51.073Z</time></trkpt><trkpt lat="43.418105" lon="11.758595"><ele>292.0</ele><time>2026-04-24T15:43:53.073Z</time></trkpt><trkpt lat="43.41819" lon="11.7585983"><ele>292.0</ele><time>2026-04-24T15:43:55.074Z</time></trkpt><trkpt lat="43.4182783" lon="11.7586033"><ele>292.0</ele><time>2026-04-24T15:43:57.073Z</time></trkpt><trkpt lat="43.4183683" lon="11.7586183"><ele>292.2</ele><time>2026-04-24T15:43:59.072Z</time></trkpt><trkpt lat="43.4184633" lon="11.75863"><ele>292.4</ele><time>2026-04-24T15:44:01.075Z</time></trkpt><trkpt lat="43.4185617" lon="11.758645"><ele>292.6</ele><time>2026-04-24T15:44:03.075Z</time></trkpt><trkpt lat="43.4186567" lon="11.7586683"><ele>292.8</ele><time>2026-04-24T15:44:05.077Z</time></trkpt><trkpt lat="43.4187467" lon="11.7586983"><ele>293.0</ele><time>2026-04-24T15:44:07.076Z</time></trkpt><trkpt lat="43.41882" lon="11.75872"><ele>293.2857142857143</ele><time>2026-04-24T15:44:09.075Z</time></trkpt><trkpt lat="43.418885" lon="11.758735"><ele>293.57142857142856</ele><time>2026-04-24T15:44:11.077Z</time></trkpt><trkpt lat="43.418965" lon="11.758765"><ele>293.8571428571429</ele><time>2026-04-24T15:44:14.075Z</time></trkpt><trkpt lat="43.4190283" lon="11.7587833"><ele>294.1428571428571</ele><time>2026-04-24T15:44:16.073Z</time></trkpt><trkpt lat="43.41909" lon="11.7588033"><ele>294.42857142857144</ele><time>2026-04-24T15:44:18.073Z</time></trkpt><trkpt lat="43.419175" lon="11.7588183"><ele>294.7142857142857</ele><time>2026-04-24T15:44:21.075Z</time></trkpt><trkpt lat="43.41924" lon="11.75882"><ele>295.0</ele><time>2026-04-24T15:44:24.073Z</time></trkpt><trkpt lat="43.4193" lon="11.75879"><ele>295.0</ele><time>2026-04-24T15:44:27.074Z</time></trkpt><trkpt lat="43.4193683" lon="11.75873"><ele>295.0</ele><time>2026-04-24T15:44:30.075Z</time></trkpt><trkpt lat="43.41942" lon="11.75865"><ele>295.0</ele><time>2026-04-24T15:44:33.075Z</time></trkpt><trkpt lat="43.4194483" lon="11.7585367"><ele>295.0</ele><time>2026-04-24T15:44:36.074Z</time></trkpt><trkpt lat="43.4194583" lon="11.758425"><ele>295.0</ele><time>2026-04-24T15:44:39.072Z</time></trkpt><trkpt lat="43.4194667" lon="11.7583167"><ele>295.0</ele><time>2026-04-24T15:44:42.075Z</time></trkpt><trkpt lat="43.4194717" lon="11.7582133"><ele>295.5</ele><time>2026-04-24T15:44:45.074Z</time></trkpt><trkpt lat="43.4194717" lon="11.7580983"><ele>296.0</ele><time>2026-04-24T15:44:48.074Z</time></trkpt><trkpt lat="43.419475" lon="11.7579833"><ele>296.5</ele><time>2026-04-24T15:44:51.074Z</time></trkpt><trkpt lat="43.4194733" lon="11.7578783"><ele>297.0</ele><time>2026-04-24T15:44:54.075Z</time></trkpt><trkpt lat="43.4194967" lon="11.7577883"><ele>297.5</ele><time>2026-04-24T15:44:57.072Z</time></trkpt><trkpt lat="43.419575" lon="11.7577417"><ele>298.0</ele><time>2026-04-24T15:45:00.073Z</time></trkpt><trkpt lat="43.41965" lon="11.7577433"><ele>298.0</ele><time>2026-04-24T15:45:02.075Z</time></trkpt><trkpt lat="43.41974" lon="11.75777"><ele>298.0</ele><time>2026-04-24T15:45:04.073Z</time></trkpt><trkpt lat="43.41984" lon="11.7578083"><ele>298.0</ele><time>2026-04-24T15:45:06.075Z</time></trkpt><trkpt lat="43.4199433" lon="11.7578583"><ele>298.0</ele><time>2026-04-24T15:45:08.073Z</time></trkpt><trkpt lat="43.4200517" lon="11.75791"><ele>298.0</ele><time>2026-04-24T15:45:10.076Z</time></trkpt><trkpt lat="43.4201683" lon="11.7579633"><ele>298.0</ele><time>2026-04-24T15:45:12.074Z</time></trkpt><trkpt lat="43.42029" lon="11.7580183"><ele>298.0</ele><time>2026-04-24T15:45:14.074Z</time></trkpt><trkpt lat="43.4204083" lon="11.7580733"><ele>298.0</ele><time>2026-04-24T15:45:16.073Z</time></trkpt><trkpt lat="43.4204717" lon="11.7581"><ele>298.0</ele><time>2026-04-24T15:45:17.075Z</time></trkpt><trkpt lat="43.4205333" lon="11.7581283"><ele>298.0</ele><time>2026-04-24T15:45:18.072Z</time></trkpt><trkpt lat="43.420595" lon="11.7581583"><ele>298.16666666666663</ele><time>2026-04-24T15:45:19.076Z</time></trkpt><trkpt lat="43.420655" lon="11.7581883"><ele>298.3333333333333</ele><time>2026-04-24T15:45:20.075Z</time></trkpt><trkpt lat="43.4207167" lon="11.758215"><ele>298.5</ele><time>2026-04-24T15:45:21.074Z</time></trkpt><trkpt lat="43.4207783" lon="11.7582467"><ele>298.6666666666667</ele><time>2026-04-24T15:45:22.075Z</time></trkpt><trkpt lat="43.4208817" lon="11.758345"><ele>298.83333333333337</ele><time>2026-04-24T15:45:24.076Z</time></trkpt><trkpt lat="43.42092" lon="11.7584167"><ele>299.0</ele><time>2026-04-24T15:45:25.072Z</time></trkpt><trkpt lat="43.420945" lon="11.7585"><ele>298.2857142857143</ele><time>2026-04-24T15:45:26.074Z</time></trkpt><trkpt lat="43.4209667" lon="11.75859"><ele>297.57142857142856</ele><time>2026-04-24T15:45:27.075Z</time></trkpt><trkpt lat="43.4209833" lon="11.7586833"><ele>296.8571428571429</ele><time>2026-04-24T15:45:28.073Z</time></trkpt><trkpt lat="43.421005" lon="11.758775"><ele>296.1428571428571</ele><time>2026-04-24T15:45:29.075Z</time></trkpt><trkpt lat="43.42103" lon="11.7588717"><ele>295.42857142857144</ele><time>2026-04-24T15:45:30.075Z</time></trkpt><trkpt lat="43.4210617" lon="11.7589667"><ele>294.7142857142857</ele><time>2026-04-24T15:45:31.073Z</time></trkpt><trkpt lat="43.4211" lon="11.7590617"><ele>294.0</ele><time>2026-04-24T15:45:32.076Z</time></trkpt><trkpt lat="43.421145" lon="11.759155"><ele>294.0</ele><time>2026-04-24T15:45:33.074Z</time></trkpt><trkpt lat="43.4211933" lon="11.7592433"><ele>294.0</ele><time>2026-04-24T15:45:34.076Z</time></trkpt><trkpt lat="43.4212433" lon="11.7593333"><ele>294.0</ele><time>2026-04-24T15:45:35.075Z</time></trkpt><trkpt lat="43.42129" lon="11.759425"><ele>294.0</ele><time>2026-04-24T15:45:36.075Z</time></trkpt><trkpt lat="43.42134" lon="11.7595133"><ele>294.0</ele><time>2026-04-24T15:45:37.074Z</time></trkpt><trkpt lat="43.4213883" lon="11.7596"><ele>294.0</ele><time>2026-04-24T15:45:38.075Z</time></trkpt><trkpt lat="43.4214283" lon="11.7596917"><ele>293.6666666666667</ele><time>2026-04-24T15:45:39.075Z</time></trkpt><trkpt lat="43.4214617" lon="11.7597867"><ele>293.3333333333333</ele><time>2026-04-24T15:45:40.076Z</time></trkpt><trkpt lat="43.4214783" lon="11.75989"><ele>293.0</ele><time>2026-04-24T15:45:41.077Z</time></trkpt><trkpt lat="43.4214767" lon="11.759995"><ele>292.66666666666663</ele><time>2026-04-24T15:45:42.072Z</time></trkpt><trkpt lat="43.4214583" lon="11.7600983"><ele>292.3333333333333</ele><time>2026-04-24T15:45:43.075Z</time></trkpt><trkpt lat="43.4214283" lon="11.7602017"><ele>292.0</ele><time>2026-04-24T15:45:44.074Z</time></trkpt><trkpt lat="43.4213983" lon="11.7603017"><ele>291.42857142857144</ele><time>2026-04-24T15:45:45.074Z</time></trkpt><trkpt lat="43.4213667" lon="11.7603917"><ele>290.8571428571429</ele><time>2026-04-24T15:45:46.074Z</time></trkpt><trkpt lat="43.4213333" lon="11.76048"><ele>290.28571428571433</ele><time>2026-04-24T15:45:47.075Z</time></trkpt><trkpt lat="43.421305" lon="11.7605633"><ele>289.7142857142857</ele><time>2026-04-24T15:45:48.078Z</time></trkpt><trkpt lat="43.4212767" lon="11.7606483"><ele>289.14285714285717</ele><time>2026-04-24T15:45:49.075Z</time></trkpt><trkpt lat="43.4212467" lon="11.7607317"><ele>288.5714285714286</ele><time>2026-04-24T15:45:50.075Z</time></trkpt><trkpt lat="43.4212167" lon="11.7608133"><ele>288.0</ele><time>2026-04-24T15:45:51.074Z</time></trkpt><trkpt lat="43.4211883" lon="11.7608933"><ele>288.00000000000006</ele><time>2026-04-24T15:45:52.079Z</time></trkpt><trkpt lat="43.4211567" lon="11.760975"><ele>288.0</ele><time>2026-04-24T15:45:53.076Z</time></trkpt><trkpt lat="43.42112" lon="11.7610533"><ele>288.0</ele><time>2026-04-24T15:45:54.078Z</time></trkpt><trkpt lat="43.4210833" lon="11.76113"><ele>288.0</ele><time>2026-04-24T15:45:55.073Z</time></trkpt><trkpt lat="43.4210517" lon="11.7612117"><ele>288.0</ele><time>2026-04-24T15:45:56.075Z</time></trkpt><trkpt lat="43.4210183" lon="11.7612933"><ele>288.00000000000006</ele><time>2026-04-24T15:45:57.076Z</time></trkpt><trkpt lat="43.4209833" lon="11.7613667"><ele>288.0</ele><time>2026-04-24T15:45:58.076Z</time></trkpt><trkpt lat="43.4209233" lon="11.7615133"><ele>287.8571428571429</ele><time>2026-04-24T15:46:00.075Z</time></trkpt><trkpt lat="43.420895" lon="11.7615917"><ele>287.7142857142857</ele><time>2026-04-24T15:46:01.074Z</time></trkpt><trkpt lat="43.4208683" lon="11.7616733"><ele>287.57142857142856</ele><time>2026-04-24T15:46:02.074Z</time></trkpt><trkpt lat="43.4208383" lon="11.7617583"><ele>287.42857142857144</ele><time>2026-04-24T15:46:03.073Z</time></trkpt><trkpt lat="43.4208083" lon="11.7618433"><ele>287.2857142857143</ele><time>2026-04-24T15:46:04.075Z</time></trkpt><trkpt lat="43.4207767" lon="11.7619333"><ele>287.14285714285717</ele><time>2026-04-24T15:46:05.074Z</time></trkpt><trkpt lat="43.4207483" lon="11.7620217"><ele>287.0</ele><time>2026-04-24T15:46:06.074Z</time></trkpt><trkpt lat="43.42072" lon="11.7621117"><ele>286.7142857142857</ele><time>2026-04-24T15:46:07.073Z</time></trkpt><trkpt lat="43.4206967" lon="11.7622"><ele>286.42857142857144</ele><time>2026-04-24T15:46:08.072Z</time></trkpt><trkpt lat="43.4206683" lon="11.76229"><ele>286.1428571428571</ele><time>2026-04-24T15:46:09.075Z</time></trkpt><trkpt lat="43.42064" lon="11.7623817"><ele>285.8571428571429</ele><time>2026-04-24T15:46:10.075Z</time></trkpt><trkpt lat="43.4206117" lon="11.76247"><ele>285.57142857142856</ele><time>2026-04-24T15:46:11.075Z</time></trkpt><trkpt lat="43.4205867" lon="11.762565"><ele>285.2857142857143</ele><time>2026-04-24T15:46:12.075Z</time></trkpt><trkpt lat="43.4205617" lon="11.7626533"><ele>285.0</ele><time>2026-04-24T15:46:13.074Z</time></trkpt><trkpt lat="43.4205383" lon="11.7627383"><ele>285.0</ele><time>2026-04-24T15:46:14.077Z</time></trkpt><trkpt lat="43.4205133" lon="11.762825"><ele>285.0</ele><time>2026-04-24T15:46:15.075Z</time></trkpt><trkpt lat="43.4204883" lon="11.7629117"><ele>285.0</ele><time>2026-04-24T15:46:16.072Z</time></trkpt><trkpt lat="43.4204617" lon="11.7629933"><ele>285.0</ele><time>2026-04-24T15:46:17.075Z</time></trkpt><trkpt lat="43.4204367" lon="11.7630733"><ele>285.0</ele><time>2026-04-24T15:46:18.074Z</time></trkpt><trkpt lat="43.4204083" lon="11.7631517"><ele>285.0</ele><time>2026-04-24T15:46:19.074Z</time></trkpt><trkpt lat="43.420375" lon="11.7632283"><ele>285.0</ele><time>2026-04-24T15:46:20.076Z</time></trkpt><trkpt lat="43.42034" lon="11.763305"><ele>284.8</ele><time>2026-04-24T15:46:21.074Z</time></trkpt><trkpt lat="43.4202683" lon="11.763445"><ele>284.6</ele><time>2026-04-24T15:46:23.075Z</time></trkpt><trkpt lat="43.420195" lon="11.7635883"><ele>284.4</ele><time>2026-04-24T15:46:25.075Z</time></trkpt><trkpt lat="43.4201583" lon="11.7636633"><ele>284.2</ele><time>2026-04-24T15:46:26.073Z</time></trkpt><trkpt lat="43.4201217" lon="11.7637417"><ele>284.0</ele><time>2026-04-24T15:46:27.073Z</time></trkpt><trkpt lat="43.4200833" lon="11.7638183"><ele>284.42857142857144</ele><time>2026-04-24T15:46:28.076Z</time></trkpt><trkpt lat="43.4200433" lon="11.7638917"><ele>284.85714285714283</ele><time>2026-04-24T15:46:29.072Z</time></trkpt><trkpt lat="43.420005" lon="11.763965"><ele>285.2857142857143</ele><time>2026-04-24T15:46:30.075Z</time></trkpt><trkpt lat="43.41997" lon="11.7640417"><ele>285.7142857142857</ele><time>2026-04-24T15:46:31.073Z</time></trkpt><trkpt lat="43.4199317" lon="11.7641183"><ele>286.1428571428571</ele><time>2026-04-24T15:46:32.074Z</time></trkpt><trkpt lat="43.419895" lon="11.764195"><ele>286.57142857142856</ele><time>2026-04-24T15:46:33.074Z</time></trkpt><trkpt lat="43.4198583" lon="11.7642717"><ele>287.0</ele><time>2026-04-24T15:46:34.074Z</time></trkpt><trkpt lat="43.4198183" lon="11.76435"><ele>286.57142857142856</ele><time>2026-04-24T15:46:35.072Z</time></trkpt><trkpt lat="43.4197833" lon="11.7644333"><ele>286.1428571428571</ele><time>2026-04-24T15:46:36.078Z</time></trkpt><trkpt lat="43.4197483" lon="11.7645183"><ele>285.7142857142857</ele><time>2026-04-24T15:46:37.073Z</time></trkpt><trkpt lat="43.4197117" lon="11.7646017"><ele>285.2857142857143</ele><time>2026-04-24T15:46:38.075Z</time></trkpt><trkpt lat="43.4196717" lon="11.764685"><ele>284.85714285714283</ele><time>2026-04-24T15:46:39.075Z</time></trkpt><trkpt lat="43.4196267" lon="11.7647633"><ele>284.42857142857144</ele><time>2026-04-24T15:46:40.073Z</time></trkpt><trkpt lat="43.4195833" lon="11.764845"><ele>284.0</ele><time>2026-04-24T15:46:41.076Z</time></trkpt><trkpt lat="43.4195433" lon="11.764925"><ele>283.57142857142856</ele><time>2026-04-24T15:46:42.073Z</time></trkpt><trkpt lat="43.4195" lon="11.7650033"><ele>283.1428571428571</ele><time>2026-04-24T15:46:43.075Z</time></trkpt><trkpt lat="43.4194567" lon="11.7650833"><ele>282.7142857142857</ele><time>2026-04-24T15:46:44.074Z</time></trkpt><trkpt lat="43.419415" lon="11.765165"><ele>282.2857142857143</ele><time>2026-04-24T15:46:45.074Z</time></trkpt><trkpt lat="43.4193733" lon="11.7652467"><ele>281.8571428571429</ele><time>2026-04-24T15:46:46.073Z</time></trkpt><trkpt lat="43.4193333" lon="11.7653283"><ele>281.42857142857144</ele><time>2026-04-24T15:46:47.073Z</time></trkpt><trkpt lat="43.4192967" lon="11.7654133"><ele>281.0</ele><time>2026-04-24T15:46:48.074Z</time></trkpt><trkpt lat="43.4192617" lon="11.7655"><ele>281.00000000000006</ele><time>2026-04-24T15:46:49.073Z</time></trkpt><trkpt lat="43.4192317" lon="11.76559"><ele>281.0</ele><time>2026-04-24T15:46:50.076Z</time></trkpt><trkpt lat="43.4192067" lon="11.76568"><ele>281.0</ele><time>2026-04-24T15:46:51.075Z</time></trkpt><trkpt lat="43.419185" lon="11.7657717"><ele>281.0</ele><time>2026-04-24T15:46:52.077Z</time></trkpt><trkpt lat="43.4191667" lon="11.76586"><ele>281.0</ele><time>2026-04-24T15:46:53.075Z</time></trkpt><trkpt lat="43.4191517" lon="11.765945"><ele>281.00000000000006</ele><time>2026-04-24T15:46:54.074Z</time></trkpt><trkpt lat="43.41914" lon="11.7660333"><ele>281.0</ele><time>2026-04-24T15:46:55.073Z</time></trkpt><trkpt lat="43.4191267" lon="11.7661233"><ele>280.7142857142857</ele><time>2026-04-24T15:46:56.074Z</time></trkpt><trkpt lat="43.419115" lon="11.7662167"><ele>280.42857142857144</ele><time>2026-04-24T15:46:57.077Z</time></trkpt><trkpt lat="43.4191017" lon="11.7663133"><ele>280.1428571428571</ele><time>2026-04-24T15:46:58.077Z</time></trkpt><trkpt lat="43.4190933" lon="11.7664117"><ele>279.8571428571429</ele><time>2026-04-24T15:46:59.074Z</time></trkpt><trkpt lat="43.419085" lon="11.7665083"><ele>279.57142857142856</ele><time>2026-04-24T15:47:00.074Z</time></trkpt><trkpt lat="43.4190717" lon="11.766605"><ele>279.2857142857143</ele><time>2026-04-24T15:47:01.075Z</time></trkpt><trkpt lat="43.4190567" lon="11.7667"><ele>279.0</ele><time>2026-04-24T15:47:02.078Z</time></trkpt><trkpt lat="43.4190367" lon="11.766795"><ele>279.0</ele><time>2026-04-24T15:47:03.076Z</time></trkpt><trkpt lat="43.41901" lon="11.766895"><ele>279.0</ele><time>2026-04-24T15:47:04.074Z</time></trkpt><trkpt lat="43.4189783" lon="11.7669967"><ele>279.0</ele><time>2026-04-24T15:47:05.073Z</time></trkpt><trkpt lat="43.4189383" lon="11.7670883"><ele>279.0</ele><time>2026-04-24T15:47:06.078Z</time></trkpt><trkpt lat="43.4188983" lon="11.767175"><ele>279.0</ele><time>2026-04-24T15:47:07.073Z</time></trkpt><trkpt lat="43.4188567" lon="11.7672617"><ele>279.0</ele><time>2026-04-24T15:47:08.075Z</time></trkpt><trkpt lat="43.4188133" lon="11.7673467"><ele>278.71428571428567</ele><time>2026-04-24T15:47:09.074Z</time></trkpt><trkpt lat="43.418775" lon="11.7674333"><ele>278.42857142857144</ele><time>2026-04-24T15:47:10.076Z</time></trkpt><trkpt lat="43.4187383" lon="11.76752"><ele>278.1428571428571</ele><time>2026-04-24T15:47:11.075Z</time></trkpt><trkpt lat="43.4187117" lon="11.767615"><ele>277.85714285714283</ele><time>2026-04-24T15:47:12.074Z</time></trkpt><trkpt lat="43.4186933" lon="11.76771"><ele>277.57142857142856</ele><time>2026-04-24T15:47:13.074Z</time></trkpt><trkpt lat="43.418675" lon="11.7678033"><ele>277.2857142857143</ele><time>2026-04-24T15:47:14.076Z</time></trkpt><trkpt lat="43.41866" lon="11.7678983"><ele>277.0</ele><time>2026-04-24T15:47:15.077Z</time></trkpt><trkpt lat="43.41865" lon="11.767995"><ele>277.0</ele><time>2026-04-24T15:47:16.077Z</time></trkpt><trkpt lat="43.4186433" lon="11.7680917"><ele>277.0</ele><time>2026-04-24T15:47:17.074Z</time></trkpt><trkpt lat="43.4186333" lon="11.768185"><ele>277.0</ele><time>2026-04-24T15:47:18.075Z</time></trkpt><trkpt lat="43.418615" lon="11.7682733"><ele>277.0</ele><time>2026-04-24T15:47:19.072Z</time></trkpt><trkpt lat="43.4185983" lon="11.7683633"><ele>277.0</ele><time>2026-04-24T15:47:20.074Z</time></trkpt><trkpt lat="43.4185833" lon="11.7684583"><ele>277.0</ele><time>2026-04-24T15:47:21.075Z</time></trkpt><trkpt lat="43.4185683" lon="11.7685533"><ele>277.0</ele><time>2026-04-24T15:47:22.074Z</time></trkpt><trkpt lat="43.4185583" lon="11.7686417"><ele>277.0</ele><time>2026-04-24T15:47:23.075Z</time></trkpt><trkpt lat="43.4185517" lon="11.7687317"><ele>277.0</ele><time>2026-04-24T15:47:24.077Z</time></trkpt><trkpt lat="43.4185433" lon="11.768825"><ele>277.0</ele><time>2026-04-24T15:47:25.074Z</time></trkpt><trkpt lat="43.4185367" lon="11.768915"><ele>277.0</ele><time>2026-04-24T15:47:26.076Z</time></trkpt><trkpt lat="43.4185333" lon="11.76901"><ele>277.0</ele><time>2026-04-24T15:47:27.074Z</time></trkpt><trkpt lat="43.4185317" lon="11.7691017"><ele>277.0</ele><time>2026-04-24T15:47:28.075Z</time></trkpt><trkpt lat="43.4185317" lon="11.7691983"><ele>277.0</ele><time>2026-04-24T15:47:29.075Z</time></trkpt><trkpt lat="43.4185283" lon="11.769295"><ele>276.5</ele><time>2026-04-24T15:47:30.074Z</time></trkpt><trkpt lat="43.4185267" lon="11.7693983"><ele>276.0</ele><time>2026-04-24T15:47:31.073Z</time></trkpt><trkpt lat="43.4185233" lon="11.7695033"><ele>275.5</ele><time>2026-04-24T15:47:32.077Z</time></trkpt><trkpt lat="43.4185217" lon="11.7696117"><ele>275.0</ele><time>2026-04-24T15:47:33.074Z</time></trkpt><trkpt lat="43.4185167" lon="11.76972"><ele>274.5</ele><time>2026-04-24T15:47:34.072Z</time></trkpt><trkpt lat="43.41851" lon="11.7698283"><ele>274.0</ele><time>2026-04-24T15:47:35.072Z</time></trkpt><trkpt lat="43.418505" lon="11.7699333"><ele>274.0</ele><time>2026-04-24T15:47:36.072Z</time></trkpt><trkpt lat="43.4185033" lon="11.7700417"><ele>274.0</ele><time>2026-04-24T15:47:37.075Z</time></trkpt><trkpt lat="43.4185" lon="11.7701483"><ele>274.0</ele><time>2026-04-24T15:47:38.075Z</time></trkpt><trkpt lat="43.4184967" lon="11.7702533"><ele>274.0</ele><time>2026-04-24T15:47:39.073Z</time></trkpt><trkpt lat="43.4184917" lon="11.77036"><ele>274.0</ele><time>2026-04-24T15:47:40.073Z</time></trkpt><trkpt lat="43.41848" lon="11.7704617"><ele>274.0</ele><time>2026-04-24T15:47:41.076Z</time></trkpt><trkpt lat="43.4184533" lon="11.7705533"><ele>273.7142857142857</ele><time>2026-04-24T15:47:42.074Z</time></trkpt><trkpt lat="43.4184133" lon="11.7706333"><ele>273.42857142857144</ele><time>2026-04-24T15:47:43.076Z</time></trkpt><trkpt lat="43.4183633" lon="11.7707017"><ele>273.1428571428571</ele><time>2026-04-24T15:47:44.075Z</time></trkpt><trkpt lat="43.4183017" lon="11.7707433"><ele>272.8571428571429</ele><time>2026-04-24T15:47:45.072Z</time></trkpt><trkpt lat="43.4182333" lon="11.77077"><ele>272.57142857142856</ele><time>2026-04-24T15:47:46.075Z</time></trkpt><trkpt lat="43.4181617" lon="11.7708067"><ele>272.2857142857143</ele><time>2026-04-24T15:47:47.073Z</time></trkpt><trkpt lat="43.4180983" lon="11.7708567"><ele>272.0</ele><time>2026-04-24T15:47:48.073Z</time></trkpt><trkpt lat="43.4180467" lon="11.77092"><ele>272.0</ele><time>2026-04-24T15:47:49.073Z</time></trkpt><trkpt lat="43.418" lon="11.7709917"><ele>272.0</ele><time>2026-04-24T15:47:50.077Z</time></trkpt><trkpt lat="43.41796" lon="11.7710667"><ele>272.0</ele><time>2026-04-24T15:47:51.074Z</time></trkpt><trkpt lat="43.4178917" lon="11.7712133"><ele>272.0</ele><time>2026-04-24T15:47:53.073Z</time></trkpt><trkpt lat="43.417825" lon="11.7713533"><ele>272.0</ele><time>2026-04-24T15:47:55.077Z</time></trkpt><trkpt lat="43.4177583" lon="11.7714867"><ele>271.5</ele><time>2026-04-24T15:47:57.075Z</time></trkpt><trkpt lat="43.4177133" lon="11.7716383"><ele>271.0</ele><time>2026-04-24T15:47:59.075Z</time></trkpt><trkpt lat="43.417705" lon="11.7717933"><ele>270.5</ele><time>2026-04-24T15:48:01.075Z</time></trkpt><trkpt lat="43.4177217" lon="11.771955"><ele>270.0</ele><time>2026-04-24T15:48:03.075Z</time></trkpt><trkpt lat="43.41775" lon="11.7721233"><ele>269.5</ele><time>2026-04-24T15:48:05.075Z</time></trkpt><trkpt lat="43.417775" lon="11.7722867"><ele>269.0</ele><time>2026-04-24T15:48:07.076Z</time></trkpt><trkpt lat="43.4177967" lon="11.7724167"><ele>268.5</ele><time>2026-04-24T15:48:09.074Z</time></trkpt><trkpt lat="43.4178117" lon="11.7725017"><ele>268.0</ele><time>2026-04-24T15:48:11.076Z</time></trkpt><trkpt lat="43.417805" lon="11.7726133"><ele>267.5</ele><time>2026-04-24T15:48:26.073Z</time></trkpt><trkpt lat="43.4178083" lon="11.7727"><ele>267.0</ele><time>2026-04-24T15:48:28.074Z</time></trkpt><trkpt lat="43.4177967" lon="11.77279"><ele>267.0</ele><time>2026-04-24T15:48:30.076Z</time></trkpt><trkpt lat="43.4177817" lon="11.772905"><ele>267.0</ele><time>2026-04-24T15:48:33.074Z</time></trkpt><trkpt lat="43.41777" lon="11.7730283"><ele>267.0</ele><time>2026-04-24T15:48:36.075Z</time></trkpt><trkpt lat="43.4177617" lon="11.7731533"><ele>267.0</ele><time>2026-04-24T15:48:39.073Z</time></trkpt><trkpt lat="43.4177417" lon="11.7732633"><ele>267.0</ele><time>2026-04-24T15:48:42.074Z</time></trkpt><trkpt lat="43.41773" lon="11.7733683"><ele>267.0</ele><time>2026-04-24T15:48:45.074Z</time></trkpt><trkpt lat="43.4177267" lon="11.7734867"><ele>266.5</ele><time>2026-04-24T15:48:48.074Z</time></trkpt><trkpt lat="43.4177283" lon="11.77359"><ele>266.0</ele><time>2026-04-24T15:48:51.075Z</time></trkpt><trkpt lat="43.4177283" lon="11.7736933"><ele>265.5</ele><time>2026-04-24T15:48:54.075Z</time></trkpt><trkpt lat="43.4177117" lon="11.7738033"><ele>265.0</ele><time>2026-04-24T15:48:58.076Z</time></trkpt><trkpt lat="43.417695" lon="11.7739067"><ele>264.5</ele><time>2026-04-24T15:49:01.075Z</time></trkpt><trkpt lat="43.41768" lon="11.7740367"><ele>264.0</ele><time>2026-04-24T15:49:04.077Z</time></trkpt><trkpt lat="43.4176733" lon="11.77413"><ele>264.0</ele><time>2026-04-24T15:49:06.076Z</time></trkpt><trkpt lat="43.4176633" lon="11.7742267"><ele>264.0</ele><time>2026-04-24T15:49:08.074Z</time></trkpt><trkpt lat="43.417655" lon="11.7743267"><ele>264.0</ele><time>2026-04-24T15:49:10.074Z</time></trkpt><trkpt lat="43.417645" lon="11.7744233"><ele>264.0</ele><time>2026-04-24T15:49:12.076Z</time></trkpt><trkpt lat="43.4176317" lon="11.774525"><ele>264.0</ele><time>2026-04-24T15:49:14.076Z</time></trkpt><trkpt lat="43.4176217" lon="11.7746133"><ele>264.0</ele><time>2026-04-24T15:49:16.072Z</time></trkpt><trkpt lat="43.41761" lon="11.77472"><ele>264.0</ele><time>2026-04-24T15:49:19.075Z</time></trkpt><trkpt lat="43.4176" lon="11.7748117"><ele>263.85714285714283</ele><time>2026-04-24T15:49:21.076Z</time></trkpt><trkpt lat="43.4175917" lon="11.7749"><ele>263.7142857142857</ele><time>2026-04-24T15:49:23.074Z</time></trkpt><trkpt lat="43.4175783" lon="11.775025"><ele>263.57142857142856</ele><time>2026-04-24T15:49:26.075Z</time></trkpt><trkpt lat="43.4175717" lon="11.775115"><ele>263.42857142857144</ele><time>2026-04-24T15:49:28.077Z</time></trkpt><trkpt lat="43.4175567" lon="11.7752333"><ele>263.2857142857143</ele><time>2026-04-24T15:49:31.075Z</time></trkpt><trkpt lat="43.4175433" lon="11.7753267"><ele>263.1428571428571</ele><time>2026-04-24T15:49:35.076Z</time></trkpt><trkpt lat="43.4175283" lon="11.775415"><ele>263.0</ele><time>2026-04-24T15:49:38.074Z</time></trkpt><trkpt lat="43.4175167" lon="11.7755217"><ele>263.33333333333337</ele><time>2026-04-24T15:49:41.074Z</time></trkpt><trkpt lat="43.4175117" lon="11.7756433"><ele>263.6666666666667</ele><time>2026-04-24T15:49:44.075Z</time></trkpt><trkpt lat="43.4175033" lon="11.77576"><ele>264.0</ele><time>2026-04-24T15:49:47.075Z</time></trkpt><trkpt lat="43.4174983" lon="11.7758683"><ele>264.3333333333333</ele><time>2026-04-24T15:49:50.072Z</time></trkpt><trkpt lat="43.4174917" lon="11.7759633"><ele>264.66666666666663</ele><time>2026-04-24T15:49:53.074Z</time></trkpt><trkpt lat="43.417485" lon="11.7760767"><ele>265.0</ele><time>2026-04-24T15:49:56.074Z</time></trkpt><trkpt lat="43.417485" lon="11.7762"><ele>265.0</ele><time>2026-04-24T15:49:59.076Z</time></trkpt><trkpt lat="43.4174833" lon="11.7762867"><ele>265.0</ele><time>2026-04-24T15:50:02.075Z</time></trkpt><trkpt lat="43.4174767" lon="11.7764017"><ele>265.0</ele><time>2026-04-24T15:50:05.074Z</time></trkpt><trkpt lat="43.417465" lon="11.7765317"><ele>265.0</ele><time>2026-04-24T15:50:08.075Z</time></trkpt><trkpt lat="43.41746" lon="11.776635"><ele>265.0</ele><time>2026-04-24T15:50:10.077Z</time></trkpt><trkpt lat="43.4174633" lon="11.77674"><ele>265.0</ele><time>2026-04-24T15:50:12.075Z</time></trkpt><trkpt lat="43.41747" lon="11.7768433"><ele>264.66666666666663</ele><time>2026-04-24T15:50:14.073Z</time></trkpt><trkpt lat="43.4174733" lon="11.776945"><ele>264.3333333333333</ele><time>2026-04-24T15:50:16.072Z</time></trkpt><trkpt lat="43.4174817" lon="11.7770417"><ele>264.0</ele><time>2026-04-24T15:50:18.075Z</time></trkpt><trkpt lat="43.41749" lon="11.777135"><ele>263.6666666666667</ele><time>2026-04-24T15:50:20.075Z</time></trkpt><trkpt lat="43.4175033" lon="11.77723"><ele>263.33333333333337</ele><time>2026-04-24T15:50:22.074Z</time></trkpt><trkpt lat="43.4175217" lon="11.7773283"><ele>263.0</ele><time>2026-04-24T15:50:24.075Z</time></trkpt><trkpt lat="43.4175383" lon="11.777455"><ele>263.0</ele><time>2026-04-24T15:50:27.075Z</time></trkpt><trkpt lat="43.41755" lon="11.777545"><ele>263.0</ele><time>2026-04-24T15:50:29.075Z</time></trkpt><trkpt lat="43.4175867" lon="11.77766"><ele>263.0</ele><time>2026-04-24T15:50:32.078Z</time></trkpt><trkpt lat="43.4176017" lon="11.77775"><ele>263.0</ele><time>2026-04-24T15:50:34.075Z</time></trkpt><trkpt lat="43.4176167" lon="11.7778467"><ele>263.0</ele><time>2026-04-24T15:50:36.075Z</time></trkpt><trkpt lat="43.4176317" lon="11.777945"><ele>263.0</ele><time>2026-04-24T15:50:38.076Z</time></trkpt><trkpt lat="43.4176517" lon="11.77806"><ele>262.83333333333337</ele><time>2026-04-24T15:50:40.075Z</time></trkpt><trkpt lat="43.417665" lon="11.778175"><ele>262.6666666666667</ele><time>2026-04-24T15:50:42.075Z</time></trkpt><trkpt lat="43.4176833" lon="11.778275"><ele>262.5</ele><time>2026-04-24T15:50:44.074Z</time></trkpt><trkpt lat="43.4176967" lon="11.7783633"><ele>262.3333333333333</ele><time>2026-04-24T15:50:46.075Z</time></trkpt><trkpt lat="43.41771" lon="11.7784517"><ele>262.16666666666663</ele><time>2026-04-24T15:50:48.076Z</time></trkpt><trkpt lat="43.4177333" lon="11.7785733"><ele>262.0</ele><time>2026-04-24T15:50:51.076Z</time></trkpt><trkpt lat="43.4177517" lon="11.7786683"><ele>261.7142857142857</ele><time>2026-04-24T15:50:53.076Z</time></trkpt><trkpt lat="43.4177733" lon="11.7787567"><ele>261.42857142857144</ele><time>2026-04-24T15:50:55.077Z</time></trkpt><trkpt lat="43.417795" lon="11.77884"><ele>261.14285714285717</ele><time>2026-04-24T15:50:57.077Z</time></trkpt><trkpt lat="43.4178233" lon="11.7789317"><ele>260.8571428571429</ele><time>2026-04-24T15:50:59.074Z</time></trkpt><trkpt lat="43.417845" lon="11.77903"><ele>260.57142857142856</ele><time>2026-04-24T15:51:01.076Z</time></trkpt><trkpt lat="43.417875" lon="11.7791283"><ele>260.28571428571433</ele><time>2026-04-24T15:51:03.076Z</time></trkpt><trkpt lat="43.4179067" lon="11.7792267"><ele>260.0</ele><time>2026-04-24T15:51:05.075Z</time></trkpt><trkpt lat="43.41794" lon="11.7793317"><ele>259.6</ele><time>2026-04-24T15:51:07.074Z</time></trkpt><trkpt lat="43.4179817" lon="11.7794417"><ele>259.2</ele><time>2026-04-24T15:51:09.073Z</time></trkpt><trkpt lat="43.41802" lon="11.779545"><ele>258.8</ele><time>2026-04-24T15:51:11.073Z</time></trkpt><trkpt lat="43.41806" lon="11.7796617"><ele>258.4</ele><time>2026-04-24T15:51:13.075Z</time></trkpt><trkpt lat="43.418095" lon="11.77979"><ele>258.0</ele><time>2026-04-24T15:51:15.073Z</time></trkpt><trkpt lat="43.41813" lon="11.7799233"><ele>258.0</ele><time>2026-04-24T15:51:17.072Z</time></trkpt><trkpt lat="43.4181467" lon="11.78006"><ele>258.0</ele><time>2026-04-24T15:51:19.076Z</time></trkpt><trkpt lat="43.4181367" lon="11.7801833"><ele>258.0</ele><time>2026-04-24T15:51:21.08Z</time></trkpt><trkpt lat="43.4181233" lon="11.7802833"><ele>258.0</ele><time>2026-04-24T15:51:23.076Z</time></trkpt><trkpt lat="43.4181233" lon="11.7803717"><ele>258.0</ele><time>2026-04-24T15:51:25.075Z</time></trkpt><trkpt lat="43.418165" lon="11.78047"><ele>258.0</ele><time>2026-04-24T15:51:28.078Z</time></trkpt><trkpt lat="43.418245" lon="11.7805267"><ele>257.6666666666667</ele><time>2026-04-24T15:51:31.076Z</time></trkpt><trkpt lat="43.418325" lon="11.78059"><ele>257.3333333333333</ele><time>2026-04-24T15:51:34.075Z</time></trkpt><trkpt lat="43.41839" lon="11.7806317"><ele>257.0</ele><time>2026-04-24T15:51:36.073Z</time></trkpt><trkpt lat="43.4184517" lon="11.78067"><ele>256.66666666666663</ele><time>2026-04-24T15:51:38.075Z</time></trkpt><trkpt lat="43.41851" lon="11.7807067"><ele>256.3333333333333</ele><time>2026-04-24T15:51:40.072Z</time></trkpt><trkpt lat="43.4185883" lon="11.780765"><ele>256.0</ele><time>2026-04-24T15:51:43.073Z</time></trkpt><trkpt lat="43.4186617" lon="11.7808217"><ele>256.0</ele><time>2026-04-24T15:51:46.075Z</time></trkpt><trkpt lat="43.41873" lon="11.78087"><ele>255.99999999999997</ele><time>2026-04-24T15:51:49.076Z</time></trkpt><trkpt lat="43.4187983" lon="11.7809067"><ele>256.0</ele><time>2026-04-24T15:51:53.074Z</time></trkpt><trkpt lat="43.41885" lon="11.7809633"><ele>256.0</ele><time>2026-04-24T15:51:58.074Z</time></trkpt><trkpt lat="43.4188533" lon="11.781065"><ele>255.99999999999997</ele><time>2026-04-24T15:52:05.073Z</time></trkpt><trkpt lat="43.4188167" lon="11.7811517"><ele>256.0</ele><time>2026-04-24T15:52:09.074Z</time></trkpt><trkpt lat="43.418765" lon="11.7812317"><ele>256.0</ele><time>2026-04-24T15:52:13.074Z</time></trkpt><trkpt lat="43.41872" lon="11.7813083"><ele>255.85714285714283</ele><time>2026-04-24T15:52:17.075Z</time></trkpt><trkpt lat="43.4186783" lon="11.78138"><ele>255.7142857142857</ele><time>2026-04-24T15:52:20.078Z</time></trkpt><trkpt lat="43.418645" lon="11.7814783"><ele>255.57142857142856</ele><time>2026-04-24T15:52:23.074Z</time></trkpt><trkpt lat="43.4186067" lon="11.78156"><ele>255.42857142857144</ele><time>2026-04-24T15:52:27.075Z</time></trkpt><trkpt lat="43.4185817" lon="11.78164"><ele>255.2857142857143</ele><time>2026-04-24T15:52:34.073Z</time></trkpt><trkpt lat="43.4185333" lon="11.7817017"><ele>255.14285714285717</ele><time>2026-04-24T15:52:47.074Z</time></trkpt><trkpt lat="43.4185071" lon="11.7817822"><ele>255.0</ele><time>2026-04-24T15:53:01.918Z</time></trkpt><trkpt lat="43.4185098" lon="11.7818815"><ele>254.83333333333334</ele><time>2026-04-24T15:53:12.121Z</time></trkpt><trkpt lat="43.4184911" lon="11.781965"><ele>254.66666666666669</ele><time>2026-04-24T15:53:15.169Z</time></trkpt><trkpt lat="43.4184816" lon="11.7820633"><ele>254.5</ele><time>2026-04-24T15:53:18.219Z</time></trkpt><trkpt lat="43.4184781" lon="11.7821872"><ele>254.33333333333334</ele><time>2026-04-24T15:53:21.151Z</time></trkpt><trkpt lat="43.4183899" lon="11.7822947"><ele>254.16666666666669</ele><time>2026-04-24T15:53:23.145Z</time></trkpt><trkpt lat="43.4183417" lon="11.7823867"><ele>254.0</ele><time>2026-04-24T15:53:25.076Z</time></trkpt><trkpt lat="43.4183117" lon="11.7824883"><ele>254.00000000000003</ele><time>2026-04-24T15:53:28.076Z</time></trkpt><trkpt lat="43.4182817" lon="11.7826033"><ele>254.0</ele><time>2026-04-24T15:53:31.076Z</time></trkpt><trkpt lat="43.4182533" lon="11.782715"><ele>254.0</ele><time>2026-04-24T15:53:34.076Z</time></trkpt><trkpt lat="43.4182217" lon="11.7828333"><ele>254.0</ele><time>2026-04-24T15:53:37.076Z</time></trkpt><trkpt lat="43.4181933" lon="11.782955"><ele>254.00000000000003</ele><time>2026-04-24T15:53:40.075Z</time></trkpt><trkpt lat="43.4181717" lon="11.7830367"><ele>254.0</ele><time>2026-04-24T15:53:42.075Z</time></trkpt><trkpt lat="43.4181433" lon="11.7831583"><ele>254.0</ele><time>2026-04-24T15:53:45.075Z</time></trkpt><trkpt lat="43.4181183" lon="11.7832417"><ele>254.0</ele><time>2026-04-24T15:53:47.077Z</time></trkpt><trkpt lat="43.4180983" lon="11.7833283"><ele>254.0</ele><time>2026-04-24T15:53:49.075Z</time></trkpt><trkpt lat="43.4180783" lon="11.78342"><ele>254.0</ele><time>2026-04-24T15:53:51.075Z</time></trkpt><trkpt lat="43.4180583" lon="11.783515"><ele>254.0</ele><time>2026-04-24T15:53:53.077Z</time></trkpt><trkpt lat="43.418035" lon="11.783615"><ele>254.0</ele><time>2026-04-24T15:53:55.075Z</time></trkpt><trkpt lat="43.4180117" lon="11.78372"><ele>254.0</ele><time>2026-04-24T15:53:57.076Z</time></trkpt><trkpt lat="43.4179867" lon="11.783825"><ele>253.71428571428572</ele><time>2026-04-24T15:53:59.076Z</time></trkpt><trkpt lat="43.4179633" lon="11.7839333"><ele>253.42857142857142</ele><time>2026-04-24T15:54:01.077Z</time></trkpt><trkpt lat="43.4179433" lon="11.7840317"><ele>253.14285714285714</ele><time>2026-04-24T15:54:03.075Z</time></trkpt><trkpt lat="43.4179233" lon="11.78412"><ele>252.85714285714286</ele><time>2026-04-24T15:54:05.074Z</time></trkpt><trkpt lat="43.4179067" lon="11.784205"><ele>252.57142857142856</ele><time>2026-04-24T15:54:07.075Z</time></trkpt><trkpt lat="43.4178783" lon="11.784325"><ele>252.28571428571428</ele><time>2026-04-24T15:54:10.076Z</time></trkpt><trkpt lat="43.41786" lon="11.78441"><ele>252.0</ele><time>2026-04-24T15:54:12.077Z</time></trkpt><trkpt lat="43.41784" lon="11.784495"><ele>251.85714285714286</ele><time>2026-04-24T15:54:14.077Z</time></trkpt><trkpt lat="43.4178217" lon="11.7845783"><ele>251.71428571428572</ele><time>2026-04-24T15:54:16.075Z</time></trkpt><trkpt lat="43.4178033" lon="11.7846667"><ele>251.57142857142856</ele><time>2026-04-24T15:54:18.073Z</time></trkpt><trkpt lat="43.417785" lon="11.7847533"><ele>251.42857142857142</ele><time>2026-04-24T15:54:20.076Z</time></trkpt><trkpt lat="43.4177667" lon="11.78484"><ele>251.28571428571428</ele><time>2026-04-24T15:54:22.074Z</time></trkpt><trkpt lat="43.4177483" lon="11.784925"><ele>251.1428571428571</ele><time>2026-04-24T15:54:24.076Z</time></trkpt><trkpt lat="43.417725" lon="11.7850067"><ele>250.99999999999997</ele><time>2026-04-24T15:54:26.074Z</time></trkpt><trkpt lat="43.417705" lon="11.7850917"><ele>251.00000000000003</ele><time>2026-04-24T15:54:28.077Z</time></trkpt><trkpt lat="43.4176867" lon="11.785175"><ele>251.0</ele><time>2026-04-24T15:54:30.077Z</time></trkpt><trkpt lat="43.4176583" lon="11.785295"><ele>251.0</ele><time>2026-04-24T15:54:33.078Z</time></trkpt><trkpt lat="43.4176433" lon="11.78541"><ele>251.0</ele><time>2026-04-24T15:54:36.076Z</time></trkpt><trkpt lat="43.4176133" lon="11.7855217"><ele>251.00000000000003</ele><time>2026-04-24T15:54:39.075Z</time></trkpt><trkpt lat="43.4175767" lon="11.7856283"><ele>251.0</ele><time>2026-04-24T15:54:42.076Z</time></trkpt><trkpt lat="43.41755" lon="11.7857467"><ele>251.1428571428571</ele><time>2026-04-24T15:54:45.075Z</time></trkpt><trkpt lat="43.41753" lon="11.78583"><ele>251.28571428571428</ele><time>2026-04-24T15:54:47.075Z</time></trkpt><trkpt lat="43.41751" lon="11.7859133"><ele>251.42857142857142</ele><time>2026-04-24T15:54:49.074Z</time></trkpt><trkpt lat="43.4174883" lon="11.7859967"><ele>251.57142857142856</ele><time>2026-04-24T15:54:51.073Z</time></trkpt><trkpt lat="43.4174633" lon="11.786115"><ele>251.71428571428572</ele><time>2026-04-24T15:54:54.076Z</time></trkpt><trkpt lat="43.4174317" lon="11.78622"><ele>251.85714285714286</ele><time>2026-04-24T15:54:57.076Z</time></trkpt><trkpt lat="43.4174033" lon="11.7863267"><ele>252.0</ele><time>2026-04-24T15:55:00.074Z</time></trkpt><trkpt lat="43.4173733" lon="11.7864167"><ele>252.0</ele><time>2026-04-24T15:55:04.078Z</time></trkpt><trkpt lat="43.4173467" lon="11.786505"><ele>252.0</ele><time>2026-04-24T15:55:07.074Z</time></trkpt><trkpt lat="43.4173533" lon="11.7865917"><ele>252.0</ele><time>2026-04-24T15:55:17.073Z</time></trkpt><trkpt lat="43.4173117" lon="11.7866683"><ele>252.0</ele><time>2026-04-24T15:55:55.074Z</time></trkpt><trkpt lat="43.4172833" lon="11.78677"><ele>252.0</ele><time>2026-04-24T15:55:58.075Z</time></trkpt><trkpt lat="43.4172617" lon="11.7868517"><ele>252.0</ele><time>2026-04-24T15:56:00.076Z</time></trkpt><trkpt lat="43.4172433" lon="11.7869383"><ele>252.0</ele><time>2026-04-24T15:56:02.073Z</time></trkpt><trkpt lat="43.4172217" lon="11.7870267"><ele>251.83333333333334</ele><time>2026-04-24T15:56:04.075Z</time></trkpt><trkpt lat="43.4172" lon="11.7871233"><ele>251.66666666666669</ele><time>2026-04-24T15:56:06.076Z</time></trkpt><trkpt lat="43.41718" lon="11.7872367"><ele>251.5</ele><time>2026-04-24T15:56:08.077Z</time></trkpt><trkpt lat="43.4171583" lon="11.78735"><ele>251.33333333333334</ele><time>2026-04-24T15:56:10.075Z</time></trkpt><trkpt lat="43.41714" lon="11.7874533"><ele>251.16666666666669</ele><time>2026-04-24T15:56:12.079Z</time></trkpt><trkpt lat="43.4171233" lon="11.7875717"><ele>251.0</ele><time>2026-04-24T15:56:14.076Z</time></trkpt><trkpt lat="43.4171133" lon="11.7877117"><ele>250.83333333333334</ele><time>2026-04-24T15:56:16.074Z</time></trkpt><trkpt lat="43.417105" lon="11.787815"><ele>250.66666666666669</ele><time>2026-04-24T15:56:18.077Z</time></trkpt><trkpt lat="43.4170917" lon="11.787905"><ele>250.5</ele><time>2026-04-24T15:56:20.074Z</time></trkpt><trkpt lat="43.4170783" lon="11.7880283"><ele>250.33333333333331</ele><time>2026-04-24T15:56:22.075Z</time></trkpt><trkpt lat="43.4170667" lon="11.7881533"><ele>250.16666666666666</ele><time>2026-04-24T15:56:24.076Z</time></trkpt><trkpt lat="43.417055" lon="11.78827"><ele>250.0</ele><time>2026-04-24T15:56:26.077Z</time></trkpt><trkpt lat="43.4170417" lon="11.78839"><ele>249.99999999999997</ele><time>2026-04-24T15:56:28.076Z</time></trkpt><trkpt lat="43.4170317" lon="11.7885067"><ele>250.0</ele><time>2026-04-24T15:56:30.074Z</time></trkpt><trkpt lat="43.4170233" lon="11.7886233"><ele>250.0</ele><time>2026-04-24T15:56:32.076Z</time></trkpt><trkpt lat="43.417015" lon="11.7887417"><ele>250.0</ele><time>2026-04-24T15:56:34.075Z</time></trkpt><trkpt lat="43.4170067" lon="11.7888617"><ele>249.99999999999997</ele><time>2026-04-24T15:56:36.077Z</time></trkpt><trkpt lat="43.417" lon="11.7889817"><ele>250.0</ele><time>2026-04-24T15:56:38.074Z</time></trkpt><trkpt lat="43.4169917" lon="11.7890967"><ele>249.99999999999997</ele><time>2026-04-24T15:56:40.076Z</time></trkpt><trkpt lat="43.4169833" lon="11.789215"><ele>250.0</ele><time>2026-04-24T15:56:42.076Z</time></trkpt><trkpt lat="43.4169733" lon="11.7893283"><ele>250.0</ele><time>2026-04-24T15:56:44.075Z</time></trkpt><trkpt lat="43.416965" lon="11.789445"><ele>250.0</ele><time>2026-04-24T15:56:46.073Z</time></trkpt><trkpt lat="43.4169617" lon="11.7895617"><ele>249.99999999999997</ele><time>2026-04-24T15:56:48.076Z</time></trkpt><trkpt lat="43.41696" lon="11.7896717"><ele>250.0</ele><time>2026-04-24T15:56:50.076Z</time></trkpt><trkpt lat="43.416965" lon="11.789775"><ele>250.16666666666666</ele><time>2026-04-24T15:56:52.073Z</time></trkpt><trkpt lat="43.4169717" lon="11.789875"><ele>250.33333333333331</ele><time>2026-04-24T15:56:54.075Z</time></trkpt><trkpt lat="43.41698" lon="11.7899783"><ele>250.5</ele><time>2026-04-24T15:56:56.075Z</time></trkpt><trkpt lat="43.41699" lon="11.790085"><ele>250.66666666666669</ele><time>2026-04-24T15:56:58.075Z</time></trkpt><trkpt lat="43.4170017" lon="11.7901933"><ele>250.83333333333334</ele><time>2026-04-24T15:57:00.074Z</time></trkpt><trkpt lat="43.41701" lon="11.790305"><ele>251.0</ele><time>2026-04-24T15:57:02.079Z</time></trkpt><trkpt lat="43.4170233" lon="11.790415"><ele>251.00000000000003</ele><time>2026-04-24T15:57:04.076Z</time></trkpt><trkpt lat="43.4170367" lon="11.7905217"><ele>251.0</ele><time>2026-04-24T15:57:06.078Z</time></trkpt><trkpt lat="43.41705" lon="11.7906317"><ele>251.0</ele><time>2026-04-24T15:57:08.077Z</time></trkpt><trkpt lat="43.4170633" lon="11.7907433"><ele>251.0</ele><time>2026-04-24T15:57:10.077Z</time></trkpt><trkpt lat="43.4170633" lon="11.7908483"><ele>251.00000000000003</ele><time>2026-04-24T15:57:12.075Z</time></trkpt><trkpt lat="43.4170717" lon="11.790955"><ele>251.0</ele><time>2026-04-24T15:57:14.077Z</time></trkpt><trkpt lat="43.417085" lon="11.79107"><ele>250.83333333333334</ele><time>2026-04-24T15:57:16.073Z</time></trkpt><trkpt lat="43.4170983" lon="11.791175"><ele>250.66666666666669</ele><time>2026-04-24T15:57:18.077Z</time></trkpt><trkpt lat="43.4171" lon="11.79128"><ele>250.5</ele><time>2026-04-24T15:57:20.077Z</time></trkpt><trkpt lat="43.4170967" lon="11.791385"><ele>250.33333333333331</ele><time>2026-04-24T15:57:22.075Z</time></trkpt><trkpt lat="43.4170917" lon="11.7914867"><ele>250.16666666666666</ele><time>2026-04-24T15:57:24.075Z</time></trkpt><trkpt lat="43.4171" lon="11.7916017"><ele>250.0</ele><time>2026-04-24T15:57:26.075Z</time></trkpt><trkpt lat="43.417105" lon="11.7917083"><ele>249.99999999999997</ele><time>2026-04-24T15:57:28.074Z</time></trkpt><trkpt lat="43.4171083" lon="11.7918167"><ele>250.0</ele><time>2026-04-24T15:57:30.077Z</time></trkpt><trkpt lat="43.4171083" lon="11.7919333"><ele>250.0</ele><time>2026-04-24T15:57:32.076Z</time></trkpt><trkpt lat="43.4170967" lon="11.7920433"><ele>250.0</ele><time>2026-04-24T15:57:34.074Z</time></trkpt><trkpt lat="43.4170767" lon="11.7921383"><ele>249.99999999999997</ele><time>2026-04-24T15:57:36.08Z</time></trkpt><trkpt lat="43.4170433" lon="11.792225"><ele>250.0</ele><time>2026-04-24T15:57:38.074Z</time></trkpt><trkpt lat="43.4170083" lon="11.79231"><ele>249.49999999999997</ele><time>2026-04-24T15:57:40.074Z</time></trkpt><trkpt lat="43.41697" lon="11.7924017"><ele>249.0</ele><time>2026-04-24T15:57:42.077Z</time></trkpt><trkpt lat="43.4169283" lon="11.7925"><ele>248.5</ele><time>2026-04-24T15:57:44.076Z</time></trkpt><trkpt lat="43.4168833" lon="11.7926033"><ele>248.0</ele><time>2026-04-24T15:57:46.075Z</time></trkpt><trkpt lat="43.4168367" lon="11.7927017"><ele>247.49999999999997</ele><time>2026-04-24T15:57:48.075Z</time></trkpt><trkpt lat="43.41679" lon="11.7928"><ele>247.0</ele><time>2026-04-24T15:57:50.077Z</time></trkpt><trkpt lat="43.41673" lon="11.7928933"><ele>246.83333333333331</ele><time>2026-04-24T15:57:52.074Z</time></trkpt><trkpt lat="43.41667" lon="11.792975"><ele>246.66666666666666</ele><time>2026-04-24T15:57:54.075Z</time></trkpt><trkpt lat="43.4166167" lon="11.7930533"><ele>246.5</ele><time>2026-04-24T15:57:56.076Z</time></trkpt><trkpt lat="43.4165617" lon="11.7931317"><ele>246.33333333333331</ele><time>2026-04-24T15:57:58.073Z</time></trkpt><trkpt lat="43.4165083" lon="11.793205"><ele>246.16666666666666</ele><time>2026-04-24T15:58:00.078Z</time></trkpt><trkpt lat="43.416455" lon="11.7932717"><ele>246.0</ele><time>2026-04-24T15:58:02.076Z</time></trkpt><trkpt lat="43.4163983" lon="11.7933383"><ele>246.0</ele><time>2026-04-24T15:58:04.076Z</time></trkpt><trkpt lat="43.4163383" lon="11.7933983"><ele>246.0</ele><time>2026-04-24T15:58:06.075Z</time></trkpt><trkpt lat="43.4162767" lon="11.793455"><ele>246.0</ele><time>2026-04-24T15:58:08.076Z</time></trkpt><trkpt lat="43.41621" lon="11.793505"><ele>246.0</ele><time>2026-04-24T15:58:10.074Z</time></trkpt><trkpt lat="43.4161383" lon="11.7935483"><ele>246.0</ele><time>2026-04-24T15:58:12.076Z</time></trkpt><trkpt lat="43.416055" lon="11.793585"><ele>246.0</ele><time>2026-04-24T15:58:14.075Z</time></trkpt><trkpt lat="43.4159667" lon="11.793615"><ele>246.0</ele><time>2026-04-24T15:58:16.072Z</time></trkpt><trkpt lat="43.4158833" lon="11.7936433"><ele>246.0</ele><time>2026-04-24T15:58:18.075Z</time></trkpt><trkpt lat="43.4158033" lon="11.79366"><ele>246.0</ele><time>2026-04-24T15:58:20.078Z</time></trkpt><trkpt lat="43.4157217" lon="11.7936683"><ele>246.0</ele><time>2026-04-24T15:58:22.074Z</time></trkpt><trkpt lat="43.4156417" lon="11.7936817"><ele>246.0</ele><time>2026-04-24T15:58:24.075Z</time></trkpt><trkpt lat="43.415575" lon="11.7937133"><ele>246.0</ele><time>2026-04-24T15:58:26.076Z</time></trkpt><trkpt lat="43.4154917" lon="11.7937767"><ele>246.5</ele><time>2026-04-24T15:58:29.076Z</time></trkpt><trkpt lat="43.4154117" lon="11.7938083"><ele>247.0</ele><time>2026-04-24T15:58:32.075Z</time></trkpt><trkpt lat="43.41533" lon="11.7938267"><ele>247.5</ele><time>2026-04-24T15:58:35.075Z</time></trkpt><trkpt lat="43.4152417" lon="11.7938483"><ele>248.0</ele><time>2026-04-24T15:58:38.073Z</time></trkpt><trkpt lat="43.4151433" lon="11.7938617"><ele>248.5</ele><time>2026-04-24T15:58:41.069Z</time></trkpt><trkpt lat="43.41507" lon="11.79386"><ele>249.0</ele><time>2026-04-24T15:58:43.072Z</time></trkpt><trkpt lat="43.4149967" lon="11.7938683"><ele>249.0</ele><time>2026-04-24T15:58:45.074Z</time></trkpt><trkpt lat="43.414915" lon="11.7938917"><ele>249.0</ele><time>2026-04-24T15:58:47.073Z</time></trkpt><trkpt lat="43.4148367" lon="11.7939167"><ele>249.0</ele><time>2026-04-24T15:58:49.073Z</time></trkpt><trkpt lat="43.4147683" lon="11.7939717"><ele>249.0</ele><time>2026-04-24T15:58:51.075Z</time></trkpt><trkpt lat="43.4147033" lon="11.7940083"><ele>249.0</ele><time>2026-04-24T15:58:53.077Z</time></trkpt><trkpt lat="43.4146167" lon="11.7940517"><ele>249.0</ele><time>2026-04-24T15:58:56.075Z</time></trkpt><trkpt lat="43.414555" lon="11.794085"><ele>249.16666666666666</ele><time>2026-04-24T15:58:58.075Z</time></trkpt><trkpt lat="43.4144767" lon="11.7941333"><ele>249.33333333333331</ele><time>2026-04-24T15:59:01.076Z</time></trkpt><trkpt lat="43.4144083" lon="11.79421"><ele>249.5</ele><time>2026-04-24T15:59:04.075Z</time></trkpt><trkpt lat="43.41434" lon="11.7942983"><ele>249.66666666666666</ele><time>2026-04-24T15:59:07.075Z</time></trkpt><trkpt lat="43.4142883" lon="11.79437"><ele>249.83333333333331</ele><time>2026-04-24T15:59:09.072Z</time></trkpt><trkpt lat="43.4142517" lon="11.7944733"><ele>250.0</ele><time>2026-04-24T15:59:11.073Z</time></trkpt><trkpt lat="43.4142417" lon="11.7945817"><ele>249.2</ele><time>2026-04-24T15:59:13.07Z</time></trkpt><trkpt lat="43.41425" lon="11.7946817"><ele>248.4</ele><time>2026-04-24T15:59:15.071Z</time></trkpt><trkpt lat="43.41427" lon="11.7948133"><ele>247.60000000000002</ele><time>2026-04-24T15:59:17.075Z</time></trkpt><trkpt lat="43.41429" lon="11.7949433"><ele>246.8</ele><time>2026-04-24T15:59:19.073Z</time></trkpt><trkpt lat="43.4143033" lon="11.7950783"><ele>246.0</ele><time>2026-04-24T15:59:21.074Z</time></trkpt><trkpt lat="43.4143167" lon="11.7952117"><ele>245.8</ele><time>2026-04-24T15:59:23.075Z</time></trkpt><trkpt lat="43.4143283" lon="11.7953517"><ele>245.60000000000002</ele><time>2026-04-24T15:59:25.072Z</time></trkpt><trkpt lat="43.41434" lon="11.7954883"><ele>245.4</ele><time>2026-04-24T15:59:27.073Z</time></trkpt><trkpt lat="43.4143483" lon="11.7956267"><ele>245.2</ele><time>2026-04-24T15:59:29.072Z</time></trkpt><trkpt lat="43.4143567" lon="11.795775"><ele>245.0</ele><time>2026-04-24T15:59:31.076Z</time></trkpt><trkpt lat="43.41437" lon="11.795915"><ele>245.4</ele><time>2026-04-24T15:59:33.075Z</time></trkpt><trkpt lat="43.41438" lon="11.7960567"><ele>245.8</ele><time>2026-04-24T15:59:35.078Z</time></trkpt><trkpt lat="43.4143917" lon="11.7962017"><ele>246.2</ele><time>2026-04-24T15:59:37.077Z</time></trkpt><trkpt lat="43.4144033" lon="11.796345"><ele>246.6</ele><time>2026-04-24T15:59:39.073Z</time></trkpt><trkpt lat="43.4144183" lon="11.79648"><ele>247.0</ele><time>2026-04-24T15:59:41.073Z</time></trkpt><trkpt lat="43.4144233" lon="11.7966017"><ele>246.99999999999997</ele><time>2026-04-24T15:59:43.077Z</time></trkpt><trkpt lat="43.4144333" lon="11.7966967"><ele>247.0</ele><time>2026-04-24T15:59:45.072Z</time></trkpt><trkpt lat="43.41447" lon="11.79682"><ele>247.0</ele><time>2026-04-24T16:00:16.072Z</time></trkpt><trkpt lat="43.4145517" lon="11.796825"><ele>247.0</ele><time>2026-04-24T16:00:19.073Z</time></trkpt><trkpt lat="43.4146283" lon="11.7968"><ele>246.99999999999997</ele><time>2026-04-24T16:00:21.074Z</time></trkpt><trkpt lat="43.4147067" lon="11.7967733"><ele>247.0</ele><time>2026-04-24T16:00:23.073Z</time></trkpt><trkpt lat="43.4147883" lon="11.796755"><ele>247.0</ele><time>2026-04-24T16:00:25.075Z</time></trkpt><trkpt lat="43.4148817" lon="11.7967317"><ele>247.0</ele><time>2026-04-24T16:00:27.074Z</time></trkpt><trkpt lat="43.4149717" lon="11.7966867"><ele>247.0</ele><time>2026-04-24T16:00:29.073Z</time></trkpt><trkpt lat="43.4150767" lon="11.7966533"><ele>247.0</ele><time>2026-04-24T16:00:31.076Z</time></trkpt><trkpt lat="43.4152317" lon="11.7966"><ele>247.0</ele><time>2026-04-24T16:00:34.073Z</time></trkpt><trkpt lat="43.4153417" lon="11.7965617"><ele>247.0</ele><time>2026-04-24T16:00:36.075Z</time></trkpt><trkpt lat="43.4154433" lon="11.79653"><ele>247.0</ele><time>2026-04-24T16:00:38.078Z</time></trkpt><trkpt lat="43.4155467" lon="11.796505"><ele>247.0</ele><time>2026-04-24T16:00:40.077Z</time></trkpt><trkpt lat="43.4156517" lon="11.7964883"><ele>247.0</ele><time>2026-04-24T16:00:42.075Z</time></trkpt><trkpt lat="43.415755" lon="11.7964867"><ele>247.0</ele><time>2026-04-24T16:00:44.074Z</time></trkpt><trkpt lat="43.4158533" lon="11.7964967"><ele>247.0</ele><time>2026-04-24T16:00:46.073Z</time></trkpt><trkpt lat="43.41595" lon="11.79651"><ele>247.0</ele><time>2026-04-24T16:00:48.075Z</time></trkpt><trkpt lat="43.416045" lon="11.7965317"><ele>247.0</ele><time>2026-04-24T16:00:50.074Z</time></trkpt><trkpt lat="43.416135" lon="11.7965583"><ele>247.0</ele><time>2026-04-24T16:00:52.072Z</time></trkpt><trkpt lat="43.4162283" lon="11.796585"><ele>246.99999999999997</ele><time>2026-04-24T16:00:54.076Z</time></trkpt><trkpt lat="43.416315" lon="11.79661"><ele>247.0</ele><time>2026-04-24T16:00:56.074Z</time></trkpt><trkpt lat="43.4164017" lon="11.7966383"><ele>247.0</ele><time>2026-04-24T16:00:58.076Z</time></trkpt><trkpt lat="43.4164833" lon="11.79666"><ele>247.0</ele><time>2026-04-24T16:01:00.073Z</time></trkpt><trkpt lat="43.4165633" lon="11.7966833"><ele>246.99999999999997</ele><time>2026-04-24T16:01:02.074Z</time></trkpt><trkpt lat="43.4166483" lon="11.79671"><ele>247.0</ele><time>2026-04-24T16:01:04.072Z</time></trkpt><trkpt lat="43.4167333" lon="11.7967367"><ele>246.99999999999997</ele><time>2026-04-24T16:01:06.075Z</time></trkpt><trkpt lat="43.4168217" lon="11.7967567"><ele>247.0</ele><time>2026-04-24T16:01:08.076Z</time></trkpt><trkpt lat="43.4169067" lon="11.7967733"><ele>247.0</ele><time>2026-04-24T16:01:10.073Z</time></trkpt><trkpt lat="43.4169933" lon="11.7967833"><ele>247.0</ele><time>2026-04-24T16:01:12.075Z</time></trkpt><trkpt lat="43.417085" lon="11.7967867"><ele>246.99999999999997</ele><time>2026-04-24T16:01:14.075Z</time></trkpt><trkpt lat="43.417175" lon="11.7967883"><ele>247.0</ele><time>2026-04-24T16:01:16.078Z</time></trkpt><trkpt lat="43.417265" lon="11.7967817"><ele>247.49999999999997</ele><time>2026-04-24T16:01:18.076Z</time></trkpt><trkpt lat="43.417355" lon="11.7967667"><ele>248.0</ele><time>2026-04-24T16:01:20.073Z</time></trkpt><trkpt lat="43.4174433" lon="11.79675"><ele>248.5</ele><time>2026-04-24T16:01:22.072Z</time></trkpt><trkpt lat="43.4175283" lon="11.7967283"><ele>249.0</ele><time>2026-04-24T16:01:24.075Z</time></trkpt><trkpt lat="43.417615" lon="11.7967"><ele>249.49999999999997</ele><time>2026-04-24T16:01:26.074Z</time></trkpt><trkpt lat="43.4177033" lon="11.79667"><ele>250.0</ele><time>2026-04-24T16:01:28.073Z</time></trkpt><trkpt lat="43.4177867" lon="11.7966383"><ele>250.0</ele><time>2026-04-24T16:01:30.075Z</time></trkpt><trkpt lat="43.41787" lon="11.7966083"><ele>250.0</ele><time>2026-04-24T16:01:32.076Z</time></trkpt><trkpt lat="43.41795" lon="11.7965767"><ele>250.0</ele><time>2026-04-24T16:01:34.074Z</time></trkpt><trkpt lat="43.4180383" lon="11.796555"><ele>250.0</ele><time>2026-04-24T16:01:36.077Z</time></trkpt><trkpt lat="43.418125" lon="11.7965183"><ele>250.0</ele><time>2026-04-24T16:01:38.076Z</time></trkpt><trkpt lat="43.41822" lon="11.796475"><ele>250.2</ele><time>2026-04-24T16:01:40.075Z</time></trkpt><trkpt lat="43.4183183" lon="11.7964183"><ele>250.4</ele><time>2026-04-24T16:01:42.075Z</time></trkpt><trkpt lat="43.418425" lon="11.7963833"><ele>250.60000000000002</ele><time>2026-04-24T16:01:44.076Z</time></trkpt><trkpt lat="43.4185417" lon="11.796355"><ele>250.8</ele><time>2026-04-24T16:01:46.074Z</time></trkpt><trkpt lat="43.4186517" lon="11.7963267"><ele>251.0</ele><time>2026-04-24T16:01:48.075Z</time></trkpt><trkpt lat="43.418755" lon="11.7962917"><ele>250.8</ele><time>2026-04-24T16:01:50.076Z</time></trkpt><trkpt lat="43.41886" lon="11.7962583"><ele>250.60000000000002</ele><time>2026-04-24T16:01:52.074Z</time></trkpt><trkpt lat="43.4189667" lon="11.7962267"><ele>250.4</ele><time>2026-04-24T16:01:54.076Z</time></trkpt><trkpt lat="43.4190817" lon="11.7961967"><ele>250.2</ele><time>2026-04-24T16:01:56.075Z</time></trkpt><trkpt lat="43.4191883" lon="11.796165"><ele>250.0</ele><time>2026-04-24T16:01:58.074Z</time></trkpt><trkpt lat="43.4192917" lon="11.796135"><ele>250.0</ele><time>2026-04-24T16:02:00.075Z</time></trkpt><trkpt lat="43.4193967" lon="11.7961083"><ele>250.0</ele><time>2026-04-24T16:02:02.074Z</time></trkpt><trkpt lat="43.419505" lon="11.7960833"><ele>250.0</ele><time>2026-04-24T16:02:04.073Z</time></trkpt><trkpt lat="43.419615" lon="11.7960583"><ele>250.0</ele><time>2026-04-24T16:02:06.077Z</time></trkpt><trkpt lat="43.4197217" lon="11.7960317"><ele>250.0</ele><time>2026-04-24T16:02:08.072Z</time></trkpt><trkpt lat="43.4198183" lon="11.7960067"><ele>250.4</ele><time>2026-04-24T16:02:10.074Z</time></trkpt><trkpt lat="43.41991" lon="11.79598"><ele>250.8</ele><time>2026-04-24T16:02:12.075Z</time></trkpt><trkpt lat="43.4200067" lon="11.7959567"><ele>251.2</ele><time>2026-04-24T16:02:14.075Z</time></trkpt><trkpt lat="43.4200983" lon="11.7959367"><ele>251.6</ele><time>2026-04-24T16:02:16.073Z</time></trkpt><trkpt lat="43.420185" lon="11.795915"><ele>252.0</ele><time>2026-04-24T16:02:18.074Z</time></trkpt><trkpt lat="43.4202733" lon="11.79589"><ele>252.0</ele><time>2026-04-24T16:02:20.075Z</time></trkpt><trkpt lat="43.4203633" lon="11.7958667"><ele>252.0</ele><time>2026-04-24T16:02:22.075Z</time></trkpt><trkpt lat="43.420455" lon="11.7958433"><ele>252.0</ele><time>2026-04-24T16:02:24.076Z</time></trkpt><trkpt lat="43.4205483" lon="11.7958167"><ele>252.0</ele><time>2026-04-24T16:02:26.075Z</time></trkpt><trkpt lat="43.4206433" lon="11.7957933"><ele>252.0</ele><time>2026-04-24T16:02:28.074Z</time></trkpt><trkpt lat="43.4207383" lon="11.795765"><ele>252.0</ele><time>2026-04-24T16:02:30.079Z</time></trkpt><trkpt lat="43.4208317" lon="11.79574"><ele>252.0</ele><time>2026-04-24T16:02:32.074Z</time></trkpt><trkpt lat="43.4209267" lon="11.7957117"><ele>252.0</ele><time>2026-04-24T16:02:34.073Z</time></trkpt><trkpt lat="43.4210183" lon="11.7956833"><ele>252.0</ele><time>2026-04-24T16:02:36.072Z</time></trkpt><trkpt lat="43.4211083" lon="11.7956517"><ele>252.0</ele><time>2026-04-24T16:02:38.075Z</time></trkpt><trkpt lat="43.4211967" lon="11.7956217"><ele>252.0</ele><time>2026-04-24T16:02:40.076Z</time></trkpt><trkpt lat="43.4212833" lon="11.79559"><ele>252.0</ele><time>2026-04-24T16:02:42.077Z</time></trkpt><trkpt lat="43.421375" lon="11.79556"><ele>252.0</ele><time>2026-04-24T16:02:44.08Z</time></trkpt><trkpt lat="43.4214667" lon="11.79553"><ele>252.0</ele><time>2026-04-24T16:02:46.074Z</time></trkpt><trkpt lat="43.4215617" lon="11.7954983"><ele>252.0</ele><time>2026-04-24T16:02:48.078Z</time></trkpt><trkpt lat="43.4216517" lon="11.7954667"><ele>252.0</ele><time>2026-04-24T16:02:50.076Z</time></trkpt><trkpt lat="43.4217483" lon="11.7954333"><ele>252.0</ele><time>2026-04-24T16:02:52.074Z</time></trkpt><trkpt lat="43.4218433" lon="11.7954"><ele>252.0</ele><time>2026-04-24T16:02:54.076Z</time></trkpt><trkpt lat="43.421935" lon="11.795365"><ele>252.0</ele><time>2026-04-24T16:02:56.074Z</time></trkpt><trkpt lat="43.4220267" lon="11.795335"><ele>252.0</ele><time>2026-04-24T16:02:58.073Z</time></trkpt><trkpt lat="43.42212" lon="11.7953"><ele>252.0</ele><time>2026-04-24T16:03:00.074Z</time></trkpt><trkpt lat="43.42221" lon="11.795265"><ele>252.0</ele><time>2026-04-24T16:03:02.076Z</time></trkpt><trkpt lat="43.4223017" lon="11.7952317"><ele>252.0</ele><time>2026-04-24T16:03:04.075Z</time></trkpt><trkpt lat="43.4223917" lon="11.7952"><ele>252.0</ele><time>2026-04-24T16:03:06.074Z</time></trkpt><trkpt lat="43.42248" lon="11.7951683"><ele>252.0</ele><time>2026-04-24T16:03:08.075Z</time></trkpt><trkpt lat="43.4225683" lon="11.79514"><ele>252.2</ele><time>2026-04-24T16:03:10.073Z</time></trkpt><trkpt lat="43.4226567" lon="11.7951117"><ele>252.39999999999998</ele><time>2026-04-24T16:03:12.077Z</time></trkpt><trkpt lat="43.4227483" lon="11.795085"><ele>252.60000000000002</ele><time>2026-04-24T16:03:14.073Z</time></trkpt><trkpt lat="43.4228417" lon="11.7950517"><ele>252.8</ele><time>2026-04-24T16:03:16.074Z</time></trkpt><trkpt lat="43.4229317" lon="11.795025"><ele>253.0</ele><time>2026-04-24T16:03:18.075Z</time></trkpt><trkpt lat="43.4230233" lon="11.795"><ele>253.60000000000002</ele><time>2026-04-24T16:03:20.077Z</time></trkpt><trkpt lat="43.4231167" lon="11.7949733"><ele>254.20000000000002</ele><time>2026-04-24T16:03:22.073Z</time></trkpt><trkpt lat="43.4232067" lon="11.7949467"><ele>254.8</ele><time>2026-04-24T16:03:24.075Z</time></trkpt><trkpt lat="43.423295" lon="11.79492"><ele>255.4</ele><time>2026-04-24T16:03:26.075Z</time></trkpt><trkpt lat="43.4233883" lon="11.7948933"><ele>256.0</ele><time>2026-04-24T16:03:28.074Z</time></trkpt><trkpt lat="43.4234767" lon="11.7948667"><ele>255.99999999999997</ele><time>2026-04-24T16:03:30.077Z</time></trkpt><trkpt lat="43.423565" lon="11.7948417"><ele>256.0</ele><time>2026-04-24T16:03:32.074Z</time></trkpt><trkpt lat="43.42365" lon="11.7948167"><ele>256.0</ele><time>2026-04-24T16:03:34.075Z</time></trkpt><trkpt lat="43.4237317" lon="11.7948"><ele>256.0</ele><time>2026-04-24T16:03:36.077Z</time></trkpt><trkpt lat="43.4238167" lon="11.7947817"><ele>255.99999999999997</ele><time>2026-04-24T16:03:38.073Z</time></trkpt><trkpt lat="43.4238933" lon="11.7947633"><ele>256.0</ele><time>2026-04-24T16:03:40.074Z</time></trkpt><trkpt lat="43.4239633" lon="11.7947383"><ele>256.5</ele><time>2026-04-24T16:03:42.076Z</time></trkpt><trkpt lat="43.4240333" lon="11.7947267"><ele>257.0</ele><time>2026-04-24T16:03:44.074Z</time></trkpt><trkpt lat="43.4241117" lon="11.7947283"><ele>257.5</ele><time>2026-04-24T16:03:46.072Z</time></trkpt><trkpt lat="43.4241917" lon="11.794725"><ele>258.0</ele><time>2026-04-24T16:03:48.075Z</time></trkpt><trkpt lat="43.4242833" lon="11.794705"><ele>258.5</ele><time>2026-04-24T16:03:50.075Z</time></trkpt><trkpt lat="43.424375" lon="11.794695"><ele>259.0</ele><time>2026-04-24T16:03:52.073Z</time></trkpt><trkpt lat="43.4244767" lon="11.7946733"><ele>259.0</ele><time>2026-04-24T16:03:54.074Z</time></trkpt><trkpt lat="43.4245733" lon="11.79466"><ele>259.0</ele><time>2026-04-24T16:03:56.074Z</time></trkpt><trkpt lat="43.4246733" lon="11.7946417"><ele>259.0</ele><time>2026-04-24T16:03:58.075Z</time></trkpt><trkpt lat="43.42477" lon="11.79463"><ele>259.0</ele><time>2026-04-24T16:04:00.075Z</time></trkpt><trkpt lat="43.4248783" lon="11.7946183"><ele>259.0</ele><time>2026-04-24T16:04:02.078Z</time></trkpt><trkpt lat="43.424985" lon="11.794625"><ele>258.0</ele><time>2026-04-24T16:04:04.072Z</time></trkpt><trkpt lat="43.4250983" lon="11.7946367"><ele>257.0</ele><time>2026-04-24T16:04:06.075Z</time></trkpt><trkpt lat="43.42521" lon="11.7946567"><ele>256.0</ele><time>2026-04-24T16:04:08.077Z</time></trkpt><trkpt lat="43.4253317" lon="11.79469"><ele>255.0</ele><time>2026-04-24T16:04:10.075Z</time></trkpt><trkpt lat="43.4254533" lon="11.7947317"><ele>254.83333333333334</ele><time>2026-04-24T16:04:12.073Z</time></trkpt><trkpt lat="43.425575" lon="11.7947817"><ele>254.66666666666669</ele><time>2026-04-24T16:04:14.074Z</time></trkpt><trkpt lat="43.425635" lon="11.79481"><ele>254.5</ele><time>2026-04-24T16:04:15.074Z</time></trkpt><trkpt lat="43.425695" lon="11.7948433"><ele>254.33333333333334</ele><time>2026-04-24T16:04:16.074Z</time></trkpt><trkpt lat="43.4257583" lon="11.794875"><ele>254.16666666666669</ele><time>2026-04-24T16:04:17.074Z</time></trkpt><trkpt lat="43.4258183" lon="11.7949117"><ele>254.0</ele><time>2026-04-24T16:04:18.076Z</time></trkpt><trkpt lat="43.42588" lon="11.7949467"><ele>254.0</ele><time>2026-04-24T16:04:19.078Z</time></trkpt><trkpt lat="43.4259417" lon="11.7949817"><ele>254.0</ele><time>2026-04-24T16:04:20.074Z</time></trkpt><trkpt lat="43.4260033" lon="11.795015"><ele>254.0</ele><time>2026-04-24T16:04:21.075Z</time></trkpt><trkpt lat="43.426065" lon="11.7950517"><ele>254.0</ele><time>2026-04-24T16:04:22.072Z</time></trkpt><trkpt lat="43.4261267" lon="11.7950883"><ele>254.0</ele><time>2026-04-24T16:04:23.074Z</time></trkpt><trkpt lat="43.42619" lon="11.795125"><ele>254.0</ele><time>2026-04-24T16:04:24.075Z</time></trkpt><trkpt lat="43.4262533" lon="11.7951617"><ele>254.0</ele><time>2026-04-24T16:04:25.073Z</time></trkpt><trkpt lat="43.4263167" lon="11.7951967"><ele>253.28571428571428</ele><time>2026-04-24T16:04:26.073Z</time></trkpt><trkpt lat="43.4263833" lon="11.795235"><ele>252.57142857142856</ele><time>2026-04-24T16:04:27.074Z</time></trkpt><trkpt lat="43.4264467" lon="11.79527"><ele>251.85714285714283</ele><time>2026-04-24T16:04:28.074Z</time></trkpt><trkpt lat="43.4265117" lon="11.7953067"><ele>251.14285714285714</ele><time>2026-04-24T16:04:29.073Z</time></trkpt><trkpt lat="43.4265767" lon="11.7953417"><ele>250.4285714285714</ele><time>2026-04-24T16:04:30.073Z</time></trkpt><trkpt lat="43.4266417" lon="11.7953783"><ele>249.7142857142857</ele><time>2026-04-24T16:04:31.073Z</time></trkpt><trkpt lat="43.426705" lon="11.7954167"><ele>249.0</ele><time>2026-04-24T16:04:32.073Z</time></trkpt><trkpt lat="43.42677" lon="11.79545"><ele>249.0</ele><time>2026-04-24T16:04:33.073Z</time></trkpt><trkpt lat="43.426835" lon="11.7954867"><ele>248.99999999999997</ele><time>2026-04-24T16:04:34.073Z</time></trkpt><trkpt lat="43.4268983" lon="11.795525"><ele>249.0</ele><time>2026-04-24T16:04:35.072Z</time></trkpt><trkpt lat="43.42696" lon="11.795565"><ele>249.0</ele><time>2026-04-24T16:04:36.075Z</time></trkpt><trkpt lat="43.4270233" lon="11.795605"><ele>248.99999999999997</ele><time>2026-04-24T16:04:37.074Z</time></trkpt><trkpt lat="43.4270867" lon="11.7956433"><ele>249.0</ele><time>2026-04-24T16:04:38.075Z</time></trkpt><trkpt lat="43.4271517" lon="11.7956783"><ele>249.0</ele><time>2026-04-24T16:04:39.073Z</time></trkpt><trkpt lat="43.4272167" lon="11.795715"><ele>249.42857142857142</ele><time>2026-04-24T16:04:40.073Z</time></trkpt><trkpt lat="43.42728" lon="11.79575"><ele>249.85714285714283</ele><time>2026-04-24T16:04:41.074Z</time></trkpt><trkpt lat="43.4273433" lon="11.7957833"><ele>250.28571428571428</ele><time>2026-04-24T16:04:42.072Z</time></trkpt><trkpt lat="43.4274083" lon="11.7958183"><ele>250.71428571428572</ele><time>2026-04-24T16:04:43.072Z</time></trkpt><trkpt lat="43.427475" lon="11.7958567"><ele>251.14285714285714</ele><time>2026-04-24T16:04:44.075Z</time></trkpt><trkpt lat="43.4275417" lon="11.7958917"><ele>251.57142857142856</ele><time>2026-04-24T16:04:45.074Z</time></trkpt><trkpt lat="43.4276067" lon="11.795925"><ele>252.0</ele><time>2026-04-24T16:04:46.073Z</time></trkpt><trkpt lat="43.4276717" lon="11.7959617"><ele>252.0</ele><time>2026-04-24T16:04:47.072Z</time></trkpt><trkpt lat="43.4277367" lon="11.796"><ele>252.0</ele><time>2026-04-24T16:04:48.076Z</time></trkpt><trkpt lat="43.427805" lon="11.79604"><ele>252.0</ele><time>2026-04-24T16:04:49.074Z</time></trkpt><trkpt lat="43.4278733" lon="11.79608"><ele>252.0</ele><time>2026-04-24T16:04:50.075Z</time></trkpt><trkpt lat="43.4279383" lon="11.7961183"><ele>252.0</ele><time>2026-04-24T16:04:51.073Z</time></trkpt><trkpt lat="43.4280083" lon="11.7961567"><ele>252.0</ele><time>2026-04-24T16:04:52.075Z</time></trkpt><trkpt lat="43.428075" lon="11.7962"><ele>252.0</ele><time>2026-04-24T16:04:53.073Z</time></trkpt><trkpt lat="43.428145" lon="11.79624"><ele>251.71428571428572</ele><time>2026-04-24T16:04:54.075Z</time></trkpt><trkpt lat="43.4282133" lon="11.796275"><ele>251.42857142857144</ele><time>2026-04-24T16:04:55.074Z</time></trkpt><trkpt lat="43.4282867" lon="11.79631"><ele>251.14285714285714</ele><time>2026-04-24T16:04:56.074Z</time></trkpt><trkpt lat="43.4283567" lon="11.79635"><ele>250.85714285714286</ele><time>2026-04-24T16:04:57.074Z</time></trkpt><trkpt lat="43.4284267" lon="11.7963867"><ele>250.57142857142858</ele><time>2026-04-24T16:04:58.073Z</time></trkpt><trkpt lat="43.4284933" lon="11.7964267"><ele>250.28571428571428</ele><time>2026-04-24T16:04:59.073Z</time></trkpt><trkpt lat="43.4285583" lon="11.7964633"><ele>250.0</ele><time>2026-04-24T16:05:00.072Z</time></trkpt><trkpt lat="43.42862" lon="11.7965083"><ele>250.0</ele><time>2026-04-24T16:05:01.074Z</time></trkpt><trkpt lat="43.428685" lon="11.796545"><ele>250.0</ele><time>2026-04-24T16:05:02.071Z</time></trkpt><trkpt lat="43.42875" lon="11.7965817"><ele>250.0</ele><time>2026-04-24T16:05:03.073Z</time></trkpt><trkpt lat="43.4288167" lon="11.7966167"><ele>250.0</ele><time>2026-04-24T16:05:04.074Z</time></trkpt><trkpt lat="43.42888" lon="11.7966583"><ele>250.0</ele><time>2026-04-24T16:05:05.071Z</time></trkpt><trkpt lat="43.4289433" lon="11.7967017"><ele>250.0</ele><time>2026-04-24T16:05:06.074Z</time></trkpt><trkpt lat="43.4290083" lon="11.7967433"><ele>250.0</ele><time>2026-04-24T16:05:07.074Z</time></trkpt><trkpt lat="43.4290783" lon="11.79678"><ele>250.0</ele><time>2026-04-24T16:05:08.073Z</time></trkpt><trkpt lat="43.4291433" lon="11.796815"><ele>250.0</ele><time>2026-04-24T16:05:09.074Z</time></trkpt><trkpt lat="43.4292083" lon="11.7968433"><ele>250.0</ele><time>2026-04-24T16:05:10.075Z</time></trkpt><trkpt lat="43.429275" lon="11.796875"><ele>250.0</ele><time>2026-04-24T16:05:11.074Z</time></trkpt><trkpt lat="43.429335" lon="11.7969117"><ele>250.0</ele><time>2026-04-24T16:05:12.076Z</time></trkpt><trkpt lat="43.4293933" lon="11.7969467"><ele>250.0</ele><time>2026-04-24T16:05:13.076Z</time></trkpt><trkpt lat="43.4294533" lon="11.7969783"><ele>250.0</ele><time>2026-04-24T16:05:14.072Z</time></trkpt><trkpt lat="43.429515" lon="11.79701"><ele>250.0</ele><time>2026-04-24T16:05:15.073Z</time></trkpt><trkpt lat="43.4295733" lon="11.7970433"><ele>250.0</ele><time>2026-04-24T16:05:16.073Z</time></trkpt><trkpt lat="43.4296917" lon="11.7971067"><ele>250.0</ele><time>2026-04-24T16:05:18.074Z</time></trkpt><trkpt lat="43.4297517" lon="11.7971367"><ele>250.0</ele><time>2026-04-24T16:05:19.075Z</time></trkpt><trkpt lat="43.4298667" lon="11.7971967"><ele>250.0</ele><time>2026-04-24T16:05:21.074Z</time></trkpt><trkpt lat="43.4299733" lon="11.7972567"><ele>250.0</ele><time>2026-04-24T16:05:23.071Z</time></trkpt><trkpt lat="43.4300433" lon="11.797345"><ele>250.0</ele><time>2026-04-24T16:05:25.073Z</time></trkpt><trkpt lat="43.430045" lon="11.7974783"><ele>250.0</ele><time>2026-04-24T16:05:27.073Z</time></trkpt><trkpt lat="43.43001" lon="11.7976183"><ele>250.0</ele><time>2026-04-24T16:05:29.074Z</time></trkpt><trkpt lat="43.4299767" lon="11.7977667"><ele>250.0</ele><time>2026-04-24T16:05:31.073Z</time></trkpt><trkpt lat="43.429955" lon="11.7979167"><ele>249.75</ele><time>2026-04-24T16:05:33.072Z</time></trkpt><trkpt lat="43.4299317" lon="11.7980683"><ele>249.5</ele><time>2026-04-24T16:05:35.074Z</time></trkpt><trkpt lat="43.429915" lon="11.798225"><ele>249.25</ele><time>2026-04-24T16:05:37.073Z</time></trkpt><trkpt lat="43.4298933" lon="11.798375"><ele>249.0</ele><time>2026-04-24T16:05:39.071Z</time></trkpt><trkpt lat="43.429875" lon="11.7985267"><ele>248.5</ele><time>2026-04-24T16:05:41.071Z</time></trkpt><trkpt lat="43.429855" lon="11.7986767"><ele>248.0</ele><time>2026-04-24T16:05:43.076Z</time></trkpt><trkpt lat="43.4298317" lon="11.7988267"><ele>247.5</ele><time>2026-04-24T16:05:45.072Z</time></trkpt><trkpt lat="43.4298117" lon="11.798985"><ele>247.0</ele><time>2026-04-24T16:05:47.075Z</time></trkpt><trkpt lat="43.4297917" lon="11.799145"><ele>247.0</ele><time>2026-04-24T16:05:49.074Z</time></trkpt><trkpt lat="43.42977" lon="11.799305"><ele>247.0</ele><time>2026-04-24T16:05:51.073Z</time></trkpt><trkpt lat="43.42975" lon="11.79947"><ele>247.0</ele><time>2026-04-24T16:05:53.072Z</time></trkpt><trkpt lat="43.4297283" lon="11.7996267"><ele>247.0</ele><time>2026-04-24T16:05:55.071Z</time></trkpt><trkpt lat="43.4297033" lon="11.799785"><ele>246.75</ele><time>2026-04-24T16:05:57.076Z</time></trkpt><trkpt lat="43.42968" lon="11.79995"><ele>246.5</ele><time>2026-04-24T16:05:59.073Z</time></trkpt><trkpt lat="43.4296533" lon="11.8001083"><ele>246.25</ele><time>2026-04-24T16:06:01.071Z</time></trkpt><trkpt lat="43.4296267" lon="11.8002683"><ele>246.0</ele><time>2026-04-24T16:06:03.076Z</time></trkpt><trkpt lat="43.4296" lon="11.80043"><ele>245.8</ele><time>2026-04-24T16:06:05.077Z</time></trkpt><trkpt lat="43.4295867" lon="11.800515"><ele>245.60000000000002</ele><time>2026-04-24T16:06:06.075Z</time></trkpt><trkpt lat="43.42956" lon="11.8006767"><ele>245.4</ele><time>2026-04-24T16:06:08.072Z</time></trkpt><trkpt lat="43.4295333" lon="11.800845"><ele>245.2</ele><time>2026-04-24T16:06:10.072Z</time></trkpt><trkpt lat="43.4295083" lon="11.8010117"><ele>245.0</ele><time>2026-04-24T16:06:12.074Z</time></trkpt><trkpt lat="43.4294867" lon="11.8011783"><ele>244.8</ele><time>2026-04-24T16:06:14.074Z</time></trkpt><trkpt lat="43.4294783" lon="11.801265"><ele>244.6</ele><time>2026-04-24T16:06:15.074Z</time></trkpt><trkpt lat="43.4294667" lon="11.8014333"><ele>244.39999999999998</ele><time>2026-04-24T16:06:17.074Z</time></trkpt><trkpt lat="43.4294617" lon="11.8016017"><ele>244.2</ele><time>2026-04-24T16:06:19.077Z</time></trkpt><trkpt lat="43.42947" lon="11.80177"><ele>244.0</ele><time>2026-04-24T16:06:21.074Z</time></trkpt><trkpt lat="43.42948" lon="11.8019317"><ele>244.5</ele><time>2026-04-24T16:06:23.076Z</time></trkpt><trkpt lat="43.4294917" lon="11.8020983"><ele>245.0</ele><time>2026-04-24T16:06:25.072Z</time></trkpt><trkpt lat="43.429505" lon="11.8022633"><ele>245.5</ele><time>2026-04-24T16:06:27.073Z</time></trkpt><trkpt lat="43.429515" lon="11.8024183"><ele>246.0</ele><time>2026-04-24T16:06:29.074Z</time></trkpt><trkpt lat="43.4295283" lon="11.8025717"><ele>246.0</ele><time>2026-04-24T16:06:31.073Z</time></trkpt><trkpt lat="43.4295417" lon="11.8027267"><ele>246.0</ele><time>2026-04-24T16:06:33.073Z</time></trkpt><trkpt lat="43.4295567" lon="11.80288"><ele>246.0</ele><time>2026-04-24T16:06:35.075Z</time></trkpt><trkpt lat="43.42957" lon="11.8030383"><ele>246.0</ele><time>2026-04-24T16:06:37.073Z</time></trkpt><trkpt lat="43.4295783" lon="11.8031917"><ele>246.0</ele><time>2026-04-24T16:06:39.07Z</time></trkpt><trkpt lat="43.42959" lon="11.8033483"><ele>246.0</ele><time>2026-04-24T16:06:41.072Z</time></trkpt><trkpt lat="43.4296017" lon="11.803505"><ele>246.0</ele><time>2026-04-24T16:06:43.075Z</time></trkpt><trkpt lat="43.4296083" lon="11.803665"><ele>246.0</ele><time>2026-04-24T16:06:45.071Z</time></trkpt><trkpt lat="43.42961" lon="11.8038217"><ele>245.5</ele><time>2026-04-24T16:06:47.074Z</time></trkpt><trkpt lat="43.4296167" lon="11.803975"><ele>245.0</ele><time>2026-04-24T16:06:49.075Z</time></trkpt><trkpt lat="43.4296267" lon="11.8041317"><ele>244.5</ele><time>2026-04-24T16:06:51.074Z</time></trkpt><trkpt lat="43.429635" lon="11.804285"><ele>244.0</ele><time>2026-04-24T16:06:53.074Z</time></trkpt><trkpt lat="43.4296433" lon="11.80444"><ele>243.75</ele><time>2026-04-24T16:06:55.072Z</time></trkpt><trkpt lat="43.429645" lon="11.8045917"><ele>243.5</ele><time>2026-04-24T16:06:57.073Z</time></trkpt><trkpt lat="43.4296483" lon="11.8047517"><ele>243.25</ele><time>2026-04-24T16:06:59.071Z</time></trkpt><trkpt lat="43.42966" lon="11.8049067"><ele>243.0</ele><time>2026-04-24T16:07:01.072Z</time></trkpt><trkpt lat="43.4296667" lon="11.8050667"><ele>243.75</ele><time>2026-04-24T16:07:03.071Z</time></trkpt><trkpt lat="43.4296733" lon="11.805225"><ele>244.5</ele><time>2026-04-24T16:07:05.074Z</time></trkpt><trkpt lat="43.4296817" lon="11.8053817"><ele>245.25</ele><time>2026-04-24T16:07:07.075Z</time></trkpt><trkpt lat="43.4296933" lon="11.8055417"><ele>246.0</ele><time>2026-04-24T16:07:09.074Z</time></trkpt><trkpt lat="43.4296967" lon="11.8056983"><ele>246.0</ele><time>2026-04-24T16:07:11.072Z</time></trkpt><trkpt lat="43.4296983" lon="11.80586"><ele>246.0</ele><time>2026-04-24T16:07:13.074Z</time></trkpt><trkpt lat="43.4297033" lon="11.8060167"><ele>246.0</ele><time>2026-04-24T16:07:15.073Z</time></trkpt><trkpt lat="43.4297067" lon="11.8061667"><ele>246.0</ele><time>2026-04-24T16:07:17.073Z</time></trkpt><trkpt lat="43.4297117" lon="11.80632"><ele>246.0</ele><time>2026-04-24T16:07:19.071Z</time></trkpt><trkpt lat="43.4297217" lon="11.8064767"><ele>246.0</ele><time>2026-04-24T16:07:21.075Z</time></trkpt><trkpt lat="43.4297333" lon="11.806635"><ele>246.0</ele><time>2026-04-24T16:07:23.073Z</time></trkpt><trkpt lat="43.429745" lon="11.80679"><ele>246.0</ele><time>2026-04-24T16:07:25.076Z</time></trkpt><trkpt lat="43.4297533" lon="11.8069417"><ele>246.0</ele><time>2026-04-24T16:07:27.071Z</time></trkpt><trkpt lat="43.42976" lon="11.8070817"><ele>246.00000000000003</ele><time>2026-04-24T16:07:29.073Z</time></trkpt><trkpt lat="43.4297667" lon="11.8072117"><ele>246.00000000000003</ele><time>2026-04-24T16:07:31.073Z</time></trkpt><trkpt lat="43.4297783" lon="11.807335"><ele>246.0</ele><time>2026-04-24T16:07:33.073Z</time></trkpt><trkpt lat="43.4297917" lon="11.8074583"><ele>246.0</ele><time>2026-04-24T16:07:35.074Z</time></trkpt><trkpt lat="43.429825" lon="11.8075567"><ele>246.0</ele><time>2026-04-24T16:07:37.077Z</time></trkpt><trkpt lat="43.4299" lon="11.80758"><ele>246.00000000000003</ele><time>2026-04-24T16:07:39.075Z</time></trkpt><trkpt lat="43.429985" lon="11.8075433"><ele>246.00000000000003</ele><time>2026-04-24T16:07:41.073Z</time></trkpt><trkpt lat="43.430075" lon="11.807515"><ele>246.0</ele><time>2026-04-24T16:07:43.072Z</time></trkpt><trkpt lat="43.4301767" lon="11.80749"><ele>246.0</ele><time>2026-04-24T16:07:45.071Z</time></trkpt><trkpt lat="43.4302733" lon="11.8074567"><ele>246.0</ele><time>2026-04-24T16:07:47.072Z</time></trkpt><trkpt lat="43.43038" lon="11.80744"><ele>246.00000000000003</ele><time>2026-04-24T16:07:49.077Z</time></trkpt><trkpt lat="43.43048" lon="11.8074267"><ele>246.00000000000003</ele><time>2026-04-24T16:07:51.072Z</time></trkpt><trkpt lat="43.430575" lon="11.8074133"><ele>246.0</ele><time>2026-04-24T16:07:53.074Z</time></trkpt><trkpt lat="43.4306733" lon="11.807405"><ele>246.0</ele><time>2026-04-24T16:07:55.072Z</time></trkpt><trkpt lat="43.430775" lon="11.8073833"><ele>245.8</ele><time>2026-04-24T16:07:57.073Z</time></trkpt><trkpt lat="43.4308717" lon="11.8073683"><ele>245.60000000000002</ele><time>2026-04-24T16:07:59.074Z</time></trkpt><trkpt lat="43.43097" lon="11.8073467"><ele>245.4</ele><time>2026-04-24T16:08:01.072Z</time></trkpt><trkpt lat="43.4310667" lon="11.807325"><ele>245.2</ele><time>2026-04-24T16:08:03.071Z</time></trkpt><trkpt lat="43.43116" lon="11.807305"><ele>245.0</ele><time>2026-04-24T16:08:05.074Z</time></trkpt><trkpt lat="43.431255" lon="11.8072883"><ele>245.0</ele><time>2026-04-24T16:08:07.071Z</time></trkpt><trkpt lat="43.4313517" lon="11.8072683"><ele>245.0</ele><time>2026-04-24T16:08:09.073Z</time></trkpt><trkpt lat="43.4314467" lon="11.80725"><ele>245.0</ele><time>2026-04-24T16:08:11.072Z</time></trkpt><trkpt lat="43.4315433" lon="11.8072367"><ele>245.0</ele><time>2026-04-24T16:08:13.074Z</time></trkpt><trkpt lat="43.43164" lon="11.8072267"><ele>245.0</ele><time>2026-04-24T16:08:15.074Z</time></trkpt><trkpt lat="43.4317333" lon="11.8072117"><ele>245.0</ele><time>2026-04-24T16:08:17.071Z</time></trkpt><trkpt lat="43.4318267" lon="11.8071983"><ele>245.0</ele><time>2026-04-24T16:08:19.074Z</time></trkpt><trkpt lat="43.4319183" lon="11.8071783"><ele>245.0</ele><time>2026-04-24T16:08:21.075Z</time></trkpt><trkpt lat="43.4320117" lon="11.8071683"><ele>245.0</ele><time>2026-04-24T16:08:23.071Z</time></trkpt><trkpt lat="43.4321033" lon="11.8071517"><ele>245.0</ele><time>2026-04-24T16:08:25.072Z</time></trkpt><trkpt lat="43.4321967" lon="11.80714"><ele>244.8</ele><time>2026-04-24T16:08:27.072Z</time></trkpt><trkpt lat="43.4322883" lon="11.8071283"><ele>244.6</ele><time>2026-04-24T16:08:29.071Z</time></trkpt><trkpt lat="43.4323783" lon="11.80712"><ele>244.39999999999998</ele><time>2026-04-24T16:08:31.074Z</time></trkpt><trkpt lat="43.4324783" lon="11.8071067"><ele>244.2</ele><time>2026-04-24T16:08:33.075Z</time></trkpt><trkpt lat="43.4325767" lon="11.807095"><ele>244.0</ele><time>2026-04-24T16:08:35.072Z</time></trkpt><trkpt lat="43.4326733" lon="11.8070817"><ele>244.0</ele><time>2026-04-24T16:08:37.071Z</time></trkpt><trkpt lat="43.4327683" lon="11.8070617"><ele>243.99999999999997</ele><time>2026-04-24T16:08:39.074Z</time></trkpt><trkpt lat="43.4328633" lon="11.8070417"><ele>243.99999999999997</ele><time>2026-04-24T16:08:41.073Z</time></trkpt><trkpt lat="43.4329633" lon="11.807025"><ele>244.0</ele><time>2026-04-24T16:08:43.073Z</time></trkpt><trkpt lat="43.43306" lon="11.8070117"><ele>244.0</ele><time>2026-04-24T16:08:45.076Z</time></trkpt><trkpt lat="43.433155" lon="11.8070017"><ele>244.2</ele><time>2026-04-24T16:08:47.074Z</time></trkpt><trkpt lat="43.433255" lon="11.806995"><ele>244.39999999999998</ele><time>2026-04-24T16:08:49.073Z</time></trkpt><trkpt lat="43.4333533" lon="11.8069833"><ele>244.6</ele><time>2026-04-24T16:08:51.073Z</time></trkpt><trkpt lat="43.4334483" lon="11.8069767"><ele>244.8</ele><time>2026-04-24T16:08:53.073Z</time></trkpt><trkpt lat="43.4335467" lon="11.80696"><ele>245.0</ele><time>2026-04-24T16:08:55.073Z</time></trkpt><trkpt lat="43.4336433" lon="11.806945"><ele>245.0</ele><time>2026-04-24T16:08:57.07Z</time></trkpt><trkpt lat="43.4337417" lon="11.8069283"><ele>245.0</ele><time>2026-04-24T16:08:59.073Z</time></trkpt><trkpt lat="43.43384" lon="11.8069117"><ele>245.0</ele><time>2026-04-24T16:09:01.073Z</time></trkpt><trkpt lat="43.4339417" lon="11.8068983"><ele>245.0</ele><time>2026-04-24T16:09:03.073Z</time></trkpt><trkpt lat="43.434045" lon="11.806885"><ele>245.0</ele><time>2026-04-24T16:09:05.075Z</time></trkpt><trkpt lat="43.434145" lon="11.8068667"><ele>244.8</ele><time>2026-04-24T16:09:07.075Z</time></trkpt><trkpt lat="43.434245" lon="11.80685"><ele>244.6</ele><time>2026-04-24T16:09:09.07Z</time></trkpt><trkpt lat="43.4343467" lon="11.8068317"><ele>244.39999999999998</ele><time>2026-04-24T16:09:11.073Z</time></trkpt><trkpt lat="43.4344483" lon="11.8068117"><ele>244.2</ele><time>2026-04-24T16:09:13.073Z</time></trkpt><trkpt lat="43.43455" lon="11.806795"><ele>244.0</ele><time>2026-04-24T16:09:15.071Z</time></trkpt><trkpt lat="43.4346533" lon="11.8067733"><ele>243.79999999999998</ele><time>2026-04-24T16:09:17.072Z</time></trkpt><trkpt lat="43.4347533" lon="11.8067583"><ele>243.59999999999997</ele><time>2026-04-24T16:09:19.072Z</time></trkpt><trkpt lat="43.43485" lon="11.80674"><ele>243.4</ele><time>2026-04-24T16:09:21.073Z</time></trkpt><trkpt lat="43.434945" lon="11.8067333"><ele>243.2</ele><time>2026-04-24T16:09:23.074Z</time></trkpt><trkpt lat="43.43504" lon="11.8067217"><ele>243.0</ele><time>2026-04-24T16:09:25.073Z</time></trkpt><trkpt lat="43.4351367" lon="11.8067117"><ele>243.0</ele><time>2026-04-24T16:09:27.072Z</time></trkpt><trkpt lat="43.435235" lon="11.8067033"><ele>243.0</ele><time>2026-04-24T16:09:29.073Z</time></trkpt><trkpt lat="43.4353317" lon="11.8066883"><ele>243.0</ele><time>2026-04-24T16:09:31.074Z</time></trkpt><trkpt lat="43.4354283" lon="11.8066767"><ele>243.0</ele><time>2026-04-24T16:09:33.071Z</time></trkpt><trkpt lat="43.435525" lon="11.806665"><ele>243.0</ele><time>2026-04-24T16:09:35.073Z</time></trkpt><trkpt lat="43.4356233" lon="11.8066467"><ele>243.0</ele><time>2026-04-24T16:09:37.072Z</time></trkpt><trkpt lat="43.4357217" lon="11.80663"><ele>243.0</ele><time>2026-04-24T16:09:39.073Z</time></trkpt><trkpt lat="43.4358183" lon="11.8066133"><ele>243.0</ele><time>2026-04-24T16:09:41.076Z</time></trkpt><trkpt lat="43.4359083" lon="11.8066"><ele>243.0</ele><time>2026-04-24T16:09:43.073Z</time></trkpt><trkpt lat="43.4359933" lon="11.8065867"><ele>243.0</ele><time>2026-04-24T16:09:45.072Z</time></trkpt><trkpt lat="43.436075" lon="11.8065717"><ele>243.0</ele><time>2026-04-24T16:09:47.073Z</time></trkpt><trkpt lat="43.4361533" lon="11.8065683"><ele>243.0</ele><time>2026-04-24T16:09:49.07Z</time></trkpt><trkpt lat="43.4362317" lon="11.806545"><ele>243.0</ele><time>2026-04-24T16:09:51.071Z</time></trkpt><trkpt lat="43.4363133" lon="11.806515"><ele>243.0</ele><time>2026-04-24T16:09:53.07Z</time></trkpt><trkpt lat="43.4363883" lon="11.8064917"><ele>243.0</ele><time>2026-04-24T16:09:55.07Z</time></trkpt><trkpt lat="43.436455" lon="11.8064867"><ele>243.0</ele><time>2026-04-24T16:09:57.069Z</time></trkpt><trkpt lat="43.43654" lon="11.8064617"><ele>242.83333333333334</ele><time>2026-04-24T16:10:00.07Z</time></trkpt><trkpt lat="43.43662" lon="11.8064433"><ele>242.66666666666669</ele><time>2026-04-24T16:10:03.069Z</time></trkpt><trkpt lat="43.4367017" lon="11.8064317"><ele>242.5</ele><time>2026-04-24T16:10:06.074Z</time></trkpt><trkpt lat="43.436775" lon="11.8064233"><ele>242.33333333333334</ele><time>2026-04-24T16:10:10.074Z</time></trkpt><trkpt lat="43.4368333" lon="11.8065017"><ele>242.16666666666669</ele><time>2026-04-24T16:10:59.074Z</time></trkpt><trkpt lat="43.436855" lon="11.8065967"><ele>242.0</ele><time>2026-04-24T16:11:02.075Z</time></trkpt><trkpt lat="43.436885" lon="11.8066767"><ele>242.00000000000003</ele><time>2026-04-24T16:11:04.072Z</time></trkpt><trkpt lat="43.4369217" lon="11.8067733"><ele>242.0</ele><time>2026-04-24T16:11:06.073Z</time></trkpt><trkpt lat="43.43696" lon="11.8068617"><ele>242.0</ele><time>2026-04-24T16:11:08.076Z</time></trkpt><trkpt lat="43.4369867" lon="11.8069583"><ele>242.0</ele><time>2026-04-24T16:11:10.073Z</time></trkpt><trkpt lat="43.4370167" lon="11.8070767"><ele>242.00000000000003</ele><time>2026-04-24T16:11:13.072Z</time></trkpt><trkpt lat="43.43705" lon="11.8072067"><ele>242.0</ele><time>2026-04-24T16:11:16.072Z</time></trkpt><trkpt lat="43.4370783" lon="11.8073183"><ele>242.33333333333334</ele><time>2026-04-24T16:11:18.073Z</time></trkpt><trkpt lat="43.4371033" lon="11.8074133"><ele>242.66666666666669</ele><time>2026-04-24T16:11:20.076Z</time></trkpt><trkpt lat="43.437135" lon="11.8075267"><ele>243.0</ele><time>2026-04-24T16:11:22.073Z</time></trkpt><trkpt lat="43.437185" lon="11.8076567"><ele>243.33333333333331</ele><time>2026-04-24T16:11:24.075Z</time></trkpt><trkpt lat="43.4372317" lon="11.8077683"><ele>243.66666666666666</ele><time>2026-04-24T16:11:26.073Z</time></trkpt><trkpt lat="43.437255" lon="11.8078683"><ele>244.0</ele><time>2026-04-24T16:11:28.073Z</time></trkpt><trkpt lat="43.4373033" lon="11.8079733"><ele>244.2</ele><time>2026-04-24T16:11:30.075Z</time></trkpt><trkpt lat="43.4373517" lon="11.8080833"><ele>244.39999999999998</ele><time>2026-04-24T16:11:32.076Z</time></trkpt><trkpt lat="43.437405" lon="11.8082017"><ele>244.6</ele><time>2026-04-24T16:11:34.072Z</time></trkpt><trkpt lat="43.437445" lon="11.8083133"><ele>244.8</ele><time>2026-04-24T16:11:36.073Z</time></trkpt><trkpt lat="43.4374917" lon="11.8084267"><ele>245.0</ele><time>2026-04-24T16:11:38.074Z</time></trkpt><trkpt lat="43.4375333" lon="11.8085367"><ele>245.00000000000003</ele><time>2026-04-24T16:11:40.076Z</time></trkpt><trkpt lat="43.4375683" lon="11.8086317"><ele>245.0</ele><time>2026-04-24T16:11:42.076Z</time></trkpt><trkpt lat="43.43761" lon="11.8087233"><ele>245.0</ele><time>2026-04-24T16:11:44.076Z</time></trkpt><trkpt lat="43.4376567" lon="11.80882"><ele>245.0</ele><time>2026-04-24T16:11:46.074Z</time></trkpt><trkpt lat="43.4377" lon="11.8089117"><ele>245.00000000000003</ele><time>2026-04-24T16:11:48.076Z</time></trkpt><trkpt lat="43.4377383" lon="11.809"><ele>245.0</ele><time>2026-04-24T16:11:50.073Z</time></trkpt><trkpt lat="43.437775" lon="11.809085"><ele>245.00000000000003</ele><time>2026-04-24T16:11:52.073Z</time></trkpt><trkpt lat="43.4378083" lon="11.8091783"><ele>245.0</ele><time>2026-04-24T16:11:54.076Z</time></trkpt><trkpt lat="43.4378483" lon="11.8092767"><ele>245.0</ele><time>2026-04-24T16:11:56.075Z</time></trkpt><trkpt lat="43.4378952" lon="11.8093699"><ele>245.0</ele><time>2026-04-24T16:11:58.085Z</time></trkpt><trkpt lat="43.4379371" lon="11.8094579"><ele>245.00000000000003</ele><time>2026-04-24T16:12:00.03Z</time></trkpt><trkpt lat="43.43797" lon="11.8095567"><ele>245.0</ele><time>2026-04-24T16:12:13.075Z</time></trkpt><trkpt lat="43.4380067" lon="11.809675"><ele>244.8</ele><time>2026-04-24T16:12:15.074Z</time></trkpt><trkpt lat="43.4380517" lon="11.8098067"><ele>244.6</ele><time>2026-04-24T16:12:17.073Z</time></trkpt><trkpt lat="43.4380967" lon="11.8099433"><ele>244.39999999999998</ele><time>2026-04-24T16:12:19.073Z</time></trkpt><trkpt lat="43.4381267" lon="11.81002"><ele>244.2</ele><time>2026-04-24T16:12:20.077Z</time></trkpt><trkpt lat="43.4381733" lon="11.8101617"><ele>244.0</ele><time>2026-04-24T16:12:22.075Z</time></trkpt><trkpt lat="43.4382267" lon="11.8102917"><ele>243.79999999999998</ele><time>2026-04-24T16:12:24.075Z</time></trkpt><trkpt lat="43.43828" lon="11.810425"><ele>243.59999999999997</ele><time>2026-04-24T16:12:26.074Z</time></trkpt><trkpt lat="43.438335" lon="11.810565"><ele>243.4</ele><time>2026-04-24T16:12:28.073Z</time></trkpt><trkpt lat="43.438385" lon="11.8107033"><ele>243.2</ele><time>2026-04-24T16:12:30.075Z</time></trkpt><trkpt lat="43.4384383" lon="11.810835"><ele>243.0</ele><time>2026-04-24T16:12:32.073Z</time></trkpt><trkpt lat="43.4384883" lon="11.8109767"><ele>243.25</ele><time>2026-04-24T16:12:34.075Z</time></trkpt><trkpt lat="43.4385383" lon="11.81112"><ele>243.5</ele><time>2026-04-24T16:12:36.076Z</time></trkpt><trkpt lat="43.4385917" lon="11.8112667"><ele>243.75</ele><time>2026-04-24T16:12:38.074Z</time></trkpt><trkpt lat="43.4386567" lon="11.8114083"><ele>244.0</ele><time>2026-04-24T16:12:40.075Z</time></trkpt><trkpt lat="43.4387017" lon="11.8115567"><ele>244.0</ele><time>2026-04-24T16:12:42.078Z</time></trkpt><trkpt lat="43.4387367" lon="11.8117067"><ele>243.99999999999997</ele><time>2026-04-24T16:12:44.073Z</time></trkpt><trkpt lat="43.43877" lon="11.8118483"><ele>243.99999999999997</ele><time>2026-04-24T16:12:46.074Z</time></trkpt><trkpt lat="43.4387967" lon="11.8120033"><ele>244.0</ele><time>2026-04-24T16:12:48.073Z</time></trkpt><trkpt lat="43.4388283" lon="11.81214"><ele>244.0</ele><time>2026-04-24T16:12:50.076Z</time></trkpt><trkpt lat="43.4388567" lon="11.8122767"><ele>243.6</ele><time>2026-04-24T16:12:52.074Z</time></trkpt><trkpt lat="43.4388833" lon="11.8124133"><ele>243.2</ele><time>2026-04-24T16:12:54.075Z</time></trkpt><trkpt lat="43.43892" lon="11.812545"><ele>242.79999999999998</ele><time>2026-04-24T16:12:56.074Z</time></trkpt><trkpt lat="43.4389467" lon="11.81267"><ele>242.39999999999998</ele><time>2026-04-24T16:12:58.076Z</time></trkpt><trkpt lat="43.43897" lon="11.8128017"><ele>242.0</ele><time>2026-04-24T16:13:00.075Z</time></trkpt><trkpt lat="43.438995" lon="11.8129383"><ele>241.39999999999998</ele><time>2026-04-24T16:13:02.076Z</time></trkpt><trkpt lat="43.4390183" lon="11.8130717"><ele>240.79999999999998</ele><time>2026-04-24T16:13:04.078Z</time></trkpt><trkpt lat="43.4390483" lon="11.8131983"><ele>240.2</ele><time>2026-04-24T16:13:06.073Z</time></trkpt><trkpt lat="43.4391183" lon="11.813295"><ele>239.6</ele><time>2026-04-24T16:13:08.075Z</time></trkpt><trkpt lat="43.439215" lon="11.8133283"><ele>239.0</ele><time>2026-04-24T16:13:10.075Z</time></trkpt><trkpt lat="43.4393217" lon="11.813325"><ele>239.0</ele><time>2026-04-24T16:13:12.076Z</time></trkpt><trkpt lat="43.43943" lon="11.8133183"><ele>238.99999999999997</ele><time>2026-04-24T16:13:14.075Z</time></trkpt><trkpt lat="43.43954" lon="11.8133017"><ele>238.99999999999997</ele><time>2026-04-24T16:13:16.073Z</time></trkpt><trkpt lat="43.4396533" lon="11.813285"><ele>239.0</ele><time>2026-04-24T16:13:18.074Z</time></trkpt><trkpt lat="43.439765" lon="11.8132733"><ele>239.0</ele><time>2026-04-24T16:13:20.075Z</time></trkpt><trkpt lat="43.4398717" lon="11.813265"><ele>239.0</ele><time>2026-04-24T16:13:22.075Z</time></trkpt><trkpt lat="43.439975" lon="11.8132733"><ele>238.99999999999997</ele><time>2026-04-24T16:13:24.075Z</time></trkpt><trkpt lat="43.4400783" lon="11.813275"><ele>238.99999999999997</ele><time>2026-04-24T16:13:26.075Z</time></trkpt><trkpt lat="43.4401883" lon="11.8132683"><ele>239.0</ele><time>2026-04-24T16:13:28.078Z</time></trkpt><trkpt lat="43.440295" lon="11.81326"><ele>239.0</ele><time>2026-04-24T16:13:30.078Z</time></trkpt><trkpt lat="43.4404033" lon="11.813255"><ele>239.0</ele><time>2026-04-24T16:13:32.079Z</time></trkpt><trkpt lat="43.44052" lon="11.8132517"><ele>239.0</ele><time>2026-04-24T16:13:34.076Z</time></trkpt><trkpt lat="43.4406367" lon="11.8132483"><ele>239.0</ele><time>2026-04-24T16:13:36.074Z</time></trkpt><trkpt lat="43.4407567" lon="11.8132433"><ele>239.0</ele><time>2026-04-24T16:13:38.075Z</time></trkpt><trkpt lat="43.4408767" lon="11.8132367"><ele>239.0</ele><time>2026-04-24T16:13:40.077Z</time></trkpt><trkpt lat="43.440995" lon="11.81322"><ele>239.0</ele><time>2026-04-24T16:13:42.075Z</time></trkpt><trkpt lat="43.441115" lon="11.8132067"><ele>239.0</ele><time>2026-04-24T16:13:44.075Z</time></trkpt><trkpt lat="43.4412317" lon="11.813195"><ele>239.0</ele><time>2026-04-24T16:13:46.078Z</time></trkpt><trkpt lat="43.441345" lon="11.813185"><ele>238.75</ele><time>2026-04-24T16:13:48.073Z</time></trkpt><trkpt lat="43.4414617" lon="11.8131733"><ele>238.5</ele><time>2026-04-24T16:13:50.075Z</time></trkpt><trkpt lat="43.4415817" lon="11.81316"><ele>238.25</ele><time>2026-04-24T16:13:52.075Z</time></trkpt><trkpt lat="43.4417017" lon="11.81315"><ele>238.0</ele><time>2026-04-24T16:13:54.076Z</time></trkpt><trkpt lat="43.4418217" lon="11.8131383"><ele>238.0</ele><time>2026-04-24T16:13:56.076Z</time></trkpt><trkpt lat="43.441945" lon="11.8131317"><ele>238.0</ele><time>2026-04-24T16:13:58.077Z</time></trkpt><trkpt lat="43.442055" lon="11.8131217"><ele>238.0</ele><time>2026-04-24T16:14:00.075Z</time></trkpt><trkpt lat="43.44217" lon="11.813115"><ele>238.0</ele><time>2026-04-24T16:14:02.078Z</time></trkpt><trkpt lat="43.4422867" lon="11.8130983"><ele>238.0</ele><time>2026-04-24T16:14:04.073Z</time></trkpt><trkpt lat="43.4424067" lon="11.8130917"><ele>238.0</ele><time>2026-04-24T16:14:06.077Z</time></trkpt><trkpt lat="43.4425233" lon="11.8130833"><ele>238.0</ele><time>2026-04-24T16:14:08.077Z</time></trkpt><trkpt lat="43.4426383" lon="11.8130817"><ele>238.0</ele><time>2026-04-24T16:14:10.075Z</time></trkpt><trkpt lat="43.4427017" lon="11.81308"><ele>238.0</ele><time>2026-04-24T16:14:11.074Z</time></trkpt><trkpt lat="43.4428217" lon="11.8130733"><ele>238.0</ele><time>2026-04-24T16:14:13.076Z</time></trkpt><trkpt lat="43.442935" lon="11.8130733"><ele>238.0</ele><time>2026-04-24T16:14:15.077Z</time></trkpt><trkpt lat="43.4430583" lon="11.813055"><ele>238.0</ele><time>2026-04-24T16:14:17.076Z</time></trkpt><trkpt lat="43.443175" lon="11.813045"><ele>238.0</ele><time>2026-04-24T16:14:19.076Z</time></trkpt><trkpt lat="43.4432883" lon="11.8130333"><ele>238.0</ele><time>2026-04-24T16:14:21.074Z</time></trkpt><trkpt lat="43.4433983" lon="11.8130233"><ele>238.0</ele><time>2026-04-24T16:14:23.074Z</time></trkpt><trkpt lat="43.4435067" lon="11.8130217"><ele>238.0</ele><time>2026-04-24T16:14:25.074Z</time></trkpt><trkpt lat="43.4436167" lon="11.8130133"><ele>238.0</ele><time>2026-04-24T16:14:27.076Z</time></trkpt><trkpt lat="43.4437167" lon="11.8130067"><ele>238.0</ele><time>2026-04-24T16:14:29.074Z</time></trkpt><trkpt lat="43.4438133" lon="11.8130067"><ele>238.0</ele><time>2026-04-24T16:14:31.076Z</time></trkpt><trkpt lat="43.4439283" lon="11.813"><ele>238.0</ele><time>2026-04-24T16:14:33.074Z</time></trkpt><trkpt lat="43.4440467" lon="11.812995"><ele>238.0</ele><time>2026-04-24T16:14:35.073Z</time></trkpt><trkpt lat="43.4441533" lon="11.8129917"><ele>238.0</ele><time>2026-04-24T16:14:37.074Z</time></trkpt><trkpt lat="43.444225" lon="11.812975"><ele>238.0</ele><time>2026-04-24T16:14:38.074Z</time></trkpt><trkpt lat="43.4442883" lon="11.8129617"><ele>238.0</ele><time>2026-04-24T16:14:39.074Z</time></trkpt><trkpt lat="43.4443517" lon="11.8129483"><ele>238.0</ele><time>2026-04-24T16:14:40.075Z</time></trkpt><trkpt lat="43.4444583" lon="11.8129367"><ele>238.0</ele><time>2026-04-24T16:14:42.076Z</time></trkpt><trkpt lat="43.44457" lon="11.8129267"><ele>238.0</ele><time>2026-04-24T16:14:44.078Z</time></trkpt><trkpt lat="43.444675" lon="11.81293"><ele>238.0</ele><time>2026-04-24T16:14:46.075Z</time></trkpt><trkpt lat="43.4447833" lon="11.8129333"><ele>238.0</ele><time>2026-04-24T16:14:48.077Z</time></trkpt><trkpt lat="43.4448917" lon="11.8129367"><ele>238.0</ele><time>2026-04-24T16:14:50.078Z</time></trkpt><trkpt lat="43.4449883" lon="11.8129433"><ele>238.0</ele><time>2026-04-24T16:14:52.073Z</time></trkpt><trkpt lat="43.4450833" lon="11.812955"><ele>238.0</ele><time>2026-04-24T16:14:54.079Z</time></trkpt><trkpt lat="43.4451817" lon="11.8129683"><ele>238.0</ele><time>2026-04-24T16:14:56.074Z</time></trkpt><trkpt lat="43.4452733" lon="11.8129933"><ele>237.99999999999997</ele><time>2026-04-24T16:14:58.075Z</time></trkpt><trkpt lat="43.4453617" lon="11.813015"><ele>238.0</ele><time>2026-04-24T16:15:00.074Z</time></trkpt><trkpt lat="43.4454417" lon="11.8130283"><ele>238.0</ele><time>2026-04-24T16:15:02.078Z</time></trkpt><trkpt lat="43.4455183" lon="11.813015"><ele>238.0</ele><time>2026-04-24T16:15:04.075Z</time></trkpt><trkpt lat="43.4455917" lon="11.8130067"><ele>237.99999999999997</ele><time>2026-04-24T16:15:07.074Z</time></trkpt><trkpt lat="43.44566" lon="11.8129867"><ele>238.0</ele><time>2026-04-24T16:15:15.073Z</time></trkpt><trkpt lat="43.44574" lon="11.8129967"><ele>238.49999999999997</ele><time>2026-04-24T16:15:18.075Z</time></trkpt><trkpt lat="43.445825" lon="11.8130083"><ele>239.0</ele><time>2026-04-24T16:15:21.073Z</time></trkpt><trkpt lat="43.44589" lon="11.813025"><ele>239.5</ele><time>2026-04-24T16:15:23.074Z</time></trkpt><trkpt lat="43.445965" lon="11.8130383"><ele>240.0</ele><time>2026-04-24T16:15:25.075Z</time></trkpt><trkpt lat="43.446045" lon="11.813055"><ele>240.49999999999997</ele><time>2026-04-24T16:15:27.076Z</time></trkpt><trkpt lat="43.4461283" lon="11.8130883"><ele>241.0</ele><time>2026-04-24T16:15:29.075Z</time></trkpt><trkpt lat="43.4462233" lon="11.8131117"><ele>241.0</ele><time>2026-04-24T16:15:31.074Z</time></trkpt><trkpt lat="43.4462867" lon="11.813125"><ele>241.00000000000003</ele><time>2026-04-24T16:15:32.076Z</time></trkpt><trkpt lat="43.446395" lon="11.8131567"><ele>241.00000000000003</ele><time>2026-04-24T16:15:34.075Z</time></trkpt><trkpt lat="43.4464983" lon="11.813185"><ele>241.0</ele><time>2026-04-24T16:15:36.076Z</time></trkpt><trkpt lat="43.4466033" lon="11.8132183"><ele>241.0</ele><time>2026-04-24T16:15:38.076Z</time></trkpt><trkpt lat="43.446725" lon="11.8132367"><ele>240.20000000000002</ele><time>2026-04-24T16:15:40.073Z</time></trkpt><trkpt lat="43.4468483" lon="11.8132717"><ele>239.40000000000003</ele><time>2026-04-24T16:15:42.077Z</time></trkpt><trkpt lat="43.4469133" lon="11.813285"><ele>238.6</ele><time>2026-04-24T16:15:43.073Z</time></trkpt><trkpt lat="43.4470333" lon="11.8133283"><ele>237.8</ele><time>2026-04-24T16:15:45.078Z</time></trkpt><trkpt lat="43.4471517" lon="11.8133767"><ele>237.0</ele><time>2026-04-24T16:15:47.073Z</time></trkpt><trkpt lat="43.447215" lon="11.813395"><ele>237.0</ele><time>2026-04-24T16:15:48.073Z</time></trkpt><trkpt lat="43.4473283" lon="11.8134433"><ele>237.0</ele><time>2026-04-24T16:15:50.075Z</time></trkpt><trkpt lat="43.4474417" lon="11.81348"><ele>237.0</ele><time>2026-04-24T16:15:52.072Z</time></trkpt><trkpt lat="43.4475533" lon="11.8135267"><ele>237.0</ele><time>2026-04-24T16:15:54.075Z</time></trkpt><trkpt lat="43.4476633" lon="11.813575"><ele>236.8</ele><time>2026-04-24T16:15:56.077Z</time></trkpt><trkpt lat="43.4477667" lon="11.8136317"><ele>236.6</ele><time>2026-04-24T16:15:58.074Z</time></trkpt><trkpt lat="43.44787" lon="11.813695"><ele>236.40000000000003</ele><time>2026-04-24T16:16:00.074Z</time></trkpt><trkpt lat="43.4479667" lon="11.813765"><ele>236.20000000000002</ele><time>2026-04-24T16:16:02.074Z</time></trkpt><trkpt lat="43.4480683" lon="11.8138317"><ele>236.0</ele><time>2026-04-24T16:16:04.075Z</time></trkpt><trkpt lat="43.4481733" lon="11.8139083"><ele>236.0</ele><time>2026-04-24T16:16:06.077Z</time></trkpt><trkpt lat="43.448275" lon="11.8139817"><ele>236.00000000000003</ele><time>2026-04-24T16:16:08.075Z</time></trkpt><trkpt lat="43.4483767" lon="11.8140267"><ele>236.00000000000003</ele><time>2026-04-24T16:16:10.078Z</time></trkpt><trkpt lat="43.4484833" lon="11.8140483"><ele>236.0</ele><time>2026-04-24T16:16:12.079Z</time></trkpt><trkpt lat="43.44855" lon="11.814045"><ele>236.0</ele><time>2026-04-24T16:16:13.076Z</time></trkpt><trkpt lat="43.4486167" lon="11.8140417"><ele>236.00000000000003</ele><time>2026-04-24T16:16:14.075Z</time></trkpt><trkpt lat="43.448685" lon="11.814045"><ele>236.0</ele><time>2026-04-24T16:16:15.074Z</time></trkpt><trkpt lat="43.44875" lon="11.814055"><ele>236.0</ele><time>2026-04-24T16:16:16.073Z</time></trkpt><trkpt lat="43.44882" lon="11.8140717"><ele>236.0</ele><time>2026-04-24T16:16:17.073Z</time></trkpt><trkpt lat="43.4488833" lon="11.8140967"><ele>236.00000000000003</ele><time>2026-04-24T16:16:18.075Z</time></trkpt><trkpt lat="43.4490017" lon="11.814165"><ele>236.0</ele><time>2026-04-24T16:16:20.077Z</time></trkpt><trkpt lat="43.4490617" lon="11.814225"><ele>236.4</ele><time>2026-04-24T16:16:21.075Z</time></trkpt><trkpt lat="43.4491517" lon="11.8143317"><ele>236.8</ele><time>2026-04-24T16:16:23.074Z</time></trkpt><trkpt lat="43.449225" lon="11.81442"><ele>237.20000000000002</ele><time>2026-04-24T16:16:25.076Z</time></trkpt><trkpt lat="43.449315" lon="11.8144833"><ele>237.60000000000002</ele><time>2026-04-24T16:16:27.075Z</time></trkpt><trkpt lat="43.4494183" lon="11.8145383"><ele>238.0</ele><time>2026-04-24T16:16:29.073Z</time></trkpt><trkpt lat="43.4495183" lon="11.8146083"><ele>238.0</ele><time>2026-04-24T16:16:31.077Z</time></trkpt><trkpt lat="43.4496167" lon="11.814675"><ele>238.0</ele><time>2026-04-24T16:16:33.075Z</time></trkpt><trkpt lat="43.449715" lon="11.81474"><ele>238.0</ele><time>2026-04-24T16:16:35.073Z</time></trkpt><trkpt lat="43.4498117" lon="11.814805"><ele>238.0</ele><time>2026-04-24T16:16:37.075Z</time></trkpt><trkpt lat="43.4499133" lon="11.8148583"><ele>238.0</ele><time>2026-04-24T16:16:39.074Z</time></trkpt><trkpt lat="43.45002" lon="11.8149067"><ele>238.25</ele><time>2026-04-24T16:16:41.075Z</time></trkpt><trkpt lat="43.4501267" lon="11.814955"><ele>238.5</ele><time>2026-04-24T16:16:43.079Z</time></trkpt><trkpt lat="43.4502333" lon="11.81501"><ele>238.75</ele><time>2026-04-24T16:16:45.079Z</time></trkpt><trkpt lat="43.4503367" lon="11.81506"><ele>239.0</ele><time>2026-04-24T16:16:47.075Z</time></trkpt><trkpt lat="43.4505033" lon="11.815145"><ele>239.0</ele><time>2026-04-24T16:16:50.076Z</time></trkpt><trkpt lat="43.4506133" lon="11.8151867"><ele>239.0</ele><time>2026-04-24T16:16:52.075Z</time></trkpt><trkpt lat="43.45073" lon="11.8152217"><ele>239.0</ele><time>2026-04-24T16:16:54.074Z</time></trkpt><trkpt lat="43.4508467" lon="11.81526"><ele>239.0</ele><time>2026-04-24T16:16:56.076Z</time></trkpt><trkpt lat="43.4509567" lon="11.8153067"><ele>239.0</ele><time>2026-04-24T16:16:58.073Z</time></trkpt><trkpt lat="43.4510617" lon="11.815355"><ele>238.99999999999997</ele><time>2026-04-24T16:17:00.074Z</time></trkpt><trkpt lat="43.4511633" lon="11.8154"><ele>238.99999999999997</ele><time>2026-04-24T16:17:02.078Z</time></trkpt><trkpt lat="43.4512633" lon="11.815445"><ele>239.0</ele><time>2026-04-24T16:17:04.079Z</time></trkpt><trkpt lat="43.45137" lon="11.8154983"><ele>239.0</ele><time>2026-04-24T16:17:06.077Z</time></trkpt><trkpt lat="43.4514733" lon="11.8155517"><ele>238.79999999999998</ele><time>2026-04-24T16:17:08.075Z</time></trkpt><trkpt lat="43.4515833" lon="11.8156067"><ele>238.59999999999997</ele><time>2026-04-24T16:17:10.075Z</time></trkpt><trkpt lat="43.4516517" lon="11.815625"><ele>238.4</ele><time>2026-04-24T16:17:11.077Z</time></trkpt><trkpt lat="43.4517583" lon="11.8156867"><ele>238.2</ele><time>2026-04-24T16:17:13.076Z</time></trkpt><trkpt lat="43.4518183" lon="11.8157167"><ele>238.0</ele><time>2026-04-24T16:17:14.075Z</time></trkpt><trkpt lat="43.45193" lon="11.8157367"><ele>238.0</ele><time>2026-04-24T16:17:16.077Z</time></trkpt><trkpt lat="43.45204" lon="11.8157783"><ele>238.0</ele><time>2026-04-24T16:17:18.076Z</time></trkpt><trkpt lat="43.4521417" lon="11.8158267"><ele>238.0</ele><time>2026-04-24T16:17:20.077Z</time></trkpt><trkpt lat="43.4522467" lon="11.815875"><ele>238.0</ele><time>2026-04-24T16:17:22.074Z</time></trkpt><trkpt lat="43.4523533" lon="11.815925"><ele>238.0</ele><time>2026-04-24T16:17:24.078Z</time></trkpt><trkpt lat="43.452465" lon="11.81597"><ele>237.75</ele><time>2026-04-24T16:17:26.075Z</time></trkpt><trkpt lat="43.4525733" lon="11.8160133"><ele>237.5</ele><time>2026-04-24T16:17:28.075Z</time></trkpt><trkpt lat="43.4526833" lon="11.8160567"><ele>237.25</ele><time>2026-04-24T16:17:30.075Z</time></trkpt><trkpt lat="43.45279" lon="11.8160983"><ele>237.0</ele><time>2026-04-24T16:17:32.077Z</time></trkpt><trkpt lat="43.4528983" lon="11.8161417"><ele>236.75</ele><time>2026-04-24T16:17:34.074Z</time></trkpt><trkpt lat="43.453005" lon="11.8161833"><ele>236.5</ele><time>2026-04-24T16:17:36.077Z</time></trkpt><trkpt lat="43.4531133" lon="11.8162283"><ele>236.25</ele><time>2026-04-24T16:17:38.078Z</time></trkpt><trkpt lat="43.4532217" lon="11.8162733"><ele>236.0</ele><time>2026-04-24T16:17:40.075Z</time></trkpt><trkpt lat="43.45333" lon="11.8163233"><ele>236.0</ele><time>2026-04-24T16:17:42.077Z</time></trkpt><trkpt lat="43.4534367" lon="11.8163717"><ele>236.00000000000003</ele><time>2026-04-24T16:17:44.075Z</time></trkpt><trkpt lat="43.45354" lon="11.8164183"><ele>236.00000000000003</ele><time>2026-04-24T16:17:46.075Z</time></trkpt><trkpt lat="43.453645" lon="11.8164717"><ele>236.0</ele><time>2026-04-24T16:17:48.073Z</time></trkpt><trkpt lat="43.45375" lon="11.816525"><ele>236.0</ele><time>2026-04-24T16:17:50.075Z</time></trkpt><trkpt lat="43.45386" lon="11.81658"><ele>236.60000000000002</ele><time>2026-04-24T16:17:52.074Z</time></trkpt><trkpt lat="43.4539717" lon="11.81663"><ele>237.20000000000002</ele><time>2026-04-24T16:17:54.074Z</time></trkpt><trkpt lat="43.4540317" lon="11.8166583"><ele>237.79999999999998</ele><time>2026-04-24T16:17:55.078Z</time></trkpt><trkpt lat="43.4540983" lon="11.8166883"><ele>238.39999999999998</ele><time>2026-04-24T16:17:56.074Z</time></trkpt><trkpt lat="43.4542083" lon="11.816745"><ele>239.0</ele><time>2026-04-24T16:17:58.077Z</time></trkpt><trkpt lat="43.4543067" lon="11.8167967"><ele>238.79999999999998</ele><time>2026-04-24T16:18:00.074Z</time></trkpt><trkpt lat="43.4544083" lon="11.81684"><ele>238.59999999999997</ele><time>2026-04-24T16:18:02.075Z</time></trkpt><trkpt lat="43.4545133" lon="11.8168783"><ele>238.4</ele><time>2026-04-24T16:18:04.074Z</time></trkpt><trkpt lat="43.4546133" lon="11.81693"><ele>238.2</ele><time>2026-04-24T16:18:06.076Z</time></trkpt><trkpt lat="43.45472" lon="11.8169817"><ele>238.0</ele><time>2026-04-24T16:18:08.075Z</time></trkpt><trkpt lat="43.454825" lon="11.81705"><ele>237.8</ele><time>2026-04-24T16:18:10.074Z</time></trkpt><trkpt lat="43.4549333" lon="11.817095"><ele>237.60000000000002</ele><time>2026-04-24T16:18:12.073Z</time></trkpt><trkpt lat="43.4549933" lon="11.8171267"><ele>237.39999999999998</ele><time>2026-04-24T16:18:13.074Z</time></trkpt><trkpt lat="43.4551083" lon="11.8171767"><ele>237.2</ele><time>2026-04-24T16:18:15.077Z</time></trkpt><trkpt lat="43.4552233" lon="11.8172067"><ele>237.0</ele><time>2026-04-24T16:18:17.076Z</time></trkpt><trkpt lat="43.4553283" lon="11.81727"><ele>237.0</ele><time>2026-04-24T16:18:19.074Z</time></trkpt><trkpt lat="43.4554267" lon="11.8173217"><ele>237.0</ele><time>2026-04-24T16:18:21.073Z</time></trkpt><trkpt lat="43.45553" lon="11.8173733"><ele>237.0</ele><time>2026-04-24T16:18:23.077Z</time></trkpt><trkpt lat="43.45563" lon="11.8174283"><ele>237.0</ele><time>2026-04-24T16:18:25.074Z</time></trkpt><trkpt lat="43.45573" lon="11.8174817"><ele>237.0</ele><time>2026-04-24T16:18:27.075Z</time></trkpt><trkpt lat="43.4558383" lon="11.8175033"><ele>237.5</ele><time>2026-04-24T16:18:29.074Z</time></trkpt><trkpt lat="43.455955" lon="11.8175333"><ele>238.0</ele><time>2026-04-24T16:18:31.075Z</time></trkpt><trkpt lat="43.4560667" lon="11.81757"><ele>238.5</ele><time>2026-04-24T16:18:33.074Z</time></trkpt><trkpt lat="43.45618" lon="11.81761"><ele>239.0</ele><time>2026-04-24T16:18:35.074Z</time></trkpt><trkpt lat="43.4562933" lon="11.8176533"><ele>239.0</ele><time>2026-04-24T16:18:37.075Z</time></trkpt><trkpt lat="43.4564033" lon="11.8177067"><ele>238.99999999999997</ele><time>2026-04-24T16:18:39.073Z</time></trkpt><trkpt lat="43.456505" lon="11.81777"><ele>238.99999999999997</ele><time>2026-04-24T16:18:41.073Z</time></trkpt><trkpt lat="43.45661" lon="11.8178233"><ele>239.0</ele><time>2026-04-24T16:18:43.075Z</time></trkpt><trkpt lat="43.4566867" lon="11.8178783"><ele>239.0</ele><time>2026-04-24T16:18:45.076Z</time></trkpt><trkpt lat="43.4567633" lon="11.8179283"><ele>239.00000000000003</ele><time>2026-04-24T16:18:47.076Z</time></trkpt><trkpt lat="43.456835" lon="11.8179683"><ele>239.0</ele><time>2026-04-24T16:18:49.076Z</time></trkpt><trkpt lat="43.45691" lon="11.818"><ele>239.0</ele><time>2026-04-24T16:18:51.077Z</time></trkpt><trkpt lat="43.45699" lon="11.8180133"><ele>239.0</ele><time>2026-04-24T16:18:53.076Z</time></trkpt><trkpt lat="43.4570817" lon="11.81802"><ele>239.00000000000003</ele><time>2026-04-24T16:18:56.077Z</time></trkpt><trkpt lat="43.4571417" lon="11.8180467"><ele>239.0</ele><time>2026-04-24T16:18:58.073Z</time></trkpt><trkpt lat="43.457215" lon="11.8180833"><ele>239.25</ele><time>2026-04-24T16:19:00.074Z</time></trkpt><trkpt lat="43.45732" lon="11.81814"><ele>239.5</ele><time>2026-04-24T16:19:02.076Z</time></trkpt><trkpt lat="43.4574283" lon="11.8181983"><ele>239.75</ele><time>2026-04-24T16:19:04.074Z</time></trkpt><trkpt lat="43.457535" lon="11.818265"><ele>240.0</ele><time>2026-04-24T16:19:06.076Z</time></trkpt><trkpt lat="43.45765" lon="11.8183167"><ele>240.0</ele><time>2026-04-24T16:19:08.073Z</time></trkpt><trkpt lat="43.4577633" lon="11.818355"><ele>240.0</ele><time>2026-04-24T16:19:10.076Z</time></trkpt><trkpt lat="43.457875" lon="11.8183983"><ele>240.0</ele><time>2026-04-24T16:19:12.074Z</time></trkpt><trkpt lat="43.4579867" lon="11.81845"><ele>240.0</ele><time>2026-04-24T16:19:14.076Z</time></trkpt><trkpt lat="43.4581" lon="11.8185067"><ele>239.8</ele><time>2026-04-24T16:19:16.072Z</time></trkpt><trkpt lat="43.4582183" lon="11.8185567"><ele>239.6</ele><time>2026-04-24T16:19:18.077Z</time></trkpt><trkpt lat="43.4582817" lon="11.8185817"><ele>239.39999999999998</ele><time>2026-04-24T16:19:19.076Z</time></trkpt><trkpt lat="43.4583433" lon="11.8186083"><ele>239.2</ele><time>2026-04-24T16:19:20.075Z</time></trkpt><trkpt lat="43.4584583" lon="11.8186567"><ele>239.0</ele><time>2026-04-24T16:19:22.074Z</time></trkpt><trkpt lat="43.45858" lon="11.818705"><ele>239.0</ele><time>2026-04-24T16:19:24.073Z</time></trkpt><trkpt lat="43.4586917" lon="11.8187583"><ele>239.0</ele><time>2026-04-24T16:19:26.075Z</time></trkpt><trkpt lat="43.458805" lon="11.8188033"><ele>239.0</ele><time>2026-04-24T16:19:28.074Z</time></trkpt><trkpt lat="43.4589167" lon="11.8188633"><ele>239.0</ele><time>2026-04-24T16:19:30.075Z</time></trkpt><trkpt lat="43.4590283" lon="11.8189167"><ele>239.0</ele><time>2026-04-24T16:19:32.076Z</time></trkpt><trkpt lat="43.45914" lon="11.818985"><ele>238.99999999999997</ele><time>2026-04-24T16:19:34.075Z</time></trkpt><trkpt lat="43.45924" lon="11.8190533"><ele>238.99999999999997</ele><time>2026-04-24T16:19:36.075Z</time></trkpt><trkpt lat="43.4593283" lon="11.81912"><ele>239.0</ele><time>2026-04-24T16:19:38.074Z</time></trkpt><trkpt lat="43.4594267" lon="11.8191867"><ele>239.0</ele><time>2026-04-24T16:19:40.072Z</time></trkpt><trkpt lat="43.459545" lon="11.8192183"><ele>238.75</ele><time>2026-04-24T16:19:42.077Z</time></trkpt><trkpt lat="43.4596617" lon="11.8192767"><ele>238.5</ele><time>2026-04-24T16:19:44.077Z</time></trkpt><trkpt lat="43.4597783" lon="11.819325"><ele>238.25</ele><time>2026-04-24T16:19:46.076Z</time></trkpt><trkpt lat="43.4599033" lon="11.819375"><ele>238.0</ele><time>2026-04-24T16:19:48.075Z</time></trkpt><trkpt lat="43.4600167" lon="11.8194367"><ele>238.0</ele><time>2026-04-24T16:19:50.078Z</time></trkpt><trkpt lat="43.46012" lon="11.8194883"><ele>238.0</ele><time>2026-04-24T16:19:52.077Z</time></trkpt><trkpt lat="43.4602067" lon="11.8195433"><ele>238.0</ele><time>2026-04-24T16:19:54.076Z</time></trkpt><trkpt lat="43.46029" lon="11.8195867"><ele>238.0</ele><time>2026-04-24T16:19:56.076Z</time></trkpt><trkpt lat="43.460375" lon="11.8196317"><ele>238.0</ele><time>2026-04-24T16:19:58.077Z</time></trkpt><trkpt lat="43.460465" lon="11.8196817"><ele>238.60000000000002</ele><time>2026-04-24T16:20:00.077Z</time></trkpt><trkpt lat="43.4605717" lon="11.81974"><ele>239.20000000000002</ele><time>2026-04-24T16:20:02.081Z</time></trkpt><trkpt lat="43.460665" lon="11.8198167"><ele>239.8</ele><time>2026-04-24T16:20:04.077Z</time></trkpt><trkpt lat="43.46075" lon="11.819885"><ele>240.4</ele><time>2026-04-24T16:20:06.076Z</time></trkpt><trkpt lat="43.46082" lon="11.8199417"><ele>241.0</ele><time>2026-04-24T16:20:08.077Z</time></trkpt><trkpt lat="43.4608917" lon="11.8200033"><ele>240.99999999999997</ele><time>2026-04-24T16:20:11.074Z</time></trkpt><trkpt lat="43.4609017" lon="11.82011"><ele>241.0</ele><time>2026-04-24T16:20:31.075Z</time></trkpt><trkpt lat="43.4608583" lon="11.8202233"><ele>241.0</ele><time>2026-04-24T16:20:34.076Z</time></trkpt><trkpt lat="43.4608267" lon="11.820305"><ele>241.0</ele><time>2026-04-24T16:20:36.077Z</time></trkpt><trkpt lat="43.4607917" lon="11.8203917"><ele>240.99999999999997</ele><time>2026-04-24T16:20:38.079Z</time></trkpt><trkpt lat="43.4607567" lon="11.82049"><ele>241.0</ele><time>2026-04-24T16:20:40.076Z</time></trkpt><trkpt lat="43.460715" lon="11.820585"><ele>240.66666666666666</ele><time>2026-04-24T16:20:42.08Z</time></trkpt><trkpt lat="43.4606783" lon="11.820675"><ele>240.33333333333331</ele><time>2026-04-24T16:20:44.078Z</time></trkpt><trkpt lat="43.460635" lon="11.8207567"><ele>240.0</ele><time>2026-04-24T16:20:46.077Z</time></trkpt><trkpt lat="43.4606367" lon="11.8208733"><ele>239.66666666666669</ele><time>2026-04-24T16:21:00.075Z</time></trkpt><trkpt lat="43.4606733" lon="11.8209517"><ele>239.33333333333334</ele><time>2026-04-24T16:21:03.075Z</time></trkpt><trkpt lat="43.460695" lon="11.8210783"><ele>239.0</ele><time>2026-04-24T16:21:06.077Z</time></trkpt><trkpt lat="43.4607383" lon="11.8211783"><ele>239.79999999999998</ele><time>2026-04-24T16:21:08.076Z</time></trkpt><trkpt lat="43.4608017" lon="11.8212767"><ele>240.59999999999997</ele><time>2026-04-24T16:21:10.072Z</time></trkpt><trkpt lat="43.460885" lon="11.8213533"><ele>241.4</ele><time>2026-04-24T16:21:12.076Z</time></trkpt><trkpt lat="43.46097" lon="11.8214283"><ele>242.2</ele><time>2026-04-24T16:21:14.075Z</time></trkpt><trkpt lat="43.4610483" lon="11.82151"><ele>243.0</ele><time>2026-04-24T16:21:16.075Z</time></trkpt><trkpt lat="43.46112" lon="11.8215933"><ele>243.0</ele><time>2026-04-24T16:21:18.076Z</time></trkpt><trkpt lat="43.4611767" lon="11.8216683"><ele>243.0</ele><time>2026-04-24T16:21:20.076Z</time></trkpt><trkpt lat="43.4612367" lon="11.8217433"><ele>243.0</ele><time>2026-04-24T16:21:23.074Z</time></trkpt><trkpt lat="43.4612933" lon="11.8218283"><ele>243.0</ele><time>2026-04-24T16:21:27.078Z</time></trkpt><trkpt lat="43.46135" lon="11.82189"><ele>243.0</ele><time>2026-04-24T16:21:30.074Z</time></trkpt><trkpt lat="43.4614133" lon="11.8219483"><ele>243.0</ele><time>2026-04-24T16:21:33.073Z</time></trkpt><trkpt lat="43.4614933" lon="11.8220133"><ele>243.2</ele><time>2026-04-24T16:21:36.077Z</time></trkpt><trkpt lat="43.4615617" lon="11.8220583"><ele>243.4</ele><time>2026-04-24T16:21:38.076Z</time></trkpt><trkpt lat="43.461645" lon="11.82211"><ele>243.59999999999997</ele><time>2026-04-24T16:21:40.076Z</time></trkpt><trkpt lat="43.46174" lon="11.8221533"><ele>243.79999999999998</ele><time>2026-04-24T16:21:42.076Z</time></trkpt><trkpt lat="43.46183" lon="11.8221917"><ele>244.0</ele><time>2026-04-24T16:21:44.075Z</time></trkpt><trkpt lat="43.4619167" lon="11.82224"><ele>244.0</ele><time>2026-04-24T16:21:46.074Z</time></trkpt><trkpt lat="43.4620083" lon="11.8223033"><ele>243.99999999999997</ele><time>2026-04-24T16:21:48.074Z</time></trkpt><trkpt lat="43.462095" lon="11.8223533"><ele>243.99999999999997</ele><time>2026-04-24T16:21:50.075Z</time></trkpt><trkpt lat="43.4621783" lon="11.82239"><ele>244.0</ele><time>2026-04-24T16:21:52.074Z</time></trkpt><trkpt lat="43.4622633" lon="11.8224167"><ele>244.0</ele><time>2026-04-24T16:21:54.076Z</time></trkpt><trkpt lat="43.46234" lon="11.8224717"><ele>243.6</ele><time>2026-04-24T16:21:56.074Z</time></trkpt><trkpt lat="43.4624333" lon="11.8225383"><ele>243.2</ele><time>2026-04-24T16:21:58.073Z</time></trkpt><trkpt lat="43.4625333" lon="11.8225983"><ele>242.79999999999998</ele><time>2026-04-24T16:22:00.075Z</time></trkpt><trkpt lat="43.4626417" lon="11.8226533"><ele>242.39999999999998</ele><time>2026-04-24T16:22:02.076Z</time></trkpt><trkpt lat="43.46274" lon="11.8227117"><ele>242.0</ele><time>2026-04-24T16:22:04.075Z</time></trkpt><trkpt lat="43.4628517" lon="11.8227667"><ele>241.75</ele><time>2026-04-24T16:22:06.073Z</time></trkpt><trkpt lat="43.4629583" lon="11.8228233"><ele>241.5</ele><time>2026-04-24T16:22:08.074Z</time></trkpt><trkpt lat="43.4630633" lon="11.82289"><ele>241.25</ele><time>2026-04-24T16:22:10.077Z</time></trkpt><trkpt lat="43.463165" lon="11.8229517"><ele>241.0</ele><time>2026-04-24T16:22:12.074Z</time></trkpt><trkpt lat="43.4632717" lon="11.8230117"><ele>241.0</ele><time>2026-04-24T16:22:14.075Z</time></trkpt><trkpt lat="43.4633883" lon="11.8230633"><ele>241.0</ele><time>2026-04-24T16:22:16.075Z</time></trkpt><trkpt lat="43.463495" lon="11.8231183"><ele>241.0</ele><time>2026-04-24T16:22:18.073Z</time></trkpt><trkpt lat="43.4636083" lon="11.8231633"><ele>241.0</ele><time>2026-04-24T16:22:20.076Z</time></trkpt><trkpt lat="43.46371" lon="11.8232217"><ele>240.0</ele><time>2026-04-24T16:22:22.074Z</time></trkpt><trkpt lat="43.46382" lon="11.8232867"><ele>239.0</ele><time>2026-04-24T16:22:24.073Z</time></trkpt><trkpt lat="43.463935" lon="11.8233467"><ele>238.0</ele><time>2026-04-24T16:22:26.077Z</time></trkpt><trkpt lat="43.464045" lon="11.8234083"><ele>237.0</ele><time>2026-04-24T16:22:28.076Z</time></trkpt><trkpt lat="43.464155" lon="11.8234733"><ele>238.25</ele><time>2026-04-24T16:22:30.076Z</time></trkpt><trkpt lat="43.4642567" lon="11.8235467"><ele>239.5</ele><time>2026-04-24T16:22:32.075Z</time></trkpt><trkpt lat="43.4643733" lon="11.8235983"><ele>240.75</ele><time>2026-04-24T16:22:34.075Z</time></trkpt><trkpt lat="43.4644867" lon="11.8236583"><ele>242.0</ele><time>2026-04-24T16:22:36.077Z</time></trkpt><trkpt lat="43.4645983" lon="11.8237133"><ele>241.6</ele><time>2026-04-24T16:22:38.074Z</time></trkpt><trkpt lat="43.464695" lon="11.8237567"><ele>241.2</ele><time>2026-04-24T16:22:40.074Z</time></trkpt><trkpt lat="43.4648083" lon="11.8238167"><ele>240.8</ele><time>2026-04-24T16:22:42.08Z</time></trkpt><trkpt lat="43.4649233" lon="11.823885"><ele>240.4</ele><time>2026-04-24T16:22:44.075Z</time></trkpt><trkpt lat="43.4649833" lon="11.8239167"><ele>240.0</ele><time>2026-04-24T16:22:45.072Z</time></trkpt><trkpt lat="43.4650967" lon="11.82398"><ele>240.0</ele><time>2026-04-24T16:22:47.075Z</time></trkpt><trkpt lat="43.4652083" lon="11.8240367"><ele>240.0</ele><time>2026-04-24T16:22:49.074Z</time></trkpt><trkpt lat="43.4652683" lon="11.8240767"><ele>240.0</ele><time>2026-04-24T16:22:50.074Z</time></trkpt><trkpt lat="43.4653717" lon="11.8241333"><ele>240.0</ele><time>2026-04-24T16:22:52.074Z</time></trkpt><trkpt lat="43.4654833" lon="11.8242033"><ele>240.0</ele><time>2026-04-24T16:22:54.075Z</time></trkpt><trkpt lat="43.4655683" lon="11.8242517"><ele>239.8</ele><time>2026-04-24T16:22:56.075Z</time></trkpt><trkpt lat="43.4656667" lon="11.82431"><ele>239.6</ele><time>2026-04-24T16:22:58.073Z</time></trkpt><trkpt lat="43.4657583" lon="11.8243517"><ele>239.39999999999998</ele><time>2026-04-24T16:23:00.078Z</time></trkpt><trkpt lat="43.4658517" lon="11.8243917"><ele>239.2</ele><time>2026-04-24T16:23:02.074Z</time></trkpt><trkpt lat="43.4659367" lon="11.82443"><ele>239.0</ele><time>2026-04-24T16:23:04.074Z</time></trkpt><trkpt lat="43.4660283" lon="11.824465"><ele>239.50000000000003</ele><time>2026-04-24T16:23:06.076Z</time></trkpt><trkpt lat="43.4661067" lon="11.8245017"><ele>240.0</ele><time>2026-04-24T16:23:08.076Z</time></trkpt><trkpt lat="43.466165" lon="11.8245417"><ele>240.5</ele><time>2026-04-24T16:23:10.073Z</time></trkpt><trkpt lat="43.4662333" lon="11.8246183"><ele>241.0</ele><time>2026-04-24T16:23:13.073Z</time></trkpt><trkpt lat="43.4663117" lon="11.8246967"><ele>241.50000000000003</ele><time>2026-04-24T16:23:16.073Z</time></trkpt><trkpt lat="43.4663717" lon="11.8247517"><ele>242.0</ele><time>2026-04-24T16:23:18.075Z</time></trkpt><trkpt lat="43.466455" lon="11.8247917"><ele>242.2</ele><time>2026-04-24T16:23:20.074Z</time></trkpt><trkpt lat="43.4665367" lon="11.8248317"><ele>242.39999999999998</ele><time>2026-04-24T16:23:22.074Z</time></trkpt><trkpt lat="43.4666333" lon="11.8248633"><ele>242.60000000000002</ele><time>2026-04-24T16:23:24.077Z</time></trkpt><trkpt lat="43.4667333" lon="11.8249117"><ele>242.8</ele><time>2026-04-24T16:23:26.075Z</time></trkpt><trkpt lat="43.46682" lon="11.8249567"><ele>243.0</ele><time>2026-04-24T16:23:28.073Z</time></trkpt><trkpt lat="43.4669083" lon="11.8249983"><ele>243.0</ele><time>2026-04-24T16:23:30.073Z</time></trkpt><trkpt lat="43.4669867" lon="11.825045"><ele>243.0</ele><time>2026-04-24T16:23:32.075Z</time></trkpt><trkpt lat="43.46707" lon="11.8250833"><ele>243.0</ele><time>2026-04-24T16:23:34.077Z</time></trkpt><trkpt lat="43.4671533" lon="11.8251333"><ele>243.0</ele><time>2026-04-24T16:23:36.074Z</time></trkpt><trkpt lat="43.46724" lon="11.82518"><ele>243.0</ele><time>2026-04-24T16:23:38.073Z</time></trkpt><trkpt lat="43.4673283" lon="11.8252317"><ele>242.5</ele><time>2026-04-24T16:23:40.075Z</time></trkpt><trkpt lat="43.467415" lon="11.825285"><ele>242.0</ele><time>2026-04-24T16:23:42.075Z</time></trkpt><trkpt lat="43.4674967" lon="11.825335"><ele>241.5</ele><time>2026-04-24T16:23:44.077Z</time></trkpt><trkpt lat="43.467575" lon="11.82538"><ele>241.0</ele><time>2026-04-24T16:23:46.075Z</time></trkpt><trkpt lat="43.467655" lon="11.8254"><ele>240.5</ele><time>2026-04-24T16:23:48.074Z</time></trkpt><trkpt lat="43.4677217" lon="11.8253867"><ele>240.0</ele><time>2026-04-24T16:23:50.074Z</time></trkpt><trkpt lat="43.46778" lon="11.8253317"><ele>240.0</ele><time>2026-04-24T16:23:52.073Z</time></trkpt><trkpt lat="43.4678367" lon="11.8252683"><ele>240.0</ele><time>2026-04-24T16:23:54.072Z</time></trkpt><trkpt lat="43.4678883" lon="11.8251917"><ele>240.0</ele><time>2026-04-24T16:23:57.077Z</time></trkpt><trkpt lat="43.4679217" lon="11.8251167"><ele>240.0</ele><time>2026-04-24T16:24:05.073Z</time></trkpt><trkpt lat="43.4678833" lon="11.8251867"><ele>240.0</ele><time>2026-04-24T16:27:00.075Z</time></trkpt><trkpt lat="43.467825" lon="11.8252367"><ele>240.0</ele><time>2026-04-24T16:27:08.076Z</time></trkpt><trkpt lat="43.4677607" lon="11.8252664"><ele>240.0</ele><time>2026-04-24T16:27:19.222Z</time></trkpt><trkpt lat="43.4677049" lon="11.8253099"><ele>240.0</ele><time>2026-04-24T16:28:07.124Z</time></trkpt><trkpt lat="43.4676438" lon="11.8253374"><ele>240.0</ele><time>2026-04-24T16:29:21.184Z</time></trkpt><trkpt lat="43.4675829" lon="11.8253033"><ele>240.0</ele><time>2026-04-24T16:29:25.204Z</time></trkpt><trkpt lat="43.4675345" lon="11.8252249"><ele>240.0</ele><time>2026-04-24T16:29:27.199Z</time></trkpt><trkpt lat="43.4674745" lon="11.8251888"><ele>240.0</ele><time>2026-04-24T16:29:29.191Z</time></trkpt><trkpt lat="43.4673965" lon="11.8252063"><ele>240.0</ele><time>2026-04-24T16:29:31.185Z</time></trkpt><trkpt lat="43.4673288" lon="11.8251922"><ele>240.0</ele><time>2026-04-24T16:29:33.179Z</time></trkpt><trkpt lat="43.4672526" lon="11.8251557"><ele>239.5</ele><time>2026-04-24T16:29:35.146Z</time></trkpt><trkpt lat="43.4671892" lon="11.8251191"><ele>239.0</ele><time>2026-04-24T16:29:37.165Z</time></trkpt><trkpt lat="43.4670517" lon="11.8250233"><ele>238.5</ele><time>2026-04-24T16:29:41.076Z</time></trkpt><trkpt lat="43.4669883" lon="11.8249867"><ele>238.0</ele><time>2026-04-24T16:29:43.074Z</time></trkpt><trkpt lat="43.4669267" lon="11.8249583"><ele>237.5</ele><time>2026-04-24T16:29:45.074Z</time></trkpt><trkpt lat="43.4668667" lon="11.8249283"><ele>237.0</ele><time>2026-04-24T16:29:47.075Z</time></trkpt><trkpt lat="43.466785" lon="11.8248867"><ele>238.0</ele><time>2026-04-24T16:29:50.074Z</time></trkpt><trkpt lat="43.466695" lon="11.824845"><ele>239.0</ele><time>2026-04-24T16:29:53.074Z</time></trkpt><trkpt lat="43.4666217" lon="11.8248067"><ele>240.0</ele><time>2026-04-24T16:29:55.077Z</time></trkpt><trkpt lat="43.46654" lon="11.8247617"><ele>241.0</ele><time>2026-04-24T16:29:57.074Z</time></trkpt><trkpt lat="43.466455" lon="11.824715"><ele>242.0</ele><time>2026-04-24T16:29:59.074Z</time></trkpt><trkpt lat="43.4663717" lon="11.8246683"><ele>243.0</ele><time>2026-04-24T16:30:01.073Z</time></trkpt><trkpt lat="43.4662967" lon="11.8246283"><ele>242.8</ele><time>2026-04-24T16:30:03.074Z</time></trkpt><trkpt lat="43.46622" lon="11.8245733"><ele>242.60000000000002</ele><time>2026-04-24T16:30:06.073Z</time></trkpt><trkpt lat="43.4661433" lon="11.824495"><ele>242.39999999999998</ele><time>2026-04-24T16:30:09.078Z</time></trkpt><trkpt lat="43.4660767" lon="11.8244567"><ele>242.2</ele><time>2026-04-24T16:30:11.077Z</time></trkpt><trkpt lat="43.46595" lon="11.82439"><ele>242.0</ele><time>2026-04-24T16:30:14.075Z</time></trkpt><trkpt lat="43.4658617" lon="11.8243433"><ele>241.6</ele><time>2026-04-24T16:30:16.074Z</time></trkpt><trkpt lat="43.4657767" lon="11.824295"><ele>241.2</ele><time>2026-04-24T16:30:18.074Z</time></trkpt><trkpt lat="43.4656917" lon="11.82425"><ele>240.8</ele><time>2026-04-24T16:30:20.075Z</time></trkpt><trkpt lat="43.4656067" lon="11.8242"><ele>240.4</ele><time>2026-04-24T16:30:22.073Z</time></trkpt><trkpt lat="43.4655233" lon="11.8241483"><ele>240.0</ele><time>2026-04-24T16:30:24.076Z</time></trkpt><trkpt lat="43.4654317" lon="11.8240983"><ele>240.0</ele><time>2026-04-24T16:30:26.076Z</time></trkpt><trkpt lat="43.4653383" lon="11.8240583"><ele>240.0</ele><time>2026-04-24T16:30:28.074Z</time></trkpt><trkpt lat="43.4652417" lon="11.82401"><ele>240.0</ele><time>2026-04-24T16:30:30.076Z</time></trkpt><trkpt lat="43.4651567" lon="11.823965"><ele>240.0</ele><time>2026-04-24T16:30:32.075Z</time></trkpt><trkpt lat="43.4650683" lon="11.8239183"><ele>240.0</ele><time>2026-04-24T16:30:34.074Z</time></trkpt><trkpt lat="43.4649833" lon="11.823875"><ele>240.0</ele><time>2026-04-24T16:30:36.073Z</time></trkpt><trkpt lat="43.4649083" lon="11.82383"><ele>240.0</ele><time>2026-04-24T16:30:38.078Z</time></trkpt><trkpt lat="43.46483" lon="11.8237783"><ele>240.0</ele><time>2026-04-24T16:30:40.073Z</time></trkpt><trkpt lat="43.4647467" lon="11.8237317"><ele>240.0</ele><time>2026-04-24T16:30:42.075Z</time></trkpt><trkpt lat="43.4646667" lon="11.8236917"><ele>240.0</ele><time>2026-04-24T16:30:44.075Z</time></trkpt><trkpt lat="43.4645883" lon="11.8236517"><ele>240.0</ele><time>2026-04-24T16:30:46.074Z</time></trkpt><trkpt lat="43.4645" lon="11.823605"><ele>240.4</ele><time>2026-04-24T16:30:48.075Z</time></trkpt><trkpt lat="43.464415" lon="11.8235517"><ele>240.8</ele><time>2026-04-24T16:30:50.078Z</time></trkpt><trkpt lat="43.464325" lon="11.8234967"><ele>241.2</ele><time>2026-04-24T16:30:52.074Z</time></trkpt><trkpt lat="43.4642433" lon="11.8234533"><ele>241.6</ele><time>2026-04-24T16:30:54.076Z</time></trkpt><trkpt lat="43.4641583" lon="11.8234067"><ele>242.0</ele><time>2026-04-24T16:30:56.075Z</time></trkpt><trkpt lat="43.46407" lon="11.823365"><ele>241.8</ele><time>2026-04-24T16:30:58.075Z</time></trkpt><trkpt lat="43.4639833" lon="11.8233183"><ele>241.6</ele><time>2026-04-24T16:31:00.075Z</time></trkpt><trkpt lat="43.46389" lon="11.823275"><ele>241.40000000000003</ele><time>2026-04-24T16:31:02.075Z</time></trkpt><trkpt lat="43.4637983" lon="11.8232283"><ele>241.20000000000002</ele><time>2026-04-24T16:31:04.075Z</time></trkpt><trkpt lat="43.46371" lon="11.8231783"><ele>241.0</ele><time>2026-04-24T16:31:06.075Z</time></trkpt><trkpt lat="43.4636317" lon="11.8231283"><ele>241.0</ele><time>2026-04-24T16:31:08.075Z</time></trkpt><trkpt lat="43.4635517" lon="11.8230833"><ele>241.00000000000003</ele><time>2026-04-24T16:31:10.074Z</time></trkpt><trkpt lat="43.4634733" lon="11.8230317"><ele>241.00000000000003</ele><time>2026-04-24T16:31:12.078Z</time></trkpt><trkpt lat="43.4633833" lon="11.8229983"><ele>241.0</ele><time>2026-04-24T16:31:14.075Z</time></trkpt><trkpt lat="43.4632917" lon="11.8229567"><ele>241.0</ele><time>2026-04-24T16:31:16.074Z</time></trkpt><trkpt lat="43.463205" lon="11.82291"><ele>241.0</ele><time>2026-04-24T16:31:18.076Z</time></trkpt><trkpt lat="43.463115" lon="11.822865"><ele>241.00000000000003</ele><time>2026-04-24T16:31:20.073Z</time></trkpt><trkpt lat="43.4630333" lon="11.8228167"><ele>241.00000000000003</ele><time>2026-04-24T16:31:22.074Z</time></trkpt><trkpt lat="43.4629467" lon="11.8227667"><ele>241.0</ele><time>2026-04-24T16:31:24.074Z</time></trkpt><trkpt lat="43.4628567" lon="11.8227167"><ele>241.0</ele><time>2026-04-24T16:31:26.075Z</time></trkpt><trkpt lat="43.4627667" lon="11.8226683"><ele>241.20000000000002</ele><time>2026-04-24T16:31:28.073Z</time></trkpt><trkpt lat="43.462675" lon="11.8226217"><ele>241.40000000000003</ele><time>2026-04-24T16:31:30.077Z</time></trkpt><trkpt lat="43.46258" lon="11.8225683"><ele>241.6</ele><time>2026-04-24T16:31:32.073Z</time></trkpt><trkpt lat="43.4624917" lon="11.8225083"><ele>241.8</ele><time>2026-04-24T16:31:34.075Z</time></trkpt><trkpt lat="43.4624083" lon="11.8224417"><ele>242.0</ele><time>2026-04-24T16:31:36.074Z</time></trkpt><trkpt lat="43.46234" lon="11.8223817"><ele>242.00000000000003</ele><time>2026-04-24T16:31:38.075Z</time></trkpt><trkpt lat="43.462265" lon="11.8223433"><ele>242.0</ele><time>2026-04-24T16:31:40.075Z</time></trkpt><trkpt lat="43.4621833" lon="11.82232"><ele>242.0</ele><time>2026-04-24T16:31:42.077Z</time></trkpt><trkpt lat="43.4621067" lon="11.8222867"><ele>242.0</ele><time>2026-04-24T16:31:44.075Z</time></trkpt><trkpt lat="43.4620167" lon="11.8222417"><ele>242.00000000000003</ele><time>2026-04-24T16:31:46.076Z</time></trkpt><trkpt lat="43.4619283" lon="11.8221833"><ele>242.0</ele><time>2026-04-24T16:31:48.075Z</time></trkpt><trkpt lat="43.4618267" lon="11.822135"><ele>242.33333333333334</ele><time>2026-04-24T16:31:50.075Z</time></trkpt><trkpt lat="43.4617333" lon="11.8220917"><ele>242.66666666666669</ele><time>2026-04-24T16:31:52.074Z</time></trkpt><trkpt lat="43.461645" lon="11.8220433"><ele>243.0</ele><time>2026-04-24T16:31:54.076Z</time></trkpt><trkpt lat="43.4615667" lon="11.8219967"><ele>243.33333333333331</ele><time>2026-04-24T16:31:56.075Z</time></trkpt><trkpt lat="43.4614933" lon="11.8219533"><ele>243.66666666666666</ele><time>2026-04-24T16:31:58.076Z</time></trkpt><trkpt lat="43.4614217" lon="11.8219117"><ele>244.0</ele><time>2026-04-24T16:32:00.075Z</time></trkpt><trkpt lat="43.4613533" lon="11.8218517"><ele>243.83333333333331</ele><time>2026-04-24T16:32:02.075Z</time></trkpt><trkpt lat="43.4612783" lon="11.821755"><ele>243.66666666666666</ele><time>2026-04-24T16:32:04.074Z</time></trkpt><trkpt lat="43.46119" lon="11.8216283"><ele>243.5</ele><time>2026-04-24T16:32:06.075Z</time></trkpt><trkpt lat="43.4611417" lon="11.8215617"><ele>243.33333333333331</ele><time>2026-04-24T16:32:07.075Z</time></trkpt><trkpt lat="43.4610967" lon="11.8214983"><ele>243.16666666666666</ele><time>2026-04-24T16:32:08.075Z</time></trkpt><trkpt lat="43.4610467" lon="11.8214417"><ele>243.0</ele><time>2026-04-24T16:32:09.073Z</time></trkpt><trkpt lat="43.4609917" lon="11.8213917"><ele>243.0</ele><time>2026-04-24T16:32:10.075Z</time></trkpt><trkpt lat="43.4608867" lon="11.8213133"><ele>243.0</ele><time>2026-04-24T16:32:12.075Z</time></trkpt><trkpt lat="43.4608117" lon="11.8212283"><ele>243.0</ele><time>2026-04-24T16:32:14.077Z</time></trkpt><trkpt lat="43.460775" lon="11.8211433"><ele>243.0</ele><time>2026-04-24T16:32:16.075Z</time></trkpt><trkpt lat="43.460735" lon="11.8210567"><ele>243.0</ele><time>2026-04-24T16:32:19.074Z</time></trkpt><trkpt lat="43.4607083" lon="11.8209667"><ele>243.0</ele><time>2026-04-24T16:32:24.074Z</time></trkpt><trkpt lat="43.460645" lon="11.82087"><ele>242.42857142857142</ele><time>2026-04-24T16:32:37.074Z</time></trkpt><trkpt lat="43.4606567" lon="11.82078"><ele>241.8571428571429</ele><time>2026-04-24T16:32:41.074Z</time></trkpt><trkpt lat="43.4606983" lon="11.82069"><ele>241.2857142857143</ele><time>2026-04-24T16:32:44.078Z</time></trkpt><trkpt lat="43.46073" lon="11.8206"><ele>240.71428571428572</ele><time>2026-04-24T16:32:46.076Z</time></trkpt><trkpt lat="43.4607617" lon="11.8205117"><ele>240.14285714285717</ele><time>2026-04-24T16:32:48.078Z</time></trkpt><trkpt lat="43.4607917" lon="11.82042"><ele>239.5714285714286</ele><time>2026-04-24T16:32:50.075Z</time></trkpt><trkpt lat="43.4608283" lon="11.82032"><ele>239.00000000000003</ele><time>2026-04-24T16:32:52.074Z</time></trkpt><trkpt lat="43.4608683" lon="11.8202183"><ele>239.28571428571433</ele><time>2026-04-24T16:32:54.075Z</time></trkpt><trkpt lat="43.4609083" lon="11.820125"><ele>239.57142857142858</ele><time>2026-04-24T16:32:56.075Z</time></trkpt><trkpt lat="43.4609433" lon="11.8200417"><ele>239.8571428571429</ele><time>2026-04-24T16:32:58.076Z</time></trkpt><trkpt lat="43.4609083" lon="11.81996"><ele>240.14285714285717</ele><time>2026-04-24T16:33:17.077Z</time></trkpt><trkpt lat="43.4608533" lon="11.8199083"><ele>240.42857142857144</ele><time>2026-04-24T16:33:20.074Z</time></trkpt><trkpt lat="43.4607767" lon="11.81984"><ele>240.71428571428572</ele><time>2026-04-24T16:33:23.074Z</time></trkpt><trkpt lat="43.46072" lon="11.8197867"><ele>241.0</ele><time>2026-04-24T16:33:25.075Z</time></trkpt><trkpt lat="43.4606483" lon="11.8197233"><ele>241.0</ele><time>2026-04-24T16:33:27.076Z</time></trkpt><trkpt lat="43.4605667" lon="11.8196667"><ele>241.00000000000003</ele><time>2026-04-24T16:33:29.075Z</time></trkpt><trkpt lat="43.460485" lon="11.8196117"><ele>241.00000000000003</ele><time>2026-04-24T16:33:31.073Z</time></trkpt><trkpt lat="43.460405" lon="11.8195533"><ele>241.0</ele><time>2026-04-24T16:33:33.075Z</time></trkpt><trkpt lat="43.4603217" lon="11.8195033"><ele>241.0</ele><time>2026-04-24T16:33:35.076Z</time></trkpt><trkpt lat="43.460235" lon="11.819445"><ele>241.0</ele><time>2026-04-24T16:33:37.074Z</time></trkpt><trkpt lat="43.4601483" lon="11.8193833"><ele>241.00000000000003</ele><time>2026-04-24T16:33:39.075Z</time></trkpt><trkpt lat="43.4600533" lon="11.819335"><ele>241.00000000000003</ele><time>2026-04-24T16:33:41.074Z</time></trkpt><trkpt lat="43.459955" lon="11.819265"><ele>241.0</ele><time>2026-04-24T16:33:43.076Z</time></trkpt><trkpt lat="43.45987" lon="11.819215"><ele>241.0</ele><time>2026-04-24T16:33:45.075Z</time></trkpt><trkpt lat="43.4597883" lon="11.819165"><ele>241.0</ele><time>2026-04-24T16:33:47.075Z</time></trkpt><trkpt lat="43.4596817" lon="11.8191167"><ele>241.00000000000003</ele><time>2026-04-24T16:33:49.074Z</time></trkpt><trkpt lat="43.4596117" lon="11.81909"><ele>241.00000000000003</ele><time>2026-04-24T16:33:50.073Z</time></trkpt><trkpt lat="43.4594967" lon="11.8190467"><ele>241.0</ele><time>2026-04-24T16:33:52.075Z</time></trkpt><trkpt lat="43.45939" lon="11.819"><ele>241.0</ele><time>2026-04-24T16:33:54.076Z</time></trkpt><trkpt lat="43.4592967" lon="11.8189417"><ele>240.60000000000002</ele><time>2026-04-24T16:33:56.079Z</time></trkpt><trkpt lat="43.45923" lon="11.8189083"><ele>240.20000000000002</ele><time>2026-04-24T16:33:57.073Z</time></trkpt><trkpt lat="43.4591117" lon="11.81886"><ele>239.79999999999998</ele><time>2026-04-24T16:33:59.075Z</time></trkpt><trkpt lat="43.4589917" lon="11.8188133"><ele>239.39999999999998</ele><time>2026-04-24T16:34:01.076Z</time></trkpt><trkpt lat="43.4588733" lon="11.81877"><ele>239.0</ele><time>2026-04-24T16:34:03.075Z</time></trkpt><trkpt lat="43.4587583" lon="11.81872"><ele>239.0</ele><time>2026-04-24T16:34:05.075Z</time></trkpt><trkpt lat="43.4586417" lon="11.8186783"><ele>238.99999999999997</ele><time>2026-04-24T16:34:07.075Z</time></trkpt><trkpt lat="43.4585283" lon="11.8186333"><ele>238.99999999999997</ele><time>2026-04-24T16:34:09.074Z</time></trkpt><trkpt lat="43.4584117" lon="11.81858"><ele>239.0</ele><time>2026-04-24T16:34:11.074Z</time></trkpt><trkpt lat="43.4583517" lon="11.81855"><ele>239.0</ele><time>2026-04-24T16:34:12.075Z</time></trkpt><trkpt lat="43.458235" lon="11.8184967"><ele>239.25</ele><time>2026-04-24T16:34:14.078Z</time></trkpt><trkpt lat="43.45812" lon="11.8184483"><ele>239.5</ele><time>2026-04-24T16:34:16.075Z</time></trkpt><trkpt lat="43.458005" lon="11.8183967"><ele>239.75</ele><time>2026-04-24T16:34:18.074Z</time></trkpt><trkpt lat="43.4578933" lon="11.81834"><ele>240.0</ele><time>2026-04-24T16:34:20.073Z</time></trkpt><trkpt lat="43.4577783" lon="11.818285"><ele>240.0</ele><time>2026-04-24T16:34:22.074Z</time></trkpt><trkpt lat="43.4576683" lon="11.81823"><ele>240.0</ele><time>2026-04-24T16:34:24.076Z</time></trkpt><trkpt lat="43.4575583" lon="11.8181733"><ele>240.0</ele><time>2026-04-24T16:34:26.076Z</time></trkpt><trkpt lat="43.4574533" lon="11.8181117"><ele>240.0</ele><time>2026-04-24T16:34:28.074Z</time></trkpt><trkpt lat="43.4573467" lon="11.81806"><ele>240.0</ele><time>2026-04-24T16:34:30.074Z</time></trkpt><trkpt lat="43.4572333" lon="11.8180183"><ele>240.0</ele><time>2026-04-24T16:34:32.077Z</time></trkpt><trkpt lat="43.457135" lon="11.8179783"><ele>240.0</ele><time>2026-04-24T16:34:34.073Z</time></trkpt><trkpt lat="43.457035" lon="11.81793"><ele>240.0</ele><time>2026-04-24T16:34:36.074Z</time></trkpt><trkpt lat="43.4569283" lon="11.8178917"><ele>240.0</ele><time>2026-04-24T16:34:38.076Z</time></trkpt><trkpt lat="43.4568167" lon="11.8178367"><ele>239.75</ele><time>2026-04-24T16:34:40.074Z</time></trkpt><trkpt lat="43.4567017" lon="11.8177917"><ele>239.5</ele><time>2026-04-24T16:34:42.075Z</time></trkpt><trkpt lat="43.4565983" lon="11.81774"><ele>239.25</ele><time>2026-04-24T16:34:44.075Z</time></trkpt><trkpt lat="43.45649" lon="11.8177033"><ele>239.0</ele><time>2026-04-24T16:34:46.074Z</time></trkpt><trkpt lat="43.4563867" lon="11.8176517"><ele>239.5</ele><time>2026-04-24T16:34:48.075Z</time></trkpt><trkpt lat="43.4562733" lon="11.8176"><ele>240.0</ele><time>2026-04-24T16:34:50.074Z</time></trkpt><trkpt lat="43.4561667" lon="11.81755"><ele>240.5</ele><time>2026-04-24T16:34:52.075Z</time></trkpt><trkpt lat="43.45606" lon="11.817495"><ele>241.0</ele><time>2026-04-24T16:34:54.077Z</time></trkpt><trkpt lat="43.4559533" lon="11.8174467"><ele>241.0</ele><time>2026-04-24T16:34:56.077Z</time></trkpt><trkpt lat="43.4558467" lon="11.817395"><ele>241.0</ele><time>2026-04-24T16:34:58.076Z</time></trkpt><trkpt lat="43.45574" lon="11.8173617"><ele>241.0</ele><time>2026-04-24T16:35:00.078Z</time></trkpt><trkpt lat="43.45563" lon="11.8173183"><ele>241.0</ele><time>2026-04-24T16:35:02.077Z</time></trkpt><trkpt lat="43.4555183" lon="11.81726"><ele>240.0</ele><time>2026-04-24T16:35:04.076Z</time></trkpt><trkpt lat="43.4554033" lon="11.8172133"><ele>239.0</ele><time>2026-04-24T16:35:06.075Z</time></trkpt><trkpt lat="43.4552867" lon="11.8171633"><ele>238.0</ele><time>2026-04-24T16:35:08.079Z</time></trkpt><trkpt lat="43.4551767" lon="11.8171133"><ele>237.0</ele><time>2026-04-24T16:35:10.078Z</time></trkpt><trkpt lat="43.4550617" lon="11.8170583"><ele>237.0</ele><time>2026-04-24T16:35:12.077Z</time></trkpt><trkpt lat="43.4549533" lon="11.8170067"><ele>237.0</ele><time>2026-04-24T16:35:14.078Z</time></trkpt><trkpt lat="43.4548417" lon="11.81696"><ele>237.0</ele><time>2026-04-24T16:35:16.076Z</time></trkpt><trkpt lat="43.4547367" lon="11.81691"><ele>237.0</ele><time>2026-04-24T16:35:18.079Z</time></trkpt><trkpt lat="43.4546283" lon="11.8168633"><ele>237.5</ele><time>2026-04-24T16:35:20.075Z</time></trkpt><trkpt lat="43.45452" lon="11.8168167"><ele>238.0</ele><time>2026-04-24T16:35:22.078Z</time></trkpt><trkpt lat="43.45441" lon="11.8167667"><ele>238.5</ele><time>2026-04-24T16:35:24.079Z</time></trkpt><trkpt lat="43.454295" lon="11.816715"><ele>239.0</ele><time>2026-04-24T16:35:26.076Z</time></trkpt><trkpt lat="43.4541817" lon="11.8166667"><ele>239.0</ele><time>2026-04-24T16:35:28.077Z</time></trkpt><trkpt lat="43.454065" lon="11.8166117"><ele>238.99999999999997</ele><time>2026-04-24T16:35:30.076Z</time></trkpt><trkpt lat="43.4540033" lon="11.816585"><ele>238.99999999999997</ele><time>2026-04-24T16:35:31.078Z</time></trkpt><trkpt lat="43.4539433" lon="11.8165583"><ele>239.0</ele><time>2026-04-24T16:35:32.077Z</time></trkpt><trkpt lat="43.453815" lon="11.81651"><ele>239.0</ele><time>2026-04-24T16:35:34.073Z</time></trkpt><trkpt lat="43.4536967" lon="11.8164583"><ele>238.25</ele><time>2026-04-24T16:35:36.078Z</time></trkpt><trkpt lat="43.4535883" lon="11.816405"><ele>237.5</ele><time>2026-04-24T16:35:38.078Z</time></trkpt><trkpt lat="43.45347" lon="11.81636"><ele>236.75</ele><time>2026-04-24T16:35:40.076Z</time></trkpt><trkpt lat="43.453355" lon="11.8163117"><ele>236.0</ele><time>2026-04-24T16:35:42.079Z</time></trkpt><trkpt lat="43.4532467" lon="11.8162617"><ele>236.0</ele><time>2026-04-24T16:35:44.076Z</time></trkpt><trkpt lat="43.45314" lon="11.816225"><ele>236.0</ele><time>2026-04-24T16:35:46.076Z</time></trkpt><trkpt lat="43.45303" lon="11.8161767"><ele>236.0</ele><time>2026-04-24T16:35:48.076Z</time></trkpt><trkpt lat="43.452915" lon="11.8161317"><ele>236.0</ele><time>2026-04-24T16:35:50.078Z</time></trkpt><trkpt lat="43.452805" lon="11.8160767"><ele>236.25</ele><time>2026-04-24T16:35:52.076Z</time></trkpt><trkpt lat="43.4526867" lon="11.81602"><ele>236.5</ele><time>2026-04-24T16:35:54.075Z</time></trkpt><trkpt lat="43.45257" lon="11.815965"><ele>236.75</ele><time>2026-04-24T16:35:56.083Z</time></trkpt><trkpt lat="43.4524517" lon="11.8159083"><ele>237.0</ele><time>2026-04-24T16:35:58.076Z</time></trkpt><trkpt lat="43.4523317" lon="11.8158567"><ele>237.2</ele><time>2026-04-24T16:36:00.077Z</time></trkpt><trkpt lat="43.4522633" lon="11.81583"><ele>237.39999999999998</ele><time>2026-04-24T16:36:01.078Z</time></trkpt><trkpt lat="43.4521483" lon="11.8157817"><ele>237.60000000000002</ele><time>2026-04-24T16:36:03.076Z</time></trkpt><trkpt lat="43.452035" lon="11.8157367"><ele>237.8</ele><time>2026-04-24T16:36:05.075Z</time></trkpt><trkpt lat="43.4519183" lon="11.8156917"><ele>238.0</ele><time>2026-04-24T16:36:07.076Z</time></trkpt><trkpt lat="43.4518" lon="11.8156433"><ele>238.0</ele><time>2026-04-24T16:36:09.078Z</time></trkpt><trkpt lat="43.4516917" lon="11.8155783"><ele>238.0</ele><time>2026-04-24T16:36:11.076Z</time></trkpt><trkpt lat="43.4515783" lon="11.8155333"><ele>238.0</ele><time>2026-04-24T16:36:13.078Z</time></trkpt><trkpt lat="43.4514733" lon="11.8154867"><ele>238.0</ele><time>2026-04-24T16:36:15.076Z</time></trkpt><trkpt lat="43.4513667" lon="11.8154433"><ele>238.2</ele><time>2026-04-24T16:36:17.08Z</time></trkpt><trkpt lat="43.4512633" lon="11.8153983"><ele>238.4</ele><time>2026-04-24T16:36:19.076Z</time></trkpt><trkpt lat="43.4511633" lon="11.8153467"><ele>238.59999999999997</ele><time>2026-04-24T16:36:21.08Z</time></trkpt><trkpt lat="43.45106" lon="11.8153"><ele>238.79999999999998</ele><time>2026-04-24T16:36:23.076Z</time></trkpt><trkpt lat="43.45096" lon="11.8152567"><ele>239.0</ele><time>2026-04-24T16:36:25.079Z</time></trkpt><trkpt lat="43.4508617" lon="11.8152133"><ele>239.0</ele><time>2026-04-24T16:36:27.077Z</time></trkpt><trkpt lat="43.450765" lon="11.8151683"><ele>238.99999999999997</ele><time>2026-04-24T16:36:29.076Z</time></trkpt><trkpt lat="43.4506717" lon="11.81512"><ele>238.99999999999997</ele><time>2026-04-24T16:36:31.08Z</time></trkpt><trkpt lat="43.4505733" lon="11.8150767"><ele>239.0</ele><time>2026-04-24T16:36:33.077Z</time></trkpt><trkpt lat="43.4504583" lon="11.8150283"><ele>239.0</ele><time>2026-04-24T16:36:35.078Z</time></trkpt><trkpt lat="43.450345" lon="11.8149817"><ele>239.0</ele><time>2026-04-24T16:36:37.075Z</time></trkpt><trkpt lat="43.45023" lon="11.814925"><ele>239.0</ele><time>2026-04-24T16:36:39.075Z</time></trkpt><trkpt lat="43.4501217" lon="11.8148783"><ele>239.0</ele><time>2026-04-24T16:36:41.073Z</time></trkpt><trkpt lat="43.45002" lon="11.8148267"><ele>239.0</ele><time>2026-04-24T16:36:43.074Z</time></trkpt><trkpt lat="43.4499167" lon="11.814775"><ele>239.0</ele><time>2026-04-24T16:36:45.075Z</time></trkpt><trkpt lat="43.4498133" lon="11.8147217"><ele>238.99999999999997</ele><time>2026-04-24T16:36:47.076Z</time></trkpt><trkpt lat="43.449715" lon="11.8146717"><ele>238.99999999999997</ele><time>2026-04-24T16:36:49.077Z</time></trkpt><trkpt lat="43.4496133" lon="11.8146217"><ele>239.0</ele><time>2026-04-24T16:36:51.075Z</time></trkpt><trkpt lat="43.4495167" lon="11.8145433"><ele>239.0</ele><time>2026-04-24T16:36:53.076Z</time></trkpt><trkpt lat="43.4494183" lon="11.81446"><ele>238.75</ele><time>2026-04-24T16:36:55.075Z</time></trkpt><trkpt lat="43.4493167" lon="11.8143917"><ele>238.5</ele><time>2026-04-24T16:36:57.076Z</time></trkpt><trkpt lat="43.4492217" lon="11.8143133"><ele>238.25</ele><time>2026-04-24T16:36:59.077Z</time></trkpt><trkpt lat="43.449125" lon="11.8142267"><ele>238.0</ele><time>2026-04-24T16:37:01.074Z</time></trkpt><trkpt lat="43.44902" lon="11.8141167"><ele>237.60000000000002</ele><time>2026-04-24T16:37:03.074Z</time></trkpt><trkpt lat="43.4489333" lon="11.8140283"><ele>237.20000000000002</ele><time>2026-04-24T16:37:05.076Z</time></trkpt><trkpt lat="43.448835" lon="11.8139733"><ele>236.8</ele><time>2026-04-24T16:37:07.077Z</time></trkpt><trkpt lat="43.4487167" lon="11.8139583"><ele>236.4</ele><time>2026-04-24T16:37:09.072Z</time></trkpt><trkpt lat="43.4486517" lon="11.8139633"><ele>236.0</ele><time>2026-04-24T16:37:10.076Z</time></trkpt><trkpt lat="43.4485333" lon="11.81396"><ele>236.0</ele><time>2026-04-24T16:37:12.074Z</time></trkpt><trkpt lat="43.4484233" lon="11.8139417"><ele>236.00000000000003</ele><time>2026-04-24T16:37:14.076Z</time></trkpt><trkpt lat="43.448325" lon="11.81391"><ele>236.00000000000003</ele><time>2026-04-24T16:37:16.072Z</time></trkpt><trkpt lat="43.44823" lon="11.8138683"><ele>236.0</ele><time>2026-04-24T16:37:18.077Z</time></trkpt><trkpt lat="43.4481383" lon="11.81381"><ele>236.0</ele><time>2026-04-24T16:37:20.075Z</time></trkpt><trkpt lat="43.448055" lon="11.813755"><ele>236.60000000000002</ele><time>2026-04-24T16:37:22.073Z</time></trkpt><trkpt lat="43.4479567" lon="11.813695"><ele>237.20000000000002</ele><time>2026-04-24T16:37:24.076Z</time></trkpt><trkpt lat="43.4478633" lon="11.8136367"><ele>237.79999999999998</ele><time>2026-04-24T16:37:26.075Z</time></trkpt><trkpt lat="43.4477667" lon="11.8135883"><ele>238.39999999999998</ele><time>2026-04-24T16:37:28.074Z</time></trkpt><trkpt lat="43.44767" lon="11.8135433"><ele>239.0</ele><time>2026-04-24T16:37:30.075Z</time></trkpt><trkpt lat="43.4475683" lon="11.8134933"><ele>238.6</ele><time>2026-04-24T16:37:32.076Z</time></trkpt><trkpt lat="43.4474733" lon="11.8134367"><ele>238.2</ele><time>2026-04-24T16:37:34.074Z</time></trkpt><trkpt lat="43.447375" lon="11.8133867"><ele>237.79999999999998</ele><time>2026-04-24T16:37:36.074Z</time></trkpt><trkpt lat="43.44728" lon="11.8133517"><ele>237.39999999999998</ele><time>2026-04-24T16:37:38.076Z</time></trkpt><trkpt lat="43.4471783" lon="11.813325"><ele>237.0</ele><time>2026-04-24T16:37:40.074Z</time></trkpt><trkpt lat="43.44707" lon="11.8132933"><ele>237.0</ele><time>2026-04-24T16:37:42.077Z</time></trkpt><trkpt lat="43.4469617" lon="11.8132567"><ele>237.0</ele><time>2026-04-24T16:37:44.078Z</time></trkpt><trkpt lat="43.4468533" lon="11.8132167"><ele>237.0</ele><time>2026-04-24T16:37:46.077Z</time></trkpt><trkpt lat="43.4467483" lon="11.8131867"><ele>237.0</ele><time>2026-04-24T16:37:48.077Z</time></trkpt><trkpt lat="43.4466467" lon="11.8131567"><ele>237.0</ele><time>2026-04-24T16:37:50.078Z</time></trkpt><trkpt lat="43.4465517" lon="11.81313"><ele>237.0</ele><time>2026-04-24T16:37:52.075Z</time></trkpt><trkpt lat="43.4464583" lon="11.8131017"><ele>237.0</ele><time>2026-04-24T16:37:54.077Z</time></trkpt><trkpt lat="43.4463783" lon="11.8130683"><ele>237.0</ele><time>2026-04-24T16:37:56.077Z</time></trkpt><trkpt lat="43.4462983" lon="11.8130417"><ele>237.0</ele><time>2026-04-24T16:37:58.076Z</time></trkpt><trkpt lat="43.4462217" lon="11.8130233"><ele>237.0</ele><time>2026-04-24T16:38:00.078Z</time></trkpt><trkpt lat="43.4461517" lon="11.8130133"><ele>237.0</ele><time>2026-04-24T16:38:02.077Z</time></trkpt><trkpt lat="43.4460883" lon="11.8129917"><ele>237.66666666666666</ele><time>2026-04-24T16:38:04.077Z</time></trkpt><trkpt lat="43.446005" lon="11.8129783"><ele>238.33333333333331</ele><time>2026-04-24T16:38:06.079Z</time></trkpt><trkpt lat="43.4459433" lon="11.8129467"><ele>239.0</ele><time>2026-04-24T16:38:08.074Z</time></trkpt><trkpt lat="43.4458283" lon="11.8129367"><ele>239.66666666666666</ele><time>2026-04-24T16:38:12.076Z</time></trkpt><trkpt lat="43.445755" lon="11.81295"><ele>240.33333333333331</ele><time>2026-04-24T16:38:14.076Z</time></trkpt><trkpt lat="43.4456917" lon="11.812945"><ele>241.0</ele><time>2026-04-24T16:38:18.074Z</time></trkpt><trkpt lat="43.44569" lon="11.8130483"><ele>240.99999999999997</ele><time>2026-04-24T16:38:36.077Z</time></trkpt><trkpt lat="43.4456633" lon="11.81316"><ele>241.0</ele><time>2026-04-24T16:38:39.077Z</time></trkpt><trkpt lat="43.4456367" lon="11.8132833"><ele>241.0</ele><time>2026-04-24T16:38:42.077Z</time></trkpt><trkpt lat="43.4456283" lon="11.8133717"><ele>241.0</ele><time>2026-04-24T16:38:44.075Z</time></trkpt><trkpt lat="43.4456233" lon="11.8134767"><ele>240.99999999999997</ele><time>2026-04-24T16:38:46.074Z</time></trkpt><trkpt lat="43.445615" lon="11.813585"><ele>241.0</ele><time>2026-04-24T16:38:48.078Z</time></trkpt><trkpt lat="43.445605" lon="11.8137067"><ele>241.16666666666666</ele><time>2026-04-24T16:38:50.078Z</time></trkpt><trkpt lat="43.4455917" lon="11.8138267"><ele>241.33333333333331</ele><time>2026-04-24T16:38:52.076Z</time></trkpt><trkpt lat="43.4455533" lon="11.8139267"><ele>241.5</ele><time>2026-04-24T16:38:54.073Z</time></trkpt><trkpt lat="43.4454867" lon="11.8139367"><ele>241.66666666666669</ele><time>2026-04-24T16:38:56.077Z</time></trkpt><trkpt lat="43.44541" lon="11.8139017"><ele>241.83333333333334</ele><time>2026-04-24T16:38:58.074Z</time></trkpt><trkpt lat="43.4453283" lon="11.8138767"><ele>242.0</ele><time>2026-04-24T16:39:00.076Z</time></trkpt><trkpt lat="43.44525" lon="11.81386"><ele>242.0</ele><time>2026-04-24T16:39:02.076Z</time></trkpt><trkpt lat="43.4451667" lon="11.813855"><ele>242.0</ele><time>2026-04-24T16:39:04.075Z</time></trkpt><trkpt lat="43.44508" lon="11.8138467"><ele>242.0</ele><time>2026-04-24T16:39:06.075Z</time></trkpt><trkpt lat="43.4449867" lon="11.8138383"><ele>242.0</ele><time>2026-04-24T16:39:08.076Z</time></trkpt><trkpt lat="43.44489" lon="11.8138317"><ele>242.0</ele><time>2026-04-24T16:39:10.075Z</time></trkpt><trkpt lat="43.4447917" lon="11.8138317"><ele>242.0</ele><time>2026-04-24T16:39:12.075Z</time></trkpt><trkpt lat="43.444695" lon="11.8138367"><ele>242.0</ele><time>2026-04-24T16:39:14.076Z</time></trkpt><trkpt lat="43.4445933" lon="11.8138483"><ele>242.0</ele><time>2026-04-24T16:39:16.076Z</time></trkpt><trkpt lat="43.44449" lon="11.8138567"><ele>242.0</ele><time>2026-04-24T16:39:18.082Z</time></trkpt><trkpt lat="43.4443833" lon="11.813865"><ele>242.0</ele><time>2026-04-24T16:39:20.077Z</time></trkpt><trkpt lat="43.4442733" lon="11.8138767"><ele>242.25</ele><time>2026-04-24T16:39:22.076Z</time></trkpt><trkpt lat="43.4441667" lon="11.8138867"><ele>242.5</ele><time>2026-04-24T16:39:24.075Z</time></trkpt><trkpt lat="43.4440567" lon="11.8138933"><ele>242.75</ele><time>2026-04-24T16:39:26.075Z</time></trkpt><trkpt lat="43.44395" lon="11.8139067"><ele>243.0</ele><time>2026-04-24T16:39:28.074Z</time></trkpt><trkpt lat="43.4438217" lon="11.81391"><ele>242.60000000000002</ele><time>2026-04-24T16:39:30.074Z</time></trkpt><trkpt lat="43.4437567" lon="11.813915"><ele>242.20000000000002</ele><time>2026-04-24T16:39:31.075Z</time></trkpt><trkpt lat="43.4436617" lon="11.813965"><ele>241.8</ele><time>2026-04-24T16:39:33.072Z</time></trkpt><trkpt lat="43.4435683" lon="11.8140367"><ele>241.4</ele><time>2026-04-24T16:39:35.075Z</time></trkpt><trkpt lat="43.4434683" lon="11.8140567"><ele>241.0</ele><time>2026-04-24T16:39:37.074Z</time></trkpt><trkpt lat="43.44337" lon="11.8140167"><ele>241.0</ele><time>2026-04-24T16:39:39.076Z</time></trkpt><trkpt lat="43.4432617" lon="11.8139717"><ele>241.00000000000003</ele><time>2026-04-24T16:39:41.074Z</time></trkpt><trkpt lat="43.4431517" lon="11.8139617"><ele>241.00000000000003</ele><time>2026-04-24T16:39:43.076Z</time></trkpt><trkpt lat="43.4430417" lon="11.8139717"><ele>241.0</ele><time>2026-04-24T16:39:45.075Z</time></trkpt><trkpt lat="43.44293" lon="11.8139817"><ele>241.0</ele><time>2026-04-24T16:39:47.075Z</time></trkpt><trkpt lat="43.4428233" lon="11.81399"><ele>240.8</ele><time>2026-04-24T16:39:49.076Z</time></trkpt><trkpt lat="43.4427133" lon="11.8140033"><ele>240.60000000000002</ele><time>2026-04-24T16:39:51.077Z</time></trkpt><trkpt lat="43.4426017" lon="11.8140183"><ele>240.4</ele><time>2026-04-24T16:39:53.073Z</time></trkpt><trkpt lat="43.4424917" lon="11.8140283"><ele>240.2</ele><time>2026-04-24T16:39:55.076Z</time></trkpt><trkpt lat="43.4423833" lon="11.8140383"><ele>240.0</ele><time>2026-04-24T16:39:57.076Z</time></trkpt><trkpt lat="43.44227" lon="11.8140483"><ele>240.0</ele><time>2026-04-24T16:39:59.075Z</time></trkpt><trkpt lat="43.44216" lon="11.8140617"><ele>240.0</ele><time>2026-04-24T16:40:01.074Z</time></trkpt><trkpt lat="43.442055" lon="11.8140717"><ele>240.0</ele><time>2026-04-24T16:40:03.075Z</time></trkpt><trkpt lat="43.44193" lon="11.8140783"><ele>240.0</ele><time>2026-04-24T16:40:05.078Z</time></trkpt><trkpt lat="43.4418233" lon="11.8141"><ele>240.0</ele><time>2026-04-24T16:40:07.076Z</time></trkpt><trkpt lat="43.4417133" lon="11.8141417"><ele>240.0</ele><time>2026-04-24T16:40:09.078Z</time></trkpt><trkpt lat="43.441615" lon="11.8142017"><ele>240.0</ele><time>2026-04-24T16:40:11.076Z</time></trkpt><trkpt lat="43.441515" lon="11.8142533"><ele>240.0</ele><time>2026-04-24T16:40:13.075Z</time></trkpt><trkpt lat="43.4414067" lon="11.8142767"><ele>240.0</ele><time>2026-04-24T16:40:15.075Z</time></trkpt><trkpt lat="43.4413017" lon="11.8142367"><ele>240.0</ele><time>2026-04-24T16:40:17.074Z</time></trkpt><trkpt lat="43.4411967" lon="11.8141883"><ele>239.75</ele><time>2026-04-24T16:40:19.075Z</time></trkpt><trkpt lat="43.4410867" lon="11.8141817"><ele>239.5</ele><time>2026-04-24T16:40:21.075Z</time></trkpt><trkpt lat="43.4409817" lon="11.814185"><ele>239.25</ele><time>2026-04-24T16:40:23.075Z</time></trkpt><trkpt lat="43.4408667" lon="11.8142"><ele>239.0</ele><time>2026-04-24T16:40:25.076Z</time></trkpt><trkpt lat="43.4407483" lon="11.8142217"><ele>239.0</ele><time>2026-04-24T16:40:27.076Z</time></trkpt><trkpt lat="43.4406433" lon="11.814245"><ele>238.99999999999997</ele><time>2026-04-24T16:40:29.074Z</time></trkpt><trkpt lat="43.4405367" lon="11.8142683"><ele>238.99999999999997</ele><time>2026-04-24T16:40:31.081Z</time></trkpt><trkpt lat="43.4404267" lon="11.814285"><ele>239.0</ele><time>2026-04-24T16:40:33.076Z</time></trkpt><trkpt lat="43.44031" lon="11.8142817"><ele>239.0</ele><time>2026-04-24T16:40:35.078Z</time></trkpt><trkpt lat="43.4401933" lon="11.81427"><ele>239.0</ele><time>2026-04-24T16:40:37.075Z</time></trkpt><trkpt lat="43.4400817" lon="11.8142583"><ele>239.0</ele><time>2026-04-24T16:40:39.078Z</time></trkpt><trkpt lat="43.4399683" lon="11.814265"><ele>239.0</ele><time>2026-04-24T16:40:41.076Z</time></trkpt><trkpt lat="43.439855" lon="11.814275"><ele>239.0</ele><time>2026-04-24T16:40:43.075Z</time></trkpt><trkpt lat="43.4397433" lon="11.8142883"><ele>238.79999999999998</ele><time>2026-04-24T16:40:45.077Z</time></trkpt><trkpt lat="43.4396317" lon="11.8142917"><ele>238.59999999999997</ele><time>2026-04-24T16:40:47.078Z</time></trkpt><trkpt lat="43.4395283" lon="11.814305"><ele>238.4</ele><time>2026-04-24T16:40:49.077Z</time></trkpt><trkpt lat="43.4394317" lon="11.8143083"><ele>238.2</ele><time>2026-04-24T16:40:51.077Z</time></trkpt><trkpt lat="43.439335" lon="11.814305"><ele>238.0</ele><time>2026-04-24T16:40:53.078Z</time></trkpt><trkpt lat="43.4392217" lon="11.8142833"><ele>237.99999999999997</ele><time>2026-04-24T16:40:55.075Z</time></trkpt><trkpt lat="43.4391317" lon="11.8143067"><ele>238.0</ele><time>2026-04-24T16:40:57.076Z</time></trkpt><trkpt lat="43.439045" lon="11.81432"><ele>238.0</ele><time>2026-04-24T16:40:59.074Z</time></trkpt><trkpt lat="43.43896" lon="11.8143117"><ele>238.0</ele><time>2026-04-24T16:41:01.076Z</time></trkpt><trkpt lat="43.4388783" lon="11.81431"><ele>237.99999999999997</ele><time>2026-04-24T16:41:03.075Z</time></trkpt><trkpt lat="43.438785" lon="11.8143217"><ele>238.0</ele><time>2026-04-24T16:41:05.078Z</time></trkpt><trkpt lat="43.4387183" lon="11.8143333"><ele>238.66666666666666</ele><time>2026-04-24T16:41:07.077Z</time></trkpt><trkpt lat="43.4386417" lon="11.8143333"><ele>239.33333333333331</ele><time>2026-04-24T16:41:10.077Z</time></trkpt><trkpt lat="43.438565" lon="11.8143683"><ele>240.0</ele><time>2026-04-24T16:41:13.077Z</time></trkpt><trkpt lat="43.4385" lon="11.8143767"><ele>240.66666666666669</ele><time>2026-04-24T16:41:15.077Z</time></trkpt><trkpt lat="43.4384317" lon="11.8143783"><ele>241.33333333333334</ele><time>2026-04-24T16:41:17.079Z</time></trkpt><trkpt lat="43.4383533" lon="11.814385"><ele>242.0</ele><time>2026-04-24T16:41:19.079Z</time></trkpt><trkpt lat="43.4382667" lon="11.8143917"><ele>242.00000000000003</ele><time>2026-04-24T16:41:21.076Z</time></trkpt><trkpt lat="43.4381767" lon="11.8143983"><ele>242.0</ele><time>2026-04-24T16:41:23.075Z</time></trkpt><trkpt lat="43.43809" lon="11.814405"><ele>242.0</ele><time>2026-04-24T16:41:25.076Z</time></trkpt><trkpt lat="43.438005" lon="11.814405"><ele>242.0</ele><time>2026-04-24T16:41:27.076Z</time></trkpt><trkpt lat="43.4379133" lon="11.81441"><ele>242.00000000000003</ele><time>2026-04-24T16:41:29.078Z</time></trkpt><trkpt lat="43.43782" lon="11.8144167"><ele>242.0</ele><time>2026-04-24T16:41:31.078Z</time></trkpt><trkpt lat="43.4377267" lon="11.814425"><ele>242.0</ele><time>2026-04-24T16:41:33.077Z</time></trkpt><trkpt lat="43.4376317" lon="11.81444"><ele>242.0</ele><time>2026-04-24T16:41:35.079Z</time></trkpt><trkpt lat="43.4375333" lon="11.8144917"><ele>242.0</ele><time>2026-04-24T16:41:37.076Z</time></trkpt><trkpt lat="43.4374383" lon="11.8145567"><ele>242.0</ele><time>2026-04-24T16:41:39.076Z</time></trkpt><trkpt lat="43.4373383" lon="11.8145983"><ele>242.0</ele><time>2026-04-24T16:41:41.08Z</time></trkpt><trkpt lat="43.4372383" lon="11.8145867"><ele>242.0</ele><time>2026-04-24T16:41:43.074Z</time></trkpt><trkpt lat="43.4371383" lon="11.8145667"><ele>242.0</ele><time>2026-04-24T16:41:45.074Z</time></trkpt><trkpt lat="43.4370383" lon="11.8145633"><ele>242.0</ele><time>2026-04-24T16:41:47.074Z</time></trkpt><trkpt lat="43.4369367" lon="11.8145683"><ele>242.0</ele><time>2026-04-24T16:41:49.077Z</time></trkpt><trkpt lat="43.4368233" lon="11.81458"><ele>242.0</ele><time>2026-04-24T16:41:51.073Z</time></trkpt><trkpt lat="43.4367233" lon="11.8145917"><ele>242.0</ele><time>2026-04-24T16:41:53.076Z</time></trkpt><trkpt lat="43.4366217" lon="11.8146033"><ele>242.0</ele><time>2026-04-24T16:41:55.074Z</time></trkpt><trkpt lat="43.4365183" lon="11.8146117"><ele>242.0</ele><time>2026-04-24T16:41:57.073Z</time></trkpt><trkpt lat="43.436415" lon="11.8146183"><ele>242.0</ele><time>2026-04-24T16:41:59.078Z</time></trkpt><trkpt lat="43.436305" lon="11.8146317"><ele>242.0</ele><time>2026-04-24T16:42:01.075Z</time></trkpt><trkpt lat="43.43619" lon="11.814645"><ele>242.0</ele><time>2026-04-24T16:42:03.075Z</time></trkpt><trkpt lat="43.436085" lon="11.8146533"><ele>242.0</ele><time>2026-04-24T16:42:05.075Z</time></trkpt><trkpt lat="43.43598" lon="11.814655"><ele>242.0</ele><time>2026-04-24T16:42:07.073Z</time></trkpt><trkpt lat="43.4358733" lon="11.8146667"><ele>242.0</ele><time>2026-04-24T16:42:09.075Z</time></trkpt><trkpt lat="43.4357667" lon="11.8147067"><ele>242.0</ele><time>2026-04-24T16:42:11.071Z</time></trkpt><trkpt lat="43.4356733" lon="11.8147867"><ele>242.0</ele><time>2026-04-24T16:42:13.075Z</time></trkpt><trkpt lat="43.43557" lon="11.8148333"><ele>242.0</ele><time>2026-04-24T16:42:15.076Z</time></trkpt><trkpt lat="43.4354617" lon="11.8148283"><ele>242.0</ele><time>2026-04-24T16:42:17.074Z</time></trkpt><trkpt lat="43.4353917" lon="11.8148083"><ele>242.0</ele><time>2026-04-24T16:42:18.079Z</time></trkpt><trkpt lat="43.4352867" lon="11.8147517"><ele>242.0</ele><time>2026-04-24T16:42:20.075Z</time></trkpt><trkpt lat="43.4351783" lon="11.8147383"><ele>242.0</ele><time>2026-04-24T16:42:22.073Z</time></trkpt><trkpt lat="43.43507" lon="11.814745"><ele>242.0</ele><time>2026-04-24T16:42:24.076Z</time></trkpt><trkpt lat="43.43496" lon="11.8147417"><ele>242.0</ele><time>2026-04-24T16:42:26.077Z</time></trkpt><trkpt lat="43.4348483" lon="11.8146983"><ele>242.0</ele><time>2026-04-24T16:42:28.073Z</time></trkpt><trkpt lat="43.434735" lon="11.814665"><ele>241.5</ele><time>2026-04-24T16:42:30.077Z</time></trkpt><trkpt lat="43.434625" lon="11.81467"><ele>241.0</ele><time>2026-04-24T16:42:32.075Z</time></trkpt><trkpt lat="43.4345083" lon="11.814685"><ele>240.5</ele><time>2026-04-24T16:42:34.073Z</time></trkpt><trkpt lat="43.4343917" lon="11.8146983"><ele>240.0</ele><time>2026-04-24T16:42:36.074Z</time></trkpt><trkpt lat="43.4342817" lon="11.8147117"><ele>240.0</ele><time>2026-04-24T16:42:38.074Z</time></trkpt><trkpt lat="43.43417" lon="11.8147267"><ele>240.0</ele><time>2026-04-24T16:42:40.074Z</time></trkpt><trkpt lat="43.4340533" lon="11.8147467"><ele>240.0</ele><time>2026-04-24T16:42:42.077Z</time></trkpt><trkpt lat="43.433985" lon="11.8147567"><ele>240.0</ele><time>2026-04-24T16:42:43.078Z</time></trkpt><trkpt lat="43.43386" lon="11.8147967"><ele>240.0</ele><time>2026-04-24T16:42:45.076Z</time></trkpt><trkpt lat="43.433745" lon="11.8148267"><ele>239.75</ele><time>2026-04-24T16:42:47.076Z</time></trkpt><trkpt lat="43.433635" lon="11.8148617"><ele>239.5</ele><time>2026-04-24T16:42:49.076Z</time></trkpt><trkpt lat="43.433525" lon="11.8148933"><ele>239.25</ele><time>2026-04-24T16:42:51.077Z</time></trkpt><trkpt lat="43.4334117" lon="11.8149317"><ele>239.0</ele><time>2026-04-24T16:42:53.075Z</time></trkpt><trkpt lat="43.4332983" lon="11.8149617"><ele>239.0</ele><time>2026-04-24T16:42:55.077Z</time></trkpt><trkpt lat="43.4331817" lon="11.81498"><ele>238.99999999999997</ele><time>2026-04-24T16:42:57.078Z</time></trkpt><trkpt lat="43.4331183" lon="11.8149883"><ele>238.99999999999997</ele><time>2026-04-24T16:42:58.075Z</time></trkpt><trkpt lat="43.4329917" lon="11.815"><ele>239.0</ele><time>2026-04-24T16:43:00.074Z</time></trkpt><trkpt lat="43.4328767" lon="11.81498"><ele>239.0</ele><time>2026-04-24T16:43:02.077Z</time></trkpt><trkpt lat="43.4327617" lon="11.8149617"><ele>238.75</ele><time>2026-04-24T16:43:04.075Z</time></trkpt><trkpt lat="43.432645" lon="11.8149483"><ele>238.5</ele><time>2026-04-24T16:43:06.078Z</time></trkpt><trkpt lat="43.43253" lon="11.8149333"><ele>238.25</ele><time>2026-04-24T16:43:08.074Z</time></trkpt><trkpt lat="43.432415" lon="11.814925"><ele>238.0</ele><time>2026-04-24T16:43:10.075Z</time></trkpt><trkpt lat="43.4322967" lon="11.8149183"><ele>238.0</ele><time>2026-04-24T16:43:12.075Z</time></trkpt><trkpt lat="43.4321767" lon="11.8149233"><ele>238.0</ele><time>2026-04-24T16:43:14.076Z</time></trkpt><trkpt lat="43.4320617" lon="11.81495"><ele>238.0</ele><time>2026-04-24T16:43:16.074Z</time></trkpt><trkpt lat="43.4319517" lon="11.815005"><ele>238.0</ele><time>2026-04-24T16:43:18.077Z</time></trkpt><trkpt lat="43.431845" lon="11.815045"><ele>238.0</ele><time>2026-04-24T16:43:20.076Z</time></trkpt><trkpt lat="43.4317333" lon="11.8150283"><ele>238.0</ele><time>2026-04-24T16:43:22.073Z</time></trkpt><trkpt lat="43.43162" lon="11.815"><ele>238.0</ele><time>2026-04-24T16:43:24.076Z</time></trkpt><trkpt lat="43.43152" lon="11.8149833"><ele>238.0</ele><time>2026-04-24T16:43:26.074Z</time></trkpt><trkpt lat="43.4313983" lon="11.8150033"><ele>238.2</ele><time>2026-04-24T16:43:28.073Z</time></trkpt><trkpt lat="43.4312883" lon="11.8150167"><ele>238.4</ele><time>2026-04-24T16:43:30.077Z</time></trkpt><trkpt lat="43.4311867" lon="11.8150233"><ele>238.59999999999997</ele><time>2026-04-24T16:43:32.075Z</time></trkpt><trkpt lat="43.431085" lon="11.815025"><ele>238.79999999999998</ele><time>2026-04-24T16:43:34.074Z</time></trkpt><trkpt lat="43.43098" lon="11.8150317"><ele>239.0</ele><time>2026-04-24T16:43:36.076Z</time></trkpt><trkpt lat="43.4308767" lon="11.8150417"><ele>239.0</ele><time>2026-04-24T16:43:38.075Z</time></trkpt><trkpt lat="43.4307717" lon="11.81505"><ele>238.99999999999997</ele><time>2026-04-24T16:43:40.075Z</time></trkpt><trkpt lat="43.43067" lon="11.81506"><ele>238.99999999999997</ele><time>2026-04-24T16:43:42.076Z</time></trkpt><trkpt lat="43.430575" lon="11.8150717"><ele>239.0</ele><time>2026-04-24T16:43:44.078Z</time></trkpt><trkpt lat="43.4304817" lon="11.8150833"><ele>239.0</ele><time>2026-04-24T16:43:46.076Z</time></trkpt><trkpt lat="43.4303867" lon="11.8150917"><ele>238.2</ele><time>2026-04-24T16:43:48.079Z</time></trkpt><trkpt lat="43.4302883" lon="11.8151"><ele>237.39999999999998</ele><time>2026-04-24T16:43:50.077Z</time></trkpt><trkpt lat="43.43019" lon="11.81511"><ele>236.6</ele><time>2026-04-24T16:43:52.074Z</time></trkpt><trkpt lat="43.4300917" lon="11.8151183"><ele>235.8</ele><time>2026-04-24T16:43:54.076Z</time></trkpt><trkpt lat="43.4299967" lon="11.8151267"><ele>235.0</ele><time>2026-04-24T16:43:56.077Z</time></trkpt><trkpt lat="43.4299" lon="11.81513"><ele>235.0</ele><time>2026-04-24T16:43:58.074Z</time></trkpt><trkpt lat="43.4298" lon="11.8151417"><ele>235.0</ele><time>2026-04-24T16:44:00.072Z</time></trkpt><trkpt lat="43.4297017" lon="11.8151483"><ele>235.0</ele><time>2026-04-24T16:44:02.073Z</time></trkpt><trkpt lat="43.4295967" lon="11.8151567"><ele>235.0</ele><time>2026-04-24T16:44:04.073Z</time></trkpt><trkpt lat="43.4294867" lon="11.8151817"><ele>235.0</ele><time>2026-04-24T16:44:06.076Z</time></trkpt><trkpt lat="43.42938" lon="11.8152317"><ele>236.4</ele><time>2026-04-24T16:44:08.075Z</time></trkpt><trkpt lat="43.4292833" lon="11.8152917"><ele>237.8</ele><time>2026-04-24T16:44:10.074Z</time></trkpt><trkpt lat="43.42919" lon="11.8153233"><ele>239.2</ele><time>2026-04-24T16:44:12.073Z</time></trkpt><trkpt lat="43.4290867" lon="11.8153233"><ele>240.6</ele><time>2026-04-24T16:44:14.076Z</time></trkpt><trkpt lat="43.428985" lon="11.815325"><ele>242.0</ele><time>2026-04-24T16:44:16.074Z</time></trkpt><trkpt lat="43.4288917" lon="11.8153217"><ele>242.0</ele><time>2026-04-24T16:44:18.076Z</time></trkpt><trkpt lat="43.428805" lon="11.815325"><ele>242.0</ele><time>2026-04-24T16:44:20.078Z</time></trkpt><trkpt lat="43.4287133" lon="11.8153467"><ele>242.0</ele><time>2026-04-24T16:44:22.075Z</time></trkpt><trkpt lat="43.428615" lon="11.8153533"><ele>242.0</ele><time>2026-04-24T16:44:24.076Z</time></trkpt><trkpt lat="43.42852" lon="11.8153517"><ele>242.0</ele><time>2026-04-24T16:44:26.077Z</time></trkpt><trkpt lat="43.4284283" lon="11.815365"><ele>242.00000000000003</ele><time>2026-04-24T16:44:28.075Z</time></trkpt><trkpt lat="43.4283383" lon="11.815375"><ele>242.0</ele><time>2026-04-24T16:44:30.074Z</time></trkpt><trkpt lat="43.42825" lon="11.815375"><ele>242.0</ele><time>2026-04-24T16:44:32.075Z</time></trkpt><trkpt lat="43.428175" lon="11.8153833"><ele>242.0</ele><time>2026-04-24T16:44:34.079Z</time></trkpt><trkpt lat="43.4280683" lon="11.8153917"><ele>242.00000000000003</ele><time>2026-04-24T16:44:37.074Z</time></trkpt><trkpt lat="43.4279967" lon="11.8153933"><ele>242.0</ele><time>2026-04-24T16:44:39.076Z</time></trkpt><trkpt lat="43.4279133" lon="11.81539"><ele>241.8</ele><time>2026-04-24T16:44:41.075Z</time></trkpt><trkpt lat="43.4278117" lon="11.8153567"><ele>241.6</ele><time>2026-04-24T16:44:43.074Z</time></trkpt><trkpt lat="43.4277183" lon="11.8153017"><ele>241.40000000000003</ele><time>2026-04-24T16:44:45.075Z</time></trkpt><trkpt lat="43.4276283" lon="11.815275"><ele>241.20000000000002</ele><time>2026-04-24T16:44:47.073Z</time></trkpt><trkpt lat="43.4275233" lon="11.8152817"><ele>241.0</ele><time>2026-04-24T16:44:49.074Z</time></trkpt><trkpt lat="43.427425" lon="11.8152933"><ele>241.0</ele><time>2026-04-24T16:44:51.079Z</time></trkpt><trkpt lat="43.4273233" lon="11.8153"><ele>241.00000000000003</ele><time>2026-04-24T16:44:53.075Z</time></trkpt><trkpt lat="43.4272167" lon="11.8153033"><ele>241.00000000000003</ele><time>2026-04-24T16:44:55.08Z</time></trkpt><trkpt lat="43.4271117" lon="11.8153183"><ele>241.0</ele><time>2026-04-24T16:44:57.078Z</time></trkpt><trkpt lat="43.4270167" lon="11.8153267"><ele>241.0</ele><time>2026-04-24T16:44:59.078Z</time></trkpt><trkpt lat="43.4269183" lon="11.8153383"><ele>241.0</ele><time>2026-04-24T16:45:01.078Z</time></trkpt><trkpt lat="43.4268183" lon="11.815345"><ele>241.00000000000003</ele><time>2026-04-24T16:45:03.08Z</time></trkpt><trkpt lat="43.4267167" lon="11.8153533"><ele>241.00000000000003</ele><time>2026-04-24T16:45:05.077Z</time></trkpt><trkpt lat="43.42662" lon="11.8153633"><ele>241.0</ele><time>2026-04-24T16:45:07.075Z</time></trkpt><trkpt lat="43.4265283" lon="11.815375"><ele>241.0</ele><time>2026-04-24T16:45:09.076Z</time></trkpt><trkpt lat="43.4264433" lon="11.8153767"><ele>240.99999999999997</ele><time>2026-04-24T16:45:11.082Z</time></trkpt><trkpt lat="43.4263567" lon="11.8153767"><ele>241.0</ele><time>2026-04-24T16:45:13.08Z</time></trkpt><trkpt lat="43.42627" lon="11.8153783"><ele>241.0</ele><time>2026-04-24T16:45:15.076Z</time></trkpt><trkpt lat="43.4261867" lon="11.81538"><ele>241.0</ele><time>2026-04-24T16:45:17.077Z</time></trkpt><trkpt lat="43.4261017" lon="11.8153867"><ele>240.99999999999997</ele><time>2026-04-24T16:45:19.076Z</time></trkpt><trkpt lat="43.42602" lon="11.81539"><ele>241.0</ele><time>2026-04-24T16:45:21.076Z</time></trkpt><trkpt lat="43.4259433" lon="11.8154"><ele>240.99999999999997</ele><time>2026-04-24T16:45:23.074Z</time></trkpt><trkpt lat="43.4258733" lon="11.8154083"><ele>241.0</ele><time>2026-04-24T16:45:25.077Z</time></trkpt><trkpt lat="43.425795" lon="11.8154433"><ele>241.0</ele><time>2026-04-24T16:45:28.076Z</time></trkpt><trkpt lat="43.4257333" lon="11.8154933"><ele>241.0</ele><time>2026-04-24T16:46:46.079Z</time></trkpt><trkpt lat="43.4256517" lon="11.815535"><ele>240.99999999999997</ele><time>2026-04-24T16:46:49.076Z</time></trkpt><trkpt lat="43.425565" lon="11.8155417"><ele>241.0</ele><time>2026-04-24T16:46:52.073Z</time></trkpt><trkpt lat="43.4254833" lon="11.8155067"><ele>240.99999999999997</ele><time>2026-04-24T16:46:55.077Z</time></trkpt><trkpt lat="43.4254233" lon="11.8154783"><ele>241.0</ele><time>2026-04-24T16:46:57.075Z</time></trkpt><trkpt lat="43.4253533" lon="11.8154517"><ele>241.0</ele><time>2026-04-24T16:46:59.074Z</time></trkpt><trkpt lat="43.4252767" lon="11.8154433"><ele>241.0</ele><time>2026-04-24T16:47:01.075Z</time></trkpt><trkpt lat="43.4251933" lon="11.8154467"><ele>240.99999999999997</ele><time>2026-04-24T16:47:03.074Z</time></trkpt><trkpt lat="43.4251" lon="11.8154517"><ele>241.0</ele><time>2026-04-24T16:47:05.075Z</time></trkpt><trkpt lat="43.4250117" lon="11.815455"><ele>241.0</ele><time>2026-04-24T16:47:07.074Z</time></trkpt><trkpt lat="43.4249133" lon="11.8154583"><ele>241.00000000000003</ele><time>2026-04-24T16:47:09.077Z</time></trkpt><trkpt lat="43.4248117" lon="11.815465"><ele>241.00000000000003</ele><time>2026-04-24T16:47:11.074Z</time></trkpt><trkpt lat="43.4247167" lon="11.815475"><ele>241.0</ele><time>2026-04-24T16:47:13.076Z</time></trkpt><trkpt lat="43.42462" lon="11.815485"><ele>241.0</ele><time>2026-04-24T16:47:15.074Z</time></trkpt><trkpt lat="43.4245233" lon="11.8154867"><ele>240.83333333333331</ele><time>2026-04-24T16:47:17.075Z</time></trkpt><trkpt lat="43.424435" lon="11.8154983"><ele>240.66666666666666</ele><time>2026-04-24T16:47:19.073Z</time></trkpt><trkpt lat="43.42435" lon="11.81551"><ele>240.5</ele><time>2026-04-24T16:47:21.076Z</time></trkpt><trkpt lat="43.4242733" lon="11.8155133"><ele>240.33333333333331</ele><time>2026-04-24T16:47:23.075Z</time></trkpt><trkpt lat="43.4242017" lon="11.81552"><ele>240.16666666666666</ele><time>2026-04-24T16:47:25.074Z</time></trkpt><trkpt lat="43.4241267" lon="11.8155267"><ele>240.0</ele><time>2026-04-24T16:47:27.072Z</time></trkpt><trkpt lat="43.42405" lon="11.8155333"><ele>240.0</ele><time>2026-04-24T16:47:29.077Z</time></trkpt><trkpt lat="43.42397" lon="11.8155383"><ele>240.0</ele><time>2026-04-24T16:47:31.075Z</time></trkpt><trkpt lat="43.423885" lon="11.815545"><ele>240.0</ele><time>2026-04-24T16:47:33.076Z</time></trkpt><trkpt lat="43.4237983" lon="11.8155517"><ele>240.0</ele><time>2026-04-24T16:47:35.076Z</time></trkpt><trkpt lat="43.42371" lon="11.81556"><ele>240.0</ele><time>2026-04-24T16:47:37.074Z</time></trkpt><trkpt lat="43.42362" lon="11.8155667"><ele>240.0</ele><time>2026-04-24T16:47:39.075Z</time></trkpt><trkpt lat="43.4235267" lon="11.815575"><ele>240.0</ele><time>2026-04-24T16:47:41.075Z</time></trkpt><trkpt lat="43.4234317" lon="11.8155833"><ele>240.0</ele><time>2026-04-24T16:47:43.077Z</time></trkpt><trkpt lat="43.423335" lon="11.8155867"><ele>240.0</ele><time>2026-04-24T16:47:45.074Z</time></trkpt><trkpt lat="43.4232417" lon="11.8155933"><ele>240.0</ele><time>2026-04-24T16:47:47.074Z</time></trkpt><trkpt lat="43.4231483" lon="11.815605"><ele>240.0</ele><time>2026-04-24T16:47:49.075Z</time></trkpt><trkpt lat="43.4230567" lon="11.81561"><ele>240.2</ele><time>2026-04-24T16:47:51.074Z</time></trkpt><trkpt lat="43.4229617" lon="11.8156233"><ele>240.4</ele><time>2026-04-24T16:47:53.073Z</time></trkpt><trkpt lat="43.422865" lon="11.815625"><ele>240.60000000000002</ele><time>2026-04-24T16:47:55.073Z</time></trkpt><trkpt lat="43.42277" lon="11.8156317"><ele>240.8</ele><time>2026-04-24T16:47:57.075Z</time></trkpt><trkpt lat="43.422675" lon="11.8156367"><ele>241.0</ele><time>2026-04-24T16:47:59.075Z</time></trkpt><trkpt lat="43.4225783" lon="11.8156433"><ele>241.0</ele><time>2026-04-24T16:48:01.077Z</time></trkpt><trkpt lat="43.422485" lon="11.81565"><ele>241.00000000000003</ele><time>2026-04-24T16:48:03.076Z</time></trkpt><trkpt lat="43.4223883" lon="11.8156567"><ele>241.00000000000003</ele><time>2026-04-24T16:48:05.076Z</time></trkpt><trkpt lat="43.422295" lon="11.8156667"><ele>241.0</ele><time>2026-04-24T16:48:07.075Z</time></trkpt><trkpt lat="43.4221967" lon="11.8156717"><ele>241.0</ele><time>2026-04-24T16:48:09.074Z</time></trkpt><trkpt lat="43.4220983" lon="11.8156817"><ele>240.60000000000002</ele><time>2026-04-24T16:48:11.075Z</time></trkpt><trkpt lat="43.4219983" lon="11.81569"><ele>240.20000000000002</ele><time>2026-04-24T16:48:13.076Z</time></trkpt><trkpt lat="43.4218917" lon="11.8157017"><ele>239.79999999999998</ele><time>2026-04-24T16:48:15.076Z</time></trkpt><trkpt lat="43.4217867" lon="11.8157083"><ele>239.39999999999998</ele><time>2026-04-24T16:48:17.077Z</time></trkpt><trkpt lat="43.4216817" lon="11.8157167"><ele>239.0</ele><time>2026-04-24T16:48:19.075Z</time></trkpt><trkpt lat="43.421575" lon="11.8157217"><ele>239.0</ele><time>2026-04-24T16:48:21.078Z</time></trkpt><trkpt lat="43.4214717" lon="11.8157267"><ele>238.99999999999997</ele><time>2026-04-24T16:48:23.074Z</time></trkpt><trkpt lat="43.4213633" lon="11.8157367"><ele>238.99999999999997</ele><time>2026-04-24T16:48:25.074Z</time></trkpt><trkpt lat="43.4212517" lon="11.8157417"><ele>239.0</ele><time>2026-04-24T16:48:27.074Z</time></trkpt><trkpt lat="43.4211433" lon="11.81575"><ele>239.0</ele><time>2026-04-24T16:48:29.074Z</time></trkpt><trkpt lat="43.421035" lon="11.81576"><ele>239.0</ele><time>2026-04-24T16:48:31.075Z</time></trkpt><trkpt lat="43.420925" lon="11.8157683"><ele>238.99999999999997</ele><time>2026-04-24T16:48:33.075Z</time></trkpt><trkpt lat="43.4208183" lon="11.8157817"><ele>238.99999999999997</ele><time>2026-04-24T16:48:35.074Z</time></trkpt><trkpt lat="43.4207133" lon="11.815785"><ele>239.0</ele><time>2026-04-24T16:48:37.074Z</time></trkpt><trkpt lat="43.4206117" lon="11.8157933"><ele>239.0</ele><time>2026-04-24T16:48:39.074Z</time></trkpt><trkpt lat="43.4205117" lon="11.8158"><ele>239.2</ele><time>2026-04-24T16:48:41.075Z</time></trkpt><trkpt lat="43.4204083" lon="11.81581"><ele>239.39999999999998</ele><time>2026-04-24T16:48:43.073Z</time></trkpt><trkpt lat="43.420305" lon="11.8158183"><ele>239.6</ele><time>2026-04-24T16:48:45.075Z</time></trkpt><trkpt lat="43.4202083" lon="11.8158333"><ele>239.8</ele><time>2026-04-24T16:48:47.076Z</time></trkpt><trkpt lat="43.4201217" lon="11.8158417"><ele>240.0</ele><time>2026-04-24T16:48:49.073Z</time></trkpt><trkpt lat="43.4200383" lon="11.8158283"><ele>240.0</ele><time>2026-04-24T16:48:51.073Z</time></trkpt><trkpt lat="43.41996" lon="11.8158167"><ele>240.0</ele><time>2026-04-24T16:48:53.074Z</time></trkpt><trkpt lat="43.4198817" lon="11.815815"><ele>240.0</ele><time>2026-04-24T16:48:55.075Z</time></trkpt><trkpt lat="43.4198133" lon="11.815815"><ele>240.0</ele><time>2026-04-24T16:48:57.073Z</time></trkpt><trkpt lat="43.4197417" lon="11.8158217"><ele>240.0</ele><time>2026-04-24T16:49:00.074Z</time></trkpt><trkpt lat="43.4196483" lon="11.8158233"><ele>240.0</ele><time>2026-04-24T16:49:03.075Z</time></trkpt><trkpt lat="43.4195817" lon="11.8158217"><ele>240.28571428571428</ele><time>2026-04-24T16:49:05.076Z</time></trkpt><trkpt lat="43.4195083" lon="11.81582"><ele>240.57142857142856</ele><time>2026-04-24T16:49:07.076Z</time></trkpt><trkpt lat="43.4194367" lon="11.8158133"><ele>240.85714285714283</ele><time>2026-04-24T16:49:09.075Z</time></trkpt><trkpt lat="43.4193667" lon="11.8158117"><ele>241.14285714285714</ele><time>2026-04-24T16:49:11.073Z</time></trkpt><trkpt lat="43.4193" lon="11.815815"><ele>241.4285714285714</ele><time>2026-04-24T16:49:13.079Z</time></trkpt><trkpt lat="43.4192367" lon="11.81582"><ele>241.7142857142857</ele><time>2026-04-24T16:49:15.077Z</time></trkpt><trkpt lat="43.41915" lon="11.8158283"><ele>242.0</ele><time>2026-04-24T16:49:18.078Z</time></trkpt><trkpt lat="43.4190683" lon="11.81584"><ele>242.00000000000003</ele><time>2026-04-24T16:49:21.074Z</time></trkpt><trkpt lat="43.41899" lon="11.81584"><ele>242.0</ele><time>2026-04-24T16:49:24.072Z</time></trkpt><trkpt lat="43.418905" lon="11.8158383"><ele>242.0</ele><time>2026-04-24T16:49:27.074Z</time></trkpt><trkpt lat="43.4188167" lon="11.81584"><ele>242.0</ele><time>2026-04-24T16:49:30.075Z</time></trkpt><trkpt lat="43.4187283" lon="11.81583"><ele>242.00000000000003</ele><time>2026-04-24T16:49:33.075Z</time></trkpt><trkpt lat="43.4186583" lon="11.8158333"><ele>242.0</ele><time>2026-04-24T16:49:36.076Z</time></trkpt><trkpt lat="43.418595" lon="11.8158567"><ele>242.00000000000003</ele><time>2026-04-24T16:49:41.073Z</time></trkpt><trkpt lat="43.4185133" lon="11.8158283"><ele>242.0</ele><time>2026-04-24T16:49:46.073Z</time></trkpt><trkpt lat="43.4184683" lon="11.8157583"><ele>242.0</ele><time>2026-04-24T16:49:48.075Z</time></trkpt><trkpt lat="43.41842" lon="11.81567"><ele>242.0</ele><time>2026-04-24T16:49:50.076Z</time></trkpt><trkpt lat="43.41838" lon="11.8155733"><ele>242.00000000000003</ele><time>2026-04-24T16:49:52.074Z</time></trkpt><trkpt lat="43.4183333" lon="11.81547"><ele>242.0</ele><time>2026-04-24T16:49:54.076Z</time></trkpt><trkpt lat="43.4182833" lon="11.815365"><ele>242.00000000000003</ele><time>2026-04-24T16:49:56.077Z</time></trkpt><trkpt lat="43.418225" lon="11.8152617"><ele>242.0</ele><time>2026-04-24T16:49:58.076Z</time></trkpt><trkpt lat="43.41817" lon="11.8151417"><ele>242.0</ele><time>2026-04-24T16:50:00.077Z</time></trkpt><trkpt lat="43.4181417" lon="11.8150583"><ele>242.0</ele><time>2026-04-24T16:50:02.076Z</time></trkpt><trkpt lat="43.4180983" lon="11.8149833"><ele>242.00000000000003</ele><time>2026-04-24T16:50:06.074Z</time></trkpt><trkpt lat="43.4180267" lon="11.8150467"><ele>242.0</ele><time>2026-04-24T16:50:33.076Z</time></trkpt><trkpt lat="43.4179433" lon="11.815065"><ele>241.83333333333334</ele><time>2026-04-24T16:50:36.077Z</time></trkpt><trkpt lat="43.41786" lon="11.8150817"><ele>241.66666666666669</ele><time>2026-04-24T16:50:39.075Z</time></trkpt><trkpt lat="43.41779" lon="11.81509"><ele>241.5</ele><time>2026-04-24T16:50:42.074Z</time></trkpt><trkpt lat="43.4177083" lon="11.8150867"><ele>241.33333333333331</ele><time>2026-04-24T16:50:45.075Z</time></trkpt><trkpt lat="43.417645" lon="11.8150933"><ele>241.16666666666666</ele><time>2026-04-24T16:50:47.076Z</time></trkpt><trkpt lat="43.4175633" lon="11.81513"><ele>241.0</ele><time>2026-04-24T16:50:49.078Z</time></trkpt><trkpt lat="43.4174733" lon="11.8151317"><ele>240.99999999999997</ele><time>2026-04-24T16:50:51.075Z</time></trkpt><trkpt lat="43.4173817" lon="11.81514"><ele>241.0</ele><time>2026-04-24T16:50:53.075Z</time></trkpt><trkpt lat="43.4173117" lon="11.8151783"><ele>241.0</ele><time>2026-04-24T16:50:55.074Z</time></trkpt><trkpt lat="43.417225" lon="11.8152"><ele>241.0</ele><time>2026-04-24T16:50:58.074Z</time></trkpt><trkpt lat="43.4171417" lon="11.8152433"><ele>240.99999999999997</ele><time>2026-04-24T16:51:01.073Z</time></trkpt><trkpt lat="43.4170717" lon="11.8153083"><ele>241.0</ele><time>2026-04-24T16:51:03.076Z</time></trkpt><trkpt lat="43.41699" lon="11.8153567"><ele>240.33333333333331</ele><time>2026-04-24T16:51:05.074Z</time></trkpt><trkpt lat="43.416915" lon="11.8153883"><ele>239.66666666666666</ele><time>2026-04-24T16:51:07.074Z</time></trkpt><trkpt lat="43.4168267" lon="11.815375"><ele>239.0</ele><time>2026-04-24T16:51:09.075Z</time></trkpt><trkpt lat="43.4167517" lon="11.8153567"><ele>238.33333333333331</ele><time>2026-04-24T16:51:12.074Z</time></trkpt><trkpt lat="43.4166767" lon="11.8153483"><ele>237.66666666666666</ele><time>2026-04-24T16:51:15.073Z</time></trkpt><trkpt lat="43.4166033" lon="11.815365"><ele>237.0</ele><time>2026-04-24T16:51:18.078Z</time></trkpt><trkpt lat="43.416515" lon="11.8153617"><ele>237.0</ele><time>2026-04-24T16:51:21.075Z</time></trkpt><trkpt lat="43.4164483" lon="11.815355"><ele>237.0</ele><time>2026-04-24T16:51:23.075Z</time></trkpt><trkpt lat="43.4163583" lon="11.81541"><ele>237.0</ele><time>2026-04-24T16:51:26.074Z</time></trkpt><trkpt lat="43.41629" lon="11.81544"><ele>237.0</ele><time>2026-04-24T16:51:28.073Z</time></trkpt><trkpt lat="43.4162133" lon="11.8154617"><ele>237.0</ele><time>2026-04-24T16:51:30.075Z</time></trkpt><trkpt lat="43.4161267" lon="11.815485"><ele>237.0</ele><time>2026-04-24T16:51:32.076Z</time></trkpt><trkpt lat="43.416035" lon="11.81551"><ele>237.2</ele><time>2026-04-24T16:51:34.073Z</time></trkpt><trkpt lat="43.415945" lon="11.81553"><ele>237.39999999999998</ele><time>2026-04-24T16:51:36.073Z</time></trkpt><trkpt lat="43.4158517" lon="11.8155533"><ele>237.60000000000002</ele><time>2026-04-24T16:51:38.075Z</time></trkpt><trkpt lat="43.415755" lon="11.8155717"><ele>237.8</ele><time>2026-04-24T16:51:40.074Z</time></trkpt><trkpt lat="43.4156617" lon="11.8155967"><ele>238.0</ele><time>2026-04-24T16:51:42.075Z</time></trkpt><trkpt lat="43.4155633" lon="11.815625"><ele>238.2</ele><time>2026-04-24T16:51:44.075Z</time></trkpt><trkpt lat="43.415465" lon="11.8156467"><ele>238.4</ele><time>2026-04-24T16:51:46.075Z</time></trkpt><trkpt lat="43.4153617" lon="11.81568"><ele>238.59999999999997</ele><time>2026-04-24T16:51:48.074Z</time></trkpt><trkpt lat="43.41526" lon="11.8157083"><ele>238.79999999999998</ele><time>2026-04-24T16:51:50.074Z</time></trkpt><trkpt lat="43.4151583" lon="11.8157367"><ele>239.0</ele><time>2026-04-24T16:51:52.075Z</time></trkpt><trkpt lat="43.4150583" lon="11.8157583"><ele>239.0</ele><time>2026-04-24T16:51:54.074Z</time></trkpt><trkpt lat="43.414955" lon="11.8157767"><ele>238.99999999999997</ele><time>2026-04-24T16:51:56.074Z</time></trkpt><trkpt lat="43.414855" lon="11.8158017"><ele>238.99999999999997</ele><time>2026-04-24T16:51:58.073Z</time></trkpt><trkpt lat="43.4147533" lon="11.8158183"><ele>239.0</ele><time>2026-04-24T16:52:00.071Z</time></trkpt><trkpt lat="43.414655" lon="11.8158333"><ele>239.0</ele><time>2026-04-24T16:52:02.072Z</time></trkpt><trkpt lat="43.4145517" lon="11.8158533"><ele>238.79999999999998</ele><time>2026-04-24T16:52:04.078Z</time></trkpt><trkpt lat="43.41445" lon="11.8158717"><ele>238.59999999999997</ele><time>2026-04-24T16:52:06.074Z</time></trkpt><trkpt lat="43.41435" lon="11.8158917"><ele>238.4</ele><time>2026-04-24T16:52:08.074Z</time></trkpt><trkpt lat="43.4142567" lon="11.815915"><ele>238.2</ele><time>2026-04-24T16:52:10.074Z</time></trkpt><trkpt lat="43.414165" lon="11.8159483"><ele>238.0</ele><time>2026-04-24T16:52:12.076Z</time></trkpt><trkpt lat="43.4140583" lon="11.81597"><ele>237.8</ele><time>2026-04-24T16:52:14.073Z</time></trkpt><trkpt lat="43.4139517" lon="11.81599"><ele>237.60000000000002</ele><time>2026-04-24T16:52:16.073Z</time></trkpt><trkpt lat="43.4138467" lon="11.816015"><ele>237.39999999999998</ele><time>2026-04-24T16:52:18.075Z</time></trkpt><trkpt lat="43.4137383" lon="11.8160383"><ele>237.2</ele><time>2026-04-24T16:52:20.076Z</time></trkpt><trkpt lat="43.4136267" lon="11.8160667"><ele>237.0</ele><time>2026-04-24T16:52:22.075Z</time></trkpt><trkpt lat="43.4135233" lon="11.8161017"><ele>236.5</ele><time>2026-04-24T16:52:24.076Z</time></trkpt><trkpt lat="43.4134133" lon="11.8161217"><ele>236.0</ele><time>2026-04-24T16:52:26.074Z</time></trkpt><trkpt lat="43.4132983" lon="11.81615"><ele>235.5</ele><time>2026-04-24T16:52:28.074Z</time></trkpt><trkpt lat="43.4131817" lon="11.8161767"><ele>235.0</ele><time>2026-04-24T16:52:30.076Z</time></trkpt><trkpt lat="43.4130683" lon="11.8162017"><ele>235.2</ele><time>2026-04-24T16:52:32.077Z</time></trkpt><trkpt lat="43.4129567" lon="11.81623"><ele>235.4</ele><time>2026-04-24T16:52:34.072Z</time></trkpt><trkpt lat="43.412845" lon="11.8162433"><ele>235.60000000000002</ele><time>2026-04-24T16:52:36.076Z</time></trkpt><trkpt lat="43.412735" lon="11.8162533"><ele>235.8</ele><time>2026-04-24T16:52:38.075Z</time></trkpt><trkpt lat="43.41263" lon="11.8162633"><ele>236.0</ele><time>2026-04-24T16:52:40.074Z</time></trkpt><trkpt lat="43.412525" lon="11.8162833"><ele>236.0</ele><time>2026-04-24T16:52:42.077Z</time></trkpt><trkpt lat="43.41242" lon="11.816315"><ele>236.00000000000003</ele><time>2026-04-24T16:52:44.075Z</time></trkpt><trkpt lat="43.4123167" lon="11.8163567"><ele>236.00000000000003</ele><time>2026-04-24T16:52:46.073Z</time></trkpt><trkpt lat="43.41221" lon="11.816395"><ele>236.0</ele><time>2026-04-24T16:52:48.074Z</time></trkpt><trkpt lat="43.4121017" lon="11.8164233"><ele>236.0</ele><time>2026-04-24T16:52:50.075Z</time></trkpt><trkpt lat="43.4119917" lon="11.81645"><ele>236.75</ele><time>2026-04-24T16:52:52.077Z</time></trkpt><trkpt lat="43.411875" lon="11.8164733"><ele>237.5</ele><time>2026-04-24T16:52:54.077Z</time></trkpt><trkpt lat="43.4117633" lon="11.8164917"><ele>238.25</ele><time>2026-04-24T16:52:56.076Z</time></trkpt><trkpt lat="43.41165" lon="11.8165117"><ele>239.0</ele><time>2026-04-24T16:52:58.075Z</time></trkpt><trkpt lat="43.41154" lon="11.81653"><ele>239.0</ele><time>2026-04-24T16:53:00.075Z</time></trkpt><trkpt lat="43.411435" lon="11.816545"><ele>238.99999999999997</ele><time>2026-04-24T16:53:02.074Z</time></trkpt><trkpt lat="43.4113267" lon="11.8165717"><ele>238.99999999999997</ele><time>2026-04-24T16:53:04.075Z</time></trkpt><trkpt lat="43.4112183" lon="11.8165983"><ele>239.0</ele><time>2026-04-24T16:53:06.078Z</time></trkpt><trkpt lat="43.4111" lon="11.8166283"><ele>239.0</ele><time>2026-04-24T16:53:08.076Z</time></trkpt><trkpt lat="43.410995" lon="11.81668"><ele>238.6</ele><time>2026-04-24T16:53:10.075Z</time></trkpt><trkpt lat="43.4108833" lon="11.8167233"><ele>238.2</ele><time>2026-04-24T16:53:12.074Z</time></trkpt><trkpt lat="43.4107683" lon="11.8167617"><ele>237.79999999999998</ele><time>2026-04-24T16:53:14.073Z</time></trkpt><trkpt lat="43.41065" lon="11.8167967"><ele>237.39999999999998</ele><time>2026-04-24T16:53:16.074Z</time></trkpt><trkpt lat="43.4105767" lon="11.8168167"><ele>237.0</ele><time>2026-04-24T16:53:17.073Z</time></trkpt><trkpt lat="43.4104583" lon="11.816845"><ele>237.0</ele><time>2026-04-24T16:53:19.076Z</time></trkpt><trkpt lat="43.41034" lon="11.81687"><ele>237.0</ele><time>2026-04-24T16:53:21.073Z</time></trkpt><trkpt lat="43.4102233" lon="11.8169017"><ele>237.0</ele><time>2026-04-24T16:53:23.078Z</time></trkpt><trkpt lat="43.410105" lon="11.8169283"><ele>237.0</ele><time>2026-04-24T16:53:25.075Z</time></trkpt><trkpt lat="43.4099883" lon="11.816955"><ele>237.0</ele><time>2026-04-24T16:53:27.073Z</time></trkpt><trkpt lat="43.40988" lon="11.8169767"><ele>237.0</ele><time>2026-04-24T16:53:29.073Z</time></trkpt><trkpt lat="43.4097767" lon="11.816995"><ele>237.0</ele><time>2026-04-24T16:53:31.075Z</time></trkpt><trkpt lat="43.409675" lon="11.81703"><ele>237.0</ele><time>2026-04-24T16:53:33.072Z</time></trkpt><trkpt lat="43.40958" lon="11.8170483"><ele>237.0</ele><time>2026-04-24T16:53:35.075Z</time></trkpt><trkpt lat="43.4094867" lon="11.81707"><ele>237.0</ele><time>2026-04-24T16:53:37.074Z</time></trkpt><trkpt lat="43.4093883" lon="11.81709"><ele>237.0</ele><time>2026-04-24T16:53:39.073Z</time></trkpt><trkpt lat="43.40928" lon="11.8171083"><ele>237.0</ele><time>2026-04-24T16:53:41.074Z</time></trkpt><trkpt lat="43.40917" lon="11.81713"><ele>237.0</ele><time>2026-04-24T16:53:43.073Z</time></trkpt><trkpt lat="43.4090617" lon="11.8171517"><ele>237.0</ele><time>2026-04-24T16:53:45.075Z</time></trkpt><trkpt lat="43.408965" lon="11.81718"><ele>237.0</ele><time>2026-04-24T16:53:47.076Z</time></trkpt><trkpt lat="43.4088683" lon="11.8172083"><ele>237.0</ele><time>2026-04-24T16:53:49.075Z</time></trkpt><trkpt lat="43.40877" lon="11.8172317"><ele>237.0</ele><time>2026-04-24T16:53:51.074Z</time></trkpt><trkpt lat="43.40867" lon="11.8172583"><ele>237.0</ele><time>2026-04-24T16:53:53.078Z</time></trkpt><trkpt lat="43.4085683" lon="11.8172883"><ele>237.0</ele><time>2026-04-24T16:53:55.075Z</time></trkpt><trkpt lat="43.4084633" lon="11.81732"><ele>237.2</ele><time>2026-04-24T16:53:57.071Z</time></trkpt><trkpt lat="43.4083583" lon="11.817345"><ele>237.39999999999998</ele><time>2026-04-24T16:53:59.075Z</time></trkpt><trkpt lat="43.40825" lon="11.8173717"><ele>237.60000000000002</ele><time>2026-04-24T16:54:01.074Z</time></trkpt><trkpt lat="43.4081417" lon="11.8173967"><ele>237.8</ele><time>2026-04-24T16:54:03.072Z</time></trkpt><trkpt lat="43.40803" lon="11.817415"><ele>238.0</ele><time>2026-04-24T16:54:05.073Z</time></trkpt><trkpt lat="43.4079183" lon="11.81744"><ele>238.0</ele><time>2026-04-24T16:54:07.073Z</time></trkpt><trkpt lat="43.4078067" lon="11.8174667"><ele>238.0</ele><time>2026-04-24T16:54:09.075Z</time></trkpt><trkpt lat="43.4076933" lon="11.8175017"><ele>238.0</ele><time>2026-04-24T16:54:11.078Z</time></trkpt><trkpt lat="43.4075767" lon="11.817535"><ele>238.0</ele><time>2026-04-24T16:54:13.075Z</time></trkpt><trkpt lat="43.4074667" lon="11.8175533"><ele>238.0</ele><time>2026-04-24T16:54:15.073Z</time></trkpt><trkpt lat="43.4073567" lon="11.8175683"><ele>238.0</ele><time>2026-04-24T16:54:17.072Z</time></trkpt><trkpt lat="43.4072467" lon="11.8175917"><ele>238.0</ele><time>2026-04-24T16:54:19.074Z</time></trkpt><trkpt lat="43.407135" lon="11.817615"><ele>238.0</ele><time>2026-04-24T16:54:21.072Z</time></trkpt><trkpt lat="43.407025" lon="11.817635"><ele>238.0</ele><time>2026-04-24T16:54:23.073Z</time></trkpt><trkpt lat="43.4069167" lon="11.817655"><ele>237.60000000000002</ele><time>2026-04-24T16:54:25.073Z</time></trkpt><trkpt lat="43.4068067" lon="11.8176767"><ele>237.20000000000002</ele><time>2026-04-24T16:54:27.074Z</time></trkpt><trkpt lat="43.4066933" lon="11.8176983"><ele>236.8</ele><time>2026-04-24T16:54:29.075Z</time></trkpt><trkpt lat="43.40663" lon="11.8177183"><ele>236.4</ele><time>2026-04-24T16:54:30.073Z</time></trkpt><trkpt lat="43.4065217" lon="11.8177417"><ele>236.0</ele><time>2026-04-24T16:54:32.078Z</time></trkpt><trkpt lat="43.40642" lon="11.817765"><ele>236.20000000000002</ele><time>2026-04-24T16:54:34.073Z</time></trkpt><trkpt lat="43.406315" lon="11.8177867"><ele>236.40000000000003</ele><time>2026-04-24T16:54:36.077Z</time></trkpt><trkpt lat="43.4062083" lon="11.8178117"><ele>236.6</ele><time>2026-04-24T16:54:38.076Z</time></trkpt><trkpt lat="43.4061017" lon="11.8178333"><ele>236.8</ele><time>2026-04-24T16:54:40.072Z</time></trkpt><trkpt lat="43.4059933" lon="11.8178533"><ele>237.0</ele><time>2026-04-24T16:54:42.075Z</time></trkpt><trkpt lat="43.4058817" lon="11.8178733"><ele>237.0</ele><time>2026-04-24T16:54:44.075Z</time></trkpt><trkpt lat="43.405775" lon="11.8179017"><ele>237.0</ele><time>2026-04-24T16:54:46.073Z</time></trkpt><trkpt lat="43.4056717" lon="11.8179317"><ele>237.0</ele><time>2026-04-24T16:54:48.072Z</time></trkpt><trkpt lat="43.4055683" lon="11.8179617"><ele>237.0</ele><time>2026-04-24T16:54:50.077Z</time></trkpt><trkpt lat="43.40546" lon="11.8179917"><ele>237.0</ele><time>2026-04-24T16:54:52.072Z</time></trkpt><trkpt lat="43.4053533" lon="11.8180217"><ele>237.2</ele><time>2026-04-24T16:54:54.073Z</time></trkpt><trkpt lat="43.4052483" lon="11.818045"><ele>237.39999999999998</ele><time>2026-04-24T16:54:56.073Z</time></trkpt><trkpt lat="43.40514" lon="11.81807"><ele>237.60000000000002</ele><time>2026-04-24T16:54:58.077Z</time></trkpt><trkpt lat="43.4050317" lon="11.818095"><ele>237.8</ele><time>2026-04-24T16:55:00.076Z</time></trkpt><trkpt lat="43.4049283" lon="11.8181167"><ele>238.0</ele><time>2026-04-24T16:55:02.078Z</time></trkpt><trkpt lat="43.4048267" lon="11.81814"><ele>238.0</ele><time>2026-04-24T16:55:04.074Z</time></trkpt><trkpt lat="43.4047333" lon="11.818165"><ele>238.0</ele><time>2026-04-24T16:55:06.076Z</time></trkpt><trkpt lat="43.4046383" lon="11.818185"><ele>238.0</ele><time>2026-04-24T16:55:08.078Z</time></trkpt><trkpt lat="43.4045467" lon="11.8182017"><ele>238.0</ele><time>2026-04-24T16:55:10.074Z</time></trkpt><trkpt lat="43.4044517" lon="11.818215"><ele>238.0</ele><time>2026-04-24T16:55:12.076Z</time></trkpt><trkpt lat="43.4043567" lon="11.8182383"><ele>238.2</ele><time>2026-04-24T16:55:14.079Z</time></trkpt><trkpt lat="43.4042667" lon="11.8182717"><ele>238.4</ele><time>2026-04-24T16:55:16.073Z</time></trkpt><trkpt lat="43.4041617" lon="11.818295"><ele>238.59999999999997</ele><time>2026-04-24T16:55:18.078Z</time></trkpt><trkpt lat="43.4040617" lon="11.81834"><ele>238.79999999999998</ele><time>2026-04-24T16:55:20.076Z</time></trkpt><trkpt lat="43.4039533" lon="11.8183717"><ele>239.0</ele><time>2026-04-24T16:55:22.072Z</time></trkpt><trkpt lat="43.40385" lon="11.8183917"><ele>239.39999999999998</ele><time>2026-04-24T16:55:24.076Z</time></trkpt><trkpt lat="43.4037517" lon="11.81841"><ele>239.79999999999998</ele><time>2026-04-24T16:55:26.078Z</time></trkpt><trkpt lat="43.403655" lon="11.8184317"><ele>240.20000000000002</ele><time>2026-04-24T16:55:28.073Z</time></trkpt><trkpt lat="43.4035583" lon="11.8184517"><ele>240.60000000000002</ele><time>2026-04-24T16:55:30.077Z</time></trkpt><trkpt lat="43.4034567" lon="11.8184433"><ele>241.0</ele><time>2026-04-24T16:55:32.076Z</time></trkpt><trkpt lat="43.4033533" lon="11.8184183"><ele>241.0</ele><time>2026-04-24T16:55:34.073Z</time></trkpt><trkpt lat="43.4032533" lon="11.8183967"><ele>241.00000000000003</ele><time>2026-04-24T16:55:36.074Z</time></trkpt><trkpt lat="43.4031583" lon="11.8183983"><ele>241.00000000000003</ele><time>2026-04-24T16:55:38.077Z</time></trkpt><trkpt lat="43.4030683" lon="11.8184317"><ele>241.0</ele><time>2026-04-24T16:55:40.076Z</time></trkpt><trkpt lat="43.4029783" lon="11.8184917"><ele>241.0</ele><time>2026-04-24T16:55:42.075Z</time></trkpt><trkpt lat="43.40289" lon="11.8185667"><ele>240.20000000000002</ele><time>2026-04-24T16:55:44.073Z</time></trkpt><trkpt lat="43.40279" lon="11.81862"><ele>239.40000000000003</ele><time>2026-04-24T16:55:46.073Z</time></trkpt><trkpt lat="43.4026817" lon="11.8186617"><ele>238.6</ele><time>2026-04-24T16:55:48.075Z</time></trkpt><trkpt lat="43.4025717" lon="11.8186917"><ele>237.8</ele><time>2026-04-24T16:55:50.075Z</time></trkpt><trkpt lat="43.4024617" lon="11.8187217"><ele>237.0</ele><time>2026-04-24T16:55:52.071Z</time></trkpt><trkpt lat="43.4023467" lon="11.8187467"><ele>237.0</ele><time>2026-04-24T16:55:54.076Z</time></trkpt><trkpt lat="43.4022333" lon="11.8187717"><ele>237.0</ele><time>2026-04-24T16:55:56.077Z</time></trkpt><trkpt lat="43.4021167" lon="11.8188"><ele>237.0</ele><time>2026-04-24T16:55:58.075Z</time></trkpt><trkpt lat="43.4019967" lon="11.8188233"><ele>237.0</ele><time>2026-04-24T16:56:00.076Z</time></trkpt><trkpt lat="43.4018767" lon="11.8188367"><ele>237.0</ele><time>2026-04-24T16:56:02.078Z</time></trkpt><trkpt lat="43.401765" lon="11.818825"><ele>237.0</ele><time>2026-04-24T16:56:04.073Z</time></trkpt><trkpt lat="43.4016633" lon="11.8188233"><ele>237.0</ele><time>2026-04-24T16:56:06.076Z</time></trkpt><trkpt lat="43.4015667" lon="11.818865"><ele>237.0</ele><time>2026-04-24T16:56:08.075Z</time></trkpt><trkpt lat="43.4014683" lon="11.8189267"><ele>237.0</ele><time>2026-04-24T16:56:10.074Z</time></trkpt><trkpt lat="43.401365" lon="11.8189733"><ele>237.25</ele><time>2026-04-24T16:56:12.076Z</time></trkpt><trkpt lat="43.4012567" lon="11.819"><ele>237.5</ele><time>2026-04-24T16:56:14.076Z</time></trkpt><trkpt lat="43.4011433" lon="11.8190283"><ele>237.75</ele><time>2026-04-24T16:56:16.072Z</time></trkpt><trkpt lat="43.4010283" lon="11.819045"><ele>238.0</ele><time>2026-04-24T16:56:18.08Z</time></trkpt><trkpt lat="43.4009133" lon="11.8190617"><ele>238.0</ele><time>2026-04-24T16:56:20.074Z</time></trkpt><trkpt lat="43.4008033" lon="11.8190867"><ele>238.0</ele><time>2026-04-24T16:56:22.08Z</time></trkpt><trkpt lat="43.4006917" lon="11.8191217"><ele>238.0</ele><time>2026-04-24T16:56:24.076Z</time></trkpt><trkpt lat="43.4005817" lon="11.8191533"><ele>238.0</ele><time>2026-04-24T16:56:26.076Z</time></trkpt><trkpt lat="43.400475" lon="11.8191783"><ele>238.0</ele><time>2026-04-24T16:56:28.075Z</time></trkpt><trkpt lat="43.4003667" lon="11.8192067"><ele>238.0</ele><time>2026-04-24T16:56:30.076Z</time></trkpt><trkpt lat="43.4002567" lon="11.8192317"><ele>238.0</ele><time>2026-04-24T16:56:32.077Z</time></trkpt><trkpt lat="43.4001517" lon="11.819255"><ele>238.0</ele><time>2026-04-24T16:56:34.073Z</time></trkpt><trkpt lat="43.4000467" lon="11.8192783"><ele>238.0</ele><time>2026-04-24T16:56:36.076Z</time></trkpt><trkpt lat="43.39994" lon="11.819305"><ele>238.0</ele><time>2026-04-24T16:56:38.076Z</time></trkpt><trkpt lat="43.39983" lon="11.8193283"><ele>238.0</ele><time>2026-04-24T16:56:40.075Z</time></trkpt><trkpt lat="43.3997217" lon="11.8193567"><ele>238.0</ele><time>2026-04-24T16:56:42.074Z</time></trkpt><trkpt lat="43.3996117" lon="11.8193833"><ele>238.0</ele><time>2026-04-24T16:56:44.074Z</time></trkpt><trkpt lat="43.3995" lon="11.8194117"><ele>238.0</ele><time>2026-04-24T16:56:46.073Z</time></trkpt><trkpt lat="43.39939" lon="11.8194383"><ele>238.0</ele><time>2026-04-24T16:56:48.075Z</time></trkpt><trkpt lat="43.3992833" lon="11.819465"><ele>238.0</ele><time>2026-04-24T16:56:50.074Z</time></trkpt><trkpt lat="43.3991733" lon="11.8194917"><ele>238.0</ele><time>2026-04-24T16:56:52.075Z</time></trkpt><trkpt lat="43.3991017" lon="11.8195"><ele>238.0</ele><time>2026-04-24T16:56:53.076Z</time></trkpt><trkpt lat="43.3989917" lon="11.819525"><ele>238.0</ele><time>2026-04-24T16:56:55.072Z</time></trkpt><trkpt lat="43.3988883" lon="11.819545"><ele>238.0</ele><time>2026-04-24T16:56:57.076Z</time></trkpt><trkpt lat="43.3987867" lon="11.819565"><ele>238.4</ele><time>2026-04-24T16:56:59.073Z</time></trkpt><trkpt lat="43.3986917" lon="11.8195833"><ele>238.8</ele><time>2026-04-24T16:57:01.074Z</time></trkpt><trkpt lat="43.3985983" lon="11.8196033"><ele>239.2</ele><time>2026-04-24T16:57:03.074Z</time></trkpt><trkpt lat="43.3985017" lon="11.8196233"><ele>239.6</ele><time>2026-04-24T16:57:05.075Z</time></trkpt><trkpt lat="43.3984067" lon="11.8196433"><ele>240.0</ele><time>2026-04-24T16:57:07.073Z</time></trkpt><trkpt lat="43.3983133" lon="11.819665"><ele>240.0</ele><time>2026-04-24T16:57:09.077Z</time></trkpt><trkpt lat="43.3982167" lon="11.8196867"><ele>240.0</ele><time>2026-04-24T16:57:11.074Z</time></trkpt><trkpt lat="43.39812" lon="11.8197067"><ele>240.0</ele><time>2026-04-24T16:57:13.079Z</time></trkpt><trkpt lat="43.39802" lon="11.8197317"><ele>240.0</ele><time>2026-04-24T16:57:15.074Z</time></trkpt><trkpt lat="43.3979167" lon="11.8197617"><ele>240.0</ele><time>2026-04-24T16:57:17.074Z</time></trkpt><trkpt lat="43.3978117" lon="11.8198133"><ele>240.4</ele><time>2026-04-24T16:57:19.076Z</time></trkpt><trkpt lat="43.3977083" lon="11.8198317"><ele>240.8</ele><time>2026-04-24T16:57:21.076Z</time></trkpt><trkpt lat="43.39761" lon="11.81985"><ele>241.2</ele><time>2026-04-24T16:57:23.077Z</time></trkpt><trkpt lat="43.39751" lon="11.8198667"><ele>241.6</ele><time>2026-04-24T16:57:25.073Z</time></trkpt><trkpt lat="43.397415" lon="11.819895"><ele>242.0</ele><time>2026-04-24T16:57:27.075Z</time></trkpt><trkpt lat="43.39732" lon="11.81993"><ele>242.0</ele><time>2026-04-24T16:57:29.072Z</time></trkpt><trkpt lat="43.3972183" lon="11.819955"><ele>242.0</ele><time>2026-04-24T16:57:31.073Z</time></trkpt><trkpt lat="43.3971133" lon="11.8199767"><ele>242.0</ele><time>2026-04-24T16:57:33.075Z</time></trkpt><trkpt lat="43.397005" lon="11.8200033"><ele>242.0</ele><time>2026-04-24T16:57:35.073Z</time></trkpt><trkpt lat="43.396895" lon="11.8200233"><ele>242.0</ele><time>2026-04-24T16:57:37.075Z</time></trkpt><trkpt lat="43.3967867" lon="11.8200417"><ele>242.0</ele><time>2026-04-24T16:57:39.074Z</time></trkpt><trkpt lat="43.3966867" lon="11.8200717"><ele>242.0</ele><time>2026-04-24T16:57:41.075Z</time></trkpt><trkpt lat="43.3965883" lon="11.8201017"><ele>242.0</ele><time>2026-04-24T16:57:43.075Z</time></trkpt><trkpt lat="43.396485" lon="11.8201183"><ele>242.0</ele><time>2026-04-24T16:57:45.074Z</time></trkpt><trkpt lat="43.396375" lon="11.8201367"><ele>242.0</ele><time>2026-04-24T16:57:47.079Z</time></trkpt><trkpt lat="43.3962683" lon="11.8201533"><ele>241.2</ele><time>2026-04-24T16:57:49.076Z</time></trkpt><trkpt lat="43.3961633" lon="11.820165"><ele>240.39999999999998</ele><time>2026-04-24T16:57:51.076Z</time></trkpt><trkpt lat="43.3960617" lon="11.8201883"><ele>239.60000000000002</ele><time>2026-04-24T16:57:53.077Z</time></trkpt><trkpt lat="43.3959583" lon="11.8202117"><ele>238.8</ele><time>2026-04-24T16:57:55.075Z</time></trkpt><trkpt lat="43.3958533" lon="11.8202367"><ele>238.0</ele><time>2026-04-24T16:57:57.075Z</time></trkpt><trkpt lat="43.3957533" lon="11.8202567"><ele>238.0</ele><time>2026-04-24T16:57:59.074Z</time></trkpt><trkpt lat="43.395655" lon="11.8202833"><ele>238.0</ele><time>2026-04-24T16:58:01.077Z</time></trkpt><trkpt lat="43.39555" lon="11.82032"><ele>238.0</ele><time>2026-04-24T16:58:03.074Z</time></trkpt><trkpt lat="43.3954417" lon="11.8203467"><ele>238.0</ele><time>2026-04-24T16:58:05.076Z</time></trkpt><trkpt lat="43.395335" lon="11.820375"><ele>238.0</ele><time>2026-04-24T16:58:07.074Z</time></trkpt><trkpt lat="43.3952267" lon="11.8204"><ele>237.8</ele><time>2026-04-24T16:58:09.076Z</time></trkpt><trkpt lat="43.3951183" lon="11.8204233"><ele>237.60000000000002</ele><time>2026-04-24T16:58:11.073Z</time></trkpt><trkpt lat="43.395015" lon="11.8204433"><ele>237.39999999999998</ele><time>2026-04-24T16:58:13.075Z</time></trkpt><trkpt lat="43.394915" lon="11.820465"><ele>237.2</ele><time>2026-04-24T16:58:15.075Z</time></trkpt><trkpt lat="43.3948217" lon="11.820485"><ele>237.0</ele><time>2026-04-24T16:58:17.077Z</time></trkpt><trkpt lat="43.39473" lon="11.8205017"><ele>237.39999999999998</ele><time>2026-04-24T16:58:19.075Z</time></trkpt><trkpt lat="43.3946417" lon="11.8205267"><ele>237.79999999999998</ele><time>2026-04-24T16:58:21.074Z</time></trkpt><trkpt lat="43.394545" lon="11.82055"><ele>238.2</ele><time>2026-04-24T16:58:23.075Z</time></trkpt><trkpt lat="43.394445" lon="11.8205833"><ele>238.6</ele><time>2026-04-24T16:58:25.074Z</time></trkpt><trkpt lat="43.394345" lon="11.8206117"><ele>239.0</ele><time>2026-04-24T16:58:27.075Z</time></trkpt><trkpt lat="43.394245" lon="11.8206383"><ele>239.0</ele><time>2026-04-24T16:58:29.077Z</time></trkpt><trkpt lat="43.3941467" lon="11.8206767"><ele>238.99999999999997</ele><time>2026-04-24T16:58:31.075Z</time></trkpt><trkpt lat="43.3940433" lon="11.8206883"><ele>238.99999999999997</ele><time>2026-04-24T16:58:33.076Z</time></trkpt><trkpt lat="43.3939383" lon="11.82072"><ele>239.0</ele><time>2026-04-24T16:58:35.074Z</time></trkpt><trkpt lat="43.3938267" lon="11.8207367"><ele>239.0</ele><time>2026-04-24T16:58:37.075Z</time></trkpt><trkpt lat="43.3937167" lon="11.8207517"><ele>239.2</ele><time>2026-04-24T16:58:39.075Z</time></trkpt><trkpt lat="43.3936117" lon="11.8207667"><ele>239.39999999999998</ele><time>2026-04-24T16:58:41.075Z</time></trkpt><trkpt lat="43.3935" lon="11.8207917"><ele>239.6</ele><time>2026-04-24T16:58:43.073Z</time></trkpt><trkpt lat="43.3934017" lon="11.8208133"><ele>239.8</ele><time>2026-04-24T16:58:45.078Z</time></trkpt><trkpt lat="43.39331" lon="11.8208333"><ele>240.0</ele><time>2026-04-24T16:58:47.076Z</time></trkpt><trkpt lat="43.3932233" lon="11.82085"><ele>240.0</ele><time>2026-04-24T16:58:49.074Z</time></trkpt><trkpt lat="43.393135" lon="11.8208567"><ele>240.0</ele><time>2026-04-24T16:58:51.074Z</time></trkpt><trkpt lat="43.39306" lon="11.8208617"><ele>240.0</ele><time>2026-04-24T16:58:53.074Z</time></trkpt><trkpt lat="43.3929833" lon="11.8208733"><ele>240.0</ele><time>2026-04-24T16:58:55.077Z</time></trkpt><trkpt lat="43.3929" lon="11.8208917"><ele>240.0</ele><time>2026-04-24T16:58:57.074Z</time></trkpt><trkpt lat="43.3928117" lon="11.820915"><ele>240.0</ele><time>2026-04-24T16:58:59.074Z</time></trkpt><trkpt lat="43.392725" lon="11.8209433"><ele>240.0</ele><time>2026-04-24T16:59:01.078Z</time></trkpt><trkpt lat="43.3926367" lon="11.82097"><ele>240.0</ele><time>2026-04-24T16:59:03.074Z</time></trkpt><trkpt lat="43.39255" lon="11.821"><ele>240.0</ele><time>2026-04-24T16:59:05.075Z</time></trkpt><trkpt lat="43.3924633" lon="11.821025"><ele>240.0</ele><time>2026-04-24T16:59:07.076Z</time></trkpt><trkpt lat="43.3923717" lon="11.8210467"><ele>240.0</ele><time>2026-04-24T16:59:09.078Z</time></trkpt><trkpt lat="43.392275" lon="11.8210717"><ele>240.0</ele><time>2026-04-24T16:59:11.074Z</time></trkpt><trkpt lat="43.3921733" lon="11.8210967"><ele>240.0</ele><time>2026-04-24T16:59:13.074Z</time></trkpt><trkpt lat="43.39207" lon="11.82112"><ele>240.0</ele><time>2026-04-24T16:59:15.075Z</time></trkpt><trkpt lat="43.3919617" lon="11.8211417"><ele>240.0</ele><time>2026-04-24T16:59:17.077Z</time></trkpt><trkpt lat="43.3918517" lon="11.8211567"><ele>240.0</ele><time>2026-04-24T16:59:19.074Z</time></trkpt><trkpt lat="43.3917417" lon="11.8211733"><ele>239.6</ele><time>2026-04-24T16:59:21.076Z</time></trkpt><trkpt lat="43.39163" lon="11.8211967"><ele>239.2</ele><time>2026-04-24T16:59:23.077Z</time></trkpt><trkpt lat="43.39152" lon="11.82122"><ele>238.8</ele><time>2026-04-24T16:59:25.074Z</time></trkpt><trkpt lat="43.391415" lon="11.8212483"><ele>238.4</ele><time>2026-04-24T16:59:27.075Z</time></trkpt><trkpt lat="43.3913067" lon="11.8212783"><ele>238.0</ele><time>2026-04-24T16:59:29.074Z</time></trkpt><trkpt lat="43.3911983" lon="11.8213083"><ele>238.0</ele><time>2026-04-24T16:59:31.073Z</time></trkpt><trkpt lat="43.3910883" lon="11.8213283"><ele>238.0</ele><time>2026-04-24T16:59:33.078Z</time></trkpt><trkpt lat="43.3909767" lon="11.82135"><ele>238.0</ele><time>2026-04-24T16:59:35.076Z</time></trkpt><trkpt lat="43.3908617" lon="11.82137"><ele>238.0</ele><time>2026-04-24T16:59:37.073Z</time></trkpt><trkpt lat="43.39075" lon="11.8213867"><ele>238.0</ele><time>2026-04-24T16:59:39.073Z</time></trkpt><trkpt lat="43.3906367" lon="11.82141"><ele>238.0</ele><time>2026-04-24T16:59:41.077Z</time></trkpt><trkpt lat="43.39053" lon="11.8214433"><ele>238.0</ele><time>2026-04-24T16:59:43.075Z</time></trkpt><trkpt lat="43.39042" lon="11.8214633"><ele>238.0</ele><time>2026-04-24T16:59:45.075Z</time></trkpt><trkpt lat="43.390315" lon="11.8214817"><ele>238.0</ele><time>2026-04-24T16:59:47.076Z</time></trkpt><trkpt lat="43.3902167" lon="11.8215017"><ele>238.2</ele><time>2026-04-24T16:59:49.077Z</time></trkpt><trkpt lat="43.39012" lon="11.821525"><ele>238.4</ele><time>2026-04-24T16:59:51.076Z</time></trkpt><trkpt lat="43.3900283" lon="11.82154"><ele>238.59999999999997</ele><time>2026-04-24T16:59:53.075Z</time></trkpt><trkpt lat="43.3899367" lon="11.8215567"><ele>238.79999999999998</ele><time>2026-04-24T16:59:55.075Z</time></trkpt><trkpt lat="43.389845" lon="11.821575"><ele>239.0</ele><time>2026-04-24T16:59:57.073Z</time></trkpt><trkpt lat="43.38975" lon="11.8215917"><ele>238.79999999999998</ele><time>2026-04-24T16:59:59.074Z</time></trkpt><trkpt lat="43.3896467" lon="11.8216183"><ele>238.59999999999997</ele><time>2026-04-24T17:00:01.076Z</time></trkpt><trkpt lat="43.3895417" lon="11.8216467"><ele>238.4</ele><time>2026-04-24T17:00:03.075Z</time></trkpt><trkpt lat="43.389435" lon="11.8216683"><ele>238.2</ele><time>2026-04-24T17:00:05.076Z</time></trkpt><trkpt lat="43.38933" lon="11.8216883"><ele>238.0</ele><time>2026-04-24T17:00:07.077Z</time></trkpt><trkpt lat="43.3892267" lon="11.8217067"><ele>238.0</ele><time>2026-04-24T17:00:09.077Z</time></trkpt><trkpt lat="43.38913" lon="11.8217267"><ele>238.0</ele><time>2026-04-24T17:00:11.075Z</time></trkpt><trkpt lat="43.3890367" lon="11.8217483"><ele>238.0</ele><time>2026-04-24T17:00:13.076Z</time></trkpt><trkpt lat="43.38895" lon="11.821765"><ele>238.0</ele><time>2026-04-24T17:00:15.074Z</time></trkpt><trkpt lat="43.3888617" lon="11.8217817"><ele>238.0</ele><time>2026-04-24T17:00:17.074Z</time></trkpt><trkpt lat="43.38877" lon="11.8218033"><ele>237.99999999999997</ele><time>2026-04-24T17:00:19.074Z</time></trkpt><trkpt lat="43.38868" lon="11.8218217"><ele>238.0</ele><time>2026-04-24T17:00:21.073Z</time></trkpt><trkpt lat="43.3885883" lon="11.8218417"><ele>238.0</ele><time>2026-04-24T17:00:23.077Z</time></trkpt><trkpt lat="43.3885033" lon="11.8218633"><ele>238.0</ele><time>2026-04-24T17:00:25.073Z</time></trkpt><trkpt lat="43.3884233" lon="11.821885"><ele>237.99999999999997</ele><time>2026-04-24T17:00:27.077Z</time></trkpt><trkpt lat="43.388345" lon="11.8219017"><ele>238.0</ele><time>2026-04-24T17:00:29.075Z</time></trkpt><trkpt lat="43.3882683" lon="11.82192"><ele>237.99999999999997</ele><time>2026-04-24T17:00:31.074Z</time></trkpt><trkpt lat="43.3881967" lon="11.82194"><ele>238.0</ele><time>2026-04-24T17:00:33.074Z</time></trkpt><trkpt lat="43.3881283" lon="11.8219517"><ele>238.0</ele><time>2026-04-24T17:00:35.074Z</time></trkpt><trkpt lat="43.3880383" lon="11.8219683"><ele>238.0</ele><time>2026-04-24T17:00:38.078Z</time></trkpt><trkpt lat="43.387955" lon="11.8219767"><ele>237.99999999999997</ele><time>2026-04-24T17:00:41.074Z</time></trkpt><trkpt lat="43.3878933" lon="11.8219133"><ele>238.0</ele><time>2026-04-24T17:00:44.074Z</time></trkpt><trkpt lat="43.3879267" lon="11.821815"><ele>238.66666666666666</ele><time>2026-04-24T17:00:49.075Z</time></trkpt><trkpt lat="43.3879267" lon="11.8216967"><ele>239.33333333333331</ele><time>2026-04-24T17:00:53.074Z</time></trkpt><trkpt lat="43.3879167" lon="11.8215883"><ele>240.0</ele><time>2026-04-24T17:00:56.077Z</time></trkpt><trkpt lat="43.38791" lon="11.8214683"><ele>240.66666666666669</ele><time>2026-04-24T17:00:59.075Z</time></trkpt><trkpt lat="43.38791" lon="11.8213767"><ele>241.33333333333334</ele><time>2026-04-24T17:01:01.074Z</time></trkpt><trkpt lat="43.3878983" lon="11.8212767"><ele>242.0</ele><time>2026-04-24T17:01:03.076Z</time></trkpt><trkpt lat="43.387885" lon="11.82118"><ele>242.0</ele><time>2026-04-24T17:01:05.073Z</time></trkpt><trkpt lat="43.3878817" lon="11.8210883"><ele>241.99999999999997</ele><time>2026-04-24T17:01:07.075Z</time></trkpt><trkpt lat="43.38788" lon="11.821"><ele>242.0</ele><time>2026-04-24T17:01:09.076Z</time></trkpt><trkpt lat="43.38787" lon="11.8208883"><ele>242.0</ele><time>2026-04-24T17:01:12.073Z</time></trkpt><trkpt lat="43.3878467" lon="11.820785"><ele>241.99999999999997</ele><time>2026-04-24T17:01:15.075Z</time></trkpt><trkpt lat="43.3878333" lon="11.820675"><ele>242.0</ele><time>2026-04-24T17:01:18.075Z</time></trkpt><trkpt lat="43.3878217" lon="11.82058"><ele>242.0</ele><time>2026-04-24T17:01:21.073Z</time></trkpt><trkpt lat="43.38781" lon="11.8204833"><ele>242.00000000000003</ele><time>2026-04-24T17:01:24.075Z</time></trkpt><trkpt lat="43.3878033" lon="11.8203767"><ele>242.0</ele><time>2026-04-24T17:01:27.076Z</time></trkpt><trkpt lat="43.3877933" lon="11.8202633"><ele>242.0</ele><time>2026-04-24T17:01:30.074Z</time></trkpt><trkpt lat="43.3877883" lon="11.8201517"><ele>242.0</ele><time>2026-04-24T17:01:33.077Z</time></trkpt><trkpt lat="43.3877833" lon="11.820035"><ele>242.00000000000003</ele><time>2026-04-24T17:01:36.073Z</time></trkpt><trkpt lat="43.38778" lon="11.819925"><ele>242.0</ele><time>2026-04-24T17:01:39.076Z</time></trkpt><trkpt lat="43.38777" lon="11.8198133"><ele>242.16666666666669</ele><time>2026-04-24T17:01:42.077Z</time></trkpt><trkpt lat="43.3877533" lon="11.8197"><ele>242.33333333333334</ele><time>2026-04-24T17:01:46.074Z</time></trkpt><trkpt lat="43.38773" lon="11.8196"><ele>242.5</ele><time>2026-04-24T17:01:49.074Z</time></trkpt><trkpt lat="43.387695" lon="11.8194817"><ele>242.66666666666669</ele><time>2026-04-24T17:01:52.069Z</time></trkpt><trkpt lat="43.3876617" lon="11.8193667"><ele>242.83333333333334</ele><time>2026-04-24T17:01:55.073Z</time></trkpt><trkpt lat="43.3876317" lon="11.8192583"><ele>243.0</ele><time>2026-04-24T17:01:58.076Z</time></trkpt><trkpt lat="43.3876" lon="11.8191433"><ele>243.0</ele><time>2026-04-24T17:02:01.073Z</time></trkpt><trkpt lat="43.3875817" lon="11.81906"><ele>243.0</ele><time>2026-04-24T17:02:03.076Z</time></trkpt><trkpt lat="43.38756" lon="11.81897"><ele>243.0</ele><time>2026-04-24T17:02:05.073Z</time></trkpt><trkpt lat="43.3875317" lon="11.8188783"><ele>243.0</ele><time>2026-04-24T17:02:07.076Z</time></trkpt><trkpt lat="43.3875067" lon="11.818785"><ele>243.0</ele><time>2026-04-24T17:02:09.076Z</time></trkpt><trkpt lat="43.38748" lon="11.8186867"><ele>243.0</ele><time>2026-04-24T17:02:11.074Z</time></trkpt><trkpt lat="43.3874517" lon="11.81859"><ele>243.0</ele><time>2026-04-24T17:02:13.075Z</time></trkpt><trkpt lat="43.3874267" lon="11.8184917"><ele>243.0</ele><time>2026-04-24T17:02:15.076Z</time></trkpt><trkpt lat="43.3874" lon="11.8184017"><ele>243.0</ele><time>2026-04-24T17:02:17.074Z</time></trkpt><trkpt lat="43.3873717" lon="11.8183067"><ele>243.0</ele><time>2026-04-24T17:02:19.075Z</time></trkpt><trkpt lat="43.3873433" lon="11.8182117"><ele>243.0</ele><time>2026-04-24T17:02:21.074Z</time></trkpt><trkpt lat="43.3873133" lon="11.8181167"><ele>243.0</ele><time>2026-04-24T17:02:23.075Z</time></trkpt><trkpt lat="43.3872833" lon="11.81802"><ele>243.0</ele><time>2026-04-24T17:02:25.074Z</time></trkpt><trkpt lat="43.3872567" lon="11.8179233"><ele>243.0</ele><time>2026-04-24T17:02:27.074Z</time></trkpt><trkpt lat="43.3872283" lon="11.8178333"><ele>243.0</ele><time>2026-04-24T17:02:29.074Z</time></trkpt><trkpt lat="43.3871983" lon="11.817745"><ele>243.0</ele><time>2026-04-24T17:02:31.073Z</time></trkpt><trkpt lat="43.3871717" lon="11.81766"><ele>243.0</ele><time>2026-04-24T17:02:33.076Z</time></trkpt><trkpt lat="43.3871367" lon="11.8175483"><ele>243.0</ele><time>2026-04-24T17:02:36.074Z</time></trkpt><trkpt lat="43.3870967" lon="11.8174317"><ele>243.0</ele><time>2026-04-24T17:02:39.076Z</time></trkpt><trkpt lat="43.3870683" lon="11.8173467"><ele>243.0</ele><time>2026-04-24T17:02:41.074Z</time></trkpt><trkpt lat="43.38704" lon="11.8172533"><ele>243.14285714285714</ele><time>2026-04-24T17:02:43.073Z</time></trkpt><trkpt lat="43.3870083" lon="11.8171633"><ele>243.28571428571428</ele><time>2026-04-24T17:02:45.076Z</time></trkpt><trkpt lat="43.3869833" lon="11.8170717"><ele>243.42857142857142</ele><time>2026-04-24T17:02:47.073Z</time></trkpt><trkpt lat="43.3869617" lon="11.8169817"><ele>243.57142857142856</ele><time>2026-04-24T17:02:49.074Z</time></trkpt><trkpt lat="43.38694" lon="11.816885"><ele>243.71428571428572</ele><time>2026-04-24T17:02:51.073Z</time></trkpt><trkpt lat="43.386915" lon="11.8167917"><ele>243.85714285714283</ele><time>2026-04-24T17:02:53.074Z</time></trkpt><trkpt lat="43.3868883" lon="11.8167"><ele>243.99999999999997</ele><time>2026-04-24T17:02:55.075Z</time></trkpt><trkpt lat="43.3868617" lon="11.8166117"><ele>243.99999999999997</ele><time>2026-04-24T17:02:57.074Z</time></trkpt><trkpt lat="43.386825" lon="11.8165"><ele>244.0</ele><time>2026-04-24T17:03:00.075Z</time></trkpt><trkpt lat="43.3867867" lon="11.81641"><ele>243.99999999999997</ele><time>2026-04-24T17:03:03.075Z</time></trkpt><trkpt lat="43.3867617" lon="11.8163233"><ele>243.99999999999997</ele><time>2026-04-24T17:03:06.076Z</time></trkpt><trkpt lat="43.3867467" lon="11.8162367"><ele>244.0</ele><time>2026-04-24T17:03:08.075Z</time></trkpt><trkpt lat="43.3867267" lon="11.8161533"><ele>243.99999999999997</ele><time>2026-04-24T17:03:10.075Z</time></trkpt><trkpt lat="43.3867033" lon="11.8160683"><ele>243.99999999999997</ele><time>2026-04-24T17:03:12.076Z</time></trkpt><trkpt lat="43.3866817" lon="11.815975"><ele>243.99999999999997</ele><time>2026-04-24T17:03:14.073Z</time></trkpt><trkpt lat="43.386665" lon="11.815875"><ele>244.0</ele><time>2026-04-24T17:03:16.074Z</time></trkpt><trkpt lat="43.386665" lon="11.8157583"><ele>244.0</ele><time>2026-04-24T17:03:18.075Z</time></trkpt><trkpt lat="43.3866583" lon="11.81564"><ele>244.0</ele><time>2026-04-24T17:03:20.077Z</time></trkpt><trkpt lat="43.3866517" lon="11.8155183"><ele>243.99999999999997</ele><time>2026-04-24T17:03:22.074Z</time></trkpt><trkpt lat="43.3866517" lon="11.8153917"><ele>244.0</ele><time>2026-04-24T17:03:24.075Z</time></trkpt><trkpt lat="43.3866567" lon="11.8152633"><ele>243.99999999999997</ele><time>2026-04-24T17:03:26.076Z</time></trkpt><trkpt lat="43.3866633" lon="11.81514"><ele>244.0</ele><time>2026-04-24T17:03:28.075Z</time></trkpt><trkpt lat="43.38667" lon="11.815025"><ele>244.0</ele><time>2026-04-24T17:03:30.074Z</time></trkpt><trkpt lat="43.3866817" lon="11.81492"><ele>244.0</ele><time>2026-04-24T17:03:32.074Z</time></trkpt><trkpt lat="43.3866883" lon="11.8148167"><ele>243.99999999999997</ele><time>2026-04-24T17:03:34.075Z</time></trkpt><trkpt lat="43.3866933" lon="11.8147067"><ele>244.0</ele><time>2026-04-24T17:03:36.08Z</time></trkpt><trkpt lat="43.386705" lon="11.814595"><ele>243.99999999999997</ele><time>2026-04-24T17:03:38.08Z</time></trkpt><trkpt lat="43.3867117" lon="11.814485"><ele>244.0</ele><time>2026-04-24T17:03:40.075Z</time></trkpt><trkpt lat="43.3867233" lon="11.8143617"><ele>244.0</ele><time>2026-04-24T17:03:42.075Z</time></trkpt><trkpt lat="43.3867383" lon="11.81424"><ele>244.0</ele><time>2026-04-24T17:03:44.075Z</time></trkpt><trkpt lat="43.3867517" lon="11.8141183"><ele>243.99999999999997</ele><time>2026-04-24T17:03:46.072Z</time></trkpt><trkpt lat="43.3867617" lon="11.8139917"><ele>244.0</ele><time>2026-04-24T17:03:48.076Z</time></trkpt><trkpt lat="43.386785" lon="11.8138717"><ele>244.16666666666666</ele><time>2026-04-24T17:03:50.074Z</time></trkpt><trkpt lat="43.3868067" lon="11.8137533"><ele>244.33333333333331</ele><time>2026-04-24T17:03:52.074Z</time></trkpt><trkpt lat="43.386815" lon="11.8136217"><ele>244.5</ele><time>2026-04-24T17:03:54.073Z</time></trkpt><trkpt lat="43.38682" lon="11.8135"><ele>244.66666666666669</ele><time>2026-04-24T17:03:56.077Z</time></trkpt><trkpt lat="43.3868317" lon="11.813385"><ele>244.83333333333334</ele><time>2026-04-24T17:03:58.074Z</time></trkpt><trkpt lat="43.3868433" lon="11.8132833"><ele>245.0</ele><time>2026-04-24T17:04:00.075Z</time></trkpt><trkpt lat="43.38683" lon="11.8131767"><ele>245.00000000000003</ele><time>2026-04-24T17:04:04.074Z</time></trkpt><trkpt lat="43.3868217" lon="11.813085"><ele>245.0</ele><time>2026-04-24T17:04:08.077Z</time></trkpt><trkpt lat="43.386765" lon="11.812995"><ele>245.0</ele><time>2026-04-24T17:04:13.075Z</time></trkpt><trkpt lat="43.3866917" lon="11.8129283"><ele>245.0</ele><time>2026-04-24T17:04:16.075Z</time></trkpt><trkpt lat="43.386645" lon="11.81287"><ele>245.00000000000003</ele><time>2026-04-24T17:04:18.077Z</time></trkpt><trkpt lat="43.3865783" lon="11.812775"><ele>245.0</ele><time>2026-04-24T17:04:21.075Z</time></trkpt><trkpt lat="43.3865383" lon="11.8126767"><ele>245.00000000000003</ele><time>2026-04-24T17:04:24.074Z</time></trkpt><trkpt lat="43.3865167" lon="11.8125817"><ele>245.0</ele><time>2026-04-24T17:04:27.074Z</time></trkpt><trkpt lat="43.3864883" lon="11.8124683"><ele>245.0</ele><time>2026-04-24T17:04:30.073Z</time></trkpt><trkpt lat="43.3864617" lon="11.8123533"><ele>245.0</ele><time>2026-04-24T17:04:33.075Z</time></trkpt><trkpt lat="43.3864367" lon="11.81227"><ele>245.00000000000003</ele><time>2026-04-24T17:04:35.074Z</time></trkpt><trkpt lat="43.3864017" lon="11.812195"><ele>245.0</ele><time>2026-04-24T17:04:37.076Z</time></trkpt><trkpt lat="43.3863667" lon="11.8120933"><ele>245.00000000000003</ele><time>2026-04-24T17:04:39.069Z</time></trkpt><trkpt lat="43.38634" lon="11.8119933"><ele>245.0</ele><time>2026-04-24T17:04:41.076Z</time></trkpt><trkpt lat="43.3863117" lon="11.811905"><ele>245.0</ele><time>2026-04-24T17:04:43.075Z</time></trkpt><trkpt lat="43.3862833" lon="11.8117817"><ele>245.0</ele><time>2026-04-24T17:04:46.073Z</time></trkpt><trkpt lat="43.3862633" lon="11.8116883"><ele>245.00000000000003</ele><time>2026-04-24T17:04:48.074Z</time></trkpt><trkpt lat="43.38624" lon="11.8115867"><ele>245.0</ele><time>2026-04-24T17:04:50.074Z</time></trkpt><trkpt lat="43.3862217" lon="11.8114783"><ele>245.00000000000003</ele><time>2026-04-24T17:04:52.075Z</time></trkpt><trkpt lat="43.386195" lon="11.8113767"><ele>245.0</ele><time>2026-04-24T17:04:54.078Z</time></trkpt><trkpt lat="43.3861667" lon="11.8112733"><ele>245.0</ele><time>2026-04-24T17:04:56.074Z</time></trkpt><trkpt lat="43.38614" lon="11.811165"><ele>245.0</ele><time>2026-04-24T17:04:58.075Z</time></trkpt><trkpt lat="43.386115" lon="11.8110617"><ele>245.00000000000003</ele><time>2026-04-24T17:05:00.077Z</time></trkpt><trkpt lat="43.3860833" lon="11.8109417"><ele>245.0</ele><time>2026-04-24T17:05:02.076Z</time></trkpt><trkpt lat="43.386025" lon="11.810775"><ele>245.0</ele><time>2026-04-24T17:05:05.08Z</time></trkpt><trkpt lat="43.3859867" lon="11.8106583"><ele>245.0</ele><time>2026-04-24T17:05:07.075Z</time></trkpt><trkpt lat="43.3859517" lon="11.8105483"><ele>245.0</ele><time>2026-04-24T17:05:09.076Z</time></trkpt><trkpt lat="43.3859117" lon="11.81044"><ele>245.0</ele><time>2026-04-24T17:05:11.074Z</time></trkpt><trkpt lat="43.3858733" lon="11.8103267"><ele>245.0</ele><time>2026-04-24T17:05:13.078Z</time></trkpt><trkpt lat="43.3858333" lon="11.8102017"><ele>245.0</ele><time>2026-04-24T17:05:15.077Z</time></trkpt><trkpt lat="43.3858067" lon="11.8100833"><ele>245.0</ele><time>2026-04-24T17:05:17.074Z</time></trkpt><trkpt lat="43.3857817" lon="11.80996"><ele>245.0</ele><time>2026-04-24T17:05:19.075Z</time></trkpt><trkpt lat="43.38574" lon="11.8098417"><ele>245.0</ele><time>2026-04-24T17:05:21.075Z</time></trkpt><trkpt lat="43.3857083" lon="11.80972"><ele>245.0</ele><time>2026-04-24T17:05:23.075Z</time></trkpt><trkpt lat="43.3856833" lon="11.8096"><ele>245.0</ele><time>2026-04-24T17:05:25.076Z</time></trkpt><trkpt lat="43.3856467" lon="11.8094817"><ele>245.0</ele><time>2026-04-24T17:05:27.073Z</time></trkpt><trkpt lat="43.385615" lon="11.8093633"><ele>245.0</ele><time>2026-04-24T17:05:29.074Z</time></trkpt><trkpt lat="43.3855867" lon="11.8092417"><ele>245.0</ele><time>2026-04-24T17:05:31.074Z</time></trkpt><trkpt lat="43.385545" lon="11.8091167"><ele>245.0</ele><time>2026-04-24T17:05:33.073Z</time></trkpt><trkpt lat="43.385515" lon="11.8089867"><ele>245.0</ele><time>2026-04-24T17:05:35.075Z</time></trkpt><trkpt lat="43.3854917" lon="11.8088617"><ele>245.0</ele><time>2026-04-24T17:05:37.076Z</time></trkpt><trkpt lat="43.3854617" lon="11.8087317"><ele>245.0</ele><time>2026-04-24T17:05:39.075Z</time></trkpt><trkpt lat="43.3854117" lon="11.8086117"><ele>245.0</ele><time>2026-04-24T17:05:41.075Z</time></trkpt><trkpt lat="43.3853767" lon="11.8084867"><ele>245.0</ele><time>2026-04-24T17:05:43.077Z</time></trkpt><trkpt lat="43.3853367" lon="11.8083667"><ele>245.0</ele><time>2026-04-24T17:05:45.075Z</time></trkpt><trkpt lat="43.3852967" lon="11.8082483"><ele>245.0</ele><time>2026-04-24T17:05:47.078Z</time></trkpt><trkpt lat="43.3852617" lon="11.8081267"><ele>245.0</ele><time>2026-04-24T17:05:49.074Z</time></trkpt><trkpt lat="43.3852333" lon="11.8080117"><ele>245.0</ele><time>2026-04-24T17:05:51.076Z</time></trkpt><trkpt lat="43.385205" lon="11.8078933"><ele>245.0</ele><time>2026-04-24T17:05:53.073Z</time></trkpt><trkpt lat="43.385175" lon="11.807785"><ele>245.00000000000003</ele><time>2026-04-24T17:05:55.074Z</time></trkpt><trkpt lat="43.3851417" lon="11.8076833"><ele>245.0</ele><time>2026-04-24T17:05:57.074Z</time></trkpt><trkpt lat="43.3851133" lon="11.8075783"><ele>245.0</ele><time>2026-04-24T17:05:59.075Z</time></trkpt><trkpt lat="43.3850867" lon="11.8074817"><ele>245.0</ele><time>2026-04-24T17:06:01.076Z</time></trkpt><trkpt lat="43.3850767" lon="11.8073867"><ele>245.00000000000003</ele><time>2026-04-24T17:06:03.074Z</time></trkpt><trkpt lat="43.3850533" lon="11.8072783"><ele>245.0</ele><time>2026-04-24T17:06:05.071Z</time></trkpt><trkpt lat="43.3850217" lon="11.8071717"><ele>245.16666666666669</ele><time>2026-04-24T17:06:07.074Z</time></trkpt><trkpt lat="43.384985" lon="11.8070583"><ele>245.33333333333334</ele><time>2026-04-24T17:06:09.072Z</time></trkpt><trkpt lat="43.3849533" lon="11.80695"><ele>245.5</ele><time>2026-04-24T17:06:11.074Z</time></trkpt><trkpt lat="43.3849233" lon="11.806845"><ele>245.66666666666669</ele><time>2026-04-24T17:06:13.072Z</time></trkpt><trkpt lat="43.3848917" lon="11.8067367"><ele>245.83333333333334</ele><time>2026-04-24T17:06:15.073Z</time></trkpt><trkpt lat="43.3848567" lon="11.8066383"><ele>246.0</ele><time>2026-04-24T17:06:17.076Z</time></trkpt><trkpt lat="43.3848233" lon="11.8065483"><ele>246.14285714285717</ele><time>2026-04-24T17:06:19.078Z</time></trkpt><trkpt lat="43.384795" lon="11.8064583"><ele>246.28571428571428</ele><time>2026-04-24T17:06:21.075Z</time></trkpt><trkpt lat="43.3847733" lon="11.8063683"><ele>246.42857142857144</ele><time>2026-04-24T17:06:23.077Z</time></trkpt><trkpt lat="43.3847367" lon="11.80628"><ele>246.57142857142858</ele><time>2026-04-24T17:06:25.073Z</time></trkpt><trkpt lat="43.38471" lon="11.8061967"><ele>246.71428571428572</ele><time>2026-04-24T17:06:27.075Z</time></trkpt><trkpt lat="43.3846817" lon="11.8060867"><ele>246.85714285714286</ele><time>2026-04-24T17:06:30.072Z</time></trkpt><trkpt lat="43.3846683" lon="11.8059833"><ele>247.0</ele><time>2026-04-24T17:06:33.076Z</time></trkpt><trkpt lat="43.3846217" lon="11.805925"><ele>246.99999999999997</ele><time>2026-04-24T17:06:36.081Z</time></trkpt><trkpt lat="43.3845483" lon="11.8059033"><ele>247.0</ele><time>2026-04-24T17:06:39.075Z</time></trkpt><trkpt lat="43.3844833" lon="11.8059233"><ele>247.0</ele><time>2026-04-24T17:06:41.075Z</time></trkpt><trkpt lat="43.3844133" lon="11.8059367"><ele>247.0</ele><time>2026-04-24T17:06:43.076Z</time></trkpt><trkpt lat="43.38434" lon="11.8059567"><ele>246.99999999999997</ele><time>2026-04-24T17:06:45.077Z</time></trkpt><trkpt lat="43.3842567" lon="11.80597"><ele>247.0</ele><time>2026-04-24T17:06:47.076Z</time></trkpt><trkpt lat="43.3841583" lon="11.806"><ele>246.83333333333331</ele><time>2026-04-24T17:06:49.076Z</time></trkpt><trkpt lat="43.3840667" lon="11.8060133"><ele>246.66666666666666</ele><time>2026-04-24T17:06:51.076Z</time></trkpt><trkpt lat="43.3839817" lon="11.8060317"><ele>246.5</ele><time>2026-04-24T17:06:53.075Z</time></trkpt><trkpt lat="43.3839" lon="11.806045"><ele>246.33333333333331</ele><time>2026-04-24T17:06:55.073Z</time></trkpt><trkpt lat="43.3838117" lon="11.8060667"><ele>246.16666666666666</ele><time>2026-04-24T17:06:57.075Z</time></trkpt><trkpt lat="43.38372" lon="11.806095"><ele>246.0</ele><time>2026-04-24T17:06:59.078Z</time></trkpt><trkpt lat="43.38363" lon="11.8061083"><ele>246.0</ele><time>2026-04-24T17:07:01.076Z</time></trkpt><trkpt lat="43.3835383" lon="11.8061267"><ele>246.0</ele><time>2026-04-24T17:07:03.074Z</time></trkpt><trkpt lat="43.3834717" lon="11.8061367"><ele>246.0</ele><time>2026-04-24T17:07:04.073Z</time></trkpt><trkpt lat="43.3833817" lon="11.80615"><ele>246.0</ele><time>2026-04-24T17:07:06.076Z</time></trkpt><trkpt lat="43.38329" lon="11.8061717"><ele>246.0</ele><time>2026-04-24T17:07:08.077Z</time></trkpt><trkpt lat="43.3831933" lon="11.8061933"><ele>246.0</ele><time>2026-04-24T17:07:10.073Z</time></trkpt><trkpt lat="43.383095" lon="11.80621"><ele>246.0</ele><time>2026-04-24T17:07:12.077Z</time></trkpt><trkpt lat="43.3829983" lon="11.8062317"><ele>246.00000000000003</ele><time>2026-04-24T17:07:14.078Z</time></trkpt><trkpt lat="43.3829033" lon="11.8062533"><ele>246.00000000000003</ele><time>2026-04-24T17:07:16.077Z</time></trkpt><trkpt lat="43.3828067" lon="11.80627"><ele>246.0</ele><time>2026-04-24T17:07:18.075Z</time></trkpt><trkpt lat="43.3827067" lon="11.8062917"><ele>246.0</ele><time>2026-04-24T17:07:20.075Z</time></trkpt><trkpt lat="43.382605" lon="11.80631"><ele>246.0</ele><time>2026-04-24T17:07:22.075Z</time></trkpt><trkpt lat="43.38251" lon="11.8063283"><ele>246.00000000000003</ele><time>2026-04-24T17:07:24.075Z</time></trkpt><trkpt lat="43.38242" lon="11.8063467"><ele>246.00000000000003</ele><time>2026-04-24T17:07:26.075Z</time></trkpt><trkpt lat="43.38233" lon="11.8063617"><ele>246.0</ele><time>2026-04-24T17:07:28.078Z</time></trkpt><trkpt lat="43.3822367" lon="11.8063817"><ele>246.0</ele><time>2026-04-24T17:07:30.078Z</time></trkpt><trkpt lat="43.3821417" lon="11.8064"><ele>246.20000000000002</ele><time>2026-04-24T17:07:32.077Z</time></trkpt><trkpt lat="43.382045" lon="11.8064233"><ele>246.40000000000003</ele><time>2026-04-24T17:07:34.074Z</time></trkpt><trkpt lat="43.3819467" lon="11.8064417"><ele>246.6</ele><time>2026-04-24T17:07:36.075Z</time></trkpt><trkpt lat="43.3818533" lon="11.806455"><ele>246.8</ele><time>2026-04-24T17:07:38.076Z</time></trkpt><trkpt lat="43.381755" lon="11.8064767"><ele>247.0</ele><time>2026-04-24T17:07:40.074Z</time></trkpt><trkpt lat="43.381655" lon="11.8064983"><ele>247.0</ele><time>2026-04-24T17:07:42.076Z</time></trkpt><trkpt lat="43.3815517" lon="11.8065167"><ele>247.0</ele><time>2026-04-24T17:07:44.079Z</time></trkpt><trkpt lat="43.3814517" lon="11.806535"><ele>247.0</ele><time>2026-04-24T17:07:46.073Z</time></trkpt><trkpt lat="43.3813583" lon="11.8065483"><ele>247.0</ele><time>2026-04-24T17:07:48.075Z</time></trkpt><trkpt lat="43.38127" lon="11.806565"><ele>247.0</ele><time>2026-04-24T17:07:50.072Z</time></trkpt><trkpt lat="43.3811833" lon="11.80658"><ele>246.99999999999997</ele><time>2026-04-24T17:07:52.073Z</time></trkpt><trkpt lat="43.3810933" lon="11.8065883"><ele>247.0</ele><time>2026-04-24T17:07:54.073Z</time></trkpt><trkpt lat="43.3810167" lon="11.8065433"><ele>247.0</ele><time>2026-04-24T17:07:56.076Z</time></trkpt><trkpt lat="43.380985" lon="11.8064533"><ele>247.0</ele><time>2026-04-24T17:07:58.074Z</time></trkpt><trkpt lat="43.3809767" lon="11.806345"><ele>246.99999999999997</ele><time>2026-04-24T17:08:00.077Z</time></trkpt><trkpt lat="43.3809717" lon="11.8062317"><ele>247.0</ele><time>2026-04-24T17:08:02.077Z</time></trkpt><trkpt lat="43.3809667" lon="11.806115"><ele>246.99999999999997</ele><time>2026-04-24T17:08:04.072Z</time></trkpt><trkpt lat="43.3809567" lon="11.8059967"><ele>247.0</ele><time>2026-04-24T17:08:06.074Z</time></trkpt><trkpt lat="43.3809483" lon="11.8058817"><ele>247.0</ele><time>2026-04-24T17:08:08.074Z</time></trkpt><trkpt lat="43.3809367" lon="11.80576"><ele>247.0</ele><time>2026-04-24T17:08:10.073Z</time></trkpt><trkpt lat="43.3809317" lon="11.8056367"><ele>246.99999999999997</ele><time>2026-04-24T17:08:12.077Z</time></trkpt><trkpt lat="43.3809317" lon="11.80551"><ele>247.0</ele><time>2026-04-24T17:08:14.076Z</time></trkpt><trkpt lat="43.3809283" lon="11.8053883"><ele>247.2</ele><time>2026-04-24T17:08:16.074Z</time></trkpt><trkpt lat="43.380915" lon="11.805205"><ele>247.39999999999998</ele><time>2026-04-24T17:08:19.076Z</time></trkpt><trkpt lat="43.380905" lon="11.8050867"><ele>247.60000000000002</ele><time>2026-04-24T17:08:21.073Z</time></trkpt><trkpt lat="43.3808967" lon="11.804965"><ele>247.8</ele><time>2026-04-24T17:08:23.075Z</time></trkpt><trkpt lat="43.3808867" lon="11.8048467"><ele>248.0</ele><time>2026-04-24T17:08:25.074Z</time></trkpt><trkpt lat="43.380875" lon="11.804725"><ele>248.16666666666669</ele><time>2026-04-24T17:08:27.073Z</time></trkpt><trkpt lat="43.3808617" lon="11.8046067"><ele>248.33333333333334</ele><time>2026-04-24T17:08:29.075Z</time></trkpt><trkpt lat="43.38085" lon="11.8044883"><ele>248.5</ele><time>2026-04-24T17:08:31.074Z</time></trkpt><trkpt lat="43.38083" lon="11.8043767"><ele>248.66666666666669</ele><time>2026-04-24T17:08:33.073Z</time></trkpt><trkpt lat="43.38082" lon="11.80426"><ele>248.83333333333334</ele><time>2026-04-24T17:08:35.074Z</time></trkpt><trkpt lat="43.3807967" lon="11.804135"><ele>249.0</ele><time>2026-04-24T17:08:37.079Z</time></trkpt><trkpt lat="43.3807817" lon="11.8040183"><ele>249.16666666666666</ele><time>2026-04-24T17:08:39.073Z</time></trkpt><trkpt lat="43.38077" lon="11.8039"><ele>249.33333333333331</ele><time>2026-04-24T17:08:41.076Z</time></trkpt><trkpt lat="43.3807667" lon="11.8037783"><ele>249.5</ele><time>2026-04-24T17:08:43.074Z</time></trkpt><trkpt lat="43.3807617" lon="11.803665"><ele>249.66666666666666</ele><time>2026-04-24T17:08:45.073Z</time></trkpt><trkpt lat="43.380755" lon="11.8035533"><ele>249.83333333333331</ele><time>2026-04-24T17:08:47.073Z</time></trkpt><trkpt lat="43.380745" lon="11.8034417"><ele>250.0</ele><time>2026-04-24T17:08:49.073Z</time></trkpt><trkpt lat="43.3807367" lon="11.8033333"><ele>250.28571428571428</ele><time>2026-04-24T17:08:51.073Z</time></trkpt><trkpt lat="43.3807267" lon="11.8032267"><ele>250.57142857142858</ele><time>2026-04-24T17:08:53.075Z</time></trkpt><trkpt lat="43.38072" lon="11.8031333"><ele>250.85714285714286</ele><time>2026-04-24T17:08:55.075Z</time></trkpt><trkpt lat="43.3807017" lon="11.8030117"><ele>251.14285714285714</ele><time>2026-04-24T17:08:58.073Z</time></trkpt><trkpt lat="43.38068" lon="11.8029233"><ele>251.42857142857144</ele><time>2026-04-24T17:09:01.073Z</time></trkpt><trkpt lat="43.3806683" lon="11.802835"><ele>251.71428571428572</ele><time>2026-04-24T17:09:04.074Z</time></trkpt><trkpt lat="43.3806483" lon="11.80275"><ele>252.0</ele><time>2026-04-24T17:09:07.075Z</time></trkpt><trkpt lat="43.3806267" lon="11.8026467"><ele>252.71428571428572</ele><time>2026-04-24T17:09:11.073Z</time></trkpt><trkpt lat="43.3806067" lon="11.802555"><ele>253.42857142857144</ele><time>2026-04-24T17:09:15.072Z</time></trkpt><trkpt lat="43.3805833" lon="11.8024567"><ele>254.14285714285714</ele><time>2026-04-24T17:09:19.076Z</time></trkpt><trkpt lat="43.3805683" lon="11.8023483"><ele>254.85714285714286</ele><time>2026-04-24T17:09:23.073Z</time></trkpt><trkpt lat="43.380555" lon="11.8022617"><ele>255.57142857142858</ele><time>2026-04-24T17:09:26.074Z</time></trkpt><trkpt lat="43.3805317" lon="11.8021783"><ele>256.2857142857143</ele><time>2026-04-24T17:09:29.073Z</time></trkpt><trkpt lat="43.380495" lon="11.8021"><ele>257.0</ele><time>2026-04-24T17:09:33.073Z</time></trkpt><trkpt lat="43.3804317" lon="11.802035"><ele>257.0</ele><time>2026-04-24T17:09:37.075Z</time></trkpt><trkpt lat="43.3803533" lon="11.8020083"><ele>257.0</ele><time>2026-04-24T17:09:42.075Z</time></trkpt><trkpt lat="43.3802883" lon="11.8019983"><ele>257.0</ele><time>2026-04-24T17:09:48.076Z</time></trkpt><trkpt lat="43.3802083" lon="11.8020133"><ele>257.0</ele><time>2026-04-24T17:09:54.078Z</time></trkpt><trkpt lat="43.3801233" lon="11.8020133"><ele>257.0</ele><time>2026-04-24T17:09:58.073Z</time></trkpt><trkpt lat="43.3800517" lon="11.80202"><ele>257.0</ele><time>2026-04-24T17:10:00.074Z</time></trkpt><trkpt lat="43.37994" lon="11.802005"><ele>257.0</ele><time>2026-04-24T17:10:02.075Z</time></trkpt><trkpt lat="43.3798667" lon="11.801955"><ele>257.0</ele><time>2026-04-24T17:10:04.075Z</time></trkpt><trkpt lat="43.379805" lon="11.8018817"><ele>257.0</ele><time>2026-04-24T17:10:06.073Z</time></trkpt><trkpt lat="43.3797683" lon="11.8017667"><ele>257.0</ele><time>2026-04-24T17:10:09.074Z</time></trkpt><trkpt lat="43.3797317" lon="11.8016617"><ele>257.0</ele><time>2026-04-24T17:10:12.076Z</time></trkpt><trkpt lat="43.3797283" lon="11.8015333"><ele>257.0</ele><time>2026-04-24T17:10:15.076Z</time></trkpt><trkpt lat="43.37973" lon="11.801435"><ele>257.83333333333337</ele><time>2026-04-24T17:10:17.078Z</time></trkpt><trkpt lat="43.3797283" lon="11.8013317"><ele>258.6666666666667</ele><time>2026-04-24T17:10:19.079Z</time></trkpt><trkpt lat="43.379705" lon="11.8012467"><ele>259.5</ele><time>2026-04-24T17:10:21.076Z</time></trkpt><trkpt lat="43.3796967" lon="11.8011183"><ele>260.3333333333333</ele><time>2026-04-24T17:10:24.076Z</time></trkpt><trkpt lat="43.3796883" lon="11.8010217"><ele>261.16666666666663</ele><time>2026-04-24T17:10:26.076Z</time></trkpt><trkpt lat="43.3796883" lon="11.8009067"><ele>262.0</ele><time>2026-04-24T17:10:28.073Z</time></trkpt><trkpt lat="43.3796817" lon="11.8008083"><ele>262.0</ele><time>2026-04-24T17:10:30.07Z</time></trkpt><trkpt lat="43.3796717" lon="11.800715"><ele>262.0</ele><time>2026-04-24T17:10:32.071Z</time></trkpt><trkpt lat="43.3796533" lon="11.8006133"><ele>262.0</ele><time>2026-04-24T17:10:34.072Z</time></trkpt><trkpt lat="43.3796333" lon="11.80051"><ele>262.0</ele><time>2026-04-24T17:10:36.073Z</time></trkpt><trkpt lat="43.3796267" lon="11.80041"><ele>262.0</ele><time>2026-04-24T17:10:38.075Z</time></trkpt><trkpt lat="43.3796217" lon="11.8003133"><ele>262.0</ele><time>2026-04-24T17:10:40.072Z</time></trkpt><trkpt lat="43.3796183" lon="11.8002167"><ele>262.0</ele><time>2026-04-24T17:10:42.074Z</time></trkpt><trkpt lat="43.3796117" lon="11.8001233"><ele>261.8333333333333</ele><time>2026-04-24T17:10:44.075Z</time></trkpt><trkpt lat="43.3796183" lon="11.800035"><ele>261.66666666666663</ele><time>2026-04-24T17:10:46.075Z</time></trkpt><trkpt lat="43.3796583" lon="11.799955"><ele>261.5</ele><time>2026-04-24T17:10:48.072Z</time></trkpt><trkpt lat="43.3797133" lon="11.7998533"><ele>261.3333333333333</ele><time>2026-04-24T17:10:51.075Z</time></trkpt><trkpt lat="43.3797633" lon="11.7997917"><ele>261.1666666666667</ele><time>2026-04-24T17:10:53.075Z</time></trkpt><trkpt lat="43.37982" lon="11.799705"><ele>261.0</ele><time>2026-04-24T17:10:56.076Z</time></trkpt><trkpt lat="43.3798617" lon="11.79961"><ele>261.57142857142856</ele><time>2026-04-24T17:10:59.074Z</time></trkpt><trkpt lat="43.3799017" lon="11.799505"><ele>262.1428571428571</ele><time>2026-04-24T17:11:02.079Z</time></trkpt><trkpt lat="43.3799167" lon="11.79941"><ele>262.71428571428567</ele><time>2026-04-24T17:11:05.077Z</time></trkpt><trkpt lat="43.3799217" lon="11.7993167"><ele>263.2857142857143</ele><time>2026-04-24T17:11:09.073Z</time></trkpt><trkpt lat="43.3799217" lon="11.79923"><ele>263.85714285714283</ele><time>2026-04-24T17:11:15.075Z</time></trkpt><trkpt lat="43.3799167" lon="11.799135"><ele>264.4285714285714</ele><time>2026-04-24T17:11:21.073Z</time></trkpt><trkpt lat="43.3799067" lon="11.799035"><ele>265.0</ele><time>2026-04-24T17:11:30.075Z</time></trkpt><trkpt lat="43.379885" lon="11.798935"><ele>265.4</ele><time>2026-04-24T17:11:34.075Z</time></trkpt><trkpt lat="43.37986" lon="11.798815"><ele>265.8</ele><time>2026-04-24T17:11:37.075Z</time></trkpt><trkpt lat="43.3798233" lon="11.798705"><ele>266.2</ele><time>2026-04-24T17:11:39.075Z</time></trkpt><trkpt lat="43.3797683" lon="11.7985617"><ele>266.6</ele><time>2026-04-24T17:11:41.075Z</time></trkpt><trkpt lat="43.3797283" lon="11.79845"><ele>267.0</ele><time>2026-04-24T17:11:42.077Z</time></trkpt><trkpt lat="43.3796867" lon="11.7983483"><ele>265.6</ele><time>2026-04-24T17:11:43.072Z</time></trkpt><trkpt lat="43.379645" lon="11.7982417"><ele>264.2</ele><time>2026-04-24T17:11:44.075Z</time></trkpt><trkpt lat="43.3796017" lon="11.79813"><ele>262.8</ele><time>2026-04-24T17:11:45.076Z</time></trkpt><trkpt lat="43.379555" lon="11.798025"><ele>261.4</ele><time>2026-04-24T17:11:46.073Z</time></trkpt><trkpt lat="43.3795083" lon="11.7979133"><ele>260.0</ele><time>2026-04-24T17:11:47.072Z</time></trkpt><trkpt lat="43.37946" lon="11.7978017"><ele>260.0</ele><time>2026-04-24T17:11:48.072Z</time></trkpt><trkpt lat="43.3794133" lon="11.79769"><ele>260.0</ele><time>2026-04-24T17:11:49.073Z</time></trkpt><trkpt lat="43.3793683" lon="11.7975783"><ele>260.0</ele><time>2026-04-24T17:11:50.075Z</time></trkpt><trkpt lat="43.379325" lon="11.797465"><ele>260.0</ele><time>2026-04-24T17:11:51.075Z</time></trkpt><trkpt lat="43.3792833" lon="11.7973567"><ele>260.0</ele><time>2026-04-24T17:11:52.074Z</time></trkpt><trkpt lat="43.379245" lon="11.7972467"><ele>259.83333333333337</ele><time>2026-04-24T17:11:53.071Z</time></trkpt><trkpt lat="43.3792167" lon="11.7971433"><ele>259.6666666666667</ele><time>2026-04-24T17:11:54.072Z</time></trkpt><trkpt lat="43.379195" lon="11.7970433"><ele>259.5</ele><time>2026-04-24T17:11:55.072Z</time></trkpt><trkpt lat="43.3791817" lon="11.7969533"><ele>259.3333333333333</ele><time>2026-04-24T17:11:56.074Z</time></trkpt><trkpt lat="43.379175" lon="11.796865"><ele>259.16666666666663</ele><time>2026-04-24T17:11:57.073Z</time></trkpt><trkpt lat="43.3791633" lon="11.7967183"><ele>259.0</ele><time>2026-04-24T17:11:59.075Z</time></trkpt><trkpt lat="43.3791567" lon="11.7966133"><ele>259.0</ele><time>2026-04-24T17:12:01.074Z</time></trkpt><trkpt lat="43.3791533" lon="11.796505"><ele>259.0</ele><time>2026-04-24T17:12:05.073Z</time></trkpt><trkpt lat="43.379155" lon="11.796405"><ele>259.0</ele><time>2026-04-24T17:12:09.074Z</time></trkpt><trkpt lat="43.37915" lon="11.7963133"><ele>259.0</ele><time>2026-04-24T17:12:13.074Z</time></trkpt><trkpt lat="43.379145" lon="11.7962067"><ele>259.0</ele><time>2026-04-24T17:12:17.075Z</time></trkpt><trkpt lat="43.3791417" lon="11.7960983"><ele>259.0</ele><time>2026-04-24T17:12:21.072Z</time></trkpt><trkpt lat="43.3791283" lon="11.7960033"><ele>259.0</ele><time>2026-04-24T17:12:25.074Z</time></trkpt><trkpt lat="43.37913" lon="11.7958967"><ele>259.85714285714283</ele><time>2026-04-24T17:12:29.074Z</time></trkpt><trkpt lat="43.37911" lon="11.7957933"><ele>260.7142857142857</ele><time>2026-04-24T17:12:33.073Z</time></trkpt><trkpt lat="43.3791033" lon="11.795705"><ele>261.57142857142856</ele><time>2026-04-24T17:12:37.073Z</time></trkpt><trkpt lat="43.3790917" lon="11.7956017"><ele>262.42857142857144</ele><time>2026-04-24T17:12:41.078Z</time></trkpt><trkpt lat="43.3790917" lon="11.7955033"><ele>263.2857142857143</ele><time>2026-04-24T17:12:45.072Z</time></trkpt><trkpt lat="43.37909" lon="11.7954117"><ele>264.1428571428571</ele><time>2026-04-24T17:12:48.075Z</time></trkpt><trkpt lat="43.3790933" lon="11.7953183"><ele>265.0</ele><time>2026-04-24T17:12:51.077Z</time></trkpt><trkpt lat="43.3790867" lon="11.7952217"><ele>265.2857142857143</ele><time>2026-04-24T17:12:55.073Z</time></trkpt><trkpt lat="43.37908" lon="11.79511"><ele>265.57142857142856</ele><time>2026-04-24T17:12:59.077Z</time></trkpt><trkpt lat="43.3790717" lon="11.7950167"><ele>265.8571428571429</ele><time>2026-04-24T17:13:02.078Z</time></trkpt><trkpt lat="43.3790883" lon="11.79492"><ele>266.1428571428571</ele><time>2026-04-24T17:13:05.076Z</time></trkpt><trkpt lat="43.3790833" lon="11.794825"><ele>266.42857142857144</ele><time>2026-04-24T17:13:10.074Z</time></trkpt><trkpt lat="43.3790883" lon="11.794735"><ele>266.7142857142857</ele><time>2026-04-24T17:13:14.077Z</time></trkpt><trkpt lat="43.3790967" lon="11.7946333"><ele>267.0</ele><time>2026-04-24T17:13:19.074Z</time></trkpt><trkpt lat="43.379105" lon="11.7945333"><ele>267.0</ele><time>2026-04-24T17:13:22.076Z</time></trkpt><trkpt lat="43.3791133" lon="11.794405"><ele>267.0</ele><time>2026-04-24T17:13:25.075Z</time></trkpt><trkpt lat="43.3791233" lon="11.794315"><ele>267.0</ele><time>2026-04-24T17:13:27.077Z</time></trkpt><trkpt lat="43.3791367" lon="11.794215"><ele>267.0</ele><time>2026-04-24T17:13:29.076Z</time></trkpt><trkpt lat="43.3791483" lon="11.7941083"><ele>267.0</ele><time>2026-04-24T17:13:31.078Z</time></trkpt><trkpt lat="43.379165" lon="11.7939917"><ele>267.0</ele><time>2026-04-24T17:13:33.075Z</time></trkpt><trkpt lat="43.379175" lon="11.793885"><ele>267.1666666666667</ele><time>2026-04-24T17:13:35.074Z</time></trkpt><trkpt lat="43.379185" lon="11.793785"><ele>267.3333333333333</ele><time>2026-04-24T17:13:37.072Z</time></trkpt><trkpt lat="43.3792" lon="11.793675"><ele>267.5</ele><time>2026-04-24T17:13:39.074Z</time></trkpt><trkpt lat="43.37921" lon="11.79357"><ele>267.66666666666663</ele><time>2026-04-24T17:13:41.072Z</time></trkpt><trkpt lat="43.379215" lon="11.7934833"><ele>267.8333333333333</ele><time>2026-04-24T17:13:43.074Z</time></trkpt><trkpt lat="43.3792333" lon="11.79333"><ele>268.0</ele><time>2026-04-24T17:13:47.073Z</time></trkpt><trkpt lat="43.3792517" lon="11.7931867"><ele>267.7142857142857</ele><time>2026-04-24T17:13:50.178Z</time></trkpt><trkpt lat="43.379265" lon="11.7930783"><ele>267.42857142857144</ele><time>2026-04-24T17:13:52.074Z</time></trkpt><trkpt lat="43.3792767" lon="11.7929833"><ele>267.1428571428571</ele><time>2026-04-24T17:13:54.073Z</time></trkpt><trkpt lat="43.37929" lon="11.792895"><ele>266.8571428571429</ele><time>2026-04-24T17:13:56.074Z</time></trkpt><trkpt lat="43.3792933" lon="11.7928017"><ele>266.57142857142856</ele><time>2026-04-24T17:13:58.073Z</time></trkpt><trkpt lat="43.3792967" lon="11.7926933"><ele>266.2857142857143</ele><time>2026-04-24T17:14:00.076Z</time></trkpt><trkpt lat="43.3793083" lon="11.7925867"><ele>266.0</ele><time>2026-04-24T17:14:02.077Z</time></trkpt><trkpt lat="43.37932" lon="11.7924767"><ele>266.1666666666667</ele><time>2026-04-24T17:14:04.073Z</time></trkpt><trkpt lat="43.3793167" lon="11.7923633"><ele>266.33333333333337</ele><time>2026-04-24T17:14:06.074Z</time></trkpt><trkpt lat="43.3793" lon="11.79225"><ele>266.5</ele><time>2026-04-24T17:14:08.075Z</time></trkpt><trkpt lat="43.3792833" lon="11.79213"><ele>266.6666666666667</ele><time>2026-04-24T17:14:10.072Z</time></trkpt><trkpt lat="43.3792517" lon="11.792015"><ele>266.8333333333333</ele><time>2026-04-24T17:14:12.073Z</time></trkpt><trkpt lat="43.3792183" lon="11.7919117"><ele>267.0</ele><time>2026-04-24T17:14:14.074Z</time></trkpt><trkpt lat="43.3791933" lon="11.7918117"><ele>267.00000000000006</ele><time>2026-04-24T17:14:16.074Z</time></trkpt><trkpt lat="43.3791583" lon="11.7917183"><ele>267.0</ele><time>2026-04-24T17:14:18.074Z</time></trkpt><trkpt lat="43.3791317" lon="11.7916233"><ele>267.0</ele><time>2026-04-24T17:14:20.074Z</time></trkpt><trkpt lat="43.3791083" lon="11.79153"><ele>267.0</ele><time>2026-04-24T17:14:22.072Z</time></trkpt><trkpt lat="43.37908" lon="11.79144"><ele>267.0</ele><time>2026-04-24T17:14:24.075Z</time></trkpt><trkpt lat="43.3790567" lon="11.7913483"><ele>267.00000000000006</ele><time>2026-04-24T17:14:26.075Z</time></trkpt><trkpt lat="43.379035" lon="11.7912567"><ele>267.0</ele><time>2026-04-24T17:14:28.074Z</time></trkpt><trkpt lat="43.37902" lon="11.7911583"><ele>267.0</ele><time>2026-04-24T17:14:30.074Z</time></trkpt><trkpt lat="43.3789983" lon="11.7910633"><ele>267.0</ele><time>2026-04-24T17:14:32.075Z</time></trkpt><trkpt lat="43.3789667" lon="11.7909783"><ele>267.0</ele><time>2026-04-24T17:14:34.074Z</time></trkpt><trkpt lat="43.3789367" lon="11.7908967"><ele>267.0</ele><time>2026-04-24T17:14:36.074Z</time></trkpt><trkpt lat="43.37891" lon="11.7908133"><ele>267.0</ele><time>2026-04-24T17:14:38.076Z</time></trkpt><trkpt lat="43.3788817" lon="11.7907267"><ele>267.0</ele><time>2026-04-24T17:14:40.074Z</time></trkpt><trkpt lat="43.3788283" lon="11.7905833"><ele>267.0</ele><time>2026-04-24T17:14:43.072Z</time></trkpt><trkpt lat="43.3787967" lon="11.7904783"><ele>267.0</ele><time>2026-04-24T17:14:45.074Z</time></trkpt><trkpt lat="43.3787383" lon="11.79032"><ele>267.0</ele><time>2026-04-24T17:14:48.073Z</time></trkpt><trkpt lat="43.3787" lon="11.7902183"><ele>267.0</ele><time>2026-04-24T17:14:50.078Z</time></trkpt><trkpt lat="43.378665" lon="11.7901217"><ele>267.0</ele><time>2026-04-24T17:14:52.073Z</time></trkpt><trkpt lat="43.3786367" lon="11.790035"><ele>267.0</ele><time>2026-04-24T17:14:54.076Z</time></trkpt><trkpt lat="43.37862" lon="11.78995"><ele>267.00000000000006</ele><time>2026-04-24T17:14:56.075Z</time></trkpt><trkpt lat="43.3785967" lon="11.7898617"><ele>267.0</ele><time>2026-04-24T17:14:58.073Z</time></trkpt><trkpt lat="43.3785683" lon="11.789745"><ele>267.0</ele><time>2026-04-24T17:15:01.077Z</time></trkpt><trkpt lat="43.3785417" lon="11.7896633"><ele>267.0</ele><time>2026-04-24T17:15:03.075Z</time></trkpt><trkpt lat="43.378505" lon="11.7895767"><ele>267.0</ele><time>2026-04-24T17:15:05.072Z</time></trkpt><trkpt lat="43.3784733" lon="11.7895"><ele>267.00000000000006</ele><time>2026-04-24T17:15:07.072Z</time></trkpt><trkpt lat="43.3784467" lon="11.789415"><ele>267.0</ele><time>2026-04-24T17:15:09.073Z</time></trkpt><trkpt lat="43.3784167" lon="11.7893283"><ele>267.5</ele><time>2026-04-24T17:15:12.075Z</time></trkpt><trkpt lat="43.3783717" lon="11.789235"><ele>268.0</ele><time>2026-04-24T17:15:15.072Z</time></trkpt><trkpt lat="43.3783267" lon="11.7891667"><ele>268.5</ele><time>2026-04-24T17:15:18.074Z</time></trkpt><trkpt lat="43.3782767" lon="11.7890717"><ele>269.0</ele><time>2026-04-24T17:15:21.074Z</time></trkpt><trkpt lat="43.3782167" lon="11.789"><ele>269.5</ele><time>2026-04-24T17:15:24.069Z</time></trkpt><trkpt lat="43.3781467" lon="11.7889433"><ele>270.0</ele><time>2026-04-24T17:15:27.075Z</time></trkpt><trkpt lat="43.378075" lon="11.78894"><ele>269.6666666666667</ele><time>2026-04-24T17:15:30.074Z</time></trkpt><trkpt lat="43.3780083" lon="11.7889417"><ele>269.3333333333333</ele><time>2026-04-24T17:15:33.072Z</time></trkpt><trkpt lat="43.37794" lon="11.7889117"><ele>269.0</ele><time>2026-04-24T17:15:36.074Z</time></trkpt><trkpt lat="43.377875" lon="11.788895"><ele>268.66666666666663</ele><time>2026-04-24T17:15:39.074Z</time></trkpt><trkpt lat="43.37781" lon="11.788875"><ele>268.3333333333333</ele><time>2026-04-24T17:15:41.074Z</time></trkpt><trkpt lat="43.3777217" lon="11.7888633"><ele>268.0</ele><time>2026-04-24T17:15:43.074Z</time></trkpt><trkpt lat="43.3776083" lon="11.7888533"><ele>268.0</ele><time>2026-04-24T17:15:45.076Z</time></trkpt><trkpt lat="43.3775017" lon="11.7888367"><ele>268.0</ele><time>2026-04-24T17:15:47.077Z</time></trkpt><trkpt lat="43.3773917" lon="11.7888233"><ele>268.0</ele><time>2026-04-24T17:15:49.072Z</time></trkpt><trkpt lat="43.377285" lon="11.7888117"><ele>268.0</ele><time>2026-04-24T17:15:51.075Z</time></trkpt><trkpt lat="43.3771883" lon="11.7887983"><ele>268.0</ele><time>2026-04-24T17:15:53.076Z</time></trkpt><trkpt lat="43.3770883" lon="11.7887833"><ele>267.8571428571429</ele><time>2026-04-24T17:15:55.074Z</time></trkpt><trkpt lat="43.3770083" lon="11.7887783"><ele>267.7142857142857</ele><time>2026-04-24T17:15:57.077Z</time></trkpt><trkpt lat="43.37693" lon="11.7887783"><ele>267.57142857142856</ele><time>2026-04-24T17:15:59.075Z</time></trkpt><trkpt lat="43.376865" lon="11.7887833"><ele>267.42857142857144</ele><time>2026-04-24T17:16:01.073Z</time></trkpt><trkpt lat="43.3767917" lon="11.7887667"><ele>267.2857142857143</ele><time>2026-04-24T17:16:04.071Z</time></trkpt><trkpt lat="43.3767167" lon="11.7887533"><ele>267.14285714285717</ele><time>2026-04-24T17:16:08.074Z</time></trkpt><trkpt lat="43.3766433" lon="11.788755"><ele>267.0</ele><time>2026-04-24T17:16:12.074Z</time></trkpt><trkpt lat="43.3765633" lon="11.7887567"><ele>267.00000000000006</ele><time>2026-04-24T17:16:16.073Z</time></trkpt><trkpt lat="43.376485" lon="11.78875"><ele>267.0</ele><time>2026-04-24T17:16:20.074Z</time></trkpt><trkpt lat="43.3764217" lon="11.7887467"><ele>267.0</ele><time>2026-04-24T17:16:23.073Z</time></trkpt><trkpt lat="43.3763383" lon="11.7887417"><ele>267.0</ele><time>2026-04-24T17:16:27.073Z</time></trkpt><trkpt lat="43.376255" lon="11.7887367"><ele>267.0</ele><time>2026-04-24T17:16:31.074Z</time></trkpt><trkpt lat="43.3761883" lon="11.7887433"><ele>267.00000000000006</ele><time>2026-04-24T17:16:35.071Z</time></trkpt><trkpt lat="43.3761167" lon="11.7887367"><ele>267.0</ele><time>2026-04-24T17:16:39.072Z</time></trkpt><trkpt lat="43.3760433" lon="11.7887333"><ele>267.5</ele><time>2026-04-24T17:16:43.072Z</time></trkpt><trkpt lat="43.3759217" lon="11.7887067"><ele>268.0</ele><time>2026-04-24T17:17:02.075Z</time></trkpt><trkpt lat="43.375845" lon="11.78871"><ele>268.5</ele><time>2026-04-24T17:17:07.075Z</time></trkpt><trkpt lat="43.3757733" lon="11.7887"><ele>269.0</ele><time>2026-04-24T17:17:11.074Z</time></trkpt><trkpt lat="43.375695" lon="11.7886817"><ele>269.5</ele><time>2026-04-24T17:17:15.075Z</time></trkpt><trkpt lat="43.3756167" lon="11.78866"><ele>270.0</ele><time>2026-04-24T17:17:21.074Z</time></trkpt><trkpt lat="43.3755867" lon="11.788575"><ele>270.2857142857143</ele><time>2026-04-24T17:17:26.075Z</time></trkpt><trkpt lat="43.375585" lon="11.7884733"><ele>270.57142857142856</ele><time>2026-04-24T17:17:30.076Z</time></trkpt><trkpt lat="43.3755583" lon="11.788375"><ele>270.85714285714283</ele><time>2026-04-24T17:17:34.08Z</time></trkpt><trkpt lat="43.37553" lon="11.7882783"><ele>271.1428571428571</ele><time>2026-04-24T17:17:39.074Z</time></trkpt><trkpt lat="43.37551" lon="11.78819"><ele>271.42857142857144</ele><time>2026-04-24T17:17:44.075Z</time></trkpt><trkpt lat="43.375485" lon="11.7880833"><ele>271.71428571428567</ele><time>2026-04-24T17:17:48.074Z</time></trkpt><trkpt lat="43.3754567" lon="11.7879983"><ele>272.0</ele><time>2026-04-24T17:17:52.073Z</time></trkpt><trkpt lat="43.3754433" lon="11.7879067"><ele>271.99999999999994</ele><time>2026-04-24T17:17:56.074Z</time></trkpt><trkpt lat="43.3754367" lon="11.7878133"><ele>272.0</ele><time>2026-04-24T17:17:59.074Z</time></trkpt><trkpt lat="43.37545" lon="11.7877067"><ele>272.0</ele><time>2026-04-24T17:18:03.073Z</time></trkpt><trkpt lat="43.3755033" lon="11.7876483"><ele>272.0</ele><time>2026-04-24T17:18:08.073Z</time></trkpt><trkpt lat="43.3755733" lon="11.7876517"><ele>272.0</ele><time>2026-04-24T17:18:28.073Z</time></trkpt><trkpt lat="43.3756367" lon="11.78769"><ele>271.99999999999994</ele><time>2026-04-24T17:18:31.073Z</time></trkpt><trkpt lat="43.3757017" lon="11.7877367"><ele>272.0</ele><time>2026-04-24T17:18:35.073Z</time></trkpt><trkpt lat="43.3757733" lon="11.7877533"><ele>272.0</ele><time>2026-04-24T17:18:39.073Z</time></trkpt><trkpt lat="43.3758367" lon="11.7877333"><ele>272.0</ele><time>2026-04-24T17:18:47.072Z</time></trkpt><trkpt lat="43.3758902" lon="11.7877869"><ele>272.0</ele><time>2026-04-24T17:19:05.134Z</time></trkpt></trkseg></trk></gpx>